<?xml version="1.0" encoding="UTF-8" standalone="no" ?>
<gpx xmlns="http://www.topografix.com/GPX/1/1" xmlns:xsi="http://www.w3.org/2001/XMLSchema-instance" xsi:schemaLocation="http://www.topografix.com/GPX/1/1 http://www.topografix.com/GPX/1/1/gpx.xsd" version="1.1" creator="VisuGPX - https://www.visugpx.com">
  <metadata>
    <name>THOLLON</name>
    <desc><![CDATA[mars 2016 ski Thollon ]]></desc>
  </metadata>
  <trk>
    <name><![CDATA[THOLLON_1]]></name>
    <trkseg>
      <trkpt lat="46.37984" lon="6.72447">
        <ele>1653.9</ele>
        <time>2016-03-22T08:07:48Z</time>
      </trkpt>
      <trkpt lat="46.37983" lon="6.72448">
        <ele>1654</ele>
        <time>2016-03-22T08:07:48Z</time>
      </trkpt>
      <trkpt lat="46.37983" lon="6.72448">
        <ele>1654</ele>
        <time>2016-03-22T08:07:54Z</time>
      </trkpt>
      <trkpt lat="46.37984" lon="6.72459">
        <ele>1649.4</ele>
        <time>2016-03-22T08:08:36Z</time>
      </trkpt>
      <trkpt lat="46.37983" lon="6.72472">
        <ele>1648.3</ele>
        <time>2016-03-22T08:08:40Z</time>
      </trkpt>
      <trkpt lat="46.37982" lon="6.72484">
        <ele>1647.5</ele>
        <time>2016-03-22T08:08:44Z</time>
      </trkpt>
      <trkpt lat="46.37981" lon="6.72496">
        <ele>1646.9</ele>
        <time>2016-03-22T08:08:48Z</time>
      </trkpt>
      <trkpt lat="46.3798" lon="6.72509">
        <ele>1646.5</ele>
        <time>2016-03-22T08:08:51Z</time>
      </trkpt>
      <trkpt lat="46.37978" lon="6.72521">
        <ele>1644.9</ele>
        <time>2016-03-22T08:08:53Z</time>
      </trkpt>
      <trkpt lat="46.37976" lon="6.72533">
        <ele>1643.8</ele>
        <time>2016-03-22T08:08:55Z</time>
      </trkpt>
      <trkpt lat="46.37975" lon="6.72546">
        <ele>1642.9</ele>
        <time>2016-03-22T08:08:57Z</time>
      </trkpt>
      <trkpt lat="46.37974" lon="6.72558">
        <ele>1641.6</ele>
        <time>2016-03-22T08:08:59Z</time>
      </trkpt>
      <trkpt lat="46.37974" lon="6.72569">
        <ele>1640.6</ele>
        <time>2016-03-22T08:09:01Z</time>
      </trkpt>
      <trkpt lat="46.37973" lon="6.72581">
        <ele>1640.4</ele>
        <time>2016-03-22T08:09:03Z</time>
      </trkpt>
      <trkpt lat="46.37973" lon="6.72593">
        <ele>1639.9</ele>
        <time>2016-03-22T08:09:05Z</time>
      </trkpt>
      <trkpt lat="46.37972" lon="6.72603">
        <ele>1638.6</ele>
        <time>2016-03-22T08:09:07Z</time>
      </trkpt>
      <trkpt lat="46.37973" lon="6.72616">
        <ele>1636</ele>
        <time>2016-03-22T08:09:11Z</time>
      </trkpt>
      <trkpt lat="46.37973" lon="6.72628">
        <ele>1632</ele>
        <time>2016-03-22T08:09:13Z</time>
      </trkpt>
      <trkpt lat="46.37973" lon="6.7264">
        <ele>1631.6</ele>
        <time>2016-03-22T08:09:16Z</time>
      </trkpt>
      <trkpt lat="46.37973" lon="6.72651">
        <ele>1632</ele>
        <time>2016-03-22T08:09:19Z</time>
      </trkpt>
      <trkpt lat="46.37973" lon="6.72662">
        <ele>1634.8</ele>
        <time>2016-03-22T08:09:23Z</time>
      </trkpt>
      <trkpt lat="46.37972" lon="6.72673">
        <ele>1635</ele>
        <time>2016-03-22T08:09:27Z</time>
      </trkpt>
      <trkpt lat="46.3797" lon="6.72684">
        <ele>1633.6</ele>
        <time>2016-03-22T08:09:29Z</time>
      </trkpt>
      <trkpt lat="46.37969" lon="6.72695">
        <ele>1632.4</ele>
        <time>2016-03-22T08:09:33Z</time>
      </trkpt>
      <trkpt lat="46.37968" lon="6.72708">
        <ele>1633</ele>
        <time>2016-03-22T08:09:37Z</time>
      </trkpt>
      <trkpt lat="46.37967" lon="6.7272">
        <ele>1633.1</ele>
        <time>2016-03-22T08:09:40Z</time>
      </trkpt>
      <trkpt lat="46.37967" lon="6.72732">
        <ele>1633.8</ele>
        <time>2016-03-22T08:09:43Z</time>
      </trkpt>
      <trkpt lat="46.37968" lon="6.72743">
        <ele>1632.5</ele>
        <time>2016-03-22T08:09:47Z</time>
      </trkpt>
      <trkpt lat="46.37967" lon="6.72755">
        <ele>1629</ele>
        <time>2016-03-22T08:09:51Z</time>
      </trkpt>
      <trkpt lat="46.37965" lon="6.72769">
        <ele>1627.9</ele>
        <time>2016-03-22T08:09:55Z</time>
      </trkpt>
      <trkpt lat="46.37964" lon="6.72784">
        <ele>1629</ele>
        <time>2016-03-22T08:09:57Z</time>
      </trkpt>
      <trkpt lat="46.37962" lon="6.72796">
        <ele>1628.8</ele>
        <time>2016-03-22T08:09:59Z</time>
      </trkpt>
      <trkpt lat="46.37961" lon="6.72808">
        <ele>1627.5</ele>
        <time>2016-03-22T08:10:01Z</time>
      </trkpt>
      <trkpt lat="46.37959" lon="6.72819">
        <ele>1626.6</ele>
        <time>2016-03-22T08:10:03Z</time>
      </trkpt>
      <trkpt lat="46.37958" lon="6.72831">
        <ele>1625</ele>
        <time>2016-03-22T08:10:05Z</time>
      </trkpt>
      <trkpt lat="46.37958" lon="6.72842">
        <ele>1626.1</ele>
        <time>2016-03-22T08:10:07Z</time>
      </trkpt>
      <trkpt lat="46.37958" lon="6.72853">
        <ele>1625.6</ele>
        <time>2016-03-22T08:10:09Z</time>
      </trkpt>
      <trkpt lat="46.37958" lon="6.72864">
        <ele>1626.1</ele>
        <time>2016-03-22T08:10:11Z</time>
      </trkpt>
      <trkpt lat="46.37957" lon="6.72877">
        <ele>1625.3</ele>
        <time>2016-03-22T08:10:15Z</time>
      </trkpt>
      <trkpt lat="46.37957" lon="6.72889">
        <ele>1616.5</ele>
        <time>2016-03-22T08:10:20Z</time>
      </trkpt>
      <trkpt lat="46.37957" lon="6.72901">
        <ele>1613.8</ele>
        <time>2016-03-22T08:10:25Z</time>
      </trkpt>
      <trkpt lat="46.37957" lon="6.72913">
        <ele>1613.5</ele>
        <time>2016-03-22T08:10:28Z</time>
      </trkpt>
      <trkpt lat="46.37958" lon="6.72923">
        <ele>1612.9</ele>
        <time>2016-03-22T08:10:31Z</time>
      </trkpt>
      <trkpt lat="46.37959" lon="6.72934">
        <ele>1612.4</ele>
        <time>2016-03-22T08:10:35Z</time>
      </trkpt>
      <trkpt lat="46.37961" lon="6.72948">
        <ele>1611.5</ele>
        <time>2016-03-22T08:10:39Z</time>
      </trkpt>
      <trkpt lat="46.37962" lon="6.72959">
        <ele>1611.5</ele>
        <time>2016-03-22T08:10:41Z</time>
      </trkpt>
      <trkpt lat="46.37961" lon="6.72972">
        <ele>1612.5</ele>
        <time>2016-03-22T08:10:44Z</time>
      </trkpt>
      <trkpt lat="46.37961" lon="6.72984">
        <ele>1613.1</ele>
        <time>2016-03-22T08:10:47Z</time>
      </trkpt>
      <trkpt lat="46.37961" lon="6.72997">
        <ele>1614.8</ele>
        <time>2016-03-22T08:10:51Z</time>
      </trkpt>
      <trkpt lat="46.37956" lon="6.73006">
        <ele>1613.5</ele>
        <time>2016-03-22T08:10:53Z</time>
      </trkpt>
      <trkpt lat="46.37949" lon="6.73012">
        <ele>1614.5</ele>
        <time>2016-03-22T08:10:54Z</time>
      </trkpt>
      <trkpt lat="46.3794" lon="6.73011">
        <ele>1614.9</ele>
        <time>2016-03-22T08:10:56Z</time>
      </trkpt>
      <trkpt lat="46.37932" lon="6.73009">
        <ele>1617</ele>
        <time>2016-03-22T08:10:59Z</time>
      </trkpt>
      <trkpt lat="46.37924" lon="6.73006">
        <ele>1618.6</ele>
        <time>2016-03-22T08:11:01Z</time>
      </trkpt>
      <trkpt lat="46.3792" lon="6.73011">
        <ele>1617.5</ele>
        <time>2016-03-22T08:11:08Z</time>
      </trkpt>
      <trkpt lat="46.37919" lon="6.73012">
        <ele>1618.9</ele>
        <time>2016-03-22T08:11:11Z</time>
      </trkpt>
      <trkpt lat="46.37914" lon="6.73021">
        <ele>1620.4</ele>
        <time>2016-03-22T08:11:19Z</time>
      </trkpt>
      <trkpt lat="46.37908" lon="6.73031">
        <ele>1622.3</ele>
        <time>2016-03-22T08:11:23Z</time>
      </trkpt>
      <trkpt lat="46.37903" lon="6.7304">
        <ele>1624.5</ele>
        <time>2016-03-22T08:11:26Z</time>
      </trkpt>
      <trkpt lat="46.37897" lon="6.73048">
        <ele>1627.9</ele>
        <time>2016-03-22T08:11:29Z</time>
      </trkpt>
      <trkpt lat="46.37892" lon="6.73057">
        <ele>1631.4</ele>
        <time>2016-03-22T08:11:32Z</time>
      </trkpt>
      <trkpt lat="46.37887" lon="6.73066">
        <ele>1634.9</ele>
        <time>2016-03-22T08:11:35Z</time>
      </trkpt>
      <trkpt lat="46.37882" lon="6.73074">
        <ele>1638</ele>
        <time>2016-03-22T08:11:39Z</time>
      </trkpt>
      <trkpt lat="46.37876" lon="6.73085">
        <ele>1643</ele>
        <time>2016-03-22T08:11:43Z</time>
      </trkpt>
      <trkpt lat="46.3787" lon="6.73094">
        <ele>1647.6</ele>
        <time>2016-03-22T08:11:46Z</time>
      </trkpt>
      <trkpt lat="46.37865" lon="6.73103">
        <ele>1648.5</ele>
        <time>2016-03-22T08:11:51Z</time>
      </trkpt>
      <trkpt lat="46.37859" lon="6.73113">
        <ele>1648.9</ele>
        <time>2016-03-22T08:11:55Z</time>
      </trkpt>
      <trkpt lat="46.37853" lon="6.73123">
        <ele>1649.5</ele>
        <time>2016-03-22T08:11:59Z</time>
      </trkpt>
      <trkpt lat="46.37847" lon="6.73133">
        <ele>1650.4</ele>
        <time>2016-03-22T08:12:03Z</time>
      </trkpt>
      <trkpt lat="46.37841" lon="6.73143">
        <ele>1651.6</ele>
        <time>2016-03-22T08:12:07Z</time>
      </trkpt>
      <trkpt lat="46.37836" lon="6.73151">
        <ele>1652.8</ele>
        <time>2016-03-22T08:12:09Z</time>
      </trkpt>
      <trkpt lat="46.37831" lon="6.73159">
        <ele>1654</ele>
        <time>2016-03-22T08:12:12Z</time>
      </trkpt>
      <trkpt lat="46.37827" lon="6.73167">
        <ele>1655</ele>
        <time>2016-03-22T08:12:15Z</time>
      </trkpt>
      <trkpt lat="46.37822" lon="6.73175">
        <ele>1657</ele>
        <time>2016-03-22T08:12:18Z</time>
      </trkpt>
      <trkpt lat="46.37817" lon="6.73183">
        <ele>1659</ele>
        <time>2016-03-22T08:12:22Z</time>
      </trkpt>
      <trkpt lat="46.37811" lon="6.73193">
        <ele>1660.4</ele>
        <time>2016-03-22T08:12:25Z</time>
      </trkpt>
      <trkpt lat="46.37805" lon="6.73203">
        <ele>1661.4</ele>
        <time>2016-03-22T08:12:29Z</time>
      </trkpt>
      <trkpt lat="46.37799" lon="6.73213">
        <ele>1661.9</ele>
        <time>2016-03-22T08:12:33Z</time>
      </trkpt>
      <trkpt lat="46.37793" lon="6.73223">
        <ele>1661.9</ele>
        <time>2016-03-22T08:12:37Z</time>
      </trkpt>
      <trkpt lat="46.37787" lon="6.73233">
        <ele>1663.8</ele>
        <time>2016-03-22T08:12:41Z</time>
      </trkpt>
      <trkpt lat="46.37781" lon="6.73243">
        <ele>1664.4</ele>
        <time>2016-03-22T08:12:45Z</time>
      </trkpt>
      <trkpt lat="46.37775" lon="6.73253">
        <ele>1665.6</ele>
        <time>2016-03-22T08:12:49Z</time>
      </trkpt>
      <trkpt lat="46.37769" lon="6.73263">
        <ele>1667</ele>
        <time>2016-03-22T08:12:54Z</time>
      </trkpt>
      <trkpt lat="46.37763" lon="6.73273">
        <ele>1667.6</ele>
        <time>2016-03-22T08:12:58Z</time>
      </trkpt>
      <trkpt lat="46.37756" lon="6.73283">
        <ele>1669.5</ele>
        <time>2016-03-22T08:13:01Z</time>
      </trkpt>
      <trkpt lat="46.37751" lon="6.73293">
        <ele>1670.9</ele>
        <time>2016-03-22T08:13:05Z</time>
      </trkpt>
      <trkpt lat="46.37745" lon="6.73302">
        <ele>1672.5</ele>
        <time>2016-03-22T08:13:09Z</time>
      </trkpt>
      <trkpt lat="46.37739" lon="6.73313">
        <ele>1673.4</ele>
        <time>2016-03-22T08:13:13Z</time>
      </trkpt>
      <trkpt lat="46.37733" lon="6.73323">
        <ele>1674</ele>
        <time>2016-03-22T08:13:17Z</time>
      </trkpt>
      <trkpt lat="46.37727" lon="6.73333">
        <ele>1675.3</ele>
        <time>2016-03-22T08:13:21Z</time>
      </trkpt>
      <trkpt lat="46.37721" lon="6.73343">
        <ele>1676.4</ele>
        <time>2016-03-22T08:13:25Z</time>
      </trkpt>
      <trkpt lat="46.37714" lon="6.73353">
        <ele>1677</ele>
        <time>2016-03-22T08:13:29Z</time>
      </trkpt>
      <trkpt lat="46.37708" lon="6.73364">
        <ele>1678.1</ele>
        <time>2016-03-22T08:13:34Z</time>
      </trkpt>
      <trkpt lat="46.37702" lon="6.73374">
        <ele>1679.8</ele>
        <time>2016-03-22T08:13:37Z</time>
      </trkpt>
      <trkpt lat="46.37696" lon="6.73384">
        <ele>1681</ele>
        <time>2016-03-22T08:13:41Z</time>
      </trkpt>
      <trkpt lat="46.37691" lon="6.73394">
        <ele>1683.1</ele>
        <time>2016-03-22T08:13:45Z</time>
      </trkpt>
      <trkpt lat="46.37685" lon="6.73404">
        <ele>1684.3</ele>
        <time>2016-03-22T08:13:49Z</time>
      </trkpt>
      <trkpt lat="46.37679" lon="6.73413">
        <ele>1687</ele>
        <time>2016-03-22T08:13:54Z</time>
      </trkpt>
      <trkpt lat="46.37673" lon="6.73423">
        <ele>1690.1</ele>
        <time>2016-03-22T08:13:57Z</time>
      </trkpt>
      <trkpt lat="46.37666" lon="6.73432">
        <ele>1693.9</ele>
        <time>2016-03-22T08:14:01Z</time>
      </trkpt>
      <trkpt lat="46.3766" lon="6.73442">
        <ele>1697.6</ele>
        <time>2016-03-22T08:14:06Z</time>
      </trkpt>
      <trkpt lat="46.37654" lon="6.73452">
        <ele>1701.4</ele>
        <time>2016-03-22T08:14:09Z</time>
      </trkpt>
      <trkpt lat="46.37648" lon="6.73461">
        <ele>1705.4</ele>
        <time>2016-03-22T08:14:13Z</time>
      </trkpt>
      <trkpt lat="46.37642" lon="6.73471">
        <ele>1709.4</ele>
        <time>2016-03-22T08:14:17Z</time>
      </trkpt>
      <trkpt lat="46.37637" lon="6.7348">
        <ele>1712.8</ele>
        <time>2016-03-22T08:14:22Z</time>
      </trkpt>
      <trkpt lat="46.37632" lon="6.73488">
        <ele>1716.5</ele>
        <time>2016-03-22T08:14:25Z</time>
      </trkpt>
      <trkpt lat="46.37627" lon="6.73497">
        <ele>1719.8</ele>
        <time>2016-03-22T08:14:30Z</time>
      </trkpt>
      <trkpt lat="46.37621" lon="6.73507">
        <ele>1723.5</ele>
        <time>2016-03-22T08:14:33Z</time>
      </trkpt>
      <trkpt lat="46.37615" lon="6.73517">
        <ele>1726.9</ele>
        <time>2016-03-22T08:14:37Z</time>
      </trkpt>
      <trkpt lat="46.37609" lon="6.73526">
        <ele>1730.1</ele>
        <time>2016-03-22T08:14:41Z</time>
      </trkpt>
      <trkpt lat="46.37604" lon="6.73536">
        <ele>1734.1</ele>
        <time>2016-03-22T08:14:45Z</time>
      </trkpt>
      <trkpt lat="46.37598" lon="6.73546">
        <ele>1738</ele>
        <time>2016-03-22T08:14:49Z</time>
      </trkpt>
      <trkpt lat="46.37593" lon="6.73555">
        <ele>1742.5</ele>
        <time>2016-03-22T08:14:53Z</time>
      </trkpt>
      <trkpt lat="46.37587" lon="6.73564">
        <ele>1747</ele>
        <time>2016-03-22T08:14:57Z</time>
      </trkpt>
      <trkpt lat="46.37582" lon="6.73574">
        <ele>1751.3</ele>
        <time>2016-03-22T08:15:01Z</time>
      </trkpt>
      <trkpt lat="46.37576" lon="6.73583">
        <ele>1756</ele>
        <time>2016-03-22T08:15:05Z</time>
      </trkpt>
      <trkpt lat="46.37571" lon="6.73592">
        <ele>1759</ele>
        <time>2016-03-22T08:15:09Z</time>
      </trkpt>
      <trkpt lat="46.37565" lon="6.73602">
        <ele>1762.3</ele>
        <time>2016-03-22T08:15:13Z</time>
      </trkpt>
      <trkpt lat="46.37559" lon="6.73611">
        <ele>1765.4</ele>
        <time>2016-03-22T08:15:17Z</time>
      </trkpt>
      <trkpt lat="46.37554" lon="6.73621">
        <ele>1768.5</ele>
        <time>2016-03-22T08:15:21Z</time>
      </trkpt>
      <trkpt lat="46.37548" lon="6.73631">
        <ele>1772</ele>
        <time>2016-03-22T08:15:25Z</time>
      </trkpt>
      <trkpt lat="46.37543" lon="6.7364">
        <ele>1775.3</ele>
        <time>2016-03-22T08:15:29Z</time>
      </trkpt>
      <trkpt lat="46.37537" lon="6.73649">
        <ele>1778.9</ele>
        <time>2016-03-22T08:15:33Z</time>
      </trkpt>
      <trkpt lat="46.37532" lon="6.73659">
        <ele>1782.8</ele>
        <time>2016-03-22T08:15:37Z</time>
      </trkpt>
      <trkpt lat="46.37526" lon="6.73668">
        <ele>1785.8</ele>
        <time>2016-03-22T08:15:41Z</time>
      </trkpt>
      <trkpt lat="46.37521" lon="6.73677">
        <ele>1790.3</ele>
        <time>2016-03-22T08:15:45Z</time>
      </trkpt>
      <trkpt lat="46.37515" lon="6.73686">
        <ele>1793</ele>
        <time>2016-03-22T08:15:50Z</time>
      </trkpt>
      <trkpt lat="46.3751" lon="6.73695">
        <ele>1796.9</ele>
        <time>2016-03-22T08:15:53Z</time>
      </trkpt>
      <trkpt lat="46.37505" lon="6.73704">
        <ele>1798.8</ele>
        <time>2016-03-22T08:15:57Z</time>
      </trkpt>
      <trkpt lat="46.37499" lon="6.73714">
        <ele>1801</ele>
        <time>2016-03-22T08:16:02Z</time>
      </trkpt>
      <trkpt lat="46.37493" lon="6.73724">
        <ele>1803.5</ele>
        <time>2016-03-22T08:16:05Z</time>
      </trkpt>
      <trkpt lat="46.37487" lon="6.73734">
        <ele>1805.1</ele>
        <time>2016-03-22T08:16:09Z</time>
      </trkpt>
      <trkpt lat="46.37481" lon="6.73744">
        <ele>1807.4</ele>
        <time>2016-03-22T08:16:13Z</time>
      </trkpt>
      <trkpt lat="46.37475" lon="6.73754">
        <ele>1809.5</ele>
        <time>2016-03-22T08:16:17Z</time>
      </trkpt>
      <trkpt lat="46.37469" lon="6.73764">
        <ele>1809.9</ele>
        <time>2016-03-22T08:16:21Z</time>
      </trkpt>
      <trkpt lat="46.37464" lon="6.73774">
        <ele>1810.1</ele>
        <time>2016-03-22T08:16:25Z</time>
      </trkpt>
      <trkpt lat="46.37458" lon="6.73784">
        <ele>1810.5</ele>
        <time>2016-03-22T08:16:29Z</time>
      </trkpt>
      <trkpt lat="46.37452" lon="6.73794">
        <ele>1810.8</ele>
        <time>2016-03-22T08:16:33Z</time>
      </trkpt>
      <trkpt lat="46.37446" lon="6.73804">
        <ele>1811.1</ele>
        <time>2016-03-22T08:16:38Z</time>
      </trkpt>
      <trkpt lat="46.3744" lon="6.73814">
        <ele>1811.1</ele>
        <time>2016-03-22T08:16:41Z</time>
      </trkpt>
      <trkpt lat="46.37434" lon="6.73823">
        <ele>1811.5</ele>
        <time>2016-03-22T08:16:45Z</time>
      </trkpt>
      <trkpt lat="46.37429" lon="6.73833">
        <ele>1812</ele>
        <time>2016-03-22T08:16:49Z</time>
      </trkpt>
      <trkpt lat="46.37423" lon="6.73843">
        <ele>1812.9</ele>
        <time>2016-03-22T08:16:53Z</time>
      </trkpt>
      <trkpt lat="46.37417" lon="6.73853">
        <ele>1813.5</ele>
        <time>2016-03-22T08:16:57Z</time>
      </trkpt>
      <trkpt lat="46.37411" lon="6.73862">
        <ele>1814.5</ele>
        <time>2016-03-22T08:17:01Z</time>
      </trkpt>
      <trkpt lat="46.37405" lon="6.73872">
        <ele>1814.5</ele>
        <time>2016-03-22T08:17:05Z</time>
      </trkpt>
      <trkpt lat="46.374" lon="6.73879">
        <ele>1816</ele>
        <time>2016-03-22T08:17:09Z</time>
      </trkpt>
      <trkpt lat="46.37394" lon="6.73889">
        <ele>1819.1</ele>
        <time>2016-03-22T08:17:14Z</time>
      </trkpt>
      <trkpt lat="46.37389" lon="6.73898">
        <ele>1822.4</ele>
        <time>2016-03-22T08:17:17Z</time>
      </trkpt>
      <trkpt lat="46.37383" lon="6.73908">
        <ele>1826</ele>
        <time>2016-03-22T08:17:21Z</time>
      </trkpt>
      <trkpt lat="46.37376" lon="6.73918">
        <ele>1829.3</ele>
        <time>2016-03-22T08:17:25Z</time>
      </trkpt>
      <trkpt lat="46.37371" lon="6.73927">
        <ele>1832.4</ele>
        <time>2016-03-22T08:17:29Z</time>
      </trkpt>
      <trkpt lat="46.37365" lon="6.73936">
        <ele>1836</ele>
        <time>2016-03-22T08:17:34Z</time>
      </trkpt>
      <trkpt lat="46.37359" lon="6.73945">
        <ele>1839.4</ele>
        <time>2016-03-22T08:17:38Z</time>
      </trkpt>
      <trkpt lat="46.37354" lon="6.73954">
        <ele>1842.8</ele>
        <time>2016-03-22T08:17:41Z</time>
      </trkpt>
      <trkpt lat="46.37348" lon="6.73963">
        <ele>1846.3</ele>
        <time>2016-03-22T08:17:45Z</time>
      </trkpt>
      <trkpt lat="46.37342" lon="6.73972">
        <ele>1849.4</ele>
        <time>2016-03-22T08:17:49Z</time>
      </trkpt>
      <trkpt lat="46.37337" lon="6.73981">
        <ele>1851.8</ele>
        <time>2016-03-22T08:17:53Z</time>
      </trkpt>
      <trkpt lat="46.37331" lon="6.7399">
        <ele>1853.9</ele>
        <time>2016-03-22T08:17:57Z</time>
      </trkpt>
      <trkpt lat="46.37326" lon="6.73999">
        <ele>1856</ele>
        <time>2016-03-22T08:18:01Z</time>
      </trkpt>
      <trkpt lat="46.3732" lon="6.74008">
        <ele>1858.6</ele>
        <time>2016-03-22T08:18:05Z</time>
      </trkpt>
      <trkpt lat="46.37314" lon="6.74017">
        <ele>1861.5</ele>
        <time>2016-03-22T08:18:09Z</time>
      </trkpt>
      <trkpt lat="46.37308" lon="6.74027">
        <ele>1864.5</ele>
        <time>2016-03-22T08:18:13Z</time>
      </trkpt>
      <trkpt lat="46.37303" lon="6.74036">
        <ele>1866.9</ele>
        <time>2016-03-22T08:18:17Z</time>
      </trkpt>
      <trkpt lat="46.37297" lon="6.74045">
        <ele>1870</ele>
        <time>2016-03-22T08:18:21Z</time>
      </trkpt>
      <trkpt lat="46.37291" lon="6.74055">
        <ele>1874.4</ele>
        <time>2016-03-22T08:18:26Z</time>
      </trkpt>
      <trkpt lat="46.37285" lon="6.74066">
        <ele>1878.9</ele>
        <time>2016-03-22T08:18:29Z</time>
      </trkpt>
      <trkpt lat="46.37281" lon="6.74074">
        <ele>1882.1</ele>
        <time>2016-03-22T08:18:32Z</time>
      </trkpt>
      <trkpt lat="46.37275" lon="6.74085">
        <ele>1885.6</ele>
        <time>2016-03-22T08:18:36Z</time>
      </trkpt>
      <trkpt lat="46.37269" lon="6.74095">
        <ele>1890</ele>
        <time>2016-03-22T08:18:40Z</time>
      </trkpt>
      <trkpt lat="46.37263" lon="6.74105">
        <ele>1892.5</ele>
        <time>2016-03-22T08:18:44Z</time>
      </trkpt>
      <trkpt lat="46.37257" lon="6.74115">
        <ele>1895.3</ele>
        <time>2016-03-22T08:18:48Z</time>
      </trkpt>
      <trkpt lat="46.37251" lon="6.74124">
        <ele>1898.6</ele>
        <time>2016-03-22T08:18:52Z</time>
      </trkpt>
      <trkpt lat="46.37246" lon="6.74134">
        <ele>1901.4</ele>
        <time>2016-03-22T08:18:56Z</time>
      </trkpt>
      <trkpt lat="46.3724" lon="6.74143">
        <ele>1905</ele>
        <time>2016-03-22T08:19:00Z</time>
      </trkpt>
      <trkpt lat="46.37234" lon="6.74153">
        <ele>1908.5</ele>
        <time>2016-03-22T08:19:04Z</time>
      </trkpt>
      <trkpt lat="46.37228" lon="6.74161">
        <ele>1911.9</ele>
        <time>2016-03-22T08:19:08Z</time>
      </trkpt>
      <trkpt lat="46.37223" lon="6.7417">
        <ele>1912.6</ele>
        <time>2016-03-22T08:19:12Z</time>
      </trkpt>
      <trkpt lat="46.37217" lon="6.74179">
        <ele>1915</ele>
        <time>2016-03-22T08:19:16Z</time>
      </trkpt>
      <trkpt lat="46.37212" lon="6.74189">
        <ele>1917.4</ele>
        <time>2016-03-22T08:19:20Z</time>
      </trkpt>
      <trkpt lat="46.37206" lon="6.74198">
        <ele>1919.1</ele>
        <time>2016-03-22T08:19:24Z</time>
      </trkpt>
      <trkpt lat="46.372" lon="6.74208">
        <ele>1922.4</ele>
        <time>2016-03-22T08:19:28Z</time>
      </trkpt>
      <trkpt lat="46.37193" lon="6.74219">
        <ele>1922.6</ele>
        <time>2016-03-22T08:19:32Z</time>
      </trkpt>
      <trkpt lat="46.37187" lon="6.74229">
        <ele>1923</ele>
        <time>2016-03-22T08:19:37Z</time>
      </trkpt>
      <trkpt lat="46.3718" lon="6.74239">
        <ele>1922.6</ele>
        <time>2016-03-22T08:19:40Z</time>
      </trkpt>
      <trkpt lat="46.37178" lon="6.74249">
        <ele>1922.4</ele>
        <time>2016-03-22T08:19:42Z</time>
      </trkpt>
      <trkpt lat="46.37176" lon="6.74259">
        <ele>1922.3</ele>
        <time>2016-03-22T08:19:45Z</time>
      </trkpt>
      <trkpt lat="46.37175" lon="6.7427">
        <ele>1921.5</ele>
        <time>2016-03-22T08:19:49Z</time>
      </trkpt>
      <trkpt lat="46.37181" lon="6.74276">
        <ele>1921.5</ele>
        <time>2016-03-22T08:19:54Z</time>
      </trkpt>
      <trkpt lat="46.37181" lon="6.74276">
        <ele>1921.3</ele>
        <time>2016-03-22T08:20:01Z</time>
      </trkpt>
      <trkpt lat="46.37183" lon="6.74274">
        <ele>1921</ele>
        <time>2016-03-22T08:20:16Z</time>
      </trkpt>
      <trkpt lat="46.37183" lon="6.74274">
        <ele>1921</ele>
        <time>2016-03-22T08:20:17Z</time>
      </trkpt>
      <trkpt lat="46.37186" lon="6.74269">
        <ele>1920.8</ele>
        <time>2016-03-22T08:21:48Z</time>
      </trkpt>
      <trkpt lat="46.37187" lon="6.74269">
        <ele>1920.4</ele>
        <time>2016-03-22T08:21:48Z</time>
      </trkpt>
      <trkpt lat="46.37187" lon="6.74269">
        <ele>1922.8</ele>
        <time>2016-03-22T08:21:56Z</time>
      </trkpt>
      <trkpt lat="46.37187" lon="6.74268">
        <ele>1922.5</ele>
        <time>2016-03-22T08:21:58Z</time>
      </trkpt>
      <trkpt lat="46.37186" lon="6.74268">
        <ele>1922</ele>
        <time>2016-03-22T08:22:15Z</time>
      </trkpt>
      <trkpt lat="46.37186" lon="6.74267">
        <ele>1922</ele>
        <time>2016-03-22T08:22:15Z</time>
      </trkpt>
      <trkpt lat="46.37191" lon="6.74261">
        <ele>1918</ele>
        <time>2016-03-22T08:23:16Z</time>
      </trkpt>
      <trkpt lat="46.37199" lon="6.74257">
        <ele>1917.5</ele>
        <time>2016-03-22T08:23:20Z</time>
      </trkpt>
      <trkpt lat="46.37206" lon="6.74253">
        <ele>1918.4</ele>
        <time>2016-03-22T08:23:23Z</time>
      </trkpt>
      <trkpt lat="46.37213" lon="6.74248">
        <ele>1917.1</ele>
        <time>2016-03-22T08:23:24Z</time>
      </trkpt>
      <trkpt lat="46.37219" lon="6.74239">
        <ele>1917.3</ele>
        <time>2016-03-22T08:23:27Z</time>
      </trkpt>
      <trkpt lat="46.37223" lon="6.74227">
        <ele>1916</ele>
        <time>2016-03-22T08:23:28Z</time>
      </trkpt>
      <trkpt lat="46.37229" lon="6.74211">
        <ele>1914</ele>
        <time>2016-03-22T08:23:31Z</time>
      </trkpt>
      <trkpt lat="46.37239" lon="6.74207">
        <ele>1911</ele>
        <time>2016-03-22T08:23:32Z</time>
      </trkpt>
      <trkpt lat="46.3725" lon="6.74208">
        <ele>1909.3</ele>
        <time>2016-03-22T08:23:34Z</time>
      </trkpt>
      <trkpt lat="46.37259" lon="6.74198">
        <ele>1906.3</ele>
        <time>2016-03-22T08:23:37Z</time>
      </trkpt>
      <trkpt lat="46.37265" lon="6.74181">
        <ele>1903.5</ele>
        <time>2016-03-22T08:23:38Z</time>
      </trkpt>
      <trkpt lat="46.37277" lon="6.74171">
        <ele>1899.4</ele>
        <time>2016-03-22T08:23:41Z</time>
      </trkpt>
      <trkpt lat="46.37285" lon="6.74169">
        <ele>1898.8</ele>
        <time>2016-03-22T08:23:41Z</time>
      </trkpt>
      <trkpt lat="46.37292" lon="6.74164">
        <ele>1898.3</ele>
        <time>2016-03-22T08:23:42Z</time>
      </trkpt>
      <trkpt lat="46.373" lon="6.74145">
        <ele>1893.8</ele>
        <time>2016-03-22T08:23:44Z</time>
      </trkpt>
      <trkpt lat="46.37306" lon="6.74135">
        <ele>1891.4</ele>
        <time>2016-03-22T08:23:45Z</time>
      </trkpt>
      <trkpt lat="46.37313" lon="6.74128">
        <ele>1888</ele>
        <time>2016-03-22T08:23:47Z</time>
      </trkpt>
      <trkpt lat="46.3732" lon="6.74124">
        <ele>1885.6</ele>
        <time>2016-03-22T08:23:47Z</time>
      </trkpt>
      <trkpt lat="46.37327" lon="6.74115">
        <ele>1882.5</ele>
        <time>2016-03-22T08:23:48Z</time>
      </trkpt>
      <trkpt lat="46.37331" lon="6.74105">
        <ele>1879.5</ele>
        <time>2016-03-22T08:23:49Z</time>
      </trkpt>
      <trkpt lat="46.37337" lon="6.74093">
        <ele>1875.8</ele>
        <time>2016-03-22T08:23:51Z</time>
      </trkpt>
      <trkpt lat="46.37345" lon="6.74086">
        <ele>1872.1</ele>
        <time>2016-03-22T08:23:52Z</time>
      </trkpt>
      <trkpt lat="46.37353" lon="6.74082">
        <ele>1870</ele>
        <time>2016-03-22T08:23:52Z</time>
      </trkpt>
      <trkpt lat="46.37361" lon="6.74075">
        <ele>1866.9</ele>
        <time>2016-03-22T08:23:53Z</time>
      </trkpt>
      <trkpt lat="46.37365" lon="6.74066">
        <ele>1864.5</ele>
        <time>2016-03-22T08:23:54Z</time>
      </trkpt>
      <trkpt lat="46.37371" lon="6.74055">
        <ele>1863.4</ele>
        <time>2016-03-22T08:23:56Z</time>
      </trkpt>
      <trkpt lat="46.37378" lon="6.74049">
        <ele>1862</ele>
        <time>2016-03-22T08:23:56Z</time>
      </trkpt>
      <trkpt lat="46.37386" lon="6.74045">
        <ele>1861.1</ele>
        <time>2016-03-22T08:23:57Z</time>
      </trkpt>
      <trkpt lat="46.37393" lon="6.74039">
        <ele>1859.5</ele>
        <time>2016-03-22T08:23:59Z</time>
      </trkpt>
      <trkpt lat="46.37399" lon="6.74031">
        <ele>1858</ele>
        <time>2016-03-22T08:24:00Z</time>
      </trkpt>
      <trkpt lat="46.37403" lon="6.74017">
        <ele>1854.4</ele>
        <time>2016-03-22T08:24:00Z</time>
      </trkpt>
      <trkpt lat="46.37409" lon="6.74007">
        <ele>1851.4</ele>
        <time>2016-03-22T08:24:01Z</time>
      </trkpt>
      <trkpt lat="46.37416" lon="6.74">
        <ele>1849.3</ele>
        <time>2016-03-22T08:24:03Z</time>
      </trkpt>
      <trkpt lat="46.37423" lon="6.73993">
        <ele>1847.5</ele>
        <time>2016-03-22T08:24:03Z</time>
      </trkpt>
      <trkpt lat="46.37426" lon="6.73982">
        <ele>1846.5</ele>
        <time>2016-03-22T08:24:04Z</time>
      </trkpt>
      <trkpt lat="46.37427" lon="6.73971">
        <ele>1844.3</ele>
        <time>2016-03-22T08:24:05Z</time>
      </trkpt>
      <trkpt lat="46.37429" lon="6.73961">
        <ele>1842.8</ele>
        <time>2016-03-22T08:24:06Z</time>
      </trkpt>
      <trkpt lat="46.37433" lon="6.73941">
        <ele>1837.8</ele>
        <time>2016-03-22T08:24:08Z</time>
      </trkpt>
      <trkpt lat="46.37434" lon="6.73928">
        <ele>1835.5</ele>
        <time>2016-03-22T08:24:09Z</time>
      </trkpt>
      <trkpt lat="46.37437" lon="6.73917">
        <ele>1834</ele>
        <time>2016-03-22T08:24:10Z</time>
      </trkpt>
      <trkpt lat="46.3744" lon="6.73905">
        <ele>1832.8</ele>
        <time>2016-03-22T08:24:11Z</time>
      </trkpt>
      <trkpt lat="46.37447" lon="6.73895">
        <ele>1829.6</ele>
        <time>2016-03-22T08:24:13Z</time>
      </trkpt>
      <trkpt lat="46.37453" lon="6.73883">
        <ele>1827.8</ele>
        <time>2016-03-22T08:24:13Z</time>
      </trkpt>
      <trkpt lat="46.3746" lon="6.73871">
        <ele>1825.9</ele>
        <time>2016-03-22T08:24:14Z</time>
      </trkpt>
      <trkpt lat="46.37469" lon="6.7386">
        <ele>1824.3</ele>
        <time>2016-03-22T08:24:15Z</time>
      </trkpt>
      <trkpt lat="46.37476" lon="6.73848">
        <ele>1821.8</ele>
        <time>2016-03-22T08:24:16Z</time>
      </trkpt>
      <trkpt lat="46.3748" lon="6.73835">
        <ele>1819.5</ele>
        <time>2016-03-22T08:24:17Z</time>
      </trkpt>
      <trkpt lat="46.37482" lon="6.73823">
        <ele>1818.4</ele>
        <time>2016-03-22T08:24:18Z</time>
      </trkpt>
      <trkpt lat="46.37483" lon="6.7381">
        <ele>1816.8</ele>
        <time>2016-03-22T08:24:20Z</time>
      </trkpt>
      <trkpt lat="46.37487" lon="6.73801">
        <ele>1815.5</ele>
        <time>2016-03-22T08:24:21Z</time>
      </trkpt>
      <trkpt lat="46.37496" lon="6.73787">
        <ele>1812.5</ele>
        <time>2016-03-22T08:24:22Z</time>
      </trkpt>
      <trkpt lat="46.37496" lon="6.73772">
        <ele>1809.9</ele>
        <time>2016-03-22T08:24:24Z</time>
      </trkpt>
      <trkpt lat="46.37495" lon="6.73754">
        <ele>1807.3</ele>
        <time>2016-03-22T08:24:27Z</time>
      </trkpt>
      <trkpt lat="46.37503" lon="6.73741">
        <ele>1803.5</ele>
        <time>2016-03-22T08:24:28Z</time>
      </trkpt>
      <trkpt lat="46.37513" lon="6.73741">
        <ele>1800.8</ele>
        <time>2016-03-22T08:24:31Z</time>
      </trkpt>
      <trkpt lat="46.37521" lon="6.7374">
        <ele>1798</ele>
        <time>2016-03-22T08:24:33Z</time>
      </trkpt>
      <trkpt lat="46.37519" lon="6.73737">
        <ele>1796.6</ele>
        <time>2016-03-22T08:24:40Z</time>
      </trkpt>
      <trkpt lat="46.37519" lon="6.73737">
        <ele>1796.3</ele>
        <time>2016-03-22T08:24:43Z</time>
      </trkpt>
      <trkpt lat="46.37515" lon="6.73725">
        <ele>1792.9</ele>
        <time>2016-03-22T08:24:53Z</time>
      </trkpt>
      <trkpt lat="46.37512" lon="6.73714">
        <ele>1790.5</ele>
        <time>2016-03-22T08:24:56Z</time>
      </trkpt>
      <trkpt lat="46.37514" lon="6.73696">
        <ele>1787.1</ele>
        <time>2016-03-22T08:24:57Z</time>
      </trkpt>
      <trkpt lat="46.37524" lon="6.73687">
        <ele>1782</ele>
        <time>2016-03-22T08:25:00Z</time>
      </trkpt>
      <trkpt lat="46.37527" lon="6.73672">
        <ele>1778.5</ele>
        <time>2016-03-22T08:25:01Z</time>
      </trkpt>
      <trkpt lat="46.3753" lon="6.73656">
        <ele>1775</ele>
        <time>2016-03-22T08:25:03Z</time>
      </trkpt>
      <trkpt lat="46.37539" lon="6.73642">
        <ele>1772.6</ele>
        <time>2016-03-22T08:25:05Z</time>
      </trkpt>
      <trkpt lat="46.37538" lon="6.73631">
        <ele>1770</ele>
        <time>2016-03-22T08:25:07Z</time>
      </trkpt>
      <trkpt lat="46.37538" lon="6.7361">
        <ele>1765.3</ele>
        <time>2016-03-22T08:25:08Z</time>
      </trkpt>
      <trkpt lat="46.37546" lon="6.73593">
        <ele>1763.5</ele>
        <time>2016-03-22T08:25:11Z</time>
      </trkpt>
      <trkpt lat="46.37549" lon="6.73575">
        <ele>1760.9</ele>
        <time>2016-03-22T08:25:13Z</time>
      </trkpt>
      <trkpt lat="46.37548" lon="6.73565">
        <ele>1759.6</ele>
        <time>2016-03-22T08:25:13Z</time>
      </trkpt>
      <trkpt lat="46.37549" lon="6.73554">
        <ele>1757.5</ele>
        <time>2016-03-22T08:25:14Z</time>
      </trkpt>
      <trkpt lat="46.3755" lon="6.73544">
        <ele>1756.3</ele>
        <time>2016-03-22T08:25:16Z</time>
      </trkpt>
      <trkpt lat="46.37559" lon="6.73531">
        <ele>1755</ele>
        <time>2016-03-22T08:25:17Z</time>
      </trkpt>
      <trkpt lat="46.37565" lon="6.73521">
        <ele>1752</ele>
        <time>2016-03-22T08:25:20Z</time>
      </trkpt>
      <trkpt lat="46.37574" lon="6.73513">
        <ele>1748.5</ele>
        <time>2016-03-22T08:25:21Z</time>
      </trkpt>
      <trkpt lat="46.37586" lon="6.73507">
        <ele>1742.5</ele>
        <time>2016-03-22T08:25:24Z</time>
      </trkpt>
      <trkpt lat="46.37593" lon="6.73496">
        <ele>1739.9</ele>
        <time>2016-03-22T08:25:25Z</time>
      </trkpt>
      <trkpt lat="46.37603" lon="6.73483">
        <ele>1737.5</ele>
        <time>2016-03-22T08:25:28Z</time>
      </trkpt>
      <trkpt lat="46.37611" lon="6.73482">
        <ele>1735.5</ele>
        <time>2016-03-22T08:25:28Z</time>
      </trkpt>
      <trkpt lat="46.3762" lon="6.73469">
        <ele>1730.8</ele>
        <time>2016-03-22T08:25:30Z</time>
      </trkpt>
      <trkpt lat="46.37628" lon="6.7345">
        <ele>1725.3</ele>
        <time>2016-03-22T08:25:33Z</time>
      </trkpt>
      <trkpt lat="46.37641" lon="6.73443">
        <ele>1721</ele>
        <time>2016-03-22T08:25:34Z</time>
      </trkpt>
      <trkpt lat="46.37648" lon="6.73439">
        <ele>1719.8</ele>
        <time>2016-03-22T08:25:36Z</time>
      </trkpt>
      <trkpt lat="46.37656" lon="6.73425">
        <ele>1716.5</ele>
        <time>2016-03-22T08:25:37Z</time>
      </trkpt>
      <trkpt lat="46.37657" lon="6.73415">
        <ele>1712.9</ele>
        <time>2016-03-22T08:25:39Z</time>
      </trkpt>
      <trkpt lat="46.37659" lon="6.73398">
        <ele>1708.9</ele>
        <time>2016-03-22T08:25:41Z</time>
      </trkpt>
      <trkpt lat="46.37668" lon="6.73383">
        <ele>1705</ele>
        <time>2016-03-22T08:25:43Z</time>
      </trkpt>
      <trkpt lat="46.37675" lon="6.73378">
        <ele>1703.9</ele>
        <time>2016-03-22T08:25:44Z</time>
      </trkpt>
      <trkpt lat="46.37684" lon="6.73367">
        <ele>1698.9</ele>
        <time>2016-03-22T08:25:45Z</time>
      </trkpt>
      <trkpt lat="46.37689" lon="6.73351">
        <ele>1695.5</ele>
        <time>2016-03-22T08:25:48Z</time>
      </trkpt>
      <trkpt lat="46.37697" lon="6.73334">
        <ele>1693</ele>
        <time>2016-03-22T08:25:49Z</time>
      </trkpt>
      <trkpt lat="46.37707" lon="6.73323">
        <ele>1690.8</ele>
        <time>2016-03-22T08:25:52Z</time>
      </trkpt>
      <trkpt lat="46.37715" lon="6.73312">
        <ele>1688.6</ele>
        <time>2016-03-22T08:25:53Z</time>
      </trkpt>
      <trkpt lat="46.37718" lon="6.73297">
        <ele>1685.8</ele>
        <time>2016-03-22T08:25:56Z</time>
      </trkpt>
      <trkpt lat="46.37728" lon="6.73289">
        <ele>1682.4</ele>
        <time>2016-03-22T08:25:57Z</time>
      </trkpt>
      <trkpt lat="46.37734" lon="6.73278">
        <ele>1679.4</ele>
        <time>2016-03-22T08:26:00Z</time>
      </trkpt>
      <trkpt lat="46.37737" lon="6.73264">
        <ele>1676.8</ele>
        <time>2016-03-22T08:26:01Z</time>
      </trkpt>
      <trkpt lat="46.37745" lon="6.73257">
        <ele>1674</ele>
        <time>2016-03-22T08:26:04Z</time>
      </trkpt>
      <trkpt lat="46.37754" lon="6.7325">
        <ele>1671.4</ele>
        <time>2016-03-22T08:26:05Z</time>
      </trkpt>
      <trkpt lat="46.37756" lon="6.73239">
        <ele>1669.9</ele>
        <time>2016-03-22T08:26:07Z</time>
      </trkpt>
      <trkpt lat="46.37762" lon="6.7323">
        <ele>1666.9</ele>
        <time>2016-03-22T08:26:09Z</time>
      </trkpt>
      <trkpt lat="46.37771" lon="6.73228">
        <ele>1665.9</ele>
        <time>2016-03-22T08:26:12Z</time>
      </trkpt>
      <trkpt lat="46.37778" lon="6.73219">
        <ele>1664.8</ele>
        <time>2016-03-22T08:26:13Z</time>
      </trkpt>
      <trkpt lat="46.37783" lon="6.73207">
        <ele>1663.6</ele>
        <time>2016-03-22T08:26:15Z</time>
      </trkpt>
      <trkpt lat="46.37789" lon="6.73196">
        <ele>1661.9</ele>
        <time>2016-03-22T08:26:17Z</time>
      </trkpt>
      <trkpt lat="46.37798" lon="6.7319">
        <ele>1659.1</ele>
        <time>2016-03-22T08:26:19Z</time>
      </trkpt>
      <trkpt lat="46.37804" lon="6.7318">
        <ele>1657.8</ele>
        <time>2016-03-22T08:26:21Z</time>
      </trkpt>
      <trkpt lat="46.37807" lon="6.73166">
        <ele>1655.9</ele>
        <time>2016-03-22T08:26:24Z</time>
      </trkpt>
      <trkpt lat="46.37814" lon="6.73162">
        <ele>1654.1</ele>
        <time>2016-03-22T08:26:27Z</time>
      </trkpt>
      <trkpt lat="46.37822" lon="6.73155">
        <ele>1652</ele>
        <time>2016-03-22T08:26:28Z</time>
      </trkpt>
      <trkpt lat="46.37825" lon="6.73143">
        <ele>1650.9</ele>
        <time>2016-03-22T08:26:31Z</time>
      </trkpt>
      <trkpt lat="46.37828" lon="6.73132">
        <ele>1650.4</ele>
        <time>2016-03-22T08:26:32Z</time>
      </trkpt>
      <trkpt lat="46.37829" lon="6.73119">
        <ele>1649.5</ele>
        <time>2016-03-22T08:26:34Z</time>
      </trkpt>
      <trkpt lat="46.37829" lon="6.73107">
        <ele>1648.5</ele>
        <time>2016-03-22T08:26:36Z</time>
      </trkpt>
      <trkpt lat="46.37832" lon="6.73096">
        <ele>1647.6</ele>
        <time>2016-03-22T08:26:39Z</time>
      </trkpt>
      <trkpt lat="46.37836" lon="6.73085">
        <ele>1646.5</ele>
        <time>2016-03-22T08:26:40Z</time>
      </trkpt>
      <trkpt lat="46.37847" lon="6.73079">
        <ele>1644</ele>
        <time>2016-03-22T08:26:42Z</time>
      </trkpt>
      <trkpt lat="46.37859" lon="6.73071">
        <ele>1642.8</ele>
        <time>2016-03-22T08:26:44Z</time>
      </trkpt>
      <trkpt lat="46.37866" lon="6.73057">
        <ele>1640</ele>
        <time>2016-03-22T08:26:47Z</time>
      </trkpt>
      <trkpt lat="46.37872" lon="6.7304">
        <ele>1637.9</ele>
        <time>2016-03-22T08:26:48Z</time>
      </trkpt>
      <trkpt lat="46.37873" lon="6.73025">
        <ele>1636.4</ele>
        <time>2016-03-22T08:26:51Z</time>
      </trkpt>
      <trkpt lat="46.37878" lon="6.73011">
        <ele>1635.5</ele>
        <time>2016-03-22T08:26:52Z</time>
      </trkpt>
      <trkpt lat="46.37888" lon="6.7301">
        <ele>1635</ele>
        <time>2016-03-22T08:26:54Z</time>
      </trkpt>
      <trkpt lat="46.37897" lon="6.7301">
        <ele>1635.3</ele>
        <time>2016-03-22T08:26:56Z</time>
      </trkpt>
      <trkpt lat="46.37905" lon="6.73002">
        <ele>1635</ele>
        <time>2016-03-22T08:26:59Z</time>
      </trkpt>
      <trkpt lat="46.37915" lon="6.73004">
        <ele>1634</ele>
        <time>2016-03-22T08:27:00Z</time>
      </trkpt>
      <trkpt lat="46.37918" lon="6.73013">
        <ele>1628.5</ele>
        <time>2016-03-22T08:27:04Z</time>
      </trkpt>
      <trkpt lat="46.37914" lon="6.7302">
        <ele>1626</ele>
        <time>2016-03-22T08:27:12Z</time>
      </trkpt>
      <trkpt lat="46.37912" lon="6.73027">
        <ele>1624.5</ele>
        <time>2016-03-22T08:27:19Z</time>
      </trkpt>
      <trkpt lat="46.37912" lon="6.73028">
        <ele>1624.9</ele>
        <time>2016-03-22T08:27:21Z</time>
      </trkpt>
      <trkpt lat="46.37907" lon="6.73031">
        <ele>1623.4</ele>
        <time>2016-03-22T08:27:31Z</time>
      </trkpt>
      <trkpt lat="46.379" lon="6.73041">
        <ele>1624</ele>
        <time>2016-03-22T08:27:36Z</time>
      </trkpt>
      <trkpt lat="46.37895" lon="6.73049">
        <ele>1626.1</ele>
        <time>2016-03-22T08:27:40Z</time>
      </trkpt>
      <trkpt lat="46.37891" lon="6.73057">
        <ele>1629.6</ele>
        <time>2016-03-22T08:27:43Z</time>
      </trkpt>
      <trkpt lat="46.37885" lon="6.73065">
        <ele>1631.1</ele>
        <time>2016-03-22T08:27:45Z</time>
      </trkpt>
      <trkpt lat="46.37881" lon="6.73073">
        <ele>1633.9</ele>
        <time>2016-03-22T08:27:49Z</time>
      </trkpt>
      <trkpt lat="46.37876" lon="6.7308">
        <ele>1636</ele>
        <time>2016-03-22T08:27:52Z</time>
      </trkpt>
      <trkpt lat="46.3787" lon="6.73091">
        <ele>1637</ele>
        <time>2016-03-22T08:27:55Z</time>
      </trkpt>
      <trkpt lat="46.37864" lon="6.73101">
        <ele>1638.5</ele>
        <time>2016-03-22T08:28:00Z</time>
      </trkpt>
      <trkpt lat="46.37857" lon="6.73111">
        <ele>1641.5</ele>
        <time>2016-03-22T08:28:04Z</time>
      </trkpt>
      <trkpt lat="46.37851" lon="6.73121">
        <ele>1644.5</ele>
        <time>2016-03-22T08:28:07Z</time>
      </trkpt>
      <trkpt lat="46.37845" lon="6.73131">
        <ele>1648.1</ele>
        <time>2016-03-22T08:28:12Z</time>
      </trkpt>
      <trkpt lat="46.37839" lon="6.73141">
        <ele>1649.8</ele>
        <time>2016-03-22T08:28:15Z</time>
      </trkpt>
      <trkpt lat="46.37833" lon="6.73151">
        <ele>1651.1</ele>
        <time>2016-03-22T08:28:20Z</time>
      </trkpt>
      <trkpt lat="46.37827" lon="6.73161">
        <ele>1652.9</ele>
        <time>2016-03-22T08:28:24Z</time>
      </trkpt>
      <trkpt lat="46.37822" lon="6.73169">
        <ele>1654.5</ele>
        <time>2016-03-22T08:28:26Z</time>
      </trkpt>
      <trkpt lat="46.37816" lon="6.73179">
        <ele>1655.3</ele>
        <time>2016-03-22T08:28:31Z</time>
      </trkpt>
      <trkpt lat="46.3781" lon="6.73189">
        <ele>1657.4</ele>
        <time>2016-03-22T08:28:34Z</time>
      </trkpt>
      <trkpt lat="46.37804" lon="6.73199">
        <ele>1657</ele>
        <time>2016-03-22T08:28:38Z</time>
      </trkpt>
      <trkpt lat="46.37798" lon="6.73209">
        <ele>1658</ele>
        <time>2016-03-22T08:28:43Z</time>
      </trkpt>
      <trkpt lat="46.37792" lon="6.73219">
        <ele>1659</ele>
        <time>2016-03-22T08:28:46Z</time>
      </trkpt>
      <trkpt lat="46.37786" lon="6.73229">
        <ele>1659.5</ele>
        <time>2016-03-22T08:28:51Z</time>
      </trkpt>
      <trkpt lat="46.3778" lon="6.73239">
        <ele>1660.6</ele>
        <time>2016-03-22T08:28:54Z</time>
      </trkpt>
      <trkpt lat="46.37774" lon="6.73249">
        <ele>1662</ele>
        <time>2016-03-22T08:28:58Z</time>
      </trkpt>
      <trkpt lat="46.37767" lon="6.73259">
        <ele>1663</ele>
        <time>2016-03-22T08:29:02Z</time>
      </trkpt>
      <trkpt lat="46.37762" lon="6.73269">
        <ele>1664.1</ele>
        <time>2016-03-22T08:29:06Z</time>
      </trkpt>
      <trkpt lat="46.37756" lon="6.73279">
        <ele>1665.4</ele>
        <time>2016-03-22T08:29:11Z</time>
      </trkpt>
      <trkpt lat="46.37749" lon="6.73289">
        <ele>1667.4</ele>
        <time>2016-03-22T08:29:14Z</time>
      </trkpt>
      <trkpt lat="46.37743" lon="6.73299">
        <ele>1668.5</ele>
        <time>2016-03-22T08:29:18Z</time>
      </trkpt>
      <trkpt lat="46.37737" lon="6.73309">
        <ele>1670</ele>
        <time>2016-03-22T08:29:23Z</time>
      </trkpt>
      <trkpt lat="46.37732" lon="6.73318">
        <ele>1670.1</ele>
        <time>2016-03-22T08:29:26Z</time>
      </trkpt>
      <trkpt lat="46.37725" lon="6.73328">
        <ele>1671.4</ele>
        <time>2016-03-22T08:29:31Z</time>
      </trkpt>
      <trkpt lat="46.3772" lon="6.73338">
        <ele>1673</ele>
        <time>2016-03-22T08:29:35Z</time>
      </trkpt>
      <trkpt lat="46.37714" lon="6.73349">
        <ele>1674.5</ele>
        <time>2016-03-22T08:29:39Z</time>
      </trkpt>
      <trkpt lat="46.37708" lon="6.73359">
        <ele>1675.3</ele>
        <time>2016-03-22T08:29:43Z</time>
      </trkpt>
      <trkpt lat="46.37702" lon="6.7337">
        <ele>1677.1</ele>
        <time>2016-03-22T08:29:47Z</time>
      </trkpt>
      <trkpt lat="46.37696" lon="6.7338">
        <ele>1678.3</ele>
        <time>2016-03-22T08:29:51Z</time>
      </trkpt>
      <trkpt lat="46.3769" lon="6.73389">
        <ele>1679.8</ele>
        <time>2016-03-22T08:29:54Z</time>
      </trkpt>
      <trkpt lat="46.37684" lon="6.73399">
        <ele>1681.5</ele>
        <time>2016-03-22T08:29:58Z</time>
      </trkpt>
      <trkpt lat="46.37679" lon="6.73408">
        <ele>1683.5</ele>
        <time>2016-03-22T08:30:03Z</time>
      </trkpt>
      <trkpt lat="46.37673" lon="6.73417">
        <ele>1686.6</ele>
        <time>2016-03-22T08:30:07Z</time>
      </trkpt>
      <trkpt lat="46.37667" lon="6.73426">
        <ele>1690</ele>
        <time>2016-03-22T08:30:11Z</time>
      </trkpt>
      <trkpt lat="46.37662" lon="6.73436">
        <ele>1693.5</ele>
        <time>2016-03-22T08:30:14Z</time>
      </trkpt>
      <trkpt lat="46.37656" lon="6.73445">
        <ele>1697.3</ele>
        <time>2016-03-22T08:30:19Z</time>
      </trkpt>
      <trkpt lat="46.37651" lon="6.73454">
        <ele>1701.3</ele>
        <time>2016-03-22T08:30:22Z</time>
      </trkpt>
      <trkpt lat="46.37646" lon="6.73463">
        <ele>1704.5</ele>
        <time>2016-03-22T08:30:26Z</time>
      </trkpt>
      <trkpt lat="46.3764" lon="6.73473">
        <ele>1708.4</ele>
        <time>2016-03-22T08:30:31Z</time>
      </trkpt>
      <trkpt lat="46.37634" lon="6.73481">
        <ele>1712.1</ele>
        <time>2016-03-22T08:30:34Z</time>
      </trkpt>
      <trkpt lat="46.37628" lon="6.73491">
        <ele>1715.5</ele>
        <time>2016-03-22T08:30:39Z</time>
      </trkpt>
      <trkpt lat="46.37623" lon="6.73501">
        <ele>1719.1</ele>
        <time>2016-03-22T08:30:43Z</time>
      </trkpt>
      <trkpt lat="46.37617" lon="6.73511">
        <ele>1723</ele>
        <time>2016-03-22T08:30:47Z</time>
      </trkpt>
      <trkpt lat="46.37612" lon="6.73521">
        <ele>1726.9</ele>
        <time>2016-03-22T08:30:50Z</time>
      </trkpt>
      <trkpt lat="46.37606" lon="6.7353">
        <ele>1730.6</ele>
        <time>2016-03-22T08:30:54Z</time>
      </trkpt>
      <trkpt lat="46.376" lon="6.7354">
        <ele>1735</ele>
        <time>2016-03-22T08:30:59Z</time>
      </trkpt>
      <trkpt lat="46.37595" lon="6.73549">
        <ele>1738.5</ele>
        <time>2016-03-22T08:31:02Z</time>
      </trkpt>
      <trkpt lat="46.37589" lon="6.73558">
        <ele>1742.6</ele>
        <time>2016-03-22T08:31:07Z</time>
      </trkpt>
      <trkpt lat="46.37583" lon="6.73567">
        <ele>1746.8</ele>
        <time>2016-03-22T08:31:11Z</time>
      </trkpt>
      <trkpt lat="46.37578" lon="6.73576">
        <ele>1750.6</ele>
        <time>2016-03-22T08:31:14Z</time>
      </trkpt>
      <trkpt lat="46.37573" lon="6.73584">
        <ele>1753</ele>
        <time>2016-03-22T08:31:19Z</time>
      </trkpt>
      <trkpt lat="46.37567" lon="6.73594">
        <ele>1756</ele>
        <time>2016-03-22T08:31:23Z</time>
      </trkpt>
      <trkpt lat="46.37562" lon="6.73603">
        <ele>1759</ele>
        <time>2016-03-22T08:31:27Z</time>
      </trkpt>
      <trkpt lat="46.37556" lon="6.73613">
        <ele>1762</ele>
        <time>2016-03-22T08:31:30Z</time>
      </trkpt>
      <trkpt lat="46.3755" lon="6.73622">
        <ele>1765.6</ele>
        <time>2016-03-22T08:31:35Z</time>
      </trkpt>
      <trkpt lat="46.37544" lon="6.73632">
        <ele>1769.5</ele>
        <time>2016-03-22T08:31:38Z</time>
      </trkpt>
      <trkpt lat="46.37538" lon="6.73642">
        <ele>1772.3</ele>
        <time>2016-03-22T08:31:42Z</time>
      </trkpt>
      <trkpt lat="46.37532" lon="6.73652">
        <ele>1776.4</ele>
        <time>2016-03-22T08:31:47Z</time>
      </trkpt>
      <trkpt lat="46.37526" lon="6.73662">
        <ele>1780.4</ele>
        <time>2016-03-22T08:31:51Z</time>
      </trkpt>
      <trkpt lat="46.3752" lon="6.73672">
        <ele>1784.6</ele>
        <time>2016-03-22T08:31:54Z</time>
      </trkpt>
      <trkpt lat="46.37514" lon="6.73682">
        <ele>1789</ele>
        <time>2016-03-22T08:31:59Z</time>
      </trkpt>
      <trkpt lat="46.37509" lon="6.73692">
        <ele>1792.5</ele>
        <time>2016-03-22T08:32:03Z</time>
      </trkpt>
      <trkpt lat="46.37503" lon="6.73701">
        <ele>1794.5</ele>
        <time>2016-03-22T08:32:07Z</time>
      </trkpt>
      <trkpt lat="46.37497" lon="6.73711">
        <ele>1796.3</ele>
        <time>2016-03-22T08:32:11Z</time>
      </trkpt>
      <trkpt lat="46.37492" lon="6.73721">
        <ele>1798.1</ele>
        <time>2016-03-22T08:32:15Z</time>
      </trkpt>
      <trkpt lat="46.37486" lon="6.73731">
        <ele>1800.3</ele>
        <time>2016-03-22T08:32:18Z</time>
      </trkpt>
      <trkpt lat="46.37481" lon="6.73741">
        <ele>1802.5</ele>
        <time>2016-03-22T08:32:23Z</time>
      </trkpt>
      <trkpt lat="46.37475" lon="6.7375">
        <ele>1804.3</ele>
        <time>2016-03-22T08:32:26Z</time>
      </trkpt>
      <trkpt lat="46.37469" lon="6.7376">
        <ele>1804.6</ele>
        <time>2016-03-22T08:32:30Z</time>
      </trkpt>
      <trkpt lat="46.37463" lon="6.7377">
        <ele>1804.8</ele>
        <time>2016-03-22T08:32:34Z</time>
      </trkpt>
      <trkpt lat="46.37457" lon="6.7378">
        <ele>1804.6</ele>
        <time>2016-03-22T08:32:38Z</time>
      </trkpt>
      <trkpt lat="46.37451" lon="6.7379">
        <ele>1805</ele>
        <time>2016-03-22T08:32:42Z</time>
      </trkpt>
      <trkpt lat="46.37445" lon="6.738">
        <ele>1806</ele>
        <time>2016-03-22T08:32:46Z</time>
      </trkpt>
      <trkpt lat="46.37439" lon="6.73811">
        <ele>1807</ele>
        <time>2016-03-22T08:32:50Z</time>
      </trkpt>
      <trkpt lat="46.37433" lon="6.73821">
        <ele>1807.6</ele>
        <time>2016-03-22T08:32:55Z</time>
      </trkpt>
      <trkpt lat="46.37427" lon="6.73832">
        <ele>1808</ele>
        <time>2016-03-22T08:32:59Z</time>
      </trkpt>
      <trkpt lat="46.37422" lon="6.73842">
        <ele>1808.6</ele>
        <time>2016-03-22T08:33:02Z</time>
      </trkpt>
      <trkpt lat="46.37416" lon="6.73852">
        <ele>1809.8</ele>
        <time>2016-03-22T08:33:06Z</time>
      </trkpt>
      <trkpt lat="46.3741" lon="6.73862">
        <ele>1811.1</ele>
        <time>2016-03-22T08:33:11Z</time>
      </trkpt>
      <trkpt lat="46.37404" lon="6.73872">
        <ele>1812.5</ele>
        <time>2016-03-22T08:33:14Z</time>
      </trkpt>
      <trkpt lat="46.37399" lon="6.73881">
        <ele>1814.3</ele>
        <time>2016-03-22T08:33:18Z</time>
      </trkpt>
      <trkpt lat="46.37394" lon="6.7389">
        <ele>1816.9</ele>
        <time>2016-03-22T08:33:23Z</time>
      </trkpt>
      <trkpt lat="46.37388" lon="6.73899">
        <ele>1820.5</ele>
        <time>2016-03-22T08:33:27Z</time>
      </trkpt>
      <trkpt lat="46.37383" lon="6.73908">
        <ele>1823.5</ele>
        <time>2016-03-22T08:33:30Z</time>
      </trkpt>
      <trkpt lat="46.37377" lon="6.73918">
        <ele>1826.8</ele>
        <time>2016-03-22T08:33:35Z</time>
      </trkpt>
      <trkpt lat="46.37371" lon="6.73927">
        <ele>1830.5</ele>
        <time>2016-03-22T08:33:38Z</time>
      </trkpt>
      <trkpt lat="46.37366" lon="6.73934">
        <ele>1833</ele>
        <time>2016-03-22T08:33:43Z</time>
      </trkpt>
      <trkpt lat="46.3736" lon="6.73944">
        <ele>1836</ele>
        <time>2016-03-22T08:33:46Z</time>
      </trkpt>
      <trkpt lat="46.37354" lon="6.73953">
        <ele>1839.5</ele>
        <time>2016-03-22T08:33:50Z</time>
      </trkpt>
      <trkpt lat="46.37349" lon="6.73962">
        <ele>1843</ele>
        <time>2016-03-22T08:33:54Z</time>
      </trkpt>
      <trkpt lat="46.37344" lon="6.73971">
        <ele>1847</ele>
        <time>2016-03-22T08:33:58Z</time>
      </trkpt>
      <trkpt lat="46.37339" lon="6.7398">
        <ele>1850</ele>
        <time>2016-03-22T08:34:02Z</time>
      </trkpt>
      <trkpt lat="46.37333" lon="6.7399">
        <ele>1852.6</ele>
        <time>2016-03-22T08:34:06Z</time>
      </trkpt>
      <trkpt lat="46.37327" lon="6.73999">
        <ele>1855.9</ele>
        <time>2016-03-22T08:34:11Z</time>
      </trkpt>
      <trkpt lat="46.37321" lon="6.7401">
        <ele>1845.6</ele>
        <time>2016-03-22T08:34:14Z</time>
      </trkpt>
      <trkpt lat="46.37315" lon="6.74019">
        <ele>1856</ele>
        <time>2016-03-22T08:34:18Z</time>
      </trkpt>
      <trkpt lat="46.37309" lon="6.74028">
        <ele>1860.3</ele>
        <time>2016-03-22T08:34:23Z</time>
      </trkpt>
      <trkpt lat="46.37303" lon="6.74036">
        <ele>1864.1</ele>
        <time>2016-03-22T08:34:27Z</time>
      </trkpt>
      <trkpt lat="46.37297" lon="6.74046">
        <ele>1867.9</ele>
        <time>2016-03-22T08:34:30Z</time>
      </trkpt>
      <trkpt lat="46.37291" lon="6.74056">
        <ele>1871.6</ele>
        <time>2016-03-22T08:34:34Z</time>
      </trkpt>
      <trkpt lat="46.37285" lon="6.74066">
        <ele>1874.5</ele>
        <time>2016-03-22T08:34:38Z</time>
      </trkpt>
      <trkpt lat="46.37279" lon="6.74074">
        <ele>1877.5</ele>
        <time>2016-03-22T08:34:42Z</time>
      </trkpt>
      <trkpt lat="46.37274" lon="6.74084">
        <ele>1874</ele>
        <time>2016-03-22T08:34:46Z</time>
      </trkpt>
      <trkpt lat="46.37269" lon="6.74093">
        <ele>1882</ele>
        <time>2016-03-22T08:34:51Z</time>
      </trkpt>
      <trkpt lat="46.37263" lon="6.74102">
        <ele>1886.4</ele>
        <time>2016-03-22T08:34:55Z</time>
      </trkpt>
      <trkpt lat="46.37257" lon="6.74112">
        <ele>1890</ele>
        <time>2016-03-22T08:34:58Z</time>
      </trkpt>
      <trkpt lat="46.37252" lon="6.74122">
        <ele>1893.3</ele>
        <time>2016-03-22T08:35:02Z</time>
      </trkpt>
      <trkpt lat="46.37246" lon="6.74132">
        <ele>1897.1</ele>
        <time>2016-03-22T08:35:06Z</time>
      </trkpt>
      <trkpt lat="46.3724" lon="6.74141">
        <ele>1899.6</ele>
        <time>2016-03-22T08:35:10Z</time>
      </trkpt>
      <trkpt lat="46.37236" lon="6.7415">
        <ele>1902.3</ele>
        <time>2016-03-22T08:35:14Z</time>
      </trkpt>
      <trkpt lat="46.3723" lon="6.74159">
        <ele>1906.8</ele>
        <time>2016-03-22T08:35:18Z</time>
      </trkpt>
      <trkpt lat="46.37225" lon="6.74168">
        <ele>1909.9</ele>
        <time>2016-03-22T08:35:22Z</time>
      </trkpt>
      <trkpt lat="46.37219" lon="6.74178">
        <ele>1912</ele>
        <time>2016-03-22T08:35:26Z</time>
      </trkpt>
      <trkpt lat="46.37213" lon="6.74187">
        <ele>1914</ele>
        <time>2016-03-22T08:35:30Z</time>
      </trkpt>
      <trkpt lat="46.37206" lon="6.74198">
        <ele>1917</ele>
        <time>2016-03-22T08:35:34Z</time>
      </trkpt>
      <trkpt lat="46.37201" lon="6.74205">
        <ele>1919</ele>
        <time>2016-03-22T08:35:38Z</time>
      </trkpt>
      <trkpt lat="46.37196" lon="6.74213">
        <ele>1920</ele>
        <time>2016-03-22T08:35:40Z</time>
      </trkpt>
      <trkpt lat="46.37192" lon="6.74222">
        <ele>1920.5</ele>
        <time>2016-03-22T08:35:43Z</time>
      </trkpt>
      <trkpt lat="46.37187" lon="6.7423">
        <ele>1921.5</ele>
        <time>2016-03-22T08:35:46Z</time>
      </trkpt>
      <trkpt lat="46.37182" lon="6.74238">
        <ele>1921.1</ele>
        <time>2016-03-22T08:35:49Z</time>
      </trkpt>
      <trkpt lat="46.37178" lon="6.74249">
        <ele>1921</ele>
        <time>2016-03-22T08:35:52Z</time>
      </trkpt>
      <trkpt lat="46.37177" lon="6.74261">
        <ele>1921.1</ele>
        <time>2016-03-22T08:35:53Z</time>
      </trkpt>
      <trkpt lat="46.37179" lon="6.74269">
        <ele>1921.1</ele>
        <time>2016-03-22T08:36:01Z</time>
      </trkpt>
      <trkpt lat="46.37179" lon="6.74269">
        <ele>1921</ele>
        <time>2016-03-22T08:36:04Z</time>
      </trkpt>
      <trkpt lat="46.37186" lon="6.74266">
        <ele>1920.3</ele>
        <time>2016-03-22T08:36:45Z</time>
      </trkpt>
      <trkpt lat="46.37193" lon="6.74263">
        <ele>1920.8</ele>
        <time>2016-03-22T08:36:48Z</time>
      </trkpt>
      <trkpt lat="46.37202" lon="6.74262">
        <ele>1919.9</ele>
        <time>2016-03-22T08:36:51Z</time>
      </trkpt>
      <trkpt lat="46.3721" lon="6.7426">
        <ele>1918.8</ele>
        <time>2016-03-22T08:36:53Z</time>
      </trkpt>
      <trkpt lat="46.37219" lon="6.74255">
        <ele>1917.4</ele>
        <time>2016-03-22T08:36:56Z</time>
      </trkpt>
      <trkpt lat="46.37227" lon="6.74256">
        <ele>1916.3</ele>
        <time>2016-03-22T08:36:58Z</time>
      </trkpt>
      <trkpt lat="46.37232" lon="6.74265">
        <ele>1915.3</ele>
        <time>2016-03-22T08:37:00Z</time>
      </trkpt>
      <trkpt lat="46.37239" lon="6.74271">
        <ele>1913.8</ele>
        <time>2016-03-22T08:37:02Z</time>
      </trkpt>
      <trkpt lat="46.37247" lon="6.74282">
        <ele>1912.4</ele>
        <time>2016-03-22T08:37:04Z</time>
      </trkpt>
      <trkpt lat="46.37259" lon="6.74285">
        <ele>1910.5</ele>
        <time>2016-03-22T08:37:06Z</time>
      </trkpt>
      <trkpt lat="46.37271" lon="6.74279">
        <ele>1908</ele>
        <time>2016-03-22T08:37:08Z</time>
      </trkpt>
      <trkpt lat="46.37283" lon="6.74284">
        <ele>1907</ele>
        <time>2016-03-22T08:37:10Z</time>
      </trkpt>
      <trkpt lat="46.37295" lon="6.74285">
        <ele>1902.5</ele>
        <time>2016-03-22T08:37:12Z</time>
      </trkpt>
      <trkpt lat="46.37304" lon="6.74278">
        <ele>1899.6</ele>
        <time>2016-03-22T08:37:15Z</time>
      </trkpt>
      <trkpt lat="46.37317" lon="6.74282">
        <ele>1898</ele>
        <time>2016-03-22T08:37:16Z</time>
      </trkpt>
      <trkpt lat="46.3733" lon="6.74291">
        <ele>1896.3</ele>
        <time>2016-03-22T08:37:18Z</time>
      </trkpt>
      <trkpt lat="46.37337" lon="6.74287">
        <ele>1892</ele>
        <time>2016-03-22T08:37:20Z</time>
      </trkpt>
      <trkpt lat="46.37348" lon="6.74279">
        <ele>1885.5</ele>
        <time>2016-03-22T08:37:21Z</time>
      </trkpt>
      <trkpt lat="46.37355" lon="6.7428">
        <ele>1885.3</ele>
        <time>2016-03-22T08:37:23Z</time>
      </trkpt>
      <trkpt lat="46.37362" lon="6.74283">
        <ele>1884.5</ele>
        <time>2016-03-22T08:37:24Z</time>
      </trkpt>
      <trkpt lat="46.37371" lon="6.74288">
        <ele>1883.4</ele>
        <time>2016-03-22T08:37:24Z</time>
      </trkpt>
      <trkpt lat="46.37381" lon="6.74286">
        <ele>1881.6</ele>
        <time>2016-03-22T08:37:25Z</time>
      </trkpt>
      <trkpt lat="46.37388" lon="6.74283">
        <ele>1880.5</ele>
        <time>2016-03-22T08:37:26Z</time>
      </trkpt>
      <trkpt lat="46.374" lon="6.74273">
        <ele>1871.3</ele>
        <time>2016-03-22T08:37:28Z</time>
      </trkpt>
      <trkpt lat="46.3741" lon="6.74277">
        <ele>1869.3</ele>
        <time>2016-03-22T08:37:29Z</time>
      </trkpt>
      <trkpt lat="46.3742" lon="6.7428">
        <ele>1868.3</ele>
        <time>2016-03-22T08:37:31Z</time>
      </trkpt>
      <trkpt lat="46.37428" lon="6.74284">
        <ele>1864.3</ele>
        <time>2016-03-22T08:37:32Z</time>
      </trkpt>
      <trkpt lat="46.37438" lon="6.74283">
        <ele>1861.5</ele>
        <time>2016-03-22T08:37:32Z</time>
      </trkpt>
      <trkpt lat="46.37447" lon="6.74282">
        <ele>1858.4</ele>
        <time>2016-03-22T08:37:33Z</time>
      </trkpt>
      <trkpt lat="46.37457" lon="6.74284">
        <ele>1856.8</ele>
        <time>2016-03-22T08:37:35Z</time>
      </trkpt>
      <trkpt lat="46.37465" lon="6.74289">
        <ele>1853.5</ele>
        <time>2016-03-22T08:37:35Z</time>
      </trkpt>
      <trkpt lat="46.3747" lon="6.74296">
        <ele>1850.6</ele>
        <time>2016-03-22T08:37:36Z</time>
      </trkpt>
      <trkpt lat="46.37475" lon="6.74303">
        <ele>1848.1</ele>
        <time>2016-03-22T08:37:37Z</time>
      </trkpt>
      <trkpt lat="46.37481" lon="6.7431">
        <ele>1845.8</ele>
        <time>2016-03-22T08:37:39Z</time>
      </trkpt>
      <trkpt lat="46.37494" lon="6.74307">
        <ele>1842.8</ele>
        <time>2016-03-22T08:37:40Z</time>
      </trkpt>
      <trkpt lat="46.37503" lon="6.74309">
        <ele>1842.8</ele>
        <time>2016-03-22T08:37:41Z</time>
      </trkpt>
      <trkpt lat="46.37516" lon="6.74317">
        <ele>1841.6</ele>
        <time>2016-03-22T08:37:43Z</time>
      </trkpt>
      <trkpt lat="46.37523" lon="6.74316">
        <ele>1838</ele>
        <time>2016-03-22T08:37:44Z</time>
      </trkpt>
      <trkpt lat="46.37532" lon="6.74315">
        <ele>1836.3</ele>
        <time>2016-03-22T08:37:45Z</time>
      </trkpt>
      <trkpt lat="46.37541" lon="6.74311">
        <ele>1833</ele>
        <time>2016-03-22T08:37:46Z</time>
      </trkpt>
      <trkpt lat="46.37551" lon="6.74313">
        <ele>1831</ele>
        <time>2016-03-22T08:37:47Z</time>
      </trkpt>
      <trkpt lat="46.3756" lon="6.74317">
        <ele>1830.8</ele>
        <time>2016-03-22T08:37:48Z</time>
      </trkpt>
      <trkpt lat="46.37569" lon="6.74321">
        <ele>1829.6</ele>
        <time>2016-03-22T08:37:49Z</time>
      </trkpt>
      <trkpt lat="46.37577" lon="6.74322">
        <ele>1828.5</ele>
        <time>2016-03-22T08:37:50Z</time>
      </trkpt>
      <trkpt lat="46.37587" lon="6.74319">
        <ele>1827.3</ele>
        <time>2016-03-22T08:37:51Z</time>
      </trkpt>
      <trkpt lat="46.37596" lon="6.74313">
        <ele>1826</ele>
        <time>2016-03-22T08:37:52Z</time>
      </trkpt>
      <trkpt lat="46.37607" lon="6.74307">
        <ele>1820.4</ele>
        <time>2016-03-22T08:37:53Z</time>
      </trkpt>
      <trkpt lat="46.3762" lon="6.74304">
        <ele>1815.6</ele>
        <time>2016-03-22T08:37:54Z</time>
      </trkpt>
      <trkpt lat="46.37633" lon="6.74301">
        <ele>1813</ele>
        <time>2016-03-22T08:37:55Z</time>
      </trkpt>
      <trkpt lat="46.37646" lon="6.74299">
        <ele>1812.5</ele>
        <time>2016-03-22T08:37:56Z</time>
      </trkpt>
      <trkpt lat="46.37658" lon="6.74297">
        <ele>1811.5</ele>
        <time>2016-03-22T08:37:57Z</time>
      </trkpt>
      <trkpt lat="46.3767" lon="6.74295">
        <ele>1809.8</ele>
        <time>2016-03-22T08:37:58Z</time>
      </trkpt>
      <trkpt lat="46.3768" lon="6.74295">
        <ele>1808.5</ele>
        <time>2016-03-22T08:38:00Z</time>
      </trkpt>
      <trkpt lat="46.3769" lon="6.74296">
        <ele>1807</ele>
        <time>2016-03-22T08:38:00Z</time>
      </trkpt>
      <trkpt lat="46.37697" lon="6.74299">
        <ele>1805.5</ele>
        <time>2016-03-22T08:38:02Z</time>
      </trkpt>
      <trkpt lat="46.37708" lon="6.74304">
        <ele>1800.9</ele>
        <time>2016-03-22T08:38:04Z</time>
      </trkpt>
      <trkpt lat="46.37716" lon="6.74309">
        <ele>1797.6</ele>
        <time>2016-03-22T08:38:05Z</time>
      </trkpt>
      <trkpt lat="46.3772" lon="6.74309">
        <ele>1789.9</ele>
        <time>2016-03-22T08:38:12Z</time>
      </trkpt>
      <trkpt lat="46.3772" lon="6.74307">
        <ele>1789</ele>
        <time>2016-03-22T08:38:15Z</time>
      </trkpt>
      <trkpt lat="46.37719" lon="6.74306">
        <ele>1781</ele>
        <time>2016-03-22T08:38:28Z</time>
      </trkpt>
      <trkpt lat="46.37719" lon="6.74306">
        <ele>1780.9</ele>
        <time>2016-03-22T08:38:29Z</time>
      </trkpt>
      <trkpt lat="46.3772" lon="6.74306">
        <ele>1779.3</ele>
        <time>2016-03-22T08:38:56Z</time>
      </trkpt>
      <trkpt lat="46.3772" lon="6.74306">
        <ele>1779.3</ele>
        <time>2016-03-22T08:38:58Z</time>
      </trkpt>
      <trkpt lat="46.37725" lon="6.74302">
        <ele>1774.6</ele>
        <time>2016-03-22T08:39:28Z</time>
      </trkpt>
      <trkpt lat="46.37725" lon="6.74301">
        <ele>1774.3</ele>
        <time>2016-03-22T08:39:29Z</time>
      </trkpt>
      <trkpt lat="46.37725" lon="6.74287">
        <ele>1766.6</ele>
        <time>2016-03-22T08:39:33Z</time>
      </trkpt>
      <trkpt lat="46.37719" lon="6.74274">
        <ele>1761.5</ele>
        <time>2016-03-22T08:39:36Z</time>
      </trkpt>
      <trkpt lat="46.37718" lon="6.74264">
        <ele>1759.1</ele>
        <time>2016-03-22T08:39:36Z</time>
      </trkpt>
      <trkpt lat="46.37724" lon="6.74249">
        <ele>1756</ele>
        <time>2016-03-22T08:39:38Z</time>
      </trkpt>
      <trkpt lat="46.37723" lon="6.74239">
        <ele>1752.9</ele>
        <time>2016-03-22T08:39:40Z</time>
      </trkpt>
      <trkpt lat="46.3772" lon="6.74222">
        <ele>1749.6</ele>
        <time>2016-03-22T08:39:41Z</time>
      </trkpt>
      <trkpt lat="46.37723" lon="6.74205">
        <ele>1749.3</ele>
        <time>2016-03-22T08:39:44Z</time>
      </trkpt>
      <trkpt lat="46.37722" lon="6.74188">
        <ele>1747.6</ele>
        <time>2016-03-22T08:39:45Z</time>
      </trkpt>
      <trkpt lat="46.37728" lon="6.74178">
        <ele>1747</ele>
        <time>2016-03-22T08:39:47Z</time>
      </trkpt>
      <trkpt lat="46.37732" lon="6.74168">
        <ele>1745.8</ele>
        <time>2016-03-22T08:39:49Z</time>
      </trkpt>
      <trkpt lat="46.37743" lon="6.74153">
        <ele>1744.1</ele>
        <time>2016-03-22T08:39:53Z</time>
      </trkpt>
      <trkpt lat="46.37754" lon="6.7414">
        <ele>1743.3</ele>
        <time>2016-03-22T08:39:54Z</time>
      </trkpt>
      <trkpt lat="46.37762" lon="6.74122">
        <ele>1734</ele>
        <time>2016-03-22T08:39:57Z</time>
      </trkpt>
      <trkpt lat="46.37765" lon="6.74111">
        <ele>1731.8</ele>
        <time>2016-03-22T08:39:58Z</time>
      </trkpt>
      <trkpt lat="46.37774" lon="6.74095">
        <ele>1721.9</ele>
        <time>2016-03-22T08:39:59Z</time>
      </trkpt>
      <trkpt lat="46.37777" lon="6.74083">
        <ele>1719</ele>
        <time>2016-03-22T08:40:01Z</time>
      </trkpt>
      <trkpt lat="46.37782" lon="6.74074">
        <ele>1717.5</ele>
        <time>2016-03-22T08:40:02Z</time>
      </trkpt>
      <trkpt lat="46.37788" lon="6.74062">
        <ele>1713.5</ele>
        <time>2016-03-22T08:40:03Z</time>
      </trkpt>
      <trkpt lat="46.37792" lon="6.7405">
        <ele>1712</ele>
        <time>2016-03-22T08:40:03Z</time>
      </trkpt>
      <trkpt lat="46.37796" lon="6.74035">
        <ele>1708.8</ele>
        <time>2016-03-22T08:40:04Z</time>
      </trkpt>
      <trkpt lat="46.37801" lon="6.7402">
        <ele>1706.5</ele>
        <time>2016-03-22T08:40:06Z</time>
      </trkpt>
      <trkpt lat="46.37805" lon="6.74004">
        <ele>1704</ele>
        <time>2016-03-22T08:40:07Z</time>
      </trkpt>
      <trkpt lat="46.37807" lon="6.73988">
        <ele>1701.4</ele>
        <time>2016-03-22T08:40:08Z</time>
      </trkpt>
      <trkpt lat="46.37808" lon="6.73971">
        <ele>1699.8</ele>
        <time>2016-03-22T08:40:08Z</time>
      </trkpt>
      <trkpt lat="46.37808" lon="6.73955">
        <ele>1698.5</ele>
        <time>2016-03-22T08:40:10Z</time>
      </trkpt>
      <trkpt lat="46.37807" lon="6.7394">
        <ele>1697.5</ele>
        <time>2016-03-22T08:40:11Z</time>
      </trkpt>
      <trkpt lat="46.37806" lon="6.73927">
        <ele>1696.4</ele>
        <time>2016-03-22T08:40:12Z</time>
      </trkpt>
      <trkpt lat="46.37806" lon="6.73915">
        <ele>1694.8</ele>
        <time>2016-03-22T08:40:12Z</time>
      </trkpt>
      <trkpt lat="46.37805" lon="6.73903">
        <ele>1693.5</ele>
        <time>2016-03-22T08:40:14Z</time>
      </trkpt>
      <trkpt lat="46.37804" lon="6.73891">
        <ele>1692.6</ele>
        <time>2016-03-22T08:40:15Z</time>
      </trkpt>
      <trkpt lat="46.37803" lon="6.73879">
        <ele>1691.9</ele>
        <time>2016-03-22T08:40:16Z</time>
      </trkpt>
      <trkpt lat="46.37802" lon="6.73866">
        <ele>1690</ele>
        <time>2016-03-22T08:40:17Z</time>
      </trkpt>
      <trkpt lat="46.37802" lon="6.73854">
        <ele>1687.3</ele>
        <time>2016-03-22T08:40:17Z</time>
      </trkpt>
      <trkpt lat="46.37802" lon="6.73839">
        <ele>1684.3</ele>
        <time>2016-03-22T08:40:19Z</time>
      </trkpt>
      <trkpt lat="46.37804" lon="6.73823">
        <ele>1681.1</ele>
        <time>2016-03-22T08:40:20Z</time>
      </trkpt>
      <trkpt lat="46.37806" lon="6.73807">
        <ele>1678.3</ele>
        <time>2016-03-22T08:40:21Z</time>
      </trkpt>
      <trkpt lat="46.37809" lon="6.73789">
        <ele>1676</ele>
        <time>2016-03-22T08:40:21Z</time>
      </trkpt>
      <trkpt lat="46.37812" lon="6.73772">
        <ele>1673.5</ele>
        <time>2016-03-22T08:40:22Z</time>
      </trkpt>
      <trkpt lat="46.37815" lon="6.73754">
        <ele>1671.3</ele>
        <time>2016-03-22T08:40:24Z</time>
      </trkpt>
      <trkpt lat="46.37819" lon="6.73736">
        <ele>1671.1</ele>
        <time>2016-03-22T08:40:25Z</time>
      </trkpt>
      <trkpt lat="46.37821" lon="6.73718">
        <ele>1669.9</ele>
        <time>2016-03-22T08:40:26Z</time>
      </trkpt>
      <trkpt lat="46.37824" lon="6.73701">
        <ele>1667.1</ele>
        <time>2016-03-22T08:40:26Z</time>
      </trkpt>
      <trkpt lat="46.37825" lon="6.73683">
        <ele>1664.9</ele>
        <time>2016-03-22T08:40:27Z</time>
      </trkpt>
      <trkpt lat="46.37827" lon="6.73664">
        <ele>1662.8</ele>
        <time>2016-03-22T08:40:29Z</time>
      </trkpt>
      <trkpt lat="46.3783" lon="6.73647">
        <ele>1661</ele>
        <time>2016-03-22T08:40:30Z</time>
      </trkpt>
      <trkpt lat="46.37833" lon="6.7363">
        <ele>1659.8</ele>
        <time>2016-03-22T08:40:31Z</time>
      </trkpt>
      <trkpt lat="46.37837" lon="6.73613">
        <ele>1658.5</ele>
        <time>2016-03-22T08:40:31Z</time>
      </trkpt>
      <trkpt lat="46.37842" lon="6.73598">
        <ele>1657.5</ele>
        <time>2016-03-22T08:40:33Z</time>
      </trkpt>
      <trkpt lat="46.37846" lon="6.73583">
        <ele>1655.9</ele>
        <time>2016-03-22T08:40:34Z</time>
      </trkpt>
      <trkpt lat="46.37852" lon="6.73568">
        <ele>1653.9</ele>
        <time>2016-03-22T08:40:35Z</time>
      </trkpt>
      <trkpt lat="46.37856" lon="6.73553">
        <ele>1652</ele>
        <time>2016-03-22T08:40:36Z</time>
      </trkpt>
      <trkpt lat="46.3786" lon="6.73538">
        <ele>1650.3</ele>
        <time>2016-03-22T08:40:37Z</time>
      </trkpt>
      <trkpt lat="46.37864" lon="6.73523">
        <ele>1648.6</ele>
        <time>2016-03-22T08:40:38Z</time>
      </trkpt>
      <trkpt lat="46.37867" lon="6.73507">
        <ele>1647.6</ele>
        <time>2016-03-22T08:40:38Z</time>
      </trkpt>
      <trkpt lat="46.37869" lon="6.73492">
        <ele>1646.5</ele>
        <time>2016-03-22T08:40:40Z</time>
      </trkpt>
      <trkpt lat="46.37872" lon="6.73478">
        <ele>1645.1</ele>
        <time>2016-03-22T08:40:40Z</time>
      </trkpt>
      <trkpt lat="46.37874" lon="6.73462">
        <ele>1644.4</ele>
        <time>2016-03-22T08:40:42Z</time>
      </trkpt>
      <trkpt lat="46.37875" lon="6.73447">
        <ele>1643.5</ele>
        <time>2016-03-22T08:40:43Z</time>
      </trkpt>
      <trkpt lat="46.37877" lon="6.73432">
        <ele>1643.5</ele>
        <time>2016-03-22T08:40:44Z</time>
      </trkpt>
      <trkpt lat="46.37878" lon="6.73418">
        <ele>1642.9</ele>
        <time>2016-03-22T08:40:45Z</time>
      </trkpt>
      <trkpt lat="46.37879" lon="6.73405">
        <ele>1642.6</ele>
        <time>2016-03-22T08:40:45Z</time>
      </trkpt>
      <trkpt lat="46.37881" lon="6.73393">
        <ele>1641.9</ele>
        <time>2016-03-22T08:40:47Z</time>
      </trkpt>
      <trkpt lat="46.37884" lon="6.73382">
        <ele>1640.9</ele>
        <time>2016-03-22T08:40:48Z</time>
      </trkpt>
      <trkpt lat="46.37889" lon="6.73374">
        <ele>1639.8</ele>
        <time>2016-03-22T08:40:49Z</time>
      </trkpt>
      <trkpt lat="46.37892" lon="6.73365">
        <ele>1639.5</ele>
        <time>2016-03-22T08:40:49Z</time>
      </trkpt>
      <trkpt lat="46.37901" lon="6.73349">
        <ele>1639.8</ele>
        <time>2016-03-22T08:40:52Z</time>
      </trkpt>
      <trkpt lat="46.37911" lon="6.73333">
        <ele>1639</ele>
        <time>2016-03-22T08:40:53Z</time>
      </trkpt>
      <trkpt lat="46.3792" lon="6.73318">
        <ele>1638.9</ele>
        <time>2016-03-22T08:40:56Z</time>
      </trkpt>
      <trkpt lat="46.37927" lon="6.733">
        <ele>1637.8</ele>
        <time>2016-03-22T08:40:57Z</time>
      </trkpt>
      <trkpt lat="46.37934" lon="6.73281">
        <ele>1637</ele>
        <time>2016-03-22T08:41:00Z</time>
      </trkpt>
      <trkpt lat="46.37936" lon="6.73271">
        <ele>1636.8</ele>
        <time>2016-03-22T08:41:01Z</time>
      </trkpt>
      <trkpt lat="46.37939" lon="6.73251">
        <ele>1635.9</ele>
        <time>2016-03-22T08:41:02Z</time>
      </trkpt>
      <trkpt lat="46.37941" lon="6.73241">
        <ele>1635.1</ele>
        <time>2016-03-22T08:41:03Z</time>
      </trkpt>
      <trkpt lat="46.37942" lon="6.7323">
        <ele>1634.5</ele>
        <time>2016-03-22T08:41:05Z</time>
      </trkpt>
      <trkpt lat="46.37943" lon="6.73212">
        <ele>1633.6</ele>
        <time>2016-03-22T08:41:07Z</time>
      </trkpt>
      <trkpt lat="46.37943" lon="6.73194">
        <ele>1631.9</ele>
        <time>2016-03-22T08:41:08Z</time>
      </trkpt>
      <trkpt lat="46.37942" lon="6.73176">
        <ele>1631.3</ele>
        <time>2016-03-22T08:41:11Z</time>
      </trkpt>
      <trkpt lat="46.37939" lon="6.73159">
        <ele>1630.3</ele>
        <time>2016-03-22T08:41:12Z</time>
      </trkpt>
      <trkpt lat="46.37936" lon="6.73143">
        <ele>1629.4</ele>
        <time>2016-03-22T08:41:15Z</time>
      </trkpt>
      <trkpt lat="46.3793" lon="6.73127">
        <ele>1628.5</ele>
        <time>2016-03-22T08:41:16Z</time>
      </trkpt>
      <trkpt lat="46.37926" lon="6.73111">
        <ele>1627.3</ele>
        <time>2016-03-22T08:41:19Z</time>
      </trkpt>
      <trkpt lat="46.37924" lon="6.73096">
        <ele>1626.5</ele>
        <time>2016-03-22T08:41:21Z</time>
      </trkpt>
      <trkpt lat="46.37924" lon="6.7308">
        <ele>1625.5</ele>
        <time>2016-03-22T08:41:23Z</time>
      </trkpt>
      <trkpt lat="46.37924" lon="6.73064">
        <ele>1624.3</ele>
        <time>2016-03-22T08:41:25Z</time>
      </trkpt>
      <trkpt lat="46.37922" lon="6.73046">
        <ele>1624</ele>
        <time>2016-03-22T08:41:26Z</time>
      </trkpt>
      <trkpt lat="46.3792" lon="6.73029">
        <ele>1623.6</ele>
        <time>2016-03-22T08:41:29Z</time>
      </trkpt>
      <trkpt lat="46.37919" lon="6.73016">
        <ele>1624.6</ele>
        <time>2016-03-22T08:41:31Z</time>
      </trkpt>
      <trkpt lat="46.37912" lon="6.7302">
        <ele>1623.6</ele>
        <time>2016-03-22T08:41:38Z</time>
      </trkpt>
      <trkpt lat="46.3791" lon="6.73026">
        <ele>1624</ele>
        <time>2016-03-22T08:41:44Z</time>
      </trkpt>
      <trkpt lat="46.3791" lon="6.73027">
        <ele>1624.1</ele>
        <time>2016-03-22T08:41:46Z</time>
      </trkpt>
      <trkpt lat="46.37908" lon="6.7303">
        <ele>1624.3</ele>
        <time>2016-03-22T08:41:53Z</time>
      </trkpt>
      <trkpt lat="46.37908" lon="6.7303">
        <ele>1624.8</ele>
        <time>2016-03-22T08:41:54Z</time>
      </trkpt>
      <trkpt lat="46.37903" lon="6.73038">
        <ele>1627</ele>
        <time>2016-03-22T08:41:59Z</time>
      </trkpt>
      <trkpt lat="46.37897" lon="6.73048">
        <ele>1628.8</ele>
        <time>2016-03-22T08:42:02Z</time>
      </trkpt>
      <trkpt lat="46.37892" lon="6.73056">
        <ele>1632.5</ele>
        <time>2016-03-22T08:42:04Z</time>
      </trkpt>
      <trkpt lat="46.37886" lon="6.73064">
        <ele>1635</ele>
        <time>2016-03-22T08:42:07Z</time>
      </trkpt>
      <trkpt lat="46.3788" lon="6.73072">
        <ele>1638</ele>
        <time>2016-03-22T08:42:11Z</time>
      </trkpt>
      <trkpt lat="46.37875" lon="6.7308">
        <ele>1640.9</ele>
        <time>2016-03-22T08:42:14Z</time>
      </trkpt>
      <trkpt lat="46.37869" lon="6.7309">
        <ele>1644.8</ele>
        <time>2016-03-22T08:42:18Z</time>
      </trkpt>
      <trkpt lat="46.37863" lon="6.73098">
        <ele>1646.1</ele>
        <time>2016-03-22T08:42:21Z</time>
      </trkpt>
      <trkpt lat="46.37858" lon="6.73108">
        <ele>1646.9</ele>
        <time>2016-03-22T08:42:25Z</time>
      </trkpt>
      <trkpt lat="46.37852" lon="6.73117">
        <ele>1647.3</ele>
        <time>2016-03-22T08:42:30Z</time>
      </trkpt>
      <trkpt lat="46.37846" lon="6.73127">
        <ele>1647.6</ele>
        <time>2016-03-22T08:42:34Z</time>
      </trkpt>
      <trkpt lat="46.37841" lon="6.73135">
        <ele>1647.6</ele>
        <time>2016-03-22T08:42:38Z</time>
      </trkpt>
      <trkpt lat="46.37835" lon="6.73144">
        <ele>1648</ele>
        <time>2016-03-22T08:42:42Z</time>
      </trkpt>
      <trkpt lat="46.37829" lon="6.73153">
        <ele>1648.5</ele>
        <time>2016-03-22T08:42:46Z</time>
      </trkpt>
      <trkpt lat="46.37823" lon="6.73164">
        <ele>1651</ele>
        <time>2016-03-22T08:42:50Z</time>
      </trkpt>
      <trkpt lat="46.37818" lon="6.73172">
        <ele>1653.4</ele>
        <time>2016-03-22T08:42:52Z</time>
      </trkpt>
      <trkpt lat="46.37813" lon="6.73182">
        <ele>1656.5</ele>
        <time>2016-03-22T08:42:56Z</time>
      </trkpt>
      <trkpt lat="46.37807" lon="6.73191">
        <ele>1658.3</ele>
        <time>2016-03-22T08:42:59Z</time>
      </trkpt>
      <trkpt lat="46.37802" lon="6.732">
        <ele>1658.5</ele>
        <time>2016-03-22T08:43:01Z</time>
      </trkpt>
      <trkpt lat="46.37796" lon="6.7321">
        <ele>1658.8</ele>
        <time>2016-03-22T08:43:06Z</time>
      </trkpt>
      <trkpt lat="46.37791" lon="6.73218">
        <ele>1658.9</ele>
        <time>2016-03-22T08:43:09Z</time>
      </trkpt>
      <trkpt lat="46.37787" lon="6.73226">
        <ele>1658.9</ele>
        <time>2016-03-22T08:43:11Z</time>
      </trkpt>
      <trkpt lat="46.3778" lon="6.73236">
        <ele>1659.4</ele>
        <time>2016-03-22T08:43:15Z</time>
      </trkpt>
      <trkpt lat="46.37774" lon="6.73246">
        <ele>1660.6</ele>
        <time>2016-03-22T08:43:20Z</time>
      </trkpt>
      <trkpt lat="46.37769" lon="6.73256">
        <ele>1661.5</ele>
        <time>2016-03-22T08:43:24Z</time>
      </trkpt>
      <trkpt lat="46.37763" lon="6.73265">
        <ele>1662.6</ele>
        <time>2016-03-22T08:43:28Z</time>
      </trkpt>
      <trkpt lat="46.37756" lon="6.73276">
        <ele>1664</ele>
        <time>2016-03-22T08:43:32Z</time>
      </trkpt>
      <trkpt lat="46.37751" lon="6.73286">
        <ele>1665.5</ele>
        <time>2016-03-22T08:43:36Z</time>
      </trkpt>
      <trkpt lat="46.37744" lon="6.73296">
        <ele>1667.1</ele>
        <time>2016-03-22T08:43:39Z</time>
      </trkpt>
      <trkpt lat="46.37738" lon="6.73306">
        <ele>1668.8</ele>
        <time>2016-03-22T08:43:43Z</time>
      </trkpt>
      <trkpt lat="46.37732" lon="6.73316">
        <ele>1670.6</ele>
        <time>2016-03-22T08:43:47Z</time>
      </trkpt>
      <trkpt lat="46.37727" lon="6.73326">
        <ele>1671.4</ele>
        <time>2016-03-22T08:43:52Z</time>
      </trkpt>
      <trkpt lat="46.37721" lon="6.73335">
        <ele>1671.8</ele>
        <time>2016-03-22T08:43:56Z</time>
      </trkpt>
      <trkpt lat="46.37715" lon="6.73345">
        <ele>1672.5</ele>
        <time>2016-03-22T08:44:00Z</time>
      </trkpt>
      <trkpt lat="46.3771" lon="6.73354">
        <ele>1673.5</ele>
        <time>2016-03-22T08:44:04Z</time>
      </trkpt>
      <trkpt lat="46.37704" lon="6.73364">
        <ele>1674.8</ele>
        <time>2016-03-22T08:44:08Z</time>
      </trkpt>
      <trkpt lat="46.37697" lon="6.73374">
        <ele>1676</ele>
        <time>2016-03-22T08:44:12Z</time>
      </trkpt>
      <trkpt lat="46.37691" lon="6.73384">
        <ele>1677.5</ele>
        <time>2016-03-22T08:44:15Z</time>
      </trkpt>
      <trkpt lat="46.37686" lon="6.73394">
        <ele>1679.1</ele>
        <time>2016-03-22T08:44:19Z</time>
      </trkpt>
      <trkpt lat="46.3768" lon="6.73405">
        <ele>1681.3</ele>
        <time>2016-03-22T08:44:24Z</time>
      </trkpt>
      <trkpt lat="46.37674" lon="6.73414">
        <ele>1683.6</ele>
        <time>2016-03-22T08:44:27Z</time>
      </trkpt>
      <trkpt lat="46.37668" lon="6.73424">
        <ele>1687</ele>
        <time>2016-03-22T08:44:32Z</time>
      </trkpt>
      <trkpt lat="46.37663" lon="6.73433">
        <ele>1690.6</ele>
        <time>2016-03-22T08:44:36Z</time>
      </trkpt>
      <trkpt lat="46.37657" lon="6.73443">
        <ele>1694.8</ele>
        <time>2016-03-22T08:44:40Z</time>
      </trkpt>
      <trkpt lat="46.37652" lon="6.73452">
        <ele>1698.6</ele>
        <time>2016-03-22T08:44:43Z</time>
      </trkpt>
      <trkpt lat="46.37646" lon="6.73461">
        <ele>1703</ele>
        <time>2016-03-22T08:44:47Z</time>
      </trkpt>
      <trkpt lat="46.37641" lon="6.7347">
        <ele>1707.1</ele>
        <time>2016-03-22T08:44:51Z</time>
      </trkpt>
      <trkpt lat="46.37635" lon="6.73479">
        <ele>1711</ele>
        <time>2016-03-22T08:44:56Z</time>
      </trkpt>
      <trkpt lat="46.3763" lon="6.73488">
        <ele>1714.9</ele>
        <time>2016-03-22T08:45:00Z</time>
      </trkpt>
      <trkpt lat="46.37625" lon="6.73497">
        <ele>1718</ele>
        <time>2016-03-22T08:45:04Z</time>
      </trkpt>
      <trkpt lat="46.37619" lon="6.73506">
        <ele>1721</ele>
        <time>2016-03-22T08:45:08Z</time>
      </trkpt>
      <trkpt lat="46.37613" lon="6.73515">
        <ele>1724.5</ele>
        <time>2016-03-22T08:45:11Z</time>
      </trkpt>
      <trkpt lat="46.37607" lon="6.73525">
        <ele>1728.3</ele>
        <time>2016-03-22T08:45:15Z</time>
      </trkpt>
      <trkpt lat="46.37602" lon="6.73535">
        <ele>1732.1</ele>
        <time>2016-03-22T08:45:19Z</time>
      </trkpt>
      <trkpt lat="46.37596" lon="6.73544">
        <ele>1736</ele>
        <time>2016-03-22T08:45:24Z</time>
      </trkpt>
      <trkpt lat="46.3759" lon="6.73554">
        <ele>1740</ele>
        <time>2016-03-22T08:45:28Z</time>
      </trkpt>
      <trkpt lat="46.37585" lon="6.73563">
        <ele>1744.4</ele>
        <time>2016-03-22T08:45:32Z</time>
      </trkpt>
      <trkpt lat="46.37579" lon="6.73572">
        <ele>1748</ele>
        <time>2016-03-22T08:45:36Z</time>
      </trkpt>
      <trkpt lat="46.37573" lon="6.73582">
        <ele>1752.4</ele>
        <time>2016-03-22T08:45:40Z</time>
      </trkpt>
      <trkpt lat="46.37569" lon="6.73591">
        <ele>1756</ele>
        <time>2016-03-22T08:45:44Z</time>
      </trkpt>
      <trkpt lat="46.37563" lon="6.73601">
        <ele>1758.6</ele>
        <time>2016-03-22T08:45:48Z</time>
      </trkpt>
      <trkpt lat="46.37557" lon="6.7361">
        <ele>1762</ele>
        <time>2016-03-22T08:45:51Z</time>
      </trkpt>
      <trkpt lat="46.37551" lon="6.7362">
        <ele>1765.1</ele>
        <time>2016-03-22T08:45:55Z</time>
      </trkpt>
      <trkpt lat="46.37545" lon="6.73629">
        <ele>1768.1</ele>
        <time>2016-03-22T08:46:00Z</time>
      </trkpt>
      <trkpt lat="46.37539" lon="6.73638">
        <ele>1771.5</ele>
        <time>2016-03-22T08:46:04Z</time>
      </trkpt>
      <trkpt lat="46.37534" lon="6.73648">
        <ele>1775</ele>
        <time>2016-03-22T08:46:08Z</time>
      </trkpt>
      <trkpt lat="46.37528" lon="6.73657">
        <ele>1778.3</ele>
        <time>2016-03-22T08:46:12Z</time>
      </trkpt>
      <trkpt lat="46.37522" lon="6.73666">
        <ele>1781.8</ele>
        <time>2016-03-22T08:46:16Z</time>
      </trkpt>
      <trkpt lat="46.37517" lon="6.73676">
        <ele>1785.5</ele>
        <time>2016-03-22T08:46:19Z</time>
      </trkpt>
      <trkpt lat="46.37512" lon="6.73686">
        <ele>1788.6</ele>
        <time>2016-03-22T08:46:23Z</time>
      </trkpt>
      <trkpt lat="46.37507" lon="6.73695">
        <ele>1792.1</ele>
        <time>2016-03-22T08:46:28Z</time>
      </trkpt>
      <trkpt lat="46.37502" lon="6.73704">
        <ele>1794.9</ele>
        <time>2016-03-22T08:46:32Z</time>
      </trkpt>
      <trkpt lat="46.37496" lon="6.73714">
        <ele>1797.3</ele>
        <time>2016-03-22T08:46:36Z</time>
      </trkpt>
      <trkpt lat="46.3749" lon="6.73723">
        <ele>1799.4</ele>
        <time>2016-03-22T08:46:40Z</time>
      </trkpt>
      <trkpt lat="46.37484" lon="6.73733">
        <ele>1802.5</ele>
        <time>2016-03-22T08:46:44Z</time>
      </trkpt>
      <trkpt lat="46.37479" lon="6.73743">
        <ele>1804.3</ele>
        <time>2016-03-22T08:46:48Z</time>
      </trkpt>
      <trkpt lat="46.37473" lon="6.73752">
        <ele>1805.1</ele>
        <time>2016-03-22T08:46:52Z</time>
      </trkpt>
      <trkpt lat="46.37468" lon="6.73761">
        <ele>1805.3</ele>
        <time>2016-03-22T08:46:55Z</time>
      </trkpt>
      <trkpt lat="46.37462" lon="6.73771">
        <ele>1805.5</ele>
        <time>2016-03-22T08:47:00Z</time>
      </trkpt>
      <trkpt lat="46.37456" lon="6.73782">
        <ele>1805.5</ele>
        <time>2016-03-22T08:47:03Z</time>
      </trkpt>
      <trkpt lat="46.3745" lon="6.73792">
        <ele>1806</ele>
        <time>2016-03-22T08:47:08Z</time>
      </trkpt>
      <trkpt lat="46.37444" lon="6.73802">
        <ele>1807</ele>
        <time>2016-03-22T08:47:11Z</time>
      </trkpt>
      <trkpt lat="46.37438" lon="6.73812">
        <ele>1807.8</ele>
        <time>2016-03-22T08:47:15Z</time>
      </trkpt>
      <trkpt lat="46.37432" lon="6.73822">
        <ele>1808.6</ele>
        <time>2016-03-22T08:47:19Z</time>
      </trkpt>
      <trkpt lat="46.37426" lon="6.73832">
        <ele>1809.8</ele>
        <time>2016-03-22T08:47:23Z</time>
      </trkpt>
      <trkpt lat="46.3742" lon="6.73842">
        <ele>1810.4</ele>
        <time>2016-03-22T08:47:27Z</time>
      </trkpt>
      <trkpt lat="46.37414" lon="6.73852">
        <ele>1811.8</ele>
        <time>2016-03-22T08:47:31Z</time>
      </trkpt>
      <trkpt lat="46.37409" lon="6.73862">
        <ele>1813</ele>
        <time>2016-03-22T08:47:36Z</time>
      </trkpt>
      <trkpt lat="46.37403" lon="6.73872">
        <ele>1814</ele>
        <time>2016-03-22T08:47:40Z</time>
      </trkpt>
      <trkpt lat="46.37397" lon="6.73882">
        <ele>1815.5</ele>
        <time>2016-03-22T08:47:44Z</time>
      </trkpt>
      <trkpt lat="46.37391" lon="6.73892">
        <ele>1818.5</ele>
        <time>2016-03-22T08:47:48Z</time>
      </trkpt>
      <trkpt lat="46.37386" lon="6.73901">
        <ele>1821.1</ele>
        <time>2016-03-22T08:47:52Z</time>
      </trkpt>
      <trkpt lat="46.3738" lon="6.73911">
        <ele>1824.1</ele>
        <time>2016-03-22T08:47:55Z</time>
      </trkpt>
      <trkpt lat="46.37374" lon="6.7392">
        <ele>1827.6</ele>
        <time>2016-03-22T08:47:59Z</time>
      </trkpt>
      <trkpt lat="46.37369" lon="6.7393">
        <ele>1830.8</ele>
        <time>2016-03-22T08:48:04Z</time>
      </trkpt>
      <trkpt lat="46.37364" lon="6.73939">
        <ele>1834</ele>
        <time>2016-03-22T08:48:07Z</time>
      </trkpt>
      <trkpt lat="46.37358" lon="6.73948">
        <ele>1837.8</ele>
        <time>2016-03-22T08:48:12Z</time>
      </trkpt>
      <trkpt lat="46.37353" lon="6.73958">
        <ele>1841.5</ele>
        <time>2016-03-22T08:48:16Z</time>
      </trkpt>
      <trkpt lat="46.37347" lon="6.73967">
        <ele>1845.4</ele>
        <time>2016-03-22T08:48:19Z</time>
      </trkpt>
      <trkpt lat="46.37341" lon="6.73976">
        <ele>1849.6</ele>
        <time>2016-03-22T08:48:24Z</time>
      </trkpt>
      <trkpt lat="46.37335" lon="6.73985">
        <ele>1853</ele>
        <time>2016-03-22T08:48:27Z</time>
      </trkpt>
      <trkpt lat="46.37329" lon="6.73995">
        <ele>1856</ele>
        <time>2016-03-22T08:48:31Z</time>
      </trkpt>
      <trkpt lat="46.37323" lon="6.74004">
        <ele>1858.3</ele>
        <time>2016-03-22T08:48:35Z</time>
      </trkpt>
      <trkpt lat="46.37317" lon="6.74014">
        <ele>1861.6</ele>
        <time>2016-03-22T08:48:40Z</time>
      </trkpt>
      <trkpt lat="46.37311" lon="6.74024">
        <ele>1864.4</ele>
        <time>2016-03-22T08:48:44Z</time>
      </trkpt>
      <trkpt lat="46.37305" lon="6.74034">
        <ele>1867.9</ele>
        <time>2016-03-22T08:48:48Z</time>
      </trkpt>
      <trkpt lat="46.37299" lon="6.74043">
        <ele>1871.5</ele>
        <time>2016-03-22T08:48:52Z</time>
      </trkpt>
      <trkpt lat="46.37293" lon="6.74052">
        <ele>1874.8</ele>
        <time>2016-03-22T08:48:55Z</time>
      </trkpt>
      <trkpt lat="46.37287" lon="6.74062">
        <ele>1877.5</ele>
        <time>2016-03-22T08:48:59Z</time>
      </trkpt>
      <trkpt lat="46.37282" lon="6.74071">
        <ele>1880.6</ele>
        <time>2016-03-22T08:49:03Z</time>
      </trkpt>
      <trkpt lat="46.37276" lon="6.7408">
        <ele>1884.1</ele>
        <time>2016-03-22T08:49:08Z</time>
      </trkpt>
      <trkpt lat="46.3727" lon="6.7409">
        <ele>1887.8</ele>
        <time>2016-03-22T08:49:12Z</time>
      </trkpt>
      <trkpt lat="46.37264" lon="6.74099">
        <ele>1891.1</ele>
        <time>2016-03-22T08:49:16Z</time>
      </trkpt>
      <trkpt lat="46.37258" lon="6.74109">
        <ele>1894.4</ele>
        <time>2016-03-22T08:49:20Z</time>
      </trkpt>
      <trkpt lat="46.37253" lon="6.74119">
        <ele>1897.5</ele>
        <time>2016-03-22T08:49:24Z</time>
      </trkpt>
      <trkpt lat="46.37247" lon="6.74128">
        <ele>1900.5</ele>
        <time>2016-03-22T08:49:27Z</time>
      </trkpt>
      <trkpt lat="46.37241" lon="6.74137">
        <ele>1903.6</ele>
        <time>2016-03-22T08:49:31Z</time>
      </trkpt>
      <trkpt lat="46.37236" lon="6.74147">
        <ele>1907</ele>
        <time>2016-03-22T08:49:35Z</time>
      </trkpt>
      <trkpt lat="46.3723" lon="6.74156">
        <ele>1910.5</ele>
        <time>2016-03-22T08:49:40Z</time>
      </trkpt>
      <trkpt lat="46.37224" lon="6.74166">
        <ele>1913.9</ele>
        <time>2016-03-22T08:49:44Z</time>
      </trkpt>
      <trkpt lat="46.37218" lon="6.74175">
        <ele>1916.3</ele>
        <time>2016-03-22T08:49:48Z</time>
      </trkpt>
      <trkpt lat="46.37212" lon="6.74185">
        <ele>1918</ele>
        <time>2016-03-22T08:49:52Z</time>
      </trkpt>
      <trkpt lat="46.37206" lon="6.74195">
        <ele>1919.8</ele>
        <time>2016-03-22T08:49:56Z</time>
      </trkpt>
      <trkpt lat="46.372" lon="6.74205">
        <ele>1921.9</ele>
        <time>2016-03-22T08:50:00Z</time>
      </trkpt>
      <trkpt lat="46.37195" lon="6.74215">
        <ele>1923.5</ele>
        <time>2016-03-22T08:50:03Z</time>
      </trkpt>
      <trkpt lat="46.37189" lon="6.74224">
        <ele>1923.6</ele>
        <time>2016-03-22T08:50:07Z</time>
      </trkpt>
      <trkpt lat="46.37183" lon="6.74233">
        <ele>1924.3</ele>
        <time>2016-03-22T08:50:12Z</time>
      </trkpt>
      <trkpt lat="46.37176" lon="6.74245">
        <ele>1922.9</ele>
        <time>2016-03-22T08:50:15Z</time>
      </trkpt>
      <trkpt lat="46.37174" lon="6.74255">
        <ele>1923.3</ele>
        <time>2016-03-22T08:50:18Z</time>
      </trkpt>
      <trkpt lat="46.37175" lon="6.7427">
        <ele>1922.6</ele>
        <time>2016-03-22T08:50:20Z</time>
      </trkpt>
      <trkpt lat="46.37183" lon="6.74278">
        <ele>1922.3</ele>
        <time>2016-03-22T08:50:23Z</time>
      </trkpt>
      <trkpt lat="46.37184" lon="6.7427">
        <ele>1922.6</ele>
        <time>2016-03-22T08:50:31Z</time>
      </trkpt>
      <trkpt lat="46.37184" lon="6.7427">
        <ele>1922.5</ele>
        <time>2016-03-22T08:50:35Z</time>
      </trkpt>
      <trkpt lat="46.37189" lon="6.74262">
        <ele>1923</ele>
        <time>2016-03-22T08:51:01Z</time>
      </trkpt>
      <trkpt lat="46.37198" lon="6.74257">
        <ele>1922</ele>
        <time>2016-03-22T08:51:06Z</time>
      </trkpt>
      <trkpt lat="46.37206" lon="6.74251">
        <ele>1921.5</ele>
        <time>2016-03-22T08:51:10Z</time>
      </trkpt>
      <trkpt lat="46.37212" lon="6.74243">
        <ele>1920.8</ele>
        <time>2016-03-22T08:51:12Z</time>
      </trkpt>
      <trkpt lat="46.37215" lon="6.74229">
        <ele>1919.1</ele>
        <time>2016-03-22T08:51:16Z</time>
      </trkpt>
      <trkpt lat="46.37221" lon="6.74217">
        <ele>1918</ele>
        <time>2016-03-22T08:51:18Z</time>
      </trkpt>
      <trkpt lat="46.37229" lon="6.74219">
        <ele>1917</ele>
        <time>2016-03-22T08:51:19Z</time>
      </trkpt>
      <trkpt lat="46.37237" lon="6.7421">
        <ele>1913.4</ele>
        <time>2016-03-22T08:51:21Z</time>
      </trkpt>
      <trkpt lat="46.37241" lon="6.74194">
        <ele>1910.8</ele>
        <time>2016-03-22T08:51:23Z</time>
      </trkpt>
      <trkpt lat="46.37254" lon="6.74193">
        <ele>1908.5</ele>
        <time>2016-03-22T08:51:25Z</time>
      </trkpt>
      <trkpt lat="46.37263" lon="6.74181">
        <ele>1907.4</ele>
        <time>2016-03-22T08:51:27Z</time>
      </trkpt>
      <trkpt lat="46.37269" lon="6.74171">
        <ele>1903</ele>
        <time>2016-03-22T08:51:29Z</time>
      </trkpt>
      <trkpt lat="46.37279" lon="6.74164">
        <ele>1899.5</ele>
        <time>2016-03-22T08:51:31Z</time>
      </trkpt>
      <trkpt lat="46.37287" lon="6.74152">
        <ele>1896</ele>
        <time>2016-03-22T08:51:34Z</time>
      </trkpt>
      <trkpt lat="46.37299" lon="6.74144">
        <ele>1892.5</ele>
        <time>2016-03-22T08:51:35Z</time>
      </trkpt>
      <trkpt lat="46.37301" lon="6.74133">
        <ele>1889.5</ele>
        <time>2016-03-22T08:51:37Z</time>
      </trkpt>
      <trkpt lat="46.37307" lon="6.74125">
        <ele>1886.8</ele>
        <time>2016-03-22T08:51:38Z</time>
      </trkpt>
      <trkpt lat="46.37319" lon="6.74117">
        <ele>1883.4</ele>
        <time>2016-03-22T08:51:39Z</time>
      </trkpt>
      <trkpt lat="46.37326" lon="6.74111">
        <ele>1880.3</ele>
        <time>2016-03-22T08:51:41Z</time>
      </trkpt>
      <trkpt lat="46.37328" lon="6.74098">
        <ele>1878.4</ele>
        <time>2016-03-22T08:51:42Z</time>
      </trkpt>
      <trkpt lat="46.37332" lon="6.74087">
        <ele>1876.5</ele>
        <time>2016-03-22T08:51:42Z</time>
      </trkpt>
      <trkpt lat="46.37341" lon="6.74085">
        <ele>1873.5</ele>
        <time>2016-03-22T08:51:43Z</time>
      </trkpt>
      <trkpt lat="46.37348" lon="6.74081">
        <ele>1871.5</ele>
        <time>2016-03-22T08:51:45Z</time>
      </trkpt>
      <trkpt lat="46.37355" lon="6.74076">
        <ele>1871</ele>
        <time>2016-03-22T08:51:46Z</time>
      </trkpt>
      <trkpt lat="46.3736" lon="6.74065">
        <ele>1867.5</ele>
        <time>2016-03-22T08:51:47Z</time>
      </trkpt>
      <trkpt lat="46.37365" lon="6.74054">
        <ele>1864.6</ele>
        <time>2016-03-22T08:51:47Z</time>
      </trkpt>
      <trkpt lat="46.37372" lon="6.74048">
        <ele>1862</ele>
        <time>2016-03-22T08:51:49Z</time>
      </trkpt>
      <trkpt lat="46.37379" lon="6.7404">
        <ele>1860</ele>
        <time>2016-03-22T08:51:50Z</time>
      </trkpt>
      <trkpt lat="46.37386" lon="6.74039">
        <ele>1858.5</ele>
        <time>2016-03-22T08:51:51Z</time>
      </trkpt>
      <trkpt lat="46.37391" lon="6.74028">
        <ele>1854.9</ele>
        <time>2016-03-22T08:51:51Z</time>
      </trkpt>
      <trkpt lat="46.37397" lon="6.74017">
        <ele>1851.8</ele>
        <time>2016-03-22T08:51:52Z</time>
      </trkpt>
      <trkpt lat="46.37404" lon="6.74008">
        <ele>1848.8</ele>
        <time>2016-03-22T08:51:54Z</time>
      </trkpt>
      <trkpt lat="46.3741" lon="6.74001">
        <ele>1847.1</ele>
        <time>2016-03-22T08:51:55Z</time>
      </trkpt>
      <trkpt lat="46.37417" lon="6.73994">
        <ele>1845.5</ele>
        <time>2016-03-22T08:51:55Z</time>
      </trkpt>
      <trkpt lat="46.37421" lon="6.73982">
        <ele>1842.5</ele>
        <time>2016-03-22T08:51:57Z</time>
      </trkpt>
      <trkpt lat="46.37422" lon="6.7397">
        <ele>1840.8</ele>
        <time>2016-03-22T08:51:57Z</time>
      </trkpt>
      <trkpt lat="46.37425" lon="6.73959">
        <ele>1838</ele>
        <time>2016-03-22T08:51:59Z</time>
      </trkpt>
      <trkpt lat="46.3743" lon="6.7395">
        <ele>1836.3</ele>
        <time>2016-03-22T08:52:00Z</time>
      </trkpt>
      <trkpt lat="46.37433" lon="6.73939">
        <ele>1834.1</ele>
        <time>2016-03-22T08:52:01Z</time>
      </trkpt>
      <trkpt lat="46.37433" lon="6.73927">
        <ele>1832.9</ele>
        <time>2016-03-22T08:52:01Z</time>
      </trkpt>
      <trkpt lat="46.37434" lon="6.73913">
        <ele>1831.5</ele>
        <time>2016-03-22T08:52:03Z</time>
      </trkpt>
      <trkpt lat="46.37437" lon="6.739">
        <ele>1830</ele>
        <time>2016-03-22T08:52:04Z</time>
      </trkpt>
      <trkpt lat="46.37442" lon="6.73892">
        <ele>1828.6</ele>
        <time>2016-03-22T08:52:05Z</time>
      </trkpt>
      <trkpt lat="46.37449" lon="6.73885">
        <ele>1826.6</ele>
        <time>2016-03-22T08:52:05Z</time>
      </trkpt>
      <trkpt lat="46.37453" lon="6.73874">
        <ele>1824.9</ele>
        <time>2016-03-22T08:52:06Z</time>
      </trkpt>
      <trkpt lat="46.37458" lon="6.73863">
        <ele>1823.4</ele>
        <time>2016-03-22T08:52:08Z</time>
      </trkpt>
      <trkpt lat="46.37464" lon="6.73854">
        <ele>1822.5</ele>
        <time>2016-03-22T08:52:09Z</time>
      </trkpt>
      <trkpt lat="46.37469" lon="6.73844">
        <ele>1821.6</ele>
        <time>2016-03-22T08:52:09Z</time>
      </trkpt>
      <trkpt lat="46.37476" lon="6.73836">
        <ele>1819.4</ele>
        <time>2016-03-22T08:52:10Z</time>
      </trkpt>
      <trkpt lat="46.37478" lon="6.73826">
        <ele>1817.6</ele>
        <time>2016-03-22T08:52:12Z</time>
      </trkpt>
      <trkpt lat="46.3748" lon="6.73806">
        <ele>1815.9</ele>
        <time>2016-03-22T08:52:13Z</time>
      </trkpt>
      <trkpt lat="46.37481" lon="6.73796">
        <ele>1815</ele>
        <time>2016-03-22T08:52:14Z</time>
      </trkpt>
      <trkpt lat="46.37489" lon="6.73783">
        <ele>1812.5</ele>
        <time>2016-03-22T08:52:17Z</time>
      </trkpt>
      <trkpt lat="46.37495" lon="6.7377">
        <ele>1809.5</ele>
        <time>2016-03-22T08:52:18Z</time>
      </trkpt>
      <trkpt lat="46.37494" lon="6.73755">
        <ele>1807.5</ele>
        <time>2016-03-22T08:52:20Z</time>
      </trkpt>
      <trkpt lat="46.37492" lon="6.73741">
        <ele>1804.8</ele>
        <time>2016-03-22T08:52:23Z</time>
      </trkpt>
      <trkpt lat="46.3749" lon="6.73726">
        <ele>1803.3</ele>
        <time>2016-03-22T08:52:24Z</time>
      </trkpt>
      <trkpt lat="46.37487" lon="6.73713">
        <ele>1801.5</ele>
        <time>2016-03-22T08:52:27Z</time>
      </trkpt>
      <trkpt lat="46.37484" lon="6.73699">
        <ele>1798.4</ele>
        <time>2016-03-22T08:52:29Z</time>
      </trkpt>
      <trkpt lat="46.3749" lon="6.73689">
        <ele>1794.1</ele>
        <time>2016-03-22T08:52:31Z</time>
      </trkpt>
      <trkpt lat="46.37501" lon="6.73684">
        <ele>1789.5</ele>
        <time>2016-03-22T08:52:33Z</time>
      </trkpt>
      <trkpt lat="46.37504" lon="6.73668">
        <ele>1785.1</ele>
        <time>2016-03-22T08:52:35Z</time>
      </trkpt>
      <trkpt lat="46.37505" lon="6.73649">
        <ele>1781.4</ele>
        <time>2016-03-22T08:52:37Z</time>
      </trkpt>
      <trkpt lat="46.37514" lon="6.73637">
        <ele>1775.3</ele>
        <time>2016-03-22T08:52:38Z</time>
      </trkpt>
      <trkpt lat="46.37523" lon="6.73618">
        <ele>1771.5</ele>
        <time>2016-03-22T08:52:41Z</time>
      </trkpt>
      <trkpt lat="46.37526" lon="6.73607">
        <ele>1769.6</ele>
        <time>2016-03-22T08:52:41Z</time>
      </trkpt>
      <trkpt lat="46.37528" lon="6.73591">
        <ele>1767</ele>
        <time>2016-03-22T08:52:42Z</time>
      </trkpt>
      <trkpt lat="46.37531" lon="6.73578">
        <ele>1764.5</ele>
        <time>2016-03-22T08:52:44Z</time>
      </trkpt>
      <trkpt lat="46.3754" lon="6.7357">
        <ele>1764.5</ele>
        <time>2016-03-22T08:52:45Z</time>
      </trkpt>
      <trkpt lat="46.37546" lon="6.73561">
        <ele>1763.6</ele>
        <time>2016-03-22T08:52:45Z</time>
      </trkpt>
      <trkpt lat="46.37545" lon="6.73545">
        <ele>1760.8</ele>
        <time>2016-03-22T08:52:47Z</time>
      </trkpt>
      <trkpt lat="46.37544" lon="6.73533">
        <ele>1757.5</ele>
        <time>2016-03-22T08:52:47Z</time>
      </trkpt>
      <trkpt lat="46.37547" lon="6.73523">
        <ele>1755</ele>
        <time>2016-03-22T08:52:49Z</time>
      </trkpt>
      <trkpt lat="46.37549" lon="6.73512">
        <ele>1753</ele>
        <time>2016-03-22T08:52:49Z</time>
      </trkpt>
      <trkpt lat="46.37556" lon="6.73504">
        <ele>1751.5</ele>
        <time>2016-03-22T08:52:51Z</time>
      </trkpt>
      <trkpt lat="46.37557" lon="6.73493">
        <ele>1750.5</ele>
        <time>2016-03-22T08:52:52Z</time>
      </trkpt>
      <trkpt lat="46.37556" lon="6.73482">
        <ele>1749.5</ele>
        <time>2016-03-22T08:52:53Z</time>
      </trkpt>
      <trkpt lat="46.37555" lon="6.73472">
        <ele>1749</ele>
        <time>2016-03-22T08:52:53Z</time>
      </trkpt>
      <trkpt lat="46.37555" lon="6.7346">
        <ele>1745.6</ele>
        <time>2016-03-22T08:52:55Z</time>
      </trkpt>
      <trkpt lat="46.37554" lon="6.73448">
        <ele>1744</ele>
        <time>2016-03-22T08:52:55Z</time>
      </trkpt>
      <trkpt lat="46.37554" lon="6.73436">
        <ele>1743.9</ele>
        <time>2016-03-22T08:52:56Z</time>
      </trkpt>
      <trkpt lat="46.37554" lon="6.73424">
        <ele>1743</ele>
        <time>2016-03-22T08:52:58Z</time>
      </trkpt>
      <trkpt lat="46.37553" lon="6.73412">
        <ele>1741.4</ele>
        <time>2016-03-22T08:52:59Z</time>
      </trkpt>
      <trkpt lat="46.3755" lon="6.73402">
        <ele>1741</ele>
        <time>2016-03-22T08:53:00Z</time>
      </trkpt>
      <trkpt lat="46.37543" lon="6.73384">
        <ele>1740.5</ele>
        <time>2016-03-22T08:53:01Z</time>
      </trkpt>
      <trkpt lat="46.37535" lon="6.73367">
        <ele>1739.3</ele>
        <time>2016-03-22T08:53:03Z</time>
      </trkpt>
      <trkpt lat="46.37531" lon="6.73358">
        <ele>1738.5</ele>
        <time>2016-03-22T08:53:05Z</time>
      </trkpt>
      <trkpt lat="46.37526" lon="6.73346">
        <ele>1737.6</ele>
        <time>2016-03-22T08:53:05Z</time>
      </trkpt>
      <trkpt lat="46.37522" lon="6.73333">
        <ele>1736.5</ele>
        <time>2016-03-22T08:53:07Z</time>
      </trkpt>
      <trkpt lat="46.3752" lon="6.73321">
        <ele>1736</ele>
        <time>2016-03-22T08:53:08Z</time>
      </trkpt>
      <trkpt lat="46.37518" lon="6.73311">
        <ele>1735.6</ele>
        <time>2016-03-22T08:53:08Z</time>
      </trkpt>
      <trkpt lat="46.37515" lon="6.73299">
        <ele>1735.4</ele>
        <time>2016-03-22T08:53:10Z</time>
      </trkpt>
      <trkpt lat="46.37515" lon="6.73288">
        <ele>1734</ele>
        <time>2016-03-22T08:53:10Z</time>
      </trkpt>
      <trkpt lat="46.37514" lon="6.73276">
        <ele>1733.5</ele>
        <time>2016-03-22T08:53:11Z</time>
      </trkpt>
      <trkpt lat="46.37515" lon="6.73258">
        <ele>1731.8</ele>
        <time>2016-03-22T08:53:13Z</time>
      </trkpt>
      <trkpt lat="46.37513" lon="6.73246">
        <ele>1731</ele>
        <time>2016-03-22T08:53:15Z</time>
      </trkpt>
      <trkpt lat="46.37516" lon="6.73251">
        <ele>1727.6</ele>
        <time>2016-03-22T08:53:23Z</time>
      </trkpt>
      <trkpt lat="46.37516" lon="6.73251">
        <ele>1727.6</ele>
        <time>2016-03-22T08:53:24Z</time>
      </trkpt>
      <trkpt lat="46.37524" lon="6.73258">
        <ele>1726.5</ele>
        <time>2016-03-22T08:53:33Z</time>
      </trkpt>
      <trkpt lat="46.37532" lon="6.73256">
        <ele>1723</ele>
        <time>2016-03-22T08:53:37Z</time>
      </trkpt>
      <trkpt lat="46.37539" lon="6.73254">
        <ele>1720</ele>
        <time>2016-03-22T08:53:39Z</time>
      </trkpt>
      <trkpt lat="46.37557" lon="6.73234">
        <ele>1718.1</ele>
        <time>2016-03-22T08:53:41Z</time>
      </trkpt>
      <trkpt lat="46.37561" lon="6.7322">
        <ele>1717.1</ele>
        <time>2016-03-22T08:53:44Z</time>
      </trkpt>
      <trkpt lat="46.37562" lon="6.73209">
        <ele>1715.4</ele>
        <time>2016-03-22T08:53:45Z</time>
      </trkpt>
      <trkpt lat="46.37566" lon="6.73199">
        <ele>1714.8</ele>
        <time>2016-03-22T08:53:48Z</time>
      </trkpt>
      <trkpt lat="46.37569" lon="6.73185">
        <ele>1713</ele>
        <time>2016-03-22T08:53:51Z</time>
      </trkpt>
      <trkpt lat="46.37571" lon="6.73174">
        <ele>1711.5</ele>
        <time>2016-03-22T08:53:53Z</time>
      </trkpt>
      <trkpt lat="46.37574" lon="6.73164">
        <ele>1710</ele>
        <time>2016-03-22T08:53:55Z</time>
      </trkpt>
      <trkpt lat="46.3758" lon="6.73155">
        <ele>1709.3</ele>
        <time>2016-03-22T08:53:56Z</time>
      </trkpt>
      <trkpt lat="46.37588" lon="6.73155">
        <ele>1707.3</ele>
        <time>2016-03-22T08:53:59Z</time>
      </trkpt>
      <trkpt lat="46.37613" lon="6.73159">
        <ele>1705.9</ele>
        <time>2016-03-22T08:54:01Z</time>
      </trkpt>
      <trkpt lat="46.37628" lon="6.73155">
        <ele>1700.5</ele>
        <time>2016-03-22T08:54:03Z</time>
      </trkpt>
      <trkpt lat="46.37637" lon="6.73154">
        <ele>1697.8</ele>
        <time>2016-03-22T08:54:03Z</time>
      </trkpt>
      <trkpt lat="46.37648" lon="6.73156">
        <ele>1693.9</ele>
        <time>2016-03-22T08:54:05Z</time>
      </trkpt>
      <trkpt lat="46.37656" lon="6.73159">
        <ele>1691.5</ele>
        <time>2016-03-22T08:54:05Z</time>
      </trkpt>
      <trkpt lat="46.37664" lon="6.73149">
        <ele>1685.8</ele>
        <time>2016-03-22T08:54:07Z</time>
      </trkpt>
      <trkpt lat="46.37672" lon="6.73145">
        <ele>1682.9</ele>
        <time>2016-03-22T08:54:07Z</time>
      </trkpt>
      <trkpt lat="46.37683" lon="6.73148">
        <ele>1680.6</ele>
        <time>2016-03-22T08:54:09Z</time>
      </trkpt>
      <trkpt lat="46.37692" lon="6.7315">
        <ele>1678</ele>
        <time>2016-03-22T08:54:09Z</time>
      </trkpt>
      <trkpt lat="46.37701" lon="6.73151">
        <ele>1674</ele>
        <time>2016-03-22T08:54:11Z</time>
      </trkpt>
      <trkpt lat="46.3771" lon="6.73152">
        <ele>1671.5</ele>
        <time>2016-03-22T08:54:11Z</time>
      </trkpt>
      <trkpt lat="46.37719" lon="6.73143">
        <ele>1669.3</ele>
        <time>2016-03-22T08:54:13Z</time>
      </trkpt>
      <trkpt lat="46.37729" lon="6.73142">
        <ele>1667</ele>
        <time>2016-03-22T08:54:14Z</time>
      </trkpt>
      <trkpt lat="46.37738" lon="6.73144">
        <ele>1665.5</ele>
        <time>2016-03-22T08:54:14Z</time>
      </trkpt>
      <trkpt lat="46.37747" lon="6.73146">
        <ele>1664.6</ele>
        <time>2016-03-22T08:54:15Z</time>
      </trkpt>
      <trkpt lat="46.37756" lon="6.73149">
        <ele>1664.5</ele>
        <time>2016-03-22T08:54:17Z</time>
      </trkpt>
      <trkpt lat="46.37766" lon="6.73151">
        <ele>1664.1</ele>
        <time>2016-03-22T08:54:17Z</time>
      </trkpt>
      <trkpt lat="46.37773" lon="6.73151">
        <ele>1661</ele>
        <time>2016-03-22T08:54:18Z</time>
      </trkpt>
      <trkpt lat="46.37782" lon="6.73152">
        <ele>1660.5</ele>
        <time>2016-03-22T08:54:19Z</time>
      </trkpt>
      <trkpt lat="46.3779" lon="6.73149">
        <ele>1659.3</ele>
        <time>2016-03-22T08:54:21Z</time>
      </trkpt>
      <trkpt lat="46.37798" lon="6.73148">
        <ele>1659</ele>
        <time>2016-03-22T08:54:21Z</time>
      </trkpt>
      <trkpt lat="46.37803" lon="6.7314">
        <ele>1656</ele>
        <time>2016-03-22T08:54:23Z</time>
      </trkpt>
      <trkpt lat="46.37809" lon="6.73132">
        <ele>1654.9</ele>
        <time>2016-03-22T08:54:23Z</time>
      </trkpt>
      <trkpt lat="46.37815" lon="6.73124">
        <ele>1653.5</ele>
        <time>2016-03-22T08:54:25Z</time>
      </trkpt>
      <trkpt lat="46.37821" lon="6.73117">
        <ele>1652.8</ele>
        <time>2016-03-22T08:54:25Z</time>
      </trkpt>
      <trkpt lat="46.37826" lon="6.73105">
        <ele>1650.5</ele>
        <time>2016-03-22T08:54:26Z</time>
      </trkpt>
      <trkpt lat="46.3783" lon="6.73094">
        <ele>1648.9</ele>
        <time>2016-03-22T08:54:27Z</time>
      </trkpt>
      <trkpt lat="46.37834" lon="6.73084">
        <ele>1647.5</ele>
        <time>2016-03-22T08:54:29Z</time>
      </trkpt>
      <trkpt lat="46.37838" lon="6.73074">
        <ele>1646.8</ele>
        <time>2016-03-22T08:54:30Z</time>
      </trkpt>
      <trkpt lat="46.37841" lon="6.73063">
        <ele>1646</ele>
        <time>2016-03-22T08:54:31Z</time>
      </trkpt>
      <trkpt lat="46.37845" lon="6.73044">
        <ele>1643.9</ele>
        <time>2016-03-22T08:54:32Z</time>
      </trkpt>
      <trkpt lat="46.37855" lon="6.73032">
        <ele>1641</ele>
        <time>2016-03-22T08:54:35Z</time>
      </trkpt>
      <trkpt lat="46.37866" lon="6.73032">
        <ele>1638.6</ele>
        <time>2016-03-22T08:54:36Z</time>
      </trkpt>
      <trkpt lat="46.37877" lon="6.73028">
        <ele>1637.4</ele>
        <time>2016-03-22T08:54:39Z</time>
      </trkpt>
      <trkpt lat="46.37882" lon="6.73013">
        <ele>1633.9</ele>
        <time>2016-03-22T08:54:40Z</time>
      </trkpt>
      <trkpt lat="46.37887" lon="6.72997">
        <ele>1632.6</ele>
        <time>2016-03-22T08:54:43Z</time>
      </trkpt>
      <trkpt lat="46.37896" lon="6.72988">
        <ele>1632.1</ele>
        <time>2016-03-22T08:54:45Z</time>
      </trkpt>
      <trkpt lat="46.37904" lon="6.72992">
        <ele>1630.8</ele>
        <time>2016-03-22T08:54:46Z</time>
      </trkpt>
      <trkpt lat="46.37909" lon="6.73003">
        <ele>1629</ele>
        <time>2016-03-22T08:54:50Z</time>
      </trkpt>
      <trkpt lat="46.37913" lon="6.73013">
        <ele>1627</ele>
        <time>2016-03-22T08:54:53Z</time>
      </trkpt>
      <trkpt lat="46.37912" lon="6.73021">
        <ele>1626.3</ele>
        <time>2016-03-22T08:55:00Z</time>
      </trkpt>
      <trkpt lat="46.37911" lon="6.73022">
        <ele>1626.5</ele>
        <time>2016-03-22T08:55:02Z</time>
      </trkpt>
      <trkpt lat="46.37908" lon="6.73029">
        <ele>1628.5</ele>
        <time>2016-03-22T08:55:09Z</time>
      </trkpt>
      <trkpt lat="46.37908" lon="6.73029">
        <ele>1628</ele>
        <time>2016-03-22T08:55:11Z</time>
      </trkpt>
      <trkpt lat="46.37905" lon="6.73032">
        <ele>1627.1</ele>
        <time>2016-03-22T08:55:23Z</time>
      </trkpt>
      <trkpt lat="46.37905" lon="6.73033">
        <ele>1627.8</ele>
        <time>2016-03-22T08:55:24Z</time>
      </trkpt>
      <trkpt lat="46.379" lon="6.73043">
        <ele>1631.9</ele>
        <time>2016-03-22T08:55:30Z</time>
      </trkpt>
      <trkpt lat="46.37895" lon="6.73051">
        <ele>1633.9</ele>
        <time>2016-03-22T08:55:32Z</time>
      </trkpt>
      <trkpt lat="46.37889" lon="6.73062">
        <ele>1637.4</ele>
        <time>2016-03-22T08:55:40Z</time>
      </trkpt>
      <trkpt lat="46.37883" lon="6.7307">
        <ele>1639.8</ele>
        <time>2016-03-22T08:55:43Z</time>
      </trkpt>
      <trkpt lat="46.37878" lon="6.73079">
        <ele>1642.1</ele>
        <time>2016-03-22T08:55:45Z</time>
      </trkpt>
      <trkpt lat="46.37872" lon="6.73087">
        <ele>1644.6</ele>
        <time>2016-03-22T08:55:49Z</time>
      </trkpt>
      <trkpt lat="46.37866" lon="6.73095">
        <ele>1646.4</ele>
        <time>2016-03-22T08:55:52Z</time>
      </trkpt>
      <trkpt lat="46.37861" lon="6.73104">
        <ele>1646.9</ele>
        <time>2016-03-22T08:55:55Z</time>
      </trkpt>
      <trkpt lat="46.37856" lon="6.73112">
        <ele>1647.3</ele>
        <time>2016-03-22T08:55:58Z</time>
      </trkpt>
      <trkpt lat="46.37851" lon="6.73121">
        <ele>1647.5</ele>
        <time>2016-03-22T08:56:01Z</time>
      </trkpt>
      <trkpt lat="46.37845" lon="6.73129">
        <ele>1647.8</ele>
        <time>2016-03-22T08:56:04Z</time>
      </trkpt>
      <trkpt lat="46.37839" lon="6.73137">
        <ele>1648</ele>
        <time>2016-03-22T08:56:07Z</time>
      </trkpt>
      <trkpt lat="46.37834" lon="6.73145">
        <ele>1648</ele>
        <time>2016-03-22T08:56:10Z</time>
      </trkpt>
      <trkpt lat="46.37829" lon="6.73153">
        <ele>1648.4</ele>
        <time>2016-03-22T08:56:12Z</time>
      </trkpt>
      <trkpt lat="46.37824" lon="6.73161">
        <ele>1650.4</ele>
        <time>2016-03-22T08:56:16Z</time>
      </trkpt>
      <trkpt lat="46.37819" lon="6.73169">
        <ele>1651</ele>
        <time>2016-03-22T08:56:19Z</time>
      </trkpt>
      <trkpt lat="46.37813" lon="6.73179">
        <ele>1651.8</ele>
        <time>2016-03-22T08:56:22Z</time>
      </trkpt>
      <trkpt lat="46.37806" lon="6.73189">
        <ele>1652.5</ele>
        <time>2016-03-22T08:56:26Z</time>
      </trkpt>
      <trkpt lat="46.378" lon="6.73199">
        <ele>1652.8</ele>
        <time>2016-03-22T08:56:31Z</time>
      </trkpt>
      <trkpt lat="46.37795" lon="6.73207">
        <ele>1653</ele>
        <time>2016-03-22T08:56:34Z</time>
      </trkpt>
      <trkpt lat="46.37788" lon="6.73217">
        <ele>1653.8</ele>
        <time>2016-03-22T08:56:37Z</time>
      </trkpt>
      <trkpt lat="46.37782" lon="6.73227">
        <ele>1654</ele>
        <time>2016-03-22T08:56:42Z</time>
      </trkpt>
      <trkpt lat="46.37775" lon="6.73237">
        <ele>1653.9</ele>
        <time>2016-03-22T08:56:46Z</time>
      </trkpt>
      <trkpt lat="46.37769" lon="6.73247">
        <ele>1655.3</ele>
        <time>2016-03-22T08:56:49Z</time>
      </trkpt>
      <trkpt lat="46.37763" lon="6.73257">
        <ele>1657</ele>
        <time>2016-03-22T08:56:53Z</time>
      </trkpt>
      <trkpt lat="46.37756" lon="6.73267">
        <ele>1657</ele>
        <time>2016-03-22T08:56:57Z</time>
      </trkpt>
      <trkpt lat="46.37751" lon="6.73277">
        <ele>1658.3</ele>
        <time>2016-03-22T08:57:01Z</time>
      </trkpt>
      <trkpt lat="46.37745" lon="6.73286">
        <ele>1659.5</ele>
        <time>2016-03-22T08:57:06Z</time>
      </trkpt>
      <trkpt lat="46.37738" lon="6.73297">
        <ele>1660</ele>
        <time>2016-03-22T08:57:10Z</time>
      </trkpt>
      <trkpt lat="46.37732" lon="6.73306">
        <ele>1661.1</ele>
        <time>2016-03-22T08:57:14Z</time>
      </trkpt>
      <trkpt lat="46.37726" lon="6.73316">
        <ele>1662.6</ele>
        <time>2016-03-22T08:57:18Z</time>
      </trkpt>
      <trkpt lat="46.37721" lon="6.73326">
        <ele>1663.1</ele>
        <time>2016-03-22T08:57:22Z</time>
      </trkpt>
      <trkpt lat="46.37715" lon="6.73336">
        <ele>1662.8</ele>
        <time>2016-03-22T08:57:25Z</time>
      </trkpt>
      <trkpt lat="46.37709" lon="6.73346">
        <ele>1663.5</ele>
        <time>2016-03-22T08:57:30Z</time>
      </trkpt>
      <trkpt lat="46.37702" lon="6.73356">
        <ele>1664</ele>
        <time>2016-03-22T08:57:34Z</time>
      </trkpt>
      <trkpt lat="46.37696" lon="6.73367">
        <ele>1665.4</ele>
        <time>2016-03-22T08:57:38Z</time>
      </trkpt>
      <trkpt lat="46.3769" lon="6.73377">
        <ele>1666.4</ele>
        <time>2016-03-22T08:57:42Z</time>
      </trkpt>
      <trkpt lat="46.37683" lon="6.73387">
        <ele>1668</ele>
        <time>2016-03-22T08:57:46Z</time>
      </trkpt>
      <trkpt lat="46.37678" lon="6.73398">
        <ele>1670.4</ele>
        <time>2016-03-22T08:57:49Z</time>
      </trkpt>
      <trkpt lat="46.37673" lon="6.73407">
        <ele>1673</ele>
        <time>2016-03-22T08:57:53Z</time>
      </trkpt>
      <trkpt lat="46.37667" lon="6.73417">
        <ele>1675.4</ele>
        <time>2016-03-22T08:57:57Z</time>
      </trkpt>
      <trkpt lat="46.37661" lon="6.73426">
        <ele>1678.4</ele>
        <time>2016-03-22T08:58:02Z</time>
      </trkpt>
      <trkpt lat="46.37655" lon="6.73435">
        <ele>1682.5</ele>
        <time>2016-03-22T08:58:06Z</time>
      </trkpt>
      <trkpt lat="46.37649" lon="6.73445">
        <ele>1686.6</ele>
        <time>2016-03-22T08:58:10Z</time>
      </trkpt>
      <trkpt lat="46.37642" lon="6.73454">
        <ele>1689.8</ele>
        <time>2016-03-22T08:58:14Z</time>
      </trkpt>
      <trkpt lat="46.37637" lon="6.73464">
        <ele>1694.6</ele>
        <time>2016-03-22T08:58:18Z</time>
      </trkpt>
      <trkpt lat="46.37631" lon="6.73473">
        <ele>1697.3</ele>
        <time>2016-03-22T08:58:21Z</time>
      </trkpt>
      <trkpt lat="46.37625" lon="6.73482">
        <ele>1699.1</ele>
        <time>2016-03-22T08:58:25Z</time>
      </trkpt>
      <trkpt lat="46.37618" lon="6.7349">
        <ele>1701.4</ele>
        <time>2016-03-22T08:58:29Z</time>
      </trkpt>
      <trkpt lat="46.37612" lon="6.735">
        <ele>1703.5</ele>
        <time>2016-03-22T08:58:33Z</time>
      </trkpt>
      <trkpt lat="46.37607" lon="6.7351">
        <ele>1707.3</ele>
        <time>2016-03-22T08:58:38Z</time>
      </trkpt>
      <trkpt lat="46.37601" lon="6.73519">
        <ele>1711.3</ele>
        <time>2016-03-22T08:58:42Z</time>
      </trkpt>
      <trkpt lat="46.37596" lon="6.73529">
        <ele>1715.8</ele>
        <time>2016-03-22T08:58:46Z</time>
      </trkpt>
      <trkpt lat="46.37591" lon="6.73538">
        <ele>1719.8</ele>
        <time>2016-03-22T08:58:50Z</time>
      </trkpt>
      <trkpt lat="46.37586" lon="6.73547">
        <ele>1724.9</ele>
        <time>2016-03-22T08:58:53Z</time>
      </trkpt>
      <trkpt lat="46.37581" lon="6.73556">
        <ele>1730.5</ele>
        <time>2016-03-22T08:58:57Z</time>
      </trkpt>
      <trkpt lat="46.37576" lon="6.73566">
        <ele>1735.5</ele>
        <time>2016-03-22T08:59:01Z</time>
      </trkpt>
      <trkpt lat="46.37571" lon="6.73575">
        <ele>1740.5</ele>
        <time>2016-03-22T08:59:05Z</time>
      </trkpt>
      <trkpt lat="46.37566" lon="6.73585">
        <ele>1744.8</ele>
        <time>2016-03-22T08:59:10Z</time>
      </trkpt>
      <trkpt lat="46.3756" lon="6.73594">
        <ele>1748.1</ele>
        <time>2016-03-22T08:59:14Z</time>
      </trkpt>
      <trkpt lat="46.37555" lon="6.73604">
        <ele>1751.8</ele>
        <time>2016-03-22T08:59:18Z</time>
      </trkpt>
      <trkpt lat="46.3755" lon="6.73613">
        <ele>1754.1</ele>
        <time>2016-03-22T08:59:22Z</time>
      </trkpt>
      <trkpt lat="46.37544" lon="6.73623">
        <ele>1757.9</ele>
        <time>2016-03-22T08:59:25Z</time>
      </trkpt>
      <trkpt lat="46.37538" lon="6.73632">
        <ele>1761</ele>
        <time>2016-03-22T08:59:29Z</time>
      </trkpt>
      <trkpt lat="46.37533" lon="6.73642">
        <ele>1764.6</ele>
        <time>2016-03-22T08:59:34Z</time>
      </trkpt>
      <trkpt lat="46.37527" lon="6.73651">
        <ele>1767.9</ele>
        <time>2016-03-22T08:59:38Z</time>
      </trkpt>
      <trkpt lat="46.37521" lon="6.7366">
        <ele>1771</ele>
        <time>2016-03-22T08:59:42Z</time>
      </trkpt>
      <trkpt lat="46.37515" lon="6.73669">
        <ele>1775.3</ele>
        <time>2016-03-22T08:59:46Z</time>
      </trkpt>
      <trkpt lat="46.3751" lon="6.73678">
        <ele>1779.5</ele>
        <time>2016-03-22T08:59:50Z</time>
      </trkpt>
      <trkpt lat="46.37504" lon="6.73688">
        <ele>1784</ele>
        <time>2016-03-22T08:59:53Z</time>
      </trkpt>
      <trkpt lat="46.37498" lon="6.73697">
        <ele>1785.5</ele>
        <time>2016-03-22T08:59:57Z</time>
      </trkpt>
      <trkpt lat="46.37493" lon="6.73708">
        <ele>1787.9</ele>
        <time>2016-03-22T09:00:01Z</time>
      </trkpt>
      <trkpt lat="46.37488" lon="6.73718">
        <ele>1790.1</ele>
        <time>2016-03-22T09:00:05Z</time>
      </trkpt>
      <trkpt lat="46.37482" lon="6.73728">
        <ele>1792.6</ele>
        <time>2016-03-22T09:00:10Z</time>
      </trkpt>
      <trkpt lat="46.37476" lon="6.73738">
        <ele>1794.1</ele>
        <time>2016-03-22T09:00:13Z</time>
      </trkpt>
      <trkpt lat="46.37469" lon="6.73751">
        <ele>1797.5</ele>
        <time>2016-03-22T09:00:18Z</time>
      </trkpt>
      <trkpt lat="46.37463" lon="6.73761">
        <ele>1797.8</ele>
        <time>2016-03-22T09:00:23Z</time>
      </trkpt>
      <trkpt lat="46.37458" lon="6.73771">
        <ele>1797.8</ele>
        <time>2016-03-22T09:00:27Z</time>
      </trkpt>
      <trkpt lat="46.37452" lon="6.73783">
        <ele>1800</ele>
        <time>2016-03-22T09:00:33Z</time>
      </trkpt>
      <trkpt lat="46.37446" lon="6.73793">
        <ele>1800.3</ele>
        <time>2016-03-22T09:00:37Z</time>
      </trkpt>
      <trkpt lat="46.37442" lon="6.73801">
        <ele>1799.1</ele>
        <time>2016-03-22T09:00:40Z</time>
      </trkpt>
      <trkpt lat="46.37437" lon="6.73809">
        <ele>1798.6</ele>
        <time>2016-03-22T09:00:42Z</time>
      </trkpt>
      <trkpt lat="46.37432" lon="6.73817">
        <ele>1797.8</ele>
        <time>2016-03-22T09:00:46Z</time>
      </trkpt>
      <trkpt lat="46.37426" lon="6.73826">
        <ele>1797.9</ele>
        <time>2016-03-22T09:00:50Z</time>
      </trkpt>
      <trkpt lat="46.3742" lon="6.73837">
        <ele>1799.6</ele>
        <time>2016-03-22T09:00:54Z</time>
      </trkpt>
      <trkpt lat="46.37414" lon="6.73847">
        <ele>1801.4</ele>
        <time>2016-03-22T09:00:58Z</time>
      </trkpt>
      <trkpt lat="46.37409" lon="6.73856">
        <ele>1803.1</ele>
        <time>2016-03-22T09:01:01Z</time>
      </trkpt>
      <trkpt lat="46.37403" lon="6.73866">
        <ele>1805.5</ele>
        <time>2016-03-22T09:01:05Z</time>
      </trkpt>
      <trkpt lat="46.37397" lon="6.73877">
        <ele>1807.1</ele>
        <time>2016-03-22T09:01:09Z</time>
      </trkpt>
      <trkpt lat="46.37391" lon="6.73887">
        <ele>1810.1</ele>
        <time>2016-03-22T09:01:13Z</time>
      </trkpt>
      <trkpt lat="46.37386" lon="6.73896">
        <ele>1812.3</ele>
        <time>2016-03-22T09:01:17Z</time>
      </trkpt>
      <trkpt lat="46.3738" lon="6.73906">
        <ele>1815.3</ele>
        <time>2016-03-22T09:01:22Z</time>
      </trkpt>
      <trkpt lat="46.37375" lon="6.73915">
        <ele>1818.1</ele>
        <time>2016-03-22T09:01:26Z</time>
      </trkpt>
      <trkpt lat="46.37369" lon="6.73925">
        <ele>1821.6</ele>
        <time>2016-03-22T09:01:30Z</time>
      </trkpt>
      <trkpt lat="46.37364" lon="6.73935">
        <ele>1825.4</ele>
        <time>2016-03-22T09:01:33Z</time>
      </trkpt>
      <trkpt lat="46.37359" lon="6.73944">
        <ele>1829.3</ele>
        <time>2016-03-22T09:01:38Z</time>
      </trkpt>
      <trkpt lat="46.37353" lon="6.73954">
        <ele>1833.4</ele>
        <time>2016-03-22T09:01:42Z</time>
      </trkpt>
      <trkpt lat="46.37348" lon="6.73963">
        <ele>1837.4</ele>
        <time>2016-03-22T09:01:46Z</time>
      </trkpt>
      <trkpt lat="46.37343" lon="6.73971">
        <ele>1842.5</ele>
        <time>2016-03-22T09:01:50Z</time>
      </trkpt>
      <trkpt lat="46.37337" lon="6.7398">
        <ele>1846</ele>
        <time>2016-03-22T09:01:54Z</time>
      </trkpt>
      <trkpt lat="46.37331" lon="6.7399">
        <ele>1850.1</ele>
        <time>2016-03-22T09:01:58Z</time>
      </trkpt>
      <trkpt lat="46.37324" lon="6.73999">
        <ele>1853.1</ele>
        <time>2016-03-22T09:02:02Z</time>
      </trkpt>
      <trkpt lat="46.37318" lon="6.74009">
        <ele>1856.9</ele>
        <time>2016-03-22T09:02:05Z</time>
      </trkpt>
      <trkpt lat="46.37312" lon="6.74018">
        <ele>1859.8</ele>
        <time>2016-03-22T09:02:10Z</time>
      </trkpt>
      <trkpt lat="46.37307" lon="6.74028">
        <ele>1863.4</ele>
        <time>2016-03-22T09:02:13Z</time>
      </trkpt>
      <trkpt lat="46.37301" lon="6.74037">
        <ele>1867.1</ele>
        <time>2016-03-22T09:02:17Z</time>
      </trkpt>
      <trkpt lat="46.37296" lon="6.74047">
        <ele>1870.5</ele>
        <time>2016-03-22T09:02:22Z</time>
      </trkpt>
      <trkpt lat="46.3729" lon="6.74056">
        <ele>1874</ele>
        <time>2016-03-22T09:02:26Z</time>
      </trkpt>
      <trkpt lat="46.37284" lon="6.74066">
        <ele>1878</ele>
        <time>2016-03-22T09:02:30Z</time>
      </trkpt>
      <trkpt lat="46.37279" lon="6.74075">
        <ele>1881.5</ele>
        <time>2016-03-22T09:02:34Z</time>
      </trkpt>
      <trkpt lat="46.37273" lon="6.74085">
        <ele>1885.8</ele>
        <time>2016-03-22T09:02:37Z</time>
      </trkpt>
      <trkpt lat="46.37267" lon="6.74094">
        <ele>1889</ele>
        <time>2016-03-22T09:02:41Z</time>
      </trkpt>
      <trkpt lat="46.37262" lon="6.74103">
        <ele>1892</ele>
        <time>2016-03-22T09:02:45Z</time>
      </trkpt>
      <trkpt lat="46.37256" lon="6.74112">
        <ele>1894.9</ele>
        <time>2016-03-22T09:02:50Z</time>
      </trkpt>
      <trkpt lat="46.3725" lon="6.74122">
        <ele>1897.9</ele>
        <time>2016-03-22T09:02:54Z</time>
      </trkpt>
      <trkpt lat="46.37244" lon="6.74131">
        <ele>1900</ele>
        <time>2016-03-22T09:02:58Z</time>
      </trkpt>
      <trkpt lat="46.37238" lon="6.74141">
        <ele>1902.5</ele>
        <time>2016-03-22T09:03:02Z</time>
      </trkpt>
      <trkpt lat="46.37233" lon="6.7415">
        <ele>1904.9</ele>
        <time>2016-03-22T09:03:06Z</time>
      </trkpt>
      <trkpt lat="46.37227" lon="6.74158">
        <ele>1908.3</ele>
        <time>2016-03-22T09:03:09Z</time>
      </trkpt>
      <trkpt lat="46.37222" lon="6.74167">
        <ele>1912.4</ele>
        <time>2016-03-22T09:03:13Z</time>
      </trkpt>
      <trkpt lat="46.37216" lon="6.74177">
        <ele>1914.4</ele>
        <time>2016-03-22T09:03:17Z</time>
      </trkpt>
      <trkpt lat="46.3721" lon="6.74187">
        <ele>1917</ele>
        <time>2016-03-22T09:03:22Z</time>
      </trkpt>
      <trkpt lat="46.37205" lon="6.74197">
        <ele>1919</ele>
        <time>2016-03-22T09:03:26Z</time>
      </trkpt>
      <trkpt lat="46.37199" lon="6.74207">
        <ele>1921.5</ele>
        <time>2016-03-22T09:03:30Z</time>
      </trkpt>
      <trkpt lat="46.37193" lon="6.74216">
        <ele>1922.8</ele>
        <time>2016-03-22T09:03:34Z</time>
      </trkpt>
      <trkpt lat="46.37187" lon="6.74226">
        <ele>1922.1</ele>
        <time>2016-03-22T09:03:38Z</time>
      </trkpt>
      <trkpt lat="46.37181" lon="6.74236">
        <ele>1923.1</ele>
        <time>2016-03-22T09:03:41Z</time>
      </trkpt>
      <trkpt lat="46.37174" lon="6.74248">
        <ele>1921.9</ele>
        <time>2016-03-22T09:03:45Z</time>
      </trkpt>
      <trkpt lat="46.3717" lon="6.74261">
        <ele>1921.5</ele>
        <time>2016-03-22T09:03:48Z</time>
      </trkpt>
      <trkpt lat="46.37172" lon="6.74263">
        <ele>1921.4</ele>
        <time>2016-03-22T09:03:54Z</time>
      </trkpt>
      <trkpt lat="46.37171" lon="6.74265">
        <ele>1921</ele>
        <time>2016-03-22T09:04:58Z</time>
      </trkpt>
      <trkpt lat="46.37171" lon="6.74265">
        <ele>1921</ele>
        <time>2016-03-22T09:04:59Z</time>
      </trkpt>
      <trkpt lat="46.37171" lon="6.74268">
        <ele>1921</ele>
        <time>2016-03-22T09:05:19Z</time>
      </trkpt>
      <trkpt lat="46.37171" lon="6.74268">
        <ele>1921</ele>
        <time>2016-03-22T09:05:20Z</time>
      </trkpt>
      <trkpt lat="46.37172" lon="6.7428">
        <ele>1919.1</ele>
        <time>2016-03-22T09:05:33Z</time>
      </trkpt>
      <trkpt lat="46.37167" lon="6.7429">
        <ele>1916.5</ele>
        <time>2016-03-22T09:05:37Z</time>
      </trkpt>
      <trkpt lat="46.37171" lon="6.74289">
        <ele>1918.1</ele>
        <time>2016-03-22T09:05:45Z</time>
      </trkpt>
      <trkpt lat="46.37171" lon="6.7429">
        <ele>1918.1</ele>
        <time>2016-03-22T09:05:45Z</time>
      </trkpt>
      <trkpt lat="46.37178" lon="6.74297">
        <ele>1915</ele>
        <time>2016-03-22T09:05:49Z</time>
      </trkpt>
      <trkpt lat="46.37176" lon="6.7431">
        <ele>1912</ele>
        <time>2016-03-22T09:05:53Z</time>
      </trkpt>
      <trkpt lat="46.37173" lon="6.74323">
        <ele>1909.5</ele>
        <time>2016-03-22T09:05:54Z</time>
      </trkpt>
      <trkpt lat="46.37176" lon="6.74338">
        <ele>1908.4</ele>
        <time>2016-03-22T09:05:56Z</time>
      </trkpt>
      <trkpt lat="46.37172" lon="6.74352">
        <ele>1905.8</ele>
        <time>2016-03-22T09:05:56Z</time>
      </trkpt>
      <trkpt lat="46.3717" lon="6.74364">
        <ele>1904.4</ele>
        <time>2016-03-22T09:05:57Z</time>
      </trkpt>
      <trkpt lat="46.37168" lon="6.74376">
        <ele>1903.5</ele>
        <time>2016-03-22T09:05:59Z</time>
      </trkpt>
      <trkpt lat="46.37172" lon="6.74386">
        <ele>1902.5</ele>
        <time>2016-03-22T09:06:00Z</time>
      </trkpt>
      <trkpt lat="46.37177" lon="6.74395">
        <ele>1898.1</ele>
        <time>2016-03-22T09:06:00Z</time>
      </trkpt>
      <trkpt lat="46.37179" lon="6.74408">
        <ele>1896.4</ele>
        <time>2016-03-22T09:06:01Z</time>
      </trkpt>
      <trkpt lat="46.37177" lon="6.74419">
        <ele>1895</ele>
        <time>2016-03-22T09:06:02Z</time>
      </trkpt>
      <trkpt lat="46.37172" lon="6.74442">
        <ele>1890.8</ele>
        <time>2016-03-22T09:06:04Z</time>
      </trkpt>
      <trkpt lat="46.37176" lon="6.74453">
        <ele>1889.9</ele>
        <time>2016-03-22T09:06:05Z</time>
      </trkpt>
      <trkpt lat="46.3718" lon="6.74466">
        <ele>1884.9</ele>
        <time>2016-03-22T09:06:07Z</time>
      </trkpt>
      <trkpt lat="46.3718" lon="6.74479">
        <ele>1880.4</ele>
        <time>2016-03-22T09:06:07Z</time>
      </trkpt>
      <trkpt lat="46.3718" lon="6.74492">
        <ele>1876.5</ele>
        <time>2016-03-22T09:06:08Z</time>
      </trkpt>
      <trkpt lat="46.37177" lon="6.74503">
        <ele>1873.8</ele>
        <time>2016-03-22T09:06:09Z</time>
      </trkpt>
      <trkpt lat="46.37175" lon="6.74514">
        <ele>1871.3</ele>
        <time>2016-03-22T09:06:10Z</time>
      </trkpt>
      <trkpt lat="46.37174" lon="6.74535">
        <ele>1869.4</ele>
        <time>2016-03-22T09:06:12Z</time>
      </trkpt>
      <trkpt lat="46.37182" lon="6.74551">
        <ele>1864</ele>
        <time>2016-03-22T09:06:13Z</time>
      </trkpt>
      <trkpt lat="46.37183" lon="6.74566">
        <ele>1860.5</ele>
        <time>2016-03-22T09:06:14Z</time>
      </trkpt>
      <trkpt lat="46.37182" lon="6.74579">
        <ele>1858.1</ele>
        <time>2016-03-22T09:06:15Z</time>
      </trkpt>
      <trkpt lat="46.3718" lon="6.74591">
        <ele>1856</ele>
        <time>2016-03-22T09:06:17Z</time>
      </trkpt>
      <trkpt lat="46.3718" lon="6.74604">
        <ele>1853.6</ele>
        <time>2016-03-22T09:06:17Z</time>
      </trkpt>
      <trkpt lat="46.37183" lon="6.74617">
        <ele>1851.1</ele>
        <time>2016-03-22T09:06:18Z</time>
      </trkpt>
      <trkpt lat="46.37187" lon="6.74631">
        <ele>1849.5</ele>
        <time>2016-03-22T09:06:19Z</time>
      </trkpt>
      <trkpt lat="46.37193" lon="6.74646">
        <ele>1847.6</ele>
        <time>2016-03-22T09:06:21Z</time>
      </trkpt>
      <trkpt lat="46.37197" lon="6.74662">
        <ele>1846.5</ele>
        <time>2016-03-22T09:06:21Z</time>
      </trkpt>
      <trkpt lat="46.37201" lon="6.7468">
        <ele>1845.5</ele>
        <time>2016-03-22T09:06:22Z</time>
      </trkpt>
      <trkpt lat="46.37203" lon="6.74696">
        <ele>1843.8</ele>
        <time>2016-03-22T09:06:24Z</time>
      </trkpt>
      <trkpt lat="46.37206" lon="6.74715">
        <ele>1843</ele>
        <time>2016-03-22T09:06:25Z</time>
      </trkpt>
      <trkpt lat="46.3721" lon="6.74734">
        <ele>1842.5</ele>
        <time>2016-03-22T09:06:25Z</time>
      </trkpt>
      <trkpt lat="46.37214" lon="6.74755">
        <ele>1841.5</ele>
        <time>2016-03-22T09:06:26Z</time>
      </trkpt>
      <trkpt lat="46.37218" lon="6.74777">
        <ele>1840.3</ele>
        <time>2016-03-22T09:06:27Z</time>
      </trkpt>
      <trkpt lat="46.37222" lon="6.74798">
        <ele>1838.5</ele>
        <time>2016-03-22T09:06:29Z</time>
      </trkpt>
      <trkpt lat="46.37224" lon="6.74818">
        <ele>1836.8</ele>
        <time>2016-03-22T09:06:29Z</time>
      </trkpt>
      <trkpt lat="46.37225" lon="6.74833">
        <ele>1835.1</ele>
        <time>2016-03-22T09:06:30Z</time>
      </trkpt>
      <trkpt lat="46.37225" lon="6.74848">
        <ele>1832.9</ele>
        <time>2016-03-22T09:06:31Z</time>
      </trkpt>
      <trkpt lat="46.37225" lon="6.74863">
        <ele>1831.1</ele>
        <time>2016-03-22T09:06:33Z</time>
      </trkpt>
      <trkpt lat="46.37227" lon="6.74878">
        <ele>1829.8</ele>
        <time>2016-03-22T09:06:33Z</time>
      </trkpt>
      <trkpt lat="46.37229" lon="6.74893">
        <ele>1828.6</ele>
        <time>2016-03-22T09:06:34Z</time>
      </trkpt>
      <trkpt lat="46.37232" lon="6.74908">
        <ele>1827.5</ele>
        <time>2016-03-22T09:06:35Z</time>
      </trkpt>
      <trkpt lat="46.37235" lon="6.74922">
        <ele>1826.4</ele>
        <time>2016-03-22T09:06:37Z</time>
      </trkpt>
      <trkpt lat="46.37239" lon="6.74937">
        <ele>1825.6</ele>
        <time>2016-03-22T09:06:37Z</time>
      </trkpt>
      <trkpt lat="46.37243" lon="6.74951">
        <ele>1825.1</ele>
        <time>2016-03-22T09:06:38Z</time>
      </trkpt>
      <trkpt lat="46.3725" lon="6.74971">
        <ele>1823.8</ele>
        <time>2016-03-22T09:06:40Z</time>
      </trkpt>
      <trkpt lat="46.37255" lon="6.74985">
        <ele>1818.9</ele>
        <time>2016-03-22T09:06:41Z</time>
      </trkpt>
      <trkpt lat="46.37261" lon="6.74995">
        <ele>1815</ele>
        <time>2016-03-22T09:06:43Z</time>
      </trkpt>
      <trkpt lat="46.37271" lon="6.75008">
        <ele>1813.3</ele>
        <time>2016-03-22T09:06:45Z</time>
      </trkpt>
      <trkpt lat="46.37281" lon="6.75019">
        <ele>1811.8</ele>
        <time>2016-03-22T09:06:47Z</time>
      </trkpt>
      <trkpt lat="46.37291" lon="6.75031">
        <ele>1809.3</ele>
        <time>2016-03-22T09:06:49Z</time>
      </trkpt>
      <trkpt lat="46.37295" lon="6.75049">
        <ele>1807.6</ele>
        <time>2016-03-22T09:06:51Z</time>
      </trkpt>
      <trkpt lat="46.373" lon="6.75065">
        <ele>1806.3</ele>
        <time>2016-03-22T09:06:53Z</time>
      </trkpt>
      <trkpt lat="46.37304" lon="6.75074">
        <ele>1803.5</ele>
        <time>2016-03-22T09:06:56Z</time>
      </trkpt>
      <trkpt lat="46.37306" lon="6.7509">
        <ele>1802.5</ele>
        <time>2016-03-22T09:06:57Z</time>
      </trkpt>
      <trkpt lat="46.37311" lon="6.75103">
        <ele>1800.3</ele>
        <time>2016-03-22T09:06:59Z</time>
      </trkpt>
      <trkpt lat="46.37318" lon="6.75117">
        <ele>1797.5</ele>
        <time>2016-03-22T09:07:01Z</time>
      </trkpt>
      <trkpt lat="46.37324" lon="6.75133">
        <ele>1795.6</ele>
        <time>2016-03-22T09:07:03Z</time>
      </trkpt>
      <trkpt lat="46.37334" lon="6.75145">
        <ele>1794.5</ele>
        <time>2016-03-22T09:07:05Z</time>
      </trkpt>
      <trkpt lat="46.37339" lon="6.75156">
        <ele>1790.8</ele>
        <time>2016-03-22T09:07:08Z</time>
      </trkpt>
      <trkpt lat="46.37348" lon="6.75165">
        <ele>1789</ele>
        <time>2016-03-22T09:07:09Z</time>
      </trkpt>
      <trkpt lat="46.37356" lon="6.7518">
        <ele>1786.4</ele>
        <time>2016-03-22T09:07:12Z</time>
      </trkpt>
      <trkpt lat="46.37362" lon="6.75186">
        <ele>1785.9</ele>
        <time>2016-03-22T09:07:12Z</time>
      </trkpt>
      <trkpt lat="46.37371" lon="6.752">
        <ele>1786</ele>
        <time>2016-03-22T09:07:15Z</time>
      </trkpt>
      <trkpt lat="46.37382" lon="6.7521">
        <ele>1784.4</ele>
        <time>2016-03-22T09:07:16Z</time>
      </trkpt>
      <trkpt lat="46.37391" lon="6.75223">
        <ele>1783.6</ele>
        <time>2016-03-22T09:07:19Z</time>
      </trkpt>
      <trkpt lat="46.37399" lon="6.75238">
        <ele>1778.9</ele>
        <time>2016-03-22T09:07:20Z</time>
      </trkpt>
      <trkpt lat="46.37404" lon="6.75255">
        <ele>1776.1</ele>
        <time>2016-03-22T09:07:22Z</time>
      </trkpt>
      <trkpt lat="46.3741" lon="6.75274">
        <ele>1773.9</ele>
        <time>2016-03-22T09:07:24Z</time>
      </trkpt>
      <trkpt lat="46.3741" lon="6.75291">
        <ele>1771.5</ele>
        <time>2016-03-22T09:07:26Z</time>
      </trkpt>
      <trkpt lat="46.37413" lon="6.75309">
        <ele>1769.3</ele>
        <time>2016-03-22T09:07:28Z</time>
      </trkpt>
      <trkpt lat="46.37413" lon="6.75322">
        <ele>1766.9</ele>
        <time>2016-03-22T09:07:30Z</time>
      </trkpt>
      <trkpt lat="46.37419" lon="6.75331">
        <ele>1765.3</ele>
        <time>2016-03-22T09:07:32Z</time>
      </trkpt>
      <trkpt lat="46.37423" lon="6.75346">
        <ele>1763.5</ele>
        <time>2016-03-22T09:07:34Z</time>
      </trkpt>
      <trkpt lat="46.37432" lon="6.75357">
        <ele>1763</ele>
        <time>2016-03-22T09:07:36Z</time>
      </trkpt>
      <trkpt lat="46.37438" lon="6.7537">
        <ele>1761.8</ele>
        <time>2016-03-22T09:07:38Z</time>
      </trkpt>
      <trkpt lat="46.37445" lon="6.75381">
        <ele>1757.5</ele>
        <time>2016-03-22T09:07:40Z</time>
      </trkpt>
      <trkpt lat="46.37451" lon="6.75393">
        <ele>1755.4</ele>
        <time>2016-03-22T09:07:42Z</time>
      </trkpt>
      <trkpt lat="46.37458" lon="6.75406">
        <ele>1752.5</ele>
        <time>2016-03-22T09:07:44Z</time>
      </trkpt>
      <trkpt lat="46.37466" lon="6.75415">
        <ele>1750.5</ele>
        <time>2016-03-22T09:07:46Z</time>
      </trkpt>
      <trkpt lat="46.37471" lon="6.75431">
        <ele>1746.5</ele>
        <time>2016-03-22T09:07:49Z</time>
      </trkpt>
      <trkpt lat="46.37474" lon="6.75441">
        <ele>1742</ele>
        <time>2016-03-22T09:07:50Z</time>
      </trkpt>
      <trkpt lat="46.37482" lon="6.75451">
        <ele>1739.4</ele>
        <time>2016-03-22T09:07:53Z</time>
      </trkpt>
      <trkpt lat="46.37483" lon="6.75465">
        <ele>1736.1</ele>
        <time>2016-03-22T09:07:54Z</time>
      </trkpt>
      <trkpt lat="46.37487" lon="6.75475">
        <ele>1732</ele>
        <time>2016-03-22T09:07:56Z</time>
      </trkpt>
      <trkpt lat="46.37496" lon="6.75474">
        <ele>1728</ele>
        <time>2016-03-22T09:07:58Z</time>
      </trkpt>
      <trkpt lat="46.37509" lon="6.75473">
        <ele>1731</ele>
        <time>2016-03-22T09:08:01Z</time>
      </trkpt>
      <trkpt lat="46.37514" lon="6.75488">
        <ele>1725.3</ele>
        <time>2016-03-22T09:08:03Z</time>
      </trkpt>
      <trkpt lat="46.37518" lon="6.75497">
        <ele>1723.6</ele>
        <time>2016-03-22T09:08:05Z</time>
      </trkpt>
      <trkpt lat="46.37532" lon="6.75502">
        <ele>1719.1</ele>
        <time>2016-03-22T09:08:06Z</time>
      </trkpt>
      <trkpt lat="46.37539" lon="6.75505">
        <ele>1718.4</ele>
        <time>2016-03-22T09:08:07Z</time>
      </trkpt>
      <trkpt lat="46.37547" lon="6.7552">
        <ele>1714.6</ele>
        <time>2016-03-22T09:08:09Z</time>
      </trkpt>
      <trkpt lat="46.37549" lon="6.75531">
        <ele>1711.5</ele>
        <time>2016-03-22T09:08:10Z</time>
      </trkpt>
      <trkpt lat="46.37559" lon="6.75541">
        <ele>1704.5</ele>
        <time>2016-03-22T09:08:13Z</time>
      </trkpt>
      <trkpt lat="46.37565" lon="6.75548">
        <ele>1703.5</ele>
        <time>2016-03-22T09:08:13Z</time>
      </trkpt>
      <trkpt lat="46.37574" lon="6.75566">
        <ele>1699</ele>
        <time>2016-03-22T09:08:15Z</time>
      </trkpt>
      <trkpt lat="46.37576" lon="6.7558">
        <ele>1696.8</ele>
        <time>2016-03-22T09:08:17Z</time>
      </trkpt>
      <trkpt lat="46.37579" lon="6.75592">
        <ele>1695.3</ele>
        <time>2016-03-22T09:08:17Z</time>
      </trkpt>
      <trkpt lat="46.37585" lon="6.75601">
        <ele>1694.6</ele>
        <time>2016-03-22T09:08:18Z</time>
      </trkpt>
      <trkpt lat="46.37592" lon="6.75608">
        <ele>1693.5</ele>
        <time>2016-03-22T09:08:20Z</time>
      </trkpt>
      <trkpt lat="46.37598" lon="6.75615">
        <ele>1690.8</ele>
        <time>2016-03-22T09:08:21Z</time>
      </trkpt>
      <trkpt lat="46.37604" lon="6.75624">
        <ele>1688.5</ele>
        <time>2016-03-22T09:08:21Z</time>
      </trkpt>
      <trkpt lat="46.37598" lon="6.75643">
        <ele>1684.6</ele>
        <time>2016-03-22T09:08:23Z</time>
      </trkpt>
      <trkpt lat="46.37586" lon="6.75648">
        <ele>1681.1</ele>
        <time>2016-03-22T09:08:25Z</time>
      </trkpt>
      <trkpt lat="46.37592" lon="6.75661">
        <ele>1677.5</ele>
        <time>2016-03-22T09:08:26Z</time>
      </trkpt>
      <trkpt lat="46.37597" lon="6.75677">
        <ele>1673.5</ele>
        <time>2016-03-22T09:08:29Z</time>
      </trkpt>
      <trkpt lat="46.37602" lon="6.75687">
        <ele>1670.5</ele>
        <time>2016-03-22T09:08:29Z</time>
      </trkpt>
      <trkpt lat="46.37597" lon="6.75699">
        <ele>1667.3</ele>
        <time>2016-03-22T09:08:30Z</time>
      </trkpt>
      <trkpt lat="46.37596" lon="6.7571">
        <ele>1664.3</ele>
        <time>2016-03-22T09:08:31Z</time>
      </trkpt>
      <trkpt lat="46.376" lon="6.75723">
        <ele>1661.5</ele>
        <time>2016-03-22T09:08:33Z</time>
      </trkpt>
      <trkpt lat="46.37605" lon="6.75731">
        <ele>1660.1</ele>
        <time>2016-03-22T09:08:34Z</time>
      </trkpt>
      <trkpt lat="46.3761" lon="6.75745">
        <ele>1657.8</ele>
        <time>2016-03-22T09:08:35Z</time>
      </trkpt>
      <trkpt lat="46.37614" lon="6.75757">
        <ele>1655</ele>
        <time>2016-03-22T09:08:37Z</time>
      </trkpt>
      <trkpt lat="46.37619" lon="6.7577">
        <ele>1653.1</ele>
        <time>2016-03-22T09:08:37Z</time>
      </trkpt>
      <trkpt lat="46.37631" lon="6.75784">
        <ele>1650.5</ele>
        <time>2016-03-22T09:08:39Z</time>
      </trkpt>
      <trkpt lat="46.3764" lon="6.75792">
        <ele>1650.1</ele>
        <time>2016-03-22T09:08:41Z</time>
      </trkpt>
      <trkpt lat="46.37649" lon="6.75801">
        <ele>1649</ele>
        <time>2016-03-22T09:08:41Z</time>
      </trkpt>
      <trkpt lat="46.37659" lon="6.75815">
        <ele>1645.8</ele>
        <time>2016-03-22T09:08:42Z</time>
      </trkpt>
      <trkpt lat="46.37664" lon="6.75829">
        <ele>1715.3</ele>
        <time>2016-03-22T09:08:44Z</time>
      </trkpt>
      <trkpt lat="46.37672" lon="6.75844">
        <ele>1721.5</ele>
        <time>2016-03-22T09:08:45Z</time>
      </trkpt>
      <trkpt lat="46.37683" lon="6.75858">
        <ele>1706.5</ele>
        <time>2016-03-22T09:08:46Z</time>
      </trkpt>
      <trkpt lat="46.37695" lon="6.75869">
        <ele>1692.8</ele>
        <time>2016-03-22T09:08:47Z</time>
      </trkpt>
      <trkpt lat="46.37705" lon="6.7588">
        <ele>1684.3</ele>
        <time>2016-03-22T09:08:49Z</time>
      </trkpt>
      <trkpt lat="46.37713" lon="6.7589">
        <ele>1679.9</ele>
        <time>2016-03-22T09:08:49Z</time>
      </trkpt>
      <trkpt lat="46.37721" lon="6.75901">
        <ele>1672.6</ele>
        <time>2016-03-22T09:08:50Z</time>
      </trkpt>
      <trkpt lat="46.37727" lon="6.75912">
        <ele>1660.6</ele>
        <time>2016-03-22T09:08:51Z</time>
      </trkpt>
      <trkpt lat="46.37733" lon="6.75923">
        <ele>1652.1</ele>
        <time>2016-03-22T09:08:52Z</time>
      </trkpt>
      <trkpt lat="46.37737" lon="6.75932">
        <ele>1647</ele>
        <time>2016-03-22T09:08:53Z</time>
      </trkpt>
      <trkpt lat="46.3774" lon="6.75944">
        <ele>1633</ele>
        <time>2016-03-22T09:08:56Z</time>
      </trkpt>
      <trkpt lat="46.3774" lon="6.75958">
        <ele>1617.5</ele>
        <time>2016-03-22T09:08:57Z</time>
      </trkpt>
      <trkpt lat="46.37739" lon="6.75968">
        <ele>1682</ele>
        <time>2016-03-22T09:08:59Z</time>
      </trkpt>
      <trkpt lat="46.37731" lon="6.75966">
        <ele>1634</ele>
        <time>2016-03-22T09:09:03Z</time>
      </trkpt>
      <trkpt lat="46.37733" lon="6.75962">
        <ele>1600.1</ele>
        <time>2016-03-22T09:09:09Z</time>
      </trkpt>
      <trkpt lat="46.37737" lon="6.75961">
        <ele>1589.8</ele>
        <time>2016-03-22T09:09:17Z</time>
      </trkpt>
      <trkpt lat="46.3774" lon="6.75968">
        <ele>1580.3</ele>
        <time>2016-03-22T09:09:23Z</time>
      </trkpt>
      <trkpt lat="46.37736" lon="6.75982">
        <ele>1573.6</ele>
        <time>2016-03-22T09:09:26Z</time>
      </trkpt>
      <trkpt lat="46.3773" lon="6.7599">
        <ele>1570.8</ele>
        <time>2016-03-22T09:09:28Z</time>
      </trkpt>
      <trkpt lat="46.37724" lon="6.76">
        <ele>1565.5</ele>
        <time>2016-03-22T09:09:30Z</time>
      </trkpt>
      <trkpt lat="46.37724" lon="6.76012">
        <ele>1569</ele>
        <time>2016-03-22T09:09:33Z</time>
      </trkpt>
      <trkpt lat="46.37729" lon="6.76024">
        <ele>1566.1</ele>
        <time>2016-03-22T09:09:34Z</time>
      </trkpt>
      <trkpt lat="46.37732" lon="6.76041">
        <ele>1562.1</ele>
        <time>2016-03-22T09:09:35Z</time>
      </trkpt>
      <trkpt lat="46.37735" lon="6.76055">
        <ele>1560</ele>
        <time>2016-03-22T09:09:36Z</time>
      </trkpt>
      <trkpt lat="46.37738" lon="6.76067">
        <ele>1558.9</ele>
        <time>2016-03-22T09:09:38Z</time>
      </trkpt>
      <trkpt lat="46.37744" lon="6.76076">
        <ele>1557.1</ele>
        <time>2016-03-22T09:09:38Z</time>
      </trkpt>
      <trkpt lat="46.37746" lon="6.76089">
        <ele>1555.5</ele>
        <time>2016-03-22T09:09:40Z</time>
      </trkpt>
      <trkpt lat="46.37747" lon="6.76104">
        <ele>1552.8</ele>
        <time>2016-03-22T09:09:42Z</time>
      </trkpt>
      <trkpt lat="46.37751" lon="6.76118">
        <ele>1549</ele>
        <time>2016-03-22T09:09:44Z</time>
      </trkpt>
      <trkpt lat="46.37756" lon="6.76133">
        <ele>1546.5</ele>
        <time>2016-03-22T09:09:46Z</time>
      </trkpt>
      <trkpt lat="46.37755" lon="6.76144">
        <ele>1545</ele>
        <time>2016-03-22T09:09:47Z</time>
      </trkpt>
      <trkpt lat="46.37749" lon="6.76157">
        <ele>1543.4</ele>
        <time>2016-03-22T09:09:50Z</time>
      </trkpt>
      <trkpt lat="46.37749" lon="6.76169">
        <ele>1539.5</ele>
        <time>2016-03-22T09:09:51Z</time>
      </trkpt>
      <trkpt lat="46.37755" lon="6.76177">
        <ele>1537.5</ele>
        <time>2016-03-22T09:09:53Z</time>
      </trkpt>
      <trkpt lat="46.37757" lon="6.76186">
        <ele>1535</ele>
        <time>2016-03-22T09:09:55Z</time>
      </trkpt>
      <trkpt lat="46.37758" lon="6.76202">
        <ele>1532</ele>
        <time>2016-03-22T09:09:57Z</time>
      </trkpt>
      <trkpt lat="46.37759" lon="6.76212">
        <ele>1531.3</ele>
        <time>2016-03-22T09:10:00Z</time>
      </trkpt>
      <trkpt lat="46.37758" lon="6.76225">
        <ele>1528</ele>
        <time>2016-03-22T09:10:02Z</time>
      </trkpt>
      <trkpt lat="46.37762" lon="6.76236">
        <ele>1527.4</ele>
        <time>2016-03-22T09:10:04Z</time>
      </trkpt>
      <trkpt lat="46.37772" lon="6.76245">
        <ele>1523.1</ele>
        <time>2016-03-22T09:10:06Z</time>
      </trkpt>
      <trkpt lat="46.37774" lon="6.76258">
        <ele>1522.9</ele>
        <time>2016-03-22T09:10:08Z</time>
      </trkpt>
      <trkpt lat="46.37783" lon="6.76261">
        <ele>1521</ele>
        <time>2016-03-22T09:10:11Z</time>
      </trkpt>
      <trkpt lat="46.37787" lon="6.76275">
        <ele>1517.4</ele>
        <time>2016-03-22T09:10:12Z</time>
      </trkpt>
      <trkpt lat="46.37797" lon="6.76284">
        <ele>1514</ele>
        <time>2016-03-22T09:10:14Z</time>
      </trkpt>
      <trkpt lat="46.37805" lon="6.76284">
        <ele>1512.8</ele>
        <time>2016-03-22T09:10:16Z</time>
      </trkpt>
      <trkpt lat="46.37811" lon="6.76296">
        <ele>1508.3</ele>
        <time>2016-03-22T09:10:18Z</time>
      </trkpt>
      <trkpt lat="46.3782" lon="6.763">
        <ele>1505.5</ele>
        <time>2016-03-22T09:10:20Z</time>
      </trkpt>
      <trkpt lat="46.3783" lon="6.76304">
        <ele>1503</ele>
        <time>2016-03-22T09:10:24Z</time>
      </trkpt>
      <trkpt lat="46.3784" lon="6.76306">
        <ele>1499.6</ele>
        <time>2016-03-22T09:10:25Z</time>
      </trkpt>
      <trkpt lat="46.37849" lon="6.76302">
        <ele>1499.6</ele>
        <time>2016-03-22T09:10:28Z</time>
      </trkpt>
      <trkpt lat="46.37859" lon="6.76307">
        <ele>1499.3</ele>
        <time>2016-03-22T09:10:29Z</time>
      </trkpt>
      <trkpt lat="46.37868" lon="6.76303">
        <ele>1497</ele>
        <time>2016-03-22T09:10:32Z</time>
      </trkpt>
      <trkpt lat="46.37875" lon="6.76307">
        <ele>1494</ele>
        <time>2016-03-22T09:10:33Z</time>
      </trkpt>
      <trkpt lat="46.37883" lon="6.76312">
        <ele>1493.5</ele>
        <time>2016-03-22T09:10:35Z</time>
      </trkpt>
      <trkpt lat="46.37894" lon="6.76316">
        <ele>1493</ele>
        <time>2016-03-22T09:10:36Z</time>
      </trkpt>
      <trkpt lat="46.37905" lon="6.76314">
        <ele>1488.8</ele>
        <time>2016-03-22T09:10:39Z</time>
      </trkpt>
      <trkpt lat="46.37918" lon="6.76307">
        <ele>1480.9</ele>
        <time>2016-03-22T09:10:40Z</time>
      </trkpt>
      <trkpt lat="46.3793" lon="6.76301">
        <ele>1476.1</ele>
        <time>2016-03-22T09:10:43Z</time>
      </trkpt>
      <trkpt lat="46.37936" lon="6.76293">
        <ele>1474.5</ele>
        <time>2016-03-22T09:10:43Z</time>
      </trkpt>
      <trkpt lat="46.37944" lon="6.76289">
        <ele>1472.9</ele>
        <time>2016-03-22T09:10:44Z</time>
      </trkpt>
      <trkpt lat="46.37951" lon="6.76279">
        <ele>1470.4</ele>
        <time>2016-03-22T09:10:46Z</time>
      </trkpt>
      <trkpt lat="46.3796" lon="6.7627">
        <ele>1468.4</ele>
        <time>2016-03-22T09:10:48Z</time>
      </trkpt>
      <trkpt lat="46.37975" lon="6.7626">
        <ele>1466.3</ele>
        <time>2016-03-22T09:10:50Z</time>
      </trkpt>
      <trkpt lat="46.37984" lon="6.76254">
        <ele>1464.6</ele>
        <time>2016-03-22T09:10:52Z</time>
      </trkpt>
      <trkpt lat="46.37991" lon="6.76251">
        <ele>1462.1</ele>
        <time>2016-03-22T09:10:52Z</time>
      </trkpt>
      <trkpt lat="46.37999" lon="6.76243">
        <ele>1460.6</ele>
        <time>2016-03-22T09:10:53Z</time>
      </trkpt>
      <trkpt lat="46.38005" lon="6.76237">
        <ele>1459.6</ele>
        <time>2016-03-22T09:10:55Z</time>
      </trkpt>
      <trkpt lat="46.38015" lon="6.76225">
        <ele>1457.5</ele>
        <time>2016-03-22T09:10:56Z</time>
      </trkpt>
      <trkpt lat="46.38021" lon="6.76212">
        <ele>1454.9</ele>
        <time>2016-03-22T09:10:59Z</time>
      </trkpt>
      <trkpt lat="46.38026" lon="6.76202">
        <ele>1455.8</ele>
        <time>2016-03-22T09:11:00Z</time>
      </trkpt>
      <trkpt lat="46.38023" lon="6.76192">
        <ele>1451.3</ele>
        <time>2016-03-22T09:11:04Z</time>
      </trkpt>
      <trkpt lat="46.38024" lon="6.76185">
        <ele>1444.1</ele>
        <time>2016-03-22T09:11:12Z</time>
      </trkpt>
      <trkpt lat="46.38025" lon="6.76174">
        <ele>1440</ele>
        <time>2016-03-22T09:11:18Z</time>
      </trkpt>
      <trkpt lat="46.38029" lon="6.76165">
        <ele>1439</ele>
        <time>2016-03-22T09:11:21Z</time>
      </trkpt>
      <trkpt lat="46.38032" lon="6.76154">
        <ele>1438.6</ele>
        <time>2016-03-22T09:11:23Z</time>
      </trkpt>
      <trkpt lat="46.38034" lon="6.7614">
        <ele>1436.3</ele>
        <time>2016-03-22T09:11:27Z</time>
      </trkpt>
      <trkpt lat="46.38036" lon="6.76126">
        <ele>1434.9</ele>
        <time>2016-03-22T09:11:29Z</time>
      </trkpt>
      <trkpt lat="46.38039" lon="6.76113">
        <ele>1433.5</ele>
        <time>2016-03-22T09:11:32Z</time>
      </trkpt>
      <trkpt lat="46.3804" lon="6.76101">
        <ele>1434</ele>
        <time>2016-03-22T09:11:35Z</time>
      </trkpt>
      <trkpt lat="46.38043" lon="6.76091">
        <ele>1434.1</ele>
        <time>2016-03-22T09:11:38Z</time>
      </trkpt>
      <trkpt lat="46.38046" lon="6.7608">
        <ele>1434.8</ele>
        <time>2016-03-22T09:11:42Z</time>
      </trkpt>
      <trkpt lat="46.3805" lon="6.76069">
        <ele>1434.5</ele>
        <time>2016-03-22T09:11:45Z</time>
      </trkpt>
      <trkpt lat="46.38054" lon="6.7606">
        <ele>1434.5</ele>
        <time>2016-03-22T09:11:48Z</time>
      </trkpt>
      <trkpt lat="46.38057" lon="6.76047">
        <ele>1441.4</ele>
        <time>2016-03-22T09:11:51Z</time>
      </trkpt>
      <trkpt lat="46.3806" lon="6.76037">
        <ele>1440.9</ele>
        <time>2016-03-22T09:11:54Z</time>
      </trkpt>
      <trkpt lat="46.38065" lon="6.76027">
        <ele>1447.6</ele>
        <time>2016-03-22T09:11:58Z</time>
      </trkpt>
      <trkpt lat="46.38068" lon="6.76017">
        <ele>1449.9</ele>
        <time>2016-03-22T09:12:01Z</time>
      </trkpt>
      <trkpt lat="46.38074" lon="6.76004">
        <ele>1450.3</ele>
        <time>2016-03-22T09:12:05Z</time>
      </trkpt>
      <trkpt lat="46.38079" lon="6.75993">
        <ele>1449</ele>
        <time>2016-03-22T09:12:07Z</time>
      </trkpt>
      <trkpt lat="46.38084" lon="6.75983">
        <ele>1450.9</ele>
        <time>2016-03-22T09:12:10Z</time>
      </trkpt>
      <trkpt lat="46.38088" lon="6.75971">
        <ele>1450.8</ele>
        <time>2016-03-22T09:12:13Z</time>
      </trkpt>
      <trkpt lat="46.38091" lon="6.75958">
        <ele>1448</ele>
        <time>2016-03-22T09:12:17Z</time>
      </trkpt>
      <trkpt lat="46.38096" lon="6.75948">
        <ele>1448.6</ele>
        <time>2016-03-22T09:12:19Z</time>
      </trkpt>
      <trkpt lat="46.38101" lon="6.75938">
        <ele>1449</ele>
        <time>2016-03-22T09:12:22Z</time>
      </trkpt>
      <trkpt lat="46.38107" lon="6.75928">
        <ele>1451.3</ele>
        <time>2016-03-22T09:12:25Z</time>
      </trkpt>
      <trkpt lat="46.38112" lon="6.75919">
        <ele>1457</ele>
        <time>2016-03-22T09:12:29Z</time>
      </trkpt>
      <trkpt lat="46.38116" lon="6.75906">
        <ele>1459.9</ele>
        <time>2016-03-22T09:12:32Z</time>
      </trkpt>
      <trkpt lat="46.3812" lon="6.75895">
        <ele>1459.1</ele>
        <time>2016-03-22T09:12:34Z</time>
      </trkpt>
      <trkpt lat="46.38121" lon="6.7588">
        <ele>1459.3</ele>
        <time>2016-03-22T09:12:37Z</time>
      </trkpt>
      <trkpt lat="46.38123" lon="6.75866">
        <ele>1451.6</ele>
        <time>2016-03-22T09:12:42Z</time>
      </trkpt>
      <trkpt lat="46.38127" lon="6.75855">
        <ele>1452.3</ele>
        <time>2016-03-22T09:12:45Z</time>
      </trkpt>
      <trkpt lat="46.38131" lon="6.75843">
        <ele>1457</ele>
        <time>2016-03-22T09:12:47Z</time>
      </trkpt>
      <trkpt lat="46.38133" lon="6.75829">
        <ele>1462.5</ele>
        <time>2016-03-22T09:12:50Z</time>
      </trkpt>
      <trkpt lat="46.38134" lon="6.75817">
        <ele>1458.1</ele>
        <time>2016-03-22T09:12:54Z</time>
      </trkpt>
      <trkpt lat="46.38136" lon="6.75805">
        <ele>1453.6</ele>
        <time>2016-03-22T09:12:56Z</time>
      </trkpt>
      <trkpt lat="46.3814" lon="6.75794">
        <ele>1453</ele>
        <time>2016-03-22T09:12:59Z</time>
      </trkpt>
      <trkpt lat="46.38143" lon="6.75781">
        <ele>1452.6</ele>
        <time>2016-03-22T09:13:02Z</time>
      </trkpt>
      <trkpt lat="46.38147" lon="6.7577">
        <ele>1452</ele>
        <time>2016-03-22T09:13:05Z</time>
      </trkpt>
      <trkpt lat="46.3815" lon="6.75758">
        <ele>1452.4</ele>
        <time>2016-03-22T09:13:08Z</time>
      </trkpt>
      <trkpt lat="46.38151" lon="6.75746">
        <ele>1455</ele>
        <time>2016-03-22T09:13:12Z</time>
      </trkpt>
      <trkpt lat="46.38146" lon="6.75734">
        <ele>1466.5</ele>
        <time>2016-03-22T09:13:14Z</time>
      </trkpt>
      <trkpt lat="46.38145" lon="6.75723">
        <ele>1475.9</ele>
        <time>2016-03-22T09:13:17Z</time>
      </trkpt>
      <trkpt lat="46.38143" lon="6.75715">
        <ele>1479.1</ele>
        <time>2016-03-22T09:13:24Z</time>
      </trkpt>
      <trkpt lat="46.38143" lon="6.75715">
        <ele>1480.1</ele>
        <time>2016-03-22T09:13:27Z</time>
      </trkpt>
      <trkpt lat="46.38141" lon="6.75709">
        <ele>1480.8</ele>
        <time>2016-03-22T09:13:56Z</time>
      </trkpt>
      <trkpt lat="46.38142" lon="6.75707">
        <ele>1479.1</ele>
        <time>2016-03-22T09:14:00Z</time>
      </trkpt>
      <trkpt lat="46.38142" lon="6.75697">
        <ele>1474.5</ele>
        <time>2016-03-22T09:14:06Z</time>
      </trkpt>
      <trkpt lat="46.38143" lon="6.75686">
        <ele>1478.1</ele>
        <time>2016-03-22T09:14:09Z</time>
      </trkpt>
      <trkpt lat="46.38141" lon="6.75673">
        <ele>1475.8</ele>
        <time>2016-03-22T09:14:12Z</time>
      </trkpt>
      <trkpt lat="46.38138" lon="6.7566">
        <ele>1472.1</ele>
        <time>2016-03-22T09:14:15Z</time>
      </trkpt>
      <trkpt lat="46.38135" lon="6.75649">
        <ele>1469.6</ele>
        <time>2016-03-22T09:14:18Z</time>
      </trkpt>
      <trkpt lat="46.38135" lon="6.75635">
        <ele>1471</ele>
        <time>2016-03-22T09:14:21Z</time>
      </trkpt>
      <trkpt lat="46.38139" lon="6.75624">
        <ele>1467.1</ele>
        <time>2016-03-22T09:14:24Z</time>
      </trkpt>
      <trkpt lat="46.38143" lon="6.75611">
        <ele>1462</ele>
        <time>2016-03-22T09:14:27Z</time>
      </trkpt>
      <trkpt lat="46.38139" lon="6.75583">
        <ele>1462</ele>
        <time>2016-03-22T09:14:29Z</time>
      </trkpt>
      <trkpt lat="46.38137" lon="6.7557">
        <ele>1464</ele>
        <time>2016-03-22T09:14:31Z</time>
      </trkpt>
      <trkpt lat="46.38132" lon="6.75556">
        <ele>1464.5</ele>
        <time>2016-03-22T09:14:35Z</time>
      </trkpt>
      <trkpt lat="46.38127" lon="6.75544">
        <ele>1463</ele>
        <time>2016-03-22T09:14:36Z</time>
      </trkpt>
      <trkpt lat="46.38122" lon="6.75533">
        <ele>1463.3</ele>
        <time>2016-03-22T09:14:39Z</time>
      </trkpt>
      <trkpt lat="46.38117" lon="6.75524">
        <ele>1460.5</ele>
        <time>2016-03-22T09:14:40Z</time>
      </trkpt>
      <trkpt lat="46.38112" lon="6.75515">
        <ele>1460.5</ele>
        <time>2016-03-22T09:14:42Z</time>
      </trkpt>
      <trkpt lat="46.38107" lon="6.75504">
        <ele>1461</ele>
        <time>2016-03-22T09:14:46Z</time>
      </trkpt>
      <trkpt lat="46.38102" lon="6.75491">
        <ele>1459</ele>
        <time>2016-03-22T09:14:48Z</time>
      </trkpt>
      <trkpt lat="46.38097" lon="6.7548">
        <ele>1457.5</ele>
        <time>2016-03-22T09:14:50Z</time>
      </trkpt>
      <trkpt lat="46.38091" lon="6.75472">
        <ele>1457</ele>
        <time>2016-03-22T09:14:52Z</time>
      </trkpt>
      <trkpt lat="46.38084" lon="6.75461">
        <ele>1457.4</ele>
        <time>2016-03-22T09:14:53Z</time>
      </trkpt>
      <trkpt lat="46.38078" lon="6.75451">
        <ele>1457.5</ele>
        <time>2016-03-22T09:14:55Z</time>
      </trkpt>
      <trkpt lat="46.38071" lon="6.7544">
        <ele>1456.5</ele>
        <time>2016-03-22T09:14:58Z</time>
      </trkpt>
      <trkpt lat="46.38068" lon="6.7543">
        <ele>1455.6</ele>
        <time>2016-03-22T09:15:01Z</time>
      </trkpt>
      <trkpt lat="46.38064" lon="6.75418">
        <ele>1455.3</ele>
        <time>2016-03-22T09:15:05Z</time>
      </trkpt>
      <trkpt lat="46.38062" lon="6.75405">
        <ele>1454.6</ele>
        <time>2016-03-22T09:15:07Z</time>
      </trkpt>
      <trkpt lat="46.3806" lon="6.75393">
        <ele>1453.5</ele>
        <time>2016-03-22T09:15:10Z</time>
      </trkpt>
      <trkpt lat="46.38055" lon="6.75381">
        <ele>1454</ele>
        <time>2016-03-22T09:15:14Z</time>
      </trkpt>
      <trkpt lat="46.38052" lon="6.75369">
        <ele>1452.5</ele>
        <time>2016-03-22T09:15:16Z</time>
      </trkpt>
      <trkpt lat="46.38054" lon="6.75356">
        <ele>1446.5</ele>
        <time>2016-03-22T09:15:20Z</time>
      </trkpt>
      <trkpt lat="46.38053" lon="6.75341">
        <ele>1441.4</ele>
        <time>2016-03-22T09:15:23Z</time>
      </trkpt>
      <trkpt lat="46.3805" lon="6.75325">
        <ele>1438.6</ele>
        <time>2016-03-22T09:15:25Z</time>
      </trkpt>
      <trkpt lat="46.38044" lon="6.7531">
        <ele>1436.4</ele>
        <time>2016-03-22T09:15:25Z</time>
      </trkpt>
      <trkpt lat="46.38045" lon="6.75297">
        <ele>1433.9</ele>
        <time>2016-03-22T09:15:27Z</time>
      </trkpt>
      <trkpt lat="46.38046" lon="6.75285">
        <ele>1432.3</ele>
        <time>2016-03-22T09:15:29Z</time>
      </trkpt>
      <trkpt lat="46.38046" lon="6.75273">
        <ele>1430.8</ele>
        <time>2016-03-22T09:15:32Z</time>
      </trkpt>
      <trkpt lat="46.38047" lon="6.75262">
        <ele>1429</ele>
        <time>2016-03-22T09:15:33Z</time>
      </trkpt>
      <trkpt lat="46.38048" lon="6.75251">
        <ele>1427.5</ele>
        <time>2016-03-22T09:15:36Z</time>
      </trkpt>
      <trkpt lat="46.38049" lon="6.75237">
        <ele>1424.8</ele>
        <time>2016-03-22T09:15:39Z</time>
      </trkpt>
      <trkpt lat="46.38049" lon="6.75226">
        <ele>1424.5</ele>
        <time>2016-03-22T09:15:41Z</time>
      </trkpt>
      <trkpt lat="46.38049" lon="6.75213">
        <ele>1422.3</ele>
        <time>2016-03-22T09:15:44Z</time>
      </trkpt>
      <trkpt lat="46.38048" lon="6.752">
        <ele>1422.9</ele>
        <time>2016-03-22T09:15:48Z</time>
      </trkpt>
      <trkpt lat="46.38046" lon="6.75188">
        <ele>1425</ele>
        <time>2016-03-22T09:15:49Z</time>
      </trkpt>
      <trkpt lat="46.38043" lon="6.75177">
        <ele>1427.1</ele>
        <time>2016-03-22T09:15:52Z</time>
      </trkpt>
      <trkpt lat="46.3804" lon="6.75165">
        <ele>1432</ele>
        <time>2016-03-22T09:15:53Z</time>
      </trkpt>
      <trkpt lat="46.38036" lon="6.75154">
        <ele>1435.5</ele>
        <time>2016-03-22T09:15:56Z</time>
      </trkpt>
      <trkpt lat="46.38036" lon="6.7515">
        <ele>1436.5</ele>
        <time>2016-03-22T09:16:03Z</time>
      </trkpt>
      <trkpt lat="46.38036" lon="6.75149">
        <ele>1436.5</ele>
        <time>2016-03-22T09:16:04Z</time>
      </trkpt>
      <trkpt lat="46.38033" lon="6.75142">
        <ele>1426.9</ele>
        <time>2016-03-22T09:16:14Z</time>
      </trkpt>
      <trkpt lat="46.38033" lon="6.7513">
        <ele>1422.4</ele>
        <time>2016-03-22T09:16:19Z</time>
      </trkpt>
      <trkpt lat="46.38032" lon="6.75119">
        <ele>1419.1</ele>
        <time>2016-03-22T09:16:22Z</time>
      </trkpt>
      <trkpt lat="46.38032" lon="6.75107">
        <ele>1417.3</ele>
        <time>2016-03-22T09:16:26Z</time>
      </trkpt>
      <trkpt lat="46.38032" lon="6.75093">
        <ele>1415.3</ele>
        <time>2016-03-22T09:16:29Z</time>
      </trkpt>
      <trkpt lat="46.3803" lon="6.7508">
        <ele>1414.5</ele>
        <time>2016-03-22T09:16:31Z</time>
      </trkpt>
      <trkpt lat="46.38029" lon="6.75068">
        <ele>1417.8</ele>
        <time>2016-03-22T09:16:33Z</time>
      </trkpt>
      <trkpt lat="46.38029" lon="6.75057">
        <ele>1420.4</ele>
        <time>2016-03-22T09:16:35Z</time>
      </trkpt>
      <trkpt lat="46.38027" lon="6.75046">
        <ele>1425</ele>
        <time>2016-03-22T09:16:39Z</time>
      </trkpt>
      <trkpt lat="46.38028" lon="6.75039">
        <ele>1427.5</ele>
        <time>2016-03-22T09:16:46Z</time>
      </trkpt>
      <trkpt lat="46.38028" lon="6.75039">
        <ele>1427.5</ele>
        <time>2016-03-22T09:16:46Z</time>
      </trkpt>
      <trkpt lat="46.38032" lon="6.75029">
        <ele>1432</ele>
        <time>2016-03-22T09:16:55Z</time>
      </trkpt>
      <trkpt lat="46.38036" lon="6.7502">
        <ele>1433.1</ele>
        <time>2016-03-22T09:16:58Z</time>
      </trkpt>
      <trkpt lat="46.3804" lon="6.75011">
        <ele>1436.1</ele>
        <time>2016-03-22T09:17:03Z</time>
      </trkpt>
      <trkpt lat="46.38049" lon="6.75013">
        <ele>1435.5</ele>
        <time>2016-03-22T09:17:08Z</time>
      </trkpt>
      <trkpt lat="46.38058" lon="6.75008">
        <ele>1434.4</ele>
        <time>2016-03-22T09:17:11Z</time>
      </trkpt>
      <trkpt lat="46.38065" lon="6.74998">
        <ele>1436</ele>
        <time>2016-03-22T09:17:13Z</time>
      </trkpt>
      <trkpt lat="46.3807" lon="6.74989">
        <ele>1440.6</ele>
        <time>2016-03-22T09:17:15Z</time>
      </trkpt>
      <trkpt lat="46.38076" lon="6.74983">
        <ele>1440</ele>
        <time>2016-03-22T09:17:18Z</time>
      </trkpt>
      <trkpt lat="46.38083" lon="6.74977">
        <ele>1438</ele>
        <time>2016-03-22T09:17:20Z</time>
      </trkpt>
      <trkpt lat="46.38092" lon="6.74975">
        <ele>1441.5</ele>
        <time>2016-03-22T09:17:21Z</time>
      </trkpt>
      <trkpt lat="46.38099" lon="6.7497">
        <ele>1442.1</ele>
        <time>2016-03-22T09:17:24Z</time>
      </trkpt>
      <trkpt lat="46.38107" lon="6.74961">
        <ele>1444.9</ele>
        <time>2016-03-22T09:17:28Z</time>
      </trkpt>
      <trkpt lat="46.38114" lon="6.74952">
        <ele>1444</ele>
        <time>2016-03-22T09:17:33Z</time>
      </trkpt>
      <trkpt lat="46.38119" lon="6.74944">
        <ele>1441.4</ele>
        <time>2016-03-22T09:17:38Z</time>
      </trkpt>
      <trkpt lat="46.38123" lon="6.74938">
        <ele>1438.8</ele>
        <time>2016-03-22T09:17:45Z</time>
      </trkpt>
      <trkpt lat="46.38124" lon="6.74929">
        <ele>1432.4</ele>
        <time>2016-03-22T09:17:52Z</time>
      </trkpt>
      <trkpt lat="46.38124" lon="6.74916">
        <ele>1428</ele>
        <time>2016-03-22T09:17:56Z</time>
      </trkpt>
      <trkpt lat="46.38124" lon="6.74904">
        <ele>1426.6</ele>
        <time>2016-03-22T09:17:59Z</time>
      </trkpt>
      <trkpt lat="46.38124" lon="6.74893">
        <ele>1423.8</ele>
        <time>2016-03-22T09:18:01Z</time>
      </trkpt>
      <trkpt lat="46.38125" lon="6.74881">
        <ele>1426</ele>
        <time>2016-03-22T09:18:05Z</time>
      </trkpt>
      <trkpt lat="46.38125" lon="6.7487">
        <ele>1425</ele>
        <time>2016-03-22T09:18:08Z</time>
      </trkpt>
      <trkpt lat="46.38125" lon="6.74857">
        <ele>1427.1</ele>
        <time>2016-03-22T09:18:12Z</time>
      </trkpt>
      <trkpt lat="46.38125" lon="6.74843">
        <ele>1429.5</ele>
        <time>2016-03-22T09:18:16Z</time>
      </trkpt>
      <trkpt lat="46.38124" lon="6.74833">
        <ele>1430.4</ele>
        <time>2016-03-22T09:18:20Z</time>
      </trkpt>
      <trkpt lat="46.38124" lon="6.74821">
        <ele>1432.8</ele>
        <time>2016-03-22T09:18:24Z</time>
      </trkpt>
      <trkpt lat="46.38123" lon="6.74811">
        <ele>1437.4</ele>
        <time>2016-03-22T09:18:28Z</time>
      </trkpt>
      <trkpt lat="46.38122" lon="6.74799">
        <ele>1441.6</ele>
        <time>2016-03-22T09:18:32Z</time>
      </trkpt>
      <trkpt lat="46.38122" lon="6.74787">
        <ele>1448.1</ele>
        <time>2016-03-22T09:18:36Z</time>
      </trkpt>
      <trkpt lat="46.3812" lon="6.74775">
        <ele>1449</ele>
        <time>2016-03-22T09:18:40Z</time>
      </trkpt>
      <trkpt lat="46.38118" lon="6.74764">
        <ele>1451</ele>
        <time>2016-03-22T09:18:44Z</time>
      </trkpt>
      <trkpt lat="46.38117" lon="6.74753">
        <ele>1454</ele>
        <time>2016-03-22T09:18:48Z</time>
      </trkpt>
      <trkpt lat="46.38116" lon="6.74741">
        <ele>1457</ele>
        <time>2016-03-22T09:18:52Z</time>
      </trkpt>
      <trkpt lat="46.38115" lon="6.74731">
        <ele>1459.9</ele>
        <time>2016-03-22T09:18:56Z</time>
      </trkpt>
      <trkpt lat="46.38114" lon="6.7472">
        <ele>1461.1</ele>
        <time>2016-03-22T09:19:00Z</time>
      </trkpt>
      <trkpt lat="46.38112" lon="6.74707">
        <ele>1463</ele>
        <time>2016-03-22T09:19:05Z</time>
      </trkpt>
      <trkpt lat="46.38111" lon="6.74695">
        <ele>1466.3</ele>
        <time>2016-03-22T09:19:10Z</time>
      </trkpt>
      <trkpt lat="46.3811" lon="6.74684">
        <ele>1470.1</ele>
        <time>2016-03-22T09:19:14Z</time>
      </trkpt>
      <trkpt lat="46.38109" lon="6.74674">
        <ele>1473</ele>
        <time>2016-03-22T09:19:18Z</time>
      </trkpt>
      <trkpt lat="46.38108" lon="6.74663">
        <ele>1476.8</ele>
        <time>2016-03-22T09:19:23Z</time>
      </trkpt>
      <trkpt lat="46.38107" lon="6.74653">
        <ele>1481.1</ele>
        <time>2016-03-22T09:19:26Z</time>
      </trkpt>
      <trkpt lat="46.38105" lon="6.74642">
        <ele>1486</ele>
        <time>2016-03-22T09:19:30Z</time>
      </trkpt>
      <trkpt lat="46.38104" lon="6.74632">
        <ele>1489.9</ele>
        <time>2016-03-22T09:19:34Z</time>
      </trkpt>
      <trkpt lat="46.38103" lon="6.74621">
        <ele>1492.1</ele>
        <time>2016-03-22T09:19:38Z</time>
      </trkpt>
      <trkpt lat="46.38101" lon="6.7461">
        <ele>1494.4</ele>
        <time>2016-03-22T09:19:42Z</time>
      </trkpt>
      <trkpt lat="46.381" lon="6.74599">
        <ele>1498</ele>
        <time>2016-03-22T09:19:46Z</time>
      </trkpt>
      <trkpt lat="46.381" lon="6.74589">
        <ele>1502.1</ele>
        <time>2016-03-22T09:19:50Z</time>
      </trkpt>
      <trkpt lat="46.38098" lon="6.74576">
        <ele>1507.5</ele>
        <time>2016-03-22T09:19:54Z</time>
      </trkpt>
      <trkpt lat="46.38097" lon="6.74565">
        <ele>1510.9</ele>
        <time>2016-03-22T09:19:59Z</time>
      </trkpt>
      <trkpt lat="46.38096" lon="6.74554">
        <ele>1514.1</ele>
        <time>2016-03-22T09:20:02Z</time>
      </trkpt>
      <trkpt lat="46.38094" lon="6.74543">
        <ele>1515.6</ele>
        <time>2016-03-22T09:20:06Z</time>
      </trkpt>
      <trkpt lat="46.38093" lon="6.74533">
        <ele>1517.5</ele>
        <time>2016-03-22T09:20:10Z</time>
      </trkpt>
      <trkpt lat="46.38091" lon="6.74521">
        <ele>1518.5</ele>
        <time>2016-03-22T09:20:15Z</time>
      </trkpt>
      <trkpt lat="46.3809" lon="6.74508">
        <ele>1520.5</ele>
        <time>2016-03-22T09:20:20Z</time>
      </trkpt>
      <trkpt lat="46.38089" lon="6.74498">
        <ele>1522</ele>
        <time>2016-03-22T09:20:24Z</time>
      </trkpt>
      <trkpt lat="46.38088" lon="6.74486">
        <ele>1524.5</ele>
        <time>2016-03-22T09:20:28Z</time>
      </trkpt>
      <trkpt lat="46.38087" lon="6.74474">
        <ele>1526.5</ele>
        <time>2016-03-22T09:20:32Z</time>
      </trkpt>
      <trkpt lat="46.38086" lon="6.74463">
        <ele>1528</ele>
        <time>2016-03-22T09:20:36Z</time>
      </trkpt>
      <trkpt lat="46.38085" lon="6.74451">
        <ele>1530.9</ele>
        <time>2016-03-22T09:20:40Z</time>
      </trkpt>
      <trkpt lat="46.38083" lon="6.7444">
        <ele>1530.3</ele>
        <time>2016-03-22T09:20:44Z</time>
      </trkpt>
      <trkpt lat="46.38082" lon="6.74428">
        <ele>1537.6</ele>
        <time>2016-03-22T09:20:48Z</time>
      </trkpt>
      <trkpt lat="46.38081" lon="6.74417">
        <ele>1540.9</ele>
        <time>2016-03-22T09:20:52Z</time>
      </trkpt>
      <trkpt lat="46.38079" lon="6.74407">
        <ele>1543.5</ele>
        <time>2016-03-22T09:20:57Z</time>
      </trkpt>
      <trkpt lat="46.38078" lon="6.74395">
        <ele>1548.1</ele>
        <time>2016-03-22T09:21:02Z</time>
      </trkpt>
      <trkpt lat="46.38077" lon="6.74384">
        <ele>1549.5</ele>
        <time>2016-03-22T09:21:06Z</time>
      </trkpt>
      <trkpt lat="46.38075" lon="6.74373">
        <ele>1551.8</ele>
        <time>2016-03-22T09:21:10Z</time>
      </trkpt>
      <trkpt lat="46.38074" lon="6.74363">
        <ele>1553.6</ele>
        <time>2016-03-22T09:21:14Z</time>
      </trkpt>
      <trkpt lat="46.38072" lon="6.74352">
        <ele>1555.1</ele>
        <time>2016-03-22T09:21:18Z</time>
      </trkpt>
      <trkpt lat="46.38071" lon="6.74341">
        <ele>1557</ele>
        <time>2016-03-22T09:21:22Z</time>
      </trkpt>
      <trkpt lat="46.3807" lon="6.7433">
        <ele>1558.9</ele>
        <time>2016-03-22T09:21:26Z</time>
      </trkpt>
      <trkpt lat="46.38069" lon="6.74319">
        <ele>1561.5</ele>
        <time>2016-03-22T09:21:30Z</time>
      </trkpt>
      <trkpt lat="46.38067" lon="6.74309">
        <ele>1564.6</ele>
        <time>2016-03-22T09:21:33Z</time>
      </trkpt>
      <trkpt lat="46.38066" lon="6.74298">
        <ele>1567</ele>
        <time>2016-03-22T09:21:37Z</time>
      </trkpt>
      <trkpt lat="46.38065" lon="6.74285">
        <ele>1569.3</ele>
        <time>2016-03-22T09:21:42Z</time>
      </trkpt>
      <trkpt lat="46.38064" lon="6.74275">
        <ele>1570.5</ele>
        <time>2016-03-22T09:21:47Z</time>
      </trkpt>
      <trkpt lat="46.38063" lon="6.74264">
        <ele>1571.5</ele>
        <time>2016-03-22T09:21:51Z</time>
      </trkpt>
      <trkpt lat="46.38062" lon="6.74252">
        <ele>1573.1</ele>
        <time>2016-03-22T09:21:55Z</time>
      </trkpt>
      <trkpt lat="46.38061" lon="6.74241">
        <ele>1574.4</ele>
        <time>2016-03-22T09:21:59Z</time>
      </trkpt>
      <trkpt lat="46.3806" lon="6.7423">
        <ele>1577.4</ele>
        <time>2016-03-22T09:22:02Z</time>
      </trkpt>
      <trkpt lat="46.38058" lon="6.74219">
        <ele>1578.3</ele>
        <time>2016-03-22T09:22:06Z</time>
      </trkpt>
      <trkpt lat="46.38057" lon="6.74208">
        <ele>1580</ele>
        <time>2016-03-22T09:22:11Z</time>
      </trkpt>
      <trkpt lat="46.38056" lon="6.74196">
        <ele>1582</ele>
        <time>2016-03-22T09:22:14Z</time>
      </trkpt>
      <trkpt lat="46.38055" lon="6.74185">
        <ele>1583</ele>
        <time>2016-03-22T09:22:18Z</time>
      </trkpt>
      <trkpt lat="46.38053" lon="6.74173">
        <ele>1590</ele>
        <time>2016-03-22T09:22:23Z</time>
      </trkpt>
      <trkpt lat="46.3805" lon="6.74162">
        <ele>1594.5</ele>
        <time>2016-03-22T09:22:28Z</time>
      </trkpt>
      <trkpt lat="46.38048" lon="6.74152">
        <ele>1596.9</ele>
        <time>2016-03-22T09:22:33Z</time>
      </trkpt>
      <trkpt lat="46.38046" lon="6.74141">
        <ele>1603</ele>
        <time>2016-03-22T09:22:37Z</time>
      </trkpt>
      <trkpt lat="46.38044" lon="6.7413">
        <ele>1609</ele>
        <time>2016-03-22T09:22:41Z</time>
      </trkpt>
      <trkpt lat="46.38042" lon="6.74119">
        <ele>1613</ele>
        <time>2016-03-22T09:22:45Z</time>
      </trkpt>
      <trkpt lat="46.3804" lon="6.74108">
        <ele>1616</ele>
        <time>2016-03-22T09:22:50Z</time>
      </trkpt>
      <trkpt lat="46.38038" lon="6.74095">
        <ele>1620.4</ele>
        <time>2016-03-22T09:22:54Z</time>
      </trkpt>
      <trkpt lat="46.38036" lon="6.74083">
        <ele>1625.4</ele>
        <time>2016-03-22T09:22:59Z</time>
      </trkpt>
      <trkpt lat="46.38035" lon="6.74071">
        <ele>1627.5</ele>
        <time>2016-03-22T09:23:05Z</time>
      </trkpt>
      <trkpt lat="46.38034" lon="6.74059">
        <ele>1630.1</ele>
        <time>2016-03-22T09:23:09Z</time>
      </trkpt>
      <trkpt lat="46.38032" lon="6.74047">
        <ele>1632.5</ele>
        <time>2016-03-22T09:23:14Z</time>
      </trkpt>
      <trkpt lat="46.38031" lon="6.74035">
        <ele>1635.1</ele>
        <time>2016-03-22T09:23:20Z</time>
      </trkpt>
      <trkpt lat="46.38029" lon="6.74023">
        <ele>1639.6</ele>
        <time>2016-03-22T09:23:24Z</time>
      </trkpt>
      <trkpt lat="46.38028" lon="6.7401">
        <ele>1639</ele>
        <time>2016-03-22T09:23:29Z</time>
      </trkpt>
      <trkpt lat="46.38027" lon="6.73998">
        <ele>1644.5</ele>
        <time>2016-03-22T09:23:35Z</time>
      </trkpt>
      <trkpt lat="46.38026" lon="6.73985">
        <ele>1654.3</ele>
        <time>2016-03-22T09:23:40Z</time>
      </trkpt>
      <trkpt lat="46.38024" lon="6.73974">
        <ele>1661.5</ele>
        <time>2016-03-22T09:23:43Z</time>
      </trkpt>
      <trkpt lat="46.38023" lon="6.73963">
        <ele>1667.3</ele>
        <time>2016-03-22T09:23:47Z</time>
      </trkpt>
      <trkpt lat="46.38022" lon="6.73953">
        <ele>1669.5</ele>
        <time>2016-03-22T09:23:51Z</time>
      </trkpt>
      <trkpt lat="46.3802" lon="6.73942">
        <ele>1671.5</ele>
        <time>2016-03-22T09:23:55Z</time>
      </trkpt>
      <trkpt lat="46.38019" lon="6.73931">
        <ele>1672.5</ele>
        <time>2016-03-22T09:23:59Z</time>
      </trkpt>
      <trkpt lat="46.38017" lon="6.7392">
        <ele>1677.9</ele>
        <time>2016-03-22T09:24:04Z</time>
      </trkpt>
      <trkpt lat="46.38016" lon="6.73908">
        <ele>1678.1</ele>
        <time>2016-03-22T09:24:08Z</time>
      </trkpt>
      <trkpt lat="46.38015" lon="6.73897">
        <ele>1678.1</ele>
        <time>2016-03-22T09:24:12Z</time>
      </trkpt>
      <trkpt lat="46.38013" lon="6.73886">
        <ele>1678.5</ele>
        <time>2016-03-22T09:24:15Z</time>
      </trkpt>
      <trkpt lat="46.38012" lon="6.73875">
        <ele>1677.8</ele>
        <time>2016-03-22T09:24:20Z</time>
      </trkpt>
      <trkpt lat="46.38012" lon="6.73864">
        <ele>1676.5</ele>
        <time>2016-03-22T09:24:24Z</time>
      </trkpt>
      <trkpt lat="46.38011" lon="6.73852">
        <ele>1675.5</ele>
        <time>2016-03-22T09:24:27Z</time>
      </trkpt>
      <trkpt lat="46.3801" lon="6.73841">
        <ele>1675.5</ele>
        <time>2016-03-22T09:24:29Z</time>
      </trkpt>
      <trkpt lat="46.38006" lon="6.73841">
        <ele>1675</ele>
        <time>2016-03-22T09:24:36Z</time>
      </trkpt>
      <trkpt lat="46.38006" lon="6.73841">
        <ele>1715.5</ele>
        <time>2016-03-22T09:24:36Z</time>
      </trkpt>
      <trkpt lat="46.38" lon="6.73848">
        <ele>1676.5</ele>
        <time>2016-03-22T09:25:10Z</time>
      </trkpt>
      <trkpt lat="46.37995" lon="6.73856">
        <ele>1676.6</ele>
        <time>2016-03-22T09:25:15Z</time>
      </trkpt>
      <trkpt lat="46.3799" lon="6.73865">
        <ele>1677.4</ele>
        <time>2016-03-22T09:25:19Z</time>
      </trkpt>
      <trkpt lat="46.37984" lon="6.73874">
        <ele>1677.4</ele>
        <time>2016-03-22T09:25:24Z</time>
      </trkpt>
      <trkpt lat="46.3798" lon="6.73885">
        <ele>1678.1</ele>
        <time>2016-03-22T09:25:30Z</time>
      </trkpt>
      <trkpt lat="46.37975" lon="6.73894">
        <ele>1677.5</ele>
        <time>2016-03-22T09:25:35Z</time>
      </trkpt>
      <trkpt lat="46.37974" lon="6.73906">
        <ele>1676.9</ele>
        <time>2016-03-22T09:25:40Z</time>
      </trkpt>
      <trkpt lat="46.37974" lon="6.73917">
        <ele>1675.4</ele>
        <time>2016-03-22T09:25:44Z</time>
      </trkpt>
      <trkpt lat="46.37982" lon="6.73921">
        <ele>1673.4</ele>
        <time>2016-03-22T09:25:46Z</time>
      </trkpt>
      <trkpt lat="46.37983" lon="6.73934">
        <ele>1669</ele>
        <time>2016-03-22T09:25:50Z</time>
      </trkpt>
      <trkpt lat="46.37984" lon="6.73944">
        <ele>1664.8</ele>
        <time>2016-03-22T09:25:54Z</time>
      </trkpt>
      <trkpt lat="46.37988" lon="6.73958">
        <ele>1659.5</ele>
        <time>2016-03-22T09:25:57Z</time>
      </trkpt>
      <trkpt lat="46.38002" lon="6.73969">
        <ele>1654.6</ele>
        <time>2016-03-22T09:25:58Z</time>
      </trkpt>
      <trkpt lat="46.38002" lon="6.73984">
        <ele>1650</ele>
        <time>2016-03-22T09:26:01Z</time>
      </trkpt>
      <trkpt lat="46.38003" lon="6.73998">
        <ele>1646.5</ele>
        <time>2016-03-22T09:26:03Z</time>
      </trkpt>
      <trkpt lat="46.38004" lon="6.7401">
        <ele>1644.5</ele>
        <time>2016-03-22T09:26:05Z</time>
      </trkpt>
      <trkpt lat="46.38003" lon="6.74029">
        <ele>1642.5</ele>
        <time>2016-03-22T09:26:07Z</time>
      </trkpt>
      <trkpt lat="46.38002" lon="6.74043">
        <ele>1638.1</ele>
        <time>2016-03-22T09:26:09Z</time>
      </trkpt>
      <trkpt lat="46.38002" lon="6.74057">
        <ele>1634</ele>
        <time>2016-03-22T09:26:12Z</time>
      </trkpt>
      <trkpt lat="46.38004" lon="6.74072">
        <ele>1629.3</ele>
        <time>2016-03-22T09:26:13Z</time>
      </trkpt>
      <trkpt lat="46.38001" lon="6.74089">
        <ele>1626.9</ele>
        <time>2016-03-22T09:26:16Z</time>
      </trkpt>
      <trkpt lat="46.38005" lon="6.74107">
        <ele>1625.6</ele>
        <time>2016-03-22T09:26:17Z</time>
      </trkpt>
      <trkpt lat="46.38011" lon="6.74118">
        <ele>1625</ele>
        <time>2016-03-22T09:26:19Z</time>
      </trkpt>
      <trkpt lat="46.38015" lon="6.74135">
        <ele>1623.1</ele>
        <time>2016-03-22T09:26:21Z</time>
      </trkpt>
      <trkpt lat="46.38015" lon="6.7415">
        <ele>1623.1</ele>
        <time>2016-03-22T09:26:22Z</time>
      </trkpt>
      <trkpt lat="46.38021" lon="6.74157">
        <ele>1622.6</ele>
        <time>2016-03-22T09:26:23Z</time>
      </trkpt>
      <trkpt lat="46.3803" lon="6.74165">
        <ele>1621.4</ele>
        <time>2016-03-22T09:26:25Z</time>
      </trkpt>
      <trkpt lat="46.38038" lon="6.74182">
        <ele>1619.4</ele>
        <time>2016-03-22T09:26:28Z</time>
      </trkpt>
      <trkpt lat="46.38036" lon="6.74193">
        <ele>1618.9</ele>
        <time>2016-03-22T09:26:28Z</time>
      </trkpt>
      <trkpt lat="46.38041" lon="6.74205">
        <ele>1618.5</ele>
        <time>2016-03-22T09:26:29Z</time>
      </trkpt>
      <trkpt lat="46.38047" lon="6.74217">
        <ele>1617.5</ele>
        <time>2016-03-22T09:26:32Z</time>
      </trkpt>
      <trkpt lat="46.38051" lon="6.74227">
        <ele>1616</ele>
        <time>2016-03-22T09:26:33Z</time>
      </trkpt>
      <trkpt lat="46.38049" lon="6.74238">
        <ele>1614.8</ele>
        <time>2016-03-22T09:26:33Z</time>
      </trkpt>
      <trkpt lat="46.38058" lon="6.74255">
        <ele>1612.5</ele>
        <time>2016-03-22T09:26:36Z</time>
      </trkpt>
      <trkpt lat="46.38063" lon="6.74272">
        <ele>1609.4</ele>
        <time>2016-03-22T09:26:38Z</time>
      </trkpt>
      <trkpt lat="46.38065" lon="6.74283">
        <ele>1607.5</ele>
        <time>2016-03-22T09:26:39Z</time>
      </trkpt>
      <trkpt lat="46.3807" lon="6.74298">
        <ele>1605.4</ele>
        <time>2016-03-22T09:26:42Z</time>
      </trkpt>
      <trkpt lat="46.38074" lon="6.74311">
        <ele>1600.9</ele>
        <time>2016-03-22T09:26:43Z</time>
      </trkpt>
      <trkpt lat="46.38073" lon="6.74331">
        <ele>1597.6</ele>
        <time>2016-03-22T09:26:46Z</time>
      </trkpt>
      <trkpt lat="46.38076" lon="6.74348">
        <ele>1596.6</ele>
        <time>2016-03-22T09:26:47Z</time>
      </trkpt>
      <trkpt lat="46.38081" lon="6.74415">
        <ele>1223.6</ele>
        <time>2016-03-22T09:26:56Z</time>
      </trkpt>
      <trkpt lat="46.38083" lon="6.74427">
        <ele>1357.1</ele>
        <time>2016-03-22T09:26:58Z</time>
      </trkpt>
      <trkpt lat="46.38085" lon="6.7444">
        <ele>1413</ele>
        <time>2016-03-22T09:27:01Z</time>
      </trkpt>
      <trkpt lat="46.38086" lon="6.74452">
        <ele>1436.4</ele>
        <time>2016-03-22T09:27:03Z</time>
      </trkpt>
      <trkpt lat="46.38093" lon="6.74468">
        <ele>1454.9</ele>
        <time>2016-03-22T09:27:07Z</time>
      </trkpt>
      <trkpt lat="46.38094" lon="6.74479">
        <ele>1493.1</ele>
        <time>2016-03-22T09:27:08Z</time>
      </trkpt>
      <trkpt lat="46.38094" lon="6.7449">
        <ele>1487.6</ele>
        <time>2016-03-22T09:27:10Z</time>
      </trkpt>
      <trkpt lat="46.38091" lon="6.74504">
        <ele>1495.1</ele>
        <time>2016-03-22T09:27:09Z</time>
      </trkpt>
      <trkpt lat="46.38091" lon="6.74522">
        <ele>1491.6</ele>
        <time>2016-03-22T09:27:12Z</time>
      </trkpt>
      <trkpt lat="46.38097" lon="6.74538">
        <ele>1491.5</ele>
        <time>2016-03-22T09:27:15Z</time>
      </trkpt>
      <trkpt lat="46.38096" lon="6.74551">
        <ele>1490</ele>
        <time>2016-03-22T09:27:16Z</time>
      </trkpt>
      <trkpt lat="46.38096" lon="6.74568">
        <ele>1495.8</ele>
        <time>2016-03-22T09:27:18Z</time>
      </trkpt>
      <trkpt lat="46.38095" lon="6.74581">
        <ele>1493.9</ele>
        <time>2016-03-22T09:27:21Z</time>
      </trkpt>
      <trkpt lat="46.38096" lon="6.74598">
        <ele>1486.4</ele>
        <time>2016-03-22T09:27:22Z</time>
      </trkpt>
      <trkpt lat="46.38097" lon="6.74611">
        <ele>1497.1</ele>
        <time>2016-03-22T09:27:24Z</time>
      </trkpt>
      <trkpt lat="46.38097" lon="6.74617">
        <ele>1488.5</ele>
        <time>2016-03-22T09:27:31Z</time>
      </trkpt>
      <trkpt lat="46.38098" lon="6.74618">
        <ele>1491</ele>
        <time>2016-03-22T09:27:38Z</time>
      </trkpt>
      <trkpt lat="46.38098" lon="6.74618">
        <ele>1495.5</ele>
        <time>2016-03-22T09:27:39Z</time>
      </trkpt>
      <trkpt lat="46.38099" lon="6.7462">
        <ele>1519</ele>
        <time>2016-03-22T09:27:46Z</time>
      </trkpt>
      <trkpt lat="46.38099" lon="6.7462">
        <ele>1522</ele>
        <time>2016-03-22T09:27:48Z</time>
      </trkpt>
      <trkpt lat="46.38098" lon="6.74628">
        <ele>1514.3</ele>
        <time>2016-03-22T09:27:56Z</time>
      </trkpt>
      <trkpt lat="46.3809" lon="6.74639">
        <ele>1510</ele>
        <time>2016-03-22T09:27:59Z</time>
      </trkpt>
      <trkpt lat="46.38086" lon="6.74652">
        <ele>1503.5</ele>
        <time>2016-03-22T09:28:03Z</time>
      </trkpt>
      <trkpt lat="46.38087" lon="6.74665">
        <ele>1501.4</ele>
        <time>2016-03-22T09:28:05Z</time>
      </trkpt>
      <trkpt lat="46.38084" lon="6.74678">
        <ele>1498</ele>
        <time>2016-03-22T09:28:08Z</time>
      </trkpt>
      <trkpt lat="46.38088" lon="6.74689">
        <ele>1498</ele>
        <time>2016-03-22T09:28:11Z</time>
      </trkpt>
      <trkpt lat="46.38092" lon="6.74699">
        <ele>1491.9</ele>
        <time>2016-03-22T09:28:14Z</time>
      </trkpt>
      <trkpt lat="46.38096" lon="6.74712">
        <ele>1489</ele>
        <time>2016-03-22T09:28:17Z</time>
      </trkpt>
      <trkpt lat="46.381" lon="6.74726">
        <ele>1486.5</ele>
        <time>2016-03-22T09:28:20Z</time>
      </trkpt>
      <trkpt lat="46.38101" lon="6.74737">
        <ele>1484.6</ele>
        <time>2016-03-22T09:28:22Z</time>
      </trkpt>
      <trkpt lat="46.38103" lon="6.7475">
        <ele>1481.5</ele>
        <time>2016-03-22T09:28:24Z</time>
      </trkpt>
      <trkpt lat="46.38105" lon="6.74761">
        <ele>1477.9</ele>
        <time>2016-03-22T09:28:26Z</time>
      </trkpt>
      <trkpt lat="46.38107" lon="6.74773">
        <ele>1476.5</ele>
        <time>2016-03-22T09:28:28Z</time>
      </trkpt>
      <trkpt lat="46.38108" lon="6.74783">
        <ele>1472.6</ele>
        <time>2016-03-22T09:28:30Z</time>
      </trkpt>
      <trkpt lat="46.38112" lon="6.74793">
        <ele>1469.8</ele>
        <time>2016-03-22T09:28:32Z</time>
      </trkpt>
      <trkpt lat="46.38115" lon="6.74803">
        <ele>1466.3</ele>
        <time>2016-03-22T09:28:34Z</time>
      </trkpt>
      <trkpt lat="46.38118" lon="6.74815">
        <ele>1462.5</ele>
        <time>2016-03-22T09:28:36Z</time>
      </trkpt>
      <trkpt lat="46.38119" lon="6.74826">
        <ele>1459.6</ele>
        <time>2016-03-22T09:28:38Z</time>
      </trkpt>
      <trkpt lat="46.3812" lon="6.74839">
        <ele>1455.9</ele>
        <time>2016-03-22T09:28:40Z</time>
      </trkpt>
      <trkpt lat="46.38121" lon="6.74851">
        <ele>1454</ele>
        <time>2016-03-22T09:28:42Z</time>
      </trkpt>
      <trkpt lat="46.38122" lon="6.74863">
        <ele>1451.8</ele>
        <time>2016-03-22T09:28:44Z</time>
      </trkpt>
      <trkpt lat="46.38123" lon="6.74876">
        <ele>1449.6</ele>
        <time>2016-03-22T09:28:46Z</time>
      </trkpt>
      <trkpt lat="46.38126" lon="6.7489">
        <ele>1447.6</ele>
        <time>2016-03-22T09:28:48Z</time>
      </trkpt>
      <trkpt lat="46.38127" lon="6.74904">
        <ele>1444.8</ele>
        <time>2016-03-22T09:28:49Z</time>
      </trkpt>
      <trkpt lat="46.38126" lon="6.74915">
        <ele>1442.1</ele>
        <time>2016-03-22T09:28:52Z</time>
      </trkpt>
      <trkpt lat="46.38132" lon="6.74912">
        <ele>1430</ele>
        <time>2016-03-22T09:28:58Z</time>
      </trkpt>
      <trkpt lat="46.38137" lon="6.74911">
        <ele>1426.4</ele>
        <time>2016-03-22T09:29:06Z</time>
      </trkpt>
      <trkpt lat="46.38137" lon="6.7491">
        <ele>1425.6</ele>
        <time>2016-03-22T09:29:09Z</time>
      </trkpt>
      <trkpt lat="46.38138" lon="6.74906">
        <ele>1419.9</ele>
        <time>2016-03-22T09:29:19Z</time>
      </trkpt>
      <trkpt lat="46.38138" lon="6.74905">
        <ele>1420.4</ele>
        <time>2016-03-22T09:29:20Z</time>
      </trkpt>
      <trkpt lat="46.38136" lon="6.74902">
        <ele>1419.3</ele>
        <time>2016-03-22T09:29:28Z</time>
      </trkpt>
      <trkpt lat="46.38135" lon="6.74889">
        <ele>1421.8</ele>
        <time>2016-03-22T09:29:34Z</time>
      </trkpt>
      <trkpt lat="46.38134" lon="6.74877">
        <ele>1422.9</ele>
        <time>2016-03-22T09:29:38Z</time>
      </trkpt>
      <trkpt lat="46.38133" lon="6.74865">
        <ele>1422.8</ele>
        <time>2016-03-22T09:29:41Z</time>
      </trkpt>
      <trkpt lat="46.38132" lon="6.74854">
        <ele>1424.6</ele>
        <time>2016-03-22T09:29:45Z</time>
      </trkpt>
      <trkpt lat="46.38131" lon="6.74841">
        <ele>1430.3</ele>
        <time>2016-03-22T09:29:49Z</time>
      </trkpt>
      <trkpt lat="46.38129" lon="6.74829">
        <ele>1433.4</ele>
        <time>2016-03-22T09:29:53Z</time>
      </trkpt>
      <trkpt lat="46.38128" lon="6.74818">
        <ele>1435</ele>
        <time>2016-03-22T09:29:57Z</time>
      </trkpt>
      <trkpt lat="46.38127" lon="6.74807">
        <ele>1437.5</ele>
        <time>2016-03-22T09:30:01Z</time>
      </trkpt>
      <trkpt lat="46.38126" lon="6.74795">
        <ele>1442</ele>
        <time>2016-03-22T09:30:06Z</time>
      </trkpt>
      <trkpt lat="46.38124" lon="6.74784">
        <ele>1447</ele>
        <time>2016-03-22T09:30:10Z</time>
      </trkpt>
      <trkpt lat="46.38123" lon="6.74773">
        <ele>1450.3</ele>
        <time>2016-03-22T09:30:14Z</time>
      </trkpt>
      <trkpt lat="46.38122" lon="6.74762">
        <ele>1453</ele>
        <time>2016-03-22T09:30:19Z</time>
      </trkpt>
      <trkpt lat="46.3812" lon="6.74751">
        <ele>1455.9</ele>
        <time>2016-03-22T09:30:22Z</time>
      </trkpt>
      <trkpt lat="46.38119" lon="6.7474">
        <ele>1458.8</ele>
        <time>2016-03-22T09:30:26Z</time>
      </trkpt>
      <trkpt lat="46.38117" lon="6.74729">
        <ele>1462.1</ele>
        <time>2016-03-22T09:30:30Z</time>
      </trkpt>
      <trkpt lat="46.38116" lon="6.74717">
        <ele>1465.5</ele>
        <time>2016-03-22T09:30:35Z</time>
      </trkpt>
      <trkpt lat="46.38114" lon="6.74707">
        <ele>1468</ele>
        <time>2016-03-22T09:30:38Z</time>
      </trkpt>
      <trkpt lat="46.38112" lon="6.74696">
        <ele>1471.3</ele>
        <time>2016-03-22T09:30:43Z</time>
      </trkpt>
      <trkpt lat="46.38112" lon="6.74685">
        <ele>1473.1</ele>
        <time>2016-03-22T09:30:46Z</time>
      </trkpt>
      <trkpt lat="46.38111" lon="6.74673">
        <ele>1475.6</ele>
        <time>2016-03-22T09:30:51Z</time>
      </trkpt>
      <trkpt lat="46.3811" lon="6.74661">
        <ele>1478.9</ele>
        <time>2016-03-22T09:30:57Z</time>
      </trkpt>
      <trkpt lat="46.38108" lon="6.74648">
        <ele>1484.9</ele>
        <time>2016-03-22T09:31:01Z</time>
      </trkpt>
      <trkpt lat="46.38106" lon="6.74637">
        <ele>1488.8</ele>
        <time>2016-03-22T09:31:05Z</time>
      </trkpt>
      <trkpt lat="46.38105" lon="6.74627">
        <ele>1491.6</ele>
        <time>2016-03-22T09:31:09Z</time>
      </trkpt>
      <trkpt lat="46.38104" lon="6.74616">
        <ele>1493.8</ele>
        <time>2016-03-22T09:31:13Z</time>
      </trkpt>
      <trkpt lat="46.38102" lon="6.74605">
        <ele>1496.9</ele>
        <time>2016-03-22T09:31:17Z</time>
      </trkpt>
      <trkpt lat="46.38101" lon="6.74595">
        <ele>1500.1</ele>
        <time>2016-03-22T09:31:22Z</time>
      </trkpt>
      <trkpt lat="46.38099" lon="6.74584">
        <ele>1502</ele>
        <time>2016-03-22T09:31:26Z</time>
      </trkpt>
      <trkpt lat="46.38098" lon="6.74573">
        <ele>1504</ele>
        <time>2016-03-22T09:31:30Z</time>
      </trkpt>
      <trkpt lat="46.38096" lon="6.74562">
        <ele>1507.5</ele>
        <time>2016-03-22T09:31:34Z</time>
      </trkpt>
      <trkpt lat="46.38095" lon="6.74551">
        <ele>1510.9</ele>
        <time>2016-03-22T09:31:38Z</time>
      </trkpt>
      <trkpt lat="46.38093" lon="6.74538">
        <ele>1514.3</ele>
        <time>2016-03-22T09:31:43Z</time>
      </trkpt>
      <trkpt lat="46.38092" lon="6.74528">
        <ele>1517.3</ele>
        <time>2016-03-22T09:31:47Z</time>
      </trkpt>
      <trkpt lat="46.3809" lon="6.74516">
        <ele>1520.9</ele>
        <time>2016-03-22T09:31:51Z</time>
      </trkpt>
      <trkpt lat="46.38088" lon="6.74506">
        <ele>1522.4</ele>
        <time>2016-03-22T09:31:55Z</time>
      </trkpt>
      <trkpt lat="46.38087" lon="6.74494">
        <ele>1524.5</ele>
        <time>2016-03-22T09:31:59Z</time>
      </trkpt>
      <trkpt lat="46.38086" lon="6.74484">
        <ele>1527.5</ele>
        <time>2016-03-22T09:32:03Z</time>
      </trkpt>
      <trkpt lat="46.38084" lon="6.74473">
        <ele>1530.1</ele>
        <time>2016-03-22T09:32:07Z</time>
      </trkpt>
      <trkpt lat="46.38083" lon="6.74462">
        <ele>1532.6</ele>
        <time>2016-03-22T09:32:11Z</time>
      </trkpt>
      <trkpt lat="46.38081" lon="6.74451">
        <ele>1534.5</ele>
        <time>2016-03-22T09:32:15Z</time>
      </trkpt>
      <trkpt lat="46.3808" lon="6.74441">
        <ele>1537.8</ele>
        <time>2016-03-22T09:32:19Z</time>
      </trkpt>
      <trkpt lat="46.38079" lon="6.7443">
        <ele>1540.5</ele>
        <time>2016-03-22T09:32:23Z</time>
      </trkpt>
      <trkpt lat="46.38078" lon="6.74419">
        <ele>1543.8</ele>
        <time>2016-03-22T09:32:27Z</time>
      </trkpt>
      <trkpt lat="46.38077" lon="6.74407">
        <ele>1547.5</ele>
        <time>2016-03-22T09:32:32Z</time>
      </trkpt>
      <trkpt lat="46.38075" lon="6.74395">
        <ele>1550.3</ele>
        <time>2016-03-22T09:32:37Z</time>
      </trkpt>
      <trkpt lat="46.38074" lon="6.74384">
        <ele>1552.3</ele>
        <time>2016-03-22T09:32:41Z</time>
      </trkpt>
      <trkpt lat="46.38073" lon="6.74372">
        <ele>1554.5</ele>
        <time>2016-03-22T09:32:45Z</time>
      </trkpt>
      <trkpt lat="46.38071" lon="6.74362">
        <ele>1557</ele>
        <time>2016-03-22T09:32:49Z</time>
      </trkpt>
      <trkpt lat="46.3807" lon="6.74351">
        <ele>1559.6</ele>
        <time>2016-03-22T09:32:53Z</time>
      </trkpt>
      <trkpt lat="46.38068" lon="6.7434">
        <ele>1561.4</ele>
        <time>2016-03-22T09:32:57Z</time>
      </trkpt>
      <trkpt lat="46.38067" lon="6.74329">
        <ele>1563.8</ele>
        <time>2016-03-22T09:33:01Z</time>
      </trkpt>
      <trkpt lat="46.38065" lon="6.74319">
        <ele>1566.9</ele>
        <time>2016-03-22T09:33:05Z</time>
      </trkpt>
      <trkpt lat="46.38064" lon="6.74308">
        <ele>1569.4</ele>
        <time>2016-03-22T09:33:09Z</time>
      </trkpt>
      <trkpt lat="46.38062" lon="6.74298">
        <ele>1572.9</ele>
        <time>2016-03-22T09:33:13Z</time>
      </trkpt>
      <trkpt lat="46.38061" lon="6.74287">
        <ele>1574.6</ele>
        <time>2016-03-22T09:33:17Z</time>
      </trkpt>
      <trkpt lat="46.38059" lon="6.74277">
        <ele>1575.6</ele>
        <time>2016-03-22T09:33:21Z</time>
      </trkpt>
      <trkpt lat="46.38058" lon="6.74266">
        <ele>1578</ele>
        <time>2016-03-22T09:33:25Z</time>
      </trkpt>
      <trkpt lat="46.38056" lon="6.74255">
        <ele>1580.1</ele>
        <time>2016-03-22T09:33:29Z</time>
      </trkpt>
      <trkpt lat="46.38055" lon="6.74244">
        <ele>1582.4</ele>
        <time>2016-03-22T09:33:33Z</time>
      </trkpt>
      <trkpt lat="46.38053" lon="6.74233">
        <ele>1584</ele>
        <time>2016-03-22T09:33:37Z</time>
      </trkpt>
      <trkpt lat="46.38052" lon="6.74222">
        <ele>1586.3</ele>
        <time>2016-03-22T09:33:41Z</time>
      </trkpt>
      <trkpt lat="46.3805" lon="6.74211">
        <ele>1588.6</ele>
        <time>2016-03-22T09:33:45Z</time>
      </trkpt>
      <trkpt lat="46.38049" lon="6.74201">
        <ele>1591.1</ele>
        <time>2016-03-22T09:33:49Z</time>
      </trkpt>
      <trkpt lat="46.38047" lon="6.7419">
        <ele>1594</ele>
        <time>2016-03-22T09:33:53Z</time>
      </trkpt>
      <trkpt lat="46.38046" lon="6.74179">
        <ele>1597.3</ele>
        <time>2016-03-22T09:33:57Z</time>
      </trkpt>
      <trkpt lat="46.38044" lon="6.74169">
        <ele>1600.8</ele>
        <time>2016-03-22T09:34:01Z</time>
      </trkpt>
      <trkpt lat="46.38043" lon="6.74158">
        <ele>1603.6</ele>
        <time>2016-03-22T09:34:05Z</time>
      </trkpt>
      <trkpt lat="46.38042" lon="6.74147">
        <ele>1606.8</ele>
        <time>2016-03-22T09:34:10Z</time>
      </trkpt>
      <trkpt lat="46.38041" lon="6.74137">
        <ele>1609.5</ele>
        <time>2016-03-22T09:34:13Z</time>
      </trkpt>
      <trkpt lat="46.38039" lon="6.74126">
        <ele>1612</ele>
        <time>2016-03-22T09:34:18Z</time>
      </trkpt>
      <trkpt lat="46.38039" lon="6.74116">
        <ele>1614.9</ele>
        <time>2016-03-22T09:34:21Z</time>
      </trkpt>
      <trkpt lat="46.38039" lon="6.74105">
        <ele>1619.4</ele>
        <time>2016-03-22T09:34:25Z</time>
      </trkpt>
      <trkpt lat="46.38038" lon="6.74094">
        <ele>1623.1</ele>
        <time>2016-03-22T09:34:29Z</time>
      </trkpt>
      <trkpt lat="46.38036" lon="6.74083">
        <ele>1626.5</ele>
        <time>2016-03-22T09:34:33Z</time>
      </trkpt>
      <trkpt lat="46.38036" lon="6.74073">
        <ele>1630.5</ele>
        <time>2016-03-22T09:34:37Z</time>
      </trkpt>
      <trkpt lat="46.38034" lon="6.7406">
        <ele>1634.4</ele>
        <time>2016-03-22T09:34:42Z</time>
      </trkpt>
      <trkpt lat="46.38033" lon="6.74048">
        <ele>1638.5</ele>
        <time>2016-03-22T09:34:47Z</time>
      </trkpt>
      <trkpt lat="46.38031" lon="6.74037">
        <ele>1642</ele>
        <time>2016-03-22T09:34:51Z</time>
      </trkpt>
      <trkpt lat="46.3803" lon="6.74027">
        <ele>1645.8</ele>
        <time>2016-03-22T09:34:55Z</time>
      </trkpt>
      <trkpt lat="46.38028" lon="6.74014">
        <ele>1650.4</ele>
        <time>2016-03-22T09:35:01Z</time>
      </trkpt>
      <trkpt lat="46.38027" lon="6.74004">
        <ele>1654.4</ele>
        <time>2016-03-22T09:35:04Z</time>
      </trkpt>
      <trkpt lat="46.38026" lon="6.73991">
        <ele>1659.3</ele>
        <time>2016-03-22T09:35:09Z</time>
      </trkpt>
      <trkpt lat="46.38024" lon="6.73978">
        <ele>1663.1</ele>
        <time>2016-03-22T09:35:15Z</time>
      </trkpt>
      <trkpt lat="46.38022" lon="6.73966">
        <ele>1668.9</ele>
        <time>2016-03-22T09:35:19Z</time>
      </trkpt>
      <trkpt lat="46.38021" lon="6.73954">
        <ele>1672.5</ele>
        <time>2016-03-22T09:35:24Z</time>
      </trkpt>
      <trkpt lat="46.38019" lon="6.73943">
        <ele>1674.9</ele>
        <time>2016-03-22T09:35:28Z</time>
      </trkpt>
      <trkpt lat="46.38018" lon="6.73932">
        <ele>1676.1</ele>
        <time>2016-03-22T09:35:32Z</time>
      </trkpt>
      <trkpt lat="46.38016" lon="6.73922">
        <ele>1679</ele>
        <time>2016-03-22T09:35:36Z</time>
      </trkpt>
      <trkpt lat="46.38015" lon="6.7391">
        <ele>1680.3</ele>
        <time>2016-03-22T09:35:41Z</time>
      </trkpt>
      <trkpt lat="46.38013" lon="6.73899">
        <ele>1680.9</ele>
        <time>2016-03-22T09:35:45Z</time>
      </trkpt>
      <trkpt lat="46.38012" lon="6.73888">
        <ele>1681</ele>
        <time>2016-03-22T09:35:49Z</time>
      </trkpt>
      <trkpt lat="46.38011" lon="6.73876">
        <ele>1681</ele>
        <time>2016-03-22T09:35:53Z</time>
      </trkpt>
      <trkpt lat="46.3801" lon="6.73865">
        <ele>1680.6</ele>
        <time>2016-03-22T09:35:57Z</time>
      </trkpt>
      <trkpt lat="46.38011" lon="6.7385">
        <ele>1679.4</ele>
        <time>2016-03-22T09:36:01Z</time>
      </trkpt>
      <trkpt lat="46.38012" lon="6.73839">
        <ele>1679.1</ele>
        <time>2016-03-22T09:36:04Z</time>
      </trkpt>
      <trkpt lat="46.38013" lon="6.73828">
        <ele>1678.6</ele>
        <time>2016-03-22T09:36:05Z</time>
      </trkpt>
      <trkpt lat="46.38015" lon="6.73814">
        <ele>1677</ele>
        <time>2016-03-22T09:36:08Z</time>
      </trkpt>
      <trkpt lat="46.38015" lon="6.73801">
        <ele>1676.6</ele>
        <time>2016-03-22T09:36:12Z</time>
      </trkpt>
      <trkpt lat="46.38012" lon="6.7379">
        <ele>1675.9</ele>
        <time>2016-03-22T09:36:15Z</time>
      </trkpt>
      <trkpt lat="46.38011" lon="6.73778">
        <ele>1674.5</ele>
        <time>2016-03-22T09:36:21Z</time>
      </trkpt>
      <trkpt lat="46.38009" lon="6.73766">
        <ele>1674.9</ele>
        <time>2016-03-22T09:36:26Z</time>
      </trkpt>
      <trkpt lat="46.38007" lon="6.73753">
        <ele>1673.4</ele>
        <time>2016-03-22T09:36:32Z</time>
      </trkpt>
      <trkpt lat="46.38004" lon="6.73743">
        <ele>1673.1</ele>
        <time>2016-03-22T09:36:36Z</time>
      </trkpt>
      <trkpt lat="46.38001" lon="6.73732">
        <ele>1673.4</ele>
        <time>2016-03-22T09:36:38Z</time>
      </trkpt>
      <trkpt lat="46.37996" lon="6.7372">
        <ele>1674.1</ele>
        <time>2016-03-22T09:36:42Z</time>
      </trkpt>
      <trkpt lat="46.37991" lon="6.73709">
        <ele>1674.1</ele>
        <time>2016-03-22T09:36:45Z</time>
      </trkpt>
      <trkpt lat="46.37985" lon="6.73698">
        <ele>1676.4</ele>
        <time>2016-03-22T09:36:47Z</time>
      </trkpt>
      <trkpt lat="46.37978" lon="6.73687">
        <ele>1674.4</ele>
        <time>2016-03-22T09:36:51Z</time>
      </trkpt>
      <trkpt lat="46.37969" lon="6.73677">
        <ele>1675.3</ele>
        <time>2016-03-22T09:36:52Z</time>
      </trkpt>
      <trkpt lat="46.37959" lon="6.73667">
        <ele>1674.3</ele>
        <time>2016-03-22T09:36:55Z</time>
      </trkpt>
      <trkpt lat="46.37948" lon="6.73657">
        <ele>1673.4</ele>
        <time>2016-03-22T09:36:56Z</time>
      </trkpt>
      <trkpt lat="46.37936" lon="6.73645">
        <ele>1672</ele>
        <time>2016-03-22T09:36:59Z</time>
      </trkpt>
      <trkpt lat="46.37931" lon="6.73635">
        <ele>1671</ele>
        <time>2016-03-22T09:36:59Z</time>
      </trkpt>
      <trkpt lat="46.37924" lon="6.73627">
        <ele>1669.9</ele>
        <time>2016-03-22T09:37:00Z</time>
      </trkpt>
      <trkpt lat="46.37916" lon="6.7362">
        <ele>1667</ele>
        <time>2016-03-22T09:37:02Z</time>
      </trkpt>
      <trkpt lat="46.37908" lon="6.73611">
        <ele>1666.3</ele>
        <time>2016-03-22T09:37:03Z</time>
      </trkpt>
      <trkpt lat="46.37902" lon="6.736">
        <ele>1665.5</ele>
        <time>2016-03-22T09:37:04Z</time>
      </trkpt>
      <trkpt lat="46.37897" lon="6.73587">
        <ele>1664</ele>
        <time>2016-03-22T09:37:04Z</time>
      </trkpt>
      <trkpt lat="46.37891" lon="6.73577">
        <ele>1662.4</ele>
        <time>2016-03-22T09:37:05Z</time>
      </trkpt>
      <trkpt lat="46.37884" lon="6.73566">
        <ele>1662.1</ele>
        <time>2016-03-22T09:37:06Z</time>
      </trkpt>
      <trkpt lat="46.37878" lon="6.73555">
        <ele>1661.3</ele>
        <time>2016-03-22T09:37:08Z</time>
      </trkpt>
      <trkpt lat="46.37877" lon="6.7354">
        <ele>1658.5</ele>
        <time>2016-03-22T09:37:08Z</time>
      </trkpt>
      <trkpt lat="46.37876" lon="6.73525">
        <ele>1657.1</ele>
        <time>2016-03-22T09:37:09Z</time>
      </trkpt>
      <trkpt lat="46.37876" lon="6.73511">
        <ele>1655.1</ele>
        <time>2016-03-22T09:37:10Z</time>
      </trkpt>
      <trkpt lat="46.37877" lon="6.73496">
        <ele>1653.4</ele>
        <time>2016-03-22T09:37:11Z</time>
      </trkpt>
      <trkpt lat="46.37879" lon="6.73482">
        <ele>1652.5</ele>
        <time>2016-03-22T09:37:12Z</time>
      </trkpt>
      <trkpt lat="46.3788" lon="6.73468">
        <ele>1652.1</ele>
        <time>2016-03-22T09:37:13Z</time>
      </trkpt>
      <trkpt lat="46.37881" lon="6.73455">
        <ele>1651.1</ele>
        <time>2016-03-22T09:37:15Z</time>
      </trkpt>
      <trkpt lat="46.37883" lon="6.73443">
        <ele>1649</ele>
        <time>2016-03-22T09:37:16Z</time>
      </trkpt>
      <trkpt lat="46.37884" lon="6.7343">
        <ele>1648.4</ele>
        <time>2016-03-22T09:37:16Z</time>
      </trkpt>
      <trkpt lat="46.37885" lon="6.73418">
        <ele>1647</ele>
        <time>2016-03-22T09:37:17Z</time>
      </trkpt>
      <trkpt lat="46.37887" lon="6.73406">
        <ele>1645.1</ele>
        <time>2016-03-22T09:37:18Z</time>
      </trkpt>
      <trkpt lat="46.37889" lon="6.73393">
        <ele>1644.3</ele>
        <time>2016-03-22T09:37:19Z</time>
      </trkpt>
      <trkpt lat="46.37892" lon="6.73381">
        <ele>1643.3</ele>
        <time>2016-03-22T09:37:21Z</time>
      </trkpt>
      <trkpt lat="46.37897" lon="6.73369">
        <ele>1642.6</ele>
        <time>2016-03-22T09:37:22Z</time>
      </trkpt>
      <trkpt lat="46.37901" lon="6.73361">
        <ele>1642</ele>
        <time>2016-03-22T09:37:22Z</time>
      </trkpt>
      <trkpt lat="46.37906" lon="6.73351">
        <ele>1641.9</ele>
        <time>2016-03-22T09:37:23Z</time>
      </trkpt>
      <trkpt lat="46.37911" lon="6.73341">
        <ele>1641</ele>
        <time>2016-03-22T09:37:24Z</time>
      </trkpt>
      <trkpt lat="46.37915" lon="6.73331">
        <ele>1640.8</ele>
        <time>2016-03-22T09:37:26Z</time>
      </trkpt>
      <trkpt lat="46.3792" lon="6.73321">
        <ele>1640.5</ele>
        <time>2016-03-22T09:37:27Z</time>
      </trkpt>
      <trkpt lat="46.37923" lon="6.73311">
        <ele>1639.9</ele>
        <time>2016-03-22T09:37:27Z</time>
      </trkpt>
      <trkpt lat="46.3793" lon="6.73293">
        <ele>1638.1</ele>
        <time>2016-03-22T09:37:30Z</time>
      </trkpt>
      <trkpt lat="46.37934" lon="6.73282">
        <ele>1638</ele>
        <time>2016-03-22T09:37:31Z</time>
      </trkpt>
      <trkpt lat="46.37937" lon="6.7327">
        <ele>1637.8</ele>
        <time>2016-03-22T09:37:31Z</time>
      </trkpt>
      <trkpt lat="46.37939" lon="6.73259">
        <ele>1637.5</ele>
        <time>2016-03-22T09:37:32Z</time>
      </trkpt>
      <trkpt lat="46.37942" lon="6.73247">
        <ele>1637.5</ele>
        <time>2016-03-22T09:37:33Z</time>
      </trkpt>
      <trkpt lat="46.37944" lon="6.73237">
        <ele>1637.3</ele>
        <time>2016-03-22T09:37:35Z</time>
      </trkpt>
      <trkpt lat="46.37951" lon="6.73218">
        <ele>1635.9</ele>
        <time>2016-03-22T09:37:36Z</time>
      </trkpt>
      <trkpt lat="46.37954" lon="6.73203">
        <ele>1635.9</ele>
        <time>2016-03-22T09:37:38Z</time>
      </trkpt>
      <trkpt lat="46.37955" lon="6.7319">
        <ele>1635.1</ele>
        <time>2016-03-22T09:37:41Z</time>
      </trkpt>
      <trkpt lat="46.37955" lon="6.73178">
        <ele>1634.5</ele>
        <time>2016-03-22T09:37:42Z</time>
      </trkpt>
      <trkpt lat="46.37956" lon="6.73167">
        <ele>1634</ele>
        <time>2016-03-22T09:37:45Z</time>
      </trkpt>
      <trkpt lat="46.37954" lon="6.73154">
        <ele>1633</ele>
        <time>2016-03-22T09:37:47Z</time>
      </trkpt>
      <trkpt lat="46.37952" lon="6.73143">
        <ele>1632.8</ele>
        <time>2016-03-22T09:37:50Z</time>
      </trkpt>
      <trkpt lat="46.37949" lon="6.73128">
        <ele>1631.5</ele>
        <time>2016-03-22T09:37:53Z</time>
      </trkpt>
      <trkpt lat="46.37946" lon="6.73116">
        <ele>1631</ele>
        <time>2016-03-22T09:37:54Z</time>
      </trkpt>
      <trkpt lat="46.37942" lon="6.73099">
        <ele>1630.1</ele>
        <time>2016-03-22T09:37:55Z</time>
      </trkpt>
      <trkpt lat="46.37939" lon="6.7308">
        <ele>1629.1</ele>
        <time>2016-03-22T09:37:58Z</time>
      </trkpt>
      <trkpt lat="46.37937" lon="6.73069">
        <ele>1628.6</ele>
        <time>2016-03-22T09:37:58Z</time>
      </trkpt>
      <trkpt lat="46.37935" lon="6.73058">
        <ele>1628.5</ele>
        <time>2016-03-22T09:37:59Z</time>
      </trkpt>
      <trkpt lat="46.37932" lon="6.73041">
        <ele>1628</ele>
        <time>2016-03-22T09:38:01Z</time>
      </trkpt>
      <trkpt lat="46.37932" lon="6.73019">
        <ele>1628.5</ele>
        <time>2016-03-22T09:38:04Z</time>
      </trkpt>
      <trkpt lat="46.37926" lon="6.73009">
        <ele>1618.3</ele>
        <time>2016-03-22T09:38:07Z</time>
      </trkpt>
      <trkpt lat="46.37922" lon="6.73011">
        <ele>1616.4</ele>
        <time>2016-03-22T09:38:13Z</time>
      </trkpt>
      <trkpt lat="46.37921" lon="6.73012">
        <ele>1617.4</ele>
        <time>2016-03-22T09:38:17Z</time>
      </trkpt>
      <trkpt lat="46.37913" lon="6.73016">
        <ele>1618</ele>
        <time>2016-03-22T09:38:27Z</time>
      </trkpt>
      <trkpt lat="46.37907" lon="6.73024">
        <ele>1616.5</ele>
        <time>2016-03-22T09:38:32Z</time>
      </trkpt>
      <trkpt lat="46.37907" lon="6.73028">
        <ele>1617.9</ele>
        <time>2016-03-22T09:38:40Z</time>
      </trkpt>
      <trkpt lat="46.37907" lon="6.73028">
        <ele>1618</ele>
        <time>2016-03-22T09:38:40Z</time>
      </trkpt>
      <trkpt lat="46.37904" lon="6.73032">
        <ele>1618.4</ele>
        <time>2016-03-22T09:38:49Z</time>
      </trkpt>
      <trkpt lat="46.37899" lon="6.7304">
        <ele>1619</ele>
        <time>2016-03-22T09:38:54Z</time>
      </trkpt>
      <trkpt lat="46.37892" lon="6.73051">
        <ele>1623.8</ele>
        <time>2016-03-22T09:38:58Z</time>
      </trkpt>
      <trkpt lat="46.37888" lon="6.73059">
        <ele>1627.1</ele>
        <time>2016-03-22T09:39:02Z</time>
      </trkpt>
      <trkpt lat="46.37883" lon="6.73067">
        <ele>1630.3</ele>
        <time>2016-03-22T09:39:04Z</time>
      </trkpt>
      <trkpt lat="46.37878" lon="6.73075">
        <ele>1633.6</ele>
        <time>2016-03-22T09:39:08Z</time>
      </trkpt>
      <trkpt lat="46.37871" lon="6.73085">
        <ele>1638</ele>
        <time>2016-03-22T09:39:12Z</time>
      </trkpt>
      <trkpt lat="46.37866" lon="6.73091">
        <ele>1641.4</ele>
        <time>2016-03-22T09:39:15Z</time>
      </trkpt>
      <trkpt lat="46.37859" lon="6.73099">
        <ele>1644.6</ele>
        <time>2016-03-22T09:39:18Z</time>
      </trkpt>
      <trkpt lat="46.37853" lon="6.73108">
        <ele>1644.8</ele>
        <time>2016-03-22T09:39:22Z</time>
      </trkpt>
      <trkpt lat="46.37846" lon="6.73118">
        <ele>1647.1</ele>
        <time>2016-03-22T09:39:26Z</time>
      </trkpt>
      <trkpt lat="46.37839" lon="6.73128">
        <ele>1648.8</ele>
        <time>2016-03-22T09:39:30Z</time>
      </trkpt>
      <trkpt lat="46.37833" lon="6.73138">
        <ele>1648.5</ele>
        <time>2016-03-22T09:39:35Z</time>
      </trkpt>
      <trkpt lat="46.37827" lon="6.73148">
        <ele>1650.4</ele>
        <time>2016-03-22T09:39:39Z</time>
      </trkpt>
      <trkpt lat="46.37822" lon="6.73156">
        <ele>1652.1</ele>
        <time>2016-03-22T09:39:41Z</time>
      </trkpt>
      <trkpt lat="46.37817" lon="6.73164">
        <ele>1652.5</ele>
        <time>2016-03-22T09:39:44Z</time>
      </trkpt>
      <trkpt lat="46.37811" lon="6.73174">
        <ele>1652.6</ele>
        <time>2016-03-22T09:39:49Z</time>
      </trkpt>
      <trkpt lat="46.37805" lon="6.73184">
        <ele>1653.4</ele>
        <time>2016-03-22T09:39:53Z</time>
      </trkpt>
      <trkpt lat="46.37799" lon="6.73194">
        <ele>1655.3</ele>
        <time>2016-03-22T09:39:57Z</time>
      </trkpt>
      <trkpt lat="46.37794" lon="6.73204">
        <ele>1656.5</ele>
        <time>2016-03-22T09:40:01Z</time>
      </trkpt>
      <trkpt lat="46.37787" lon="6.73213">
        <ele>1656.5</ele>
        <time>2016-03-22T09:40:05Z</time>
      </trkpt>
      <trkpt lat="46.37781" lon="6.73224">
        <ele>1657.3</ele>
        <time>2016-03-22T09:40:09Z</time>
      </trkpt>
      <trkpt lat="46.37775" lon="6.73234">
        <ele>1657.8</ele>
        <time>2016-03-22T09:40:12Z</time>
      </trkpt>
      <trkpt lat="46.37769" lon="6.73244">
        <ele>1657.6</ele>
        <time>2016-03-22T09:40:16Z</time>
      </trkpt>
      <trkpt lat="46.37763" lon="6.73254">
        <ele>1658.9</ele>
        <time>2016-03-22T09:40:21Z</time>
      </trkpt>
      <trkpt lat="46.37756" lon="6.73264">
        <ele>1660.5</ele>
        <time>2016-03-22T09:40:25Z</time>
      </trkpt>
      <trkpt lat="46.37751" lon="6.73275">
        <ele>1661.4</ele>
        <time>2016-03-22T09:40:29Z</time>
      </trkpt>
      <trkpt lat="46.37745" lon="6.73285">
        <ele>1663.1</ele>
        <time>2016-03-22T09:40:33Z</time>
      </trkpt>
      <trkpt lat="46.3774" lon="6.73295">
        <ele>1663.4</ele>
        <time>2016-03-22T09:40:37Z</time>
      </trkpt>
      <trkpt lat="46.37734" lon="6.73305">
        <ele>1665.5</ele>
        <time>2016-03-22T09:40:40Z</time>
      </trkpt>
      <trkpt lat="46.37728" lon="6.73314">
        <ele>1667</ele>
        <time>2016-03-22T09:40:44Z</time>
      </trkpt>
      <trkpt lat="46.37722" lon="6.73324">
        <ele>1667.8</ele>
        <time>2016-03-22T09:40:48Z</time>
      </trkpt>
      <trkpt lat="46.37716" lon="6.73334">
        <ele>1668.5</ele>
        <time>2016-03-22T09:40:53Z</time>
      </trkpt>
      <trkpt lat="46.3771" lon="6.73344">
        <ele>1669</ele>
        <time>2016-03-22T09:40:57Z</time>
      </trkpt>
      <trkpt lat="46.37704" lon="6.73354">
        <ele>1669.3</ele>
        <time>2016-03-22T09:41:01Z</time>
      </trkpt>
      <trkpt lat="46.37698" lon="6.73364">
        <ele>1670.9</ele>
        <time>2016-03-22T09:41:05Z</time>
      </trkpt>
      <trkpt lat="46.37692" lon="6.73375">
        <ele>1674.4</ele>
        <time>2016-03-22T09:41:09Z</time>
      </trkpt>
      <trkpt lat="46.37687" lon="6.73385">
        <ele>1674</ele>
        <time>2016-03-22T09:41:13Z</time>
      </trkpt>
      <trkpt lat="46.3768" lon="6.73395">
        <ele>1674.9</ele>
        <time>2016-03-22T09:41:16Z</time>
      </trkpt>
      <trkpt lat="46.37675" lon="6.73405">
        <ele>1675.5</ele>
        <time>2016-03-22T09:41:20Z</time>
      </trkpt>
      <trkpt lat="46.3767" lon="6.73413">
        <ele>1677.5</ele>
        <time>2016-03-22T09:41:25Z</time>
      </trkpt>
      <trkpt lat="46.37665" lon="6.73422">
        <ele>1680.3</ele>
        <time>2016-03-22T09:41:29Z</time>
      </trkpt>
      <trkpt lat="46.37659" lon="6.73431">
        <ele>1684.5</ele>
        <time>2016-03-22T09:41:33Z</time>
      </trkpt>
      <trkpt lat="46.37652" lon="6.73441">
        <ele>1692</ele>
        <time>2016-03-22T09:41:37Z</time>
      </trkpt>
      <trkpt lat="46.37647" lon="6.73449">
        <ele>1695</ele>
        <time>2016-03-22T09:41:39Z</time>
      </trkpt>
      <trkpt lat="46.37641" lon="6.73459">
        <ele>1699.8</ele>
        <time>2016-03-22T09:41:43Z</time>
      </trkpt>
      <trkpt lat="46.37635" lon="6.73469">
        <ele>1704.8</ele>
        <time>2016-03-22T09:41:48Z</time>
      </trkpt>
      <trkpt lat="46.37629" lon="6.73478">
        <ele>1709.5</ele>
        <time>2016-03-22T09:41:52Z</time>
      </trkpt>
      <trkpt lat="46.37624" lon="6.73488">
        <ele>1714</ele>
        <time>2016-03-22T09:41:56Z</time>
      </trkpt>
      <trkpt lat="46.37618" lon="6.73497">
        <ele>1718.4</ele>
        <time>2016-03-22T09:42:00Z</time>
      </trkpt>
      <trkpt lat="46.37612" lon="6.73508">
        <ele>1722</ele>
        <time>2016-03-22T09:42:03Z</time>
      </trkpt>
      <trkpt lat="46.37607" lon="6.73517">
        <ele>1725.3</ele>
        <time>2016-03-22T09:42:07Z</time>
      </trkpt>
      <trkpt lat="46.37602" lon="6.73527">
        <ele>1728.8</ele>
        <time>2016-03-22T09:42:11Z</time>
      </trkpt>
      <trkpt lat="46.37597" lon="6.73537">
        <ele>1734.3</ele>
        <time>2016-03-22T09:42:15Z</time>
      </trkpt>
      <trkpt lat="46.37593" lon="6.73546">
        <ele>1739.5</ele>
        <time>2016-03-22T09:42:19Z</time>
      </trkpt>
      <trkpt lat="46.37588" lon="6.73555">
        <ele>1743.5</ele>
        <time>2016-03-22T09:42:24Z</time>
      </trkpt>
      <trkpt lat="46.37583" lon="6.73564">
        <ele>1748.3</ele>
        <time>2016-03-22T09:42:28Z</time>
      </trkpt>
      <trkpt lat="46.37578" lon="6.73574">
        <ele>1752.6</ele>
        <time>2016-03-22T09:42:32Z</time>
      </trkpt>
      <trkpt lat="46.37572" lon="6.73583">
        <ele>1758.3</ele>
        <time>2016-03-22T09:42:36Z</time>
      </trkpt>
      <trkpt lat="46.37566" lon="6.73592">
        <ele>1761.5</ele>
        <time>2016-03-22T09:42:39Z</time>
      </trkpt>
      <trkpt lat="46.37561" lon="6.73602">
        <ele>1764.1</ele>
        <time>2016-03-22T09:42:43Z</time>
      </trkpt>
      <trkpt lat="46.37556" lon="6.73611">
        <ele>1767.6</ele>
        <time>2016-03-22T09:42:47Z</time>
      </trkpt>
      <trkpt lat="46.3755" lon="6.73621">
        <ele>1770.5</ele>
        <time>2016-03-22T09:42:52Z</time>
      </trkpt>
      <trkpt lat="46.37545" lon="6.7363">
        <ele>1773.8</ele>
        <time>2016-03-22T09:42:56Z</time>
      </trkpt>
      <trkpt lat="46.37539" lon="6.7364">
        <ele>1777.3</ele>
        <time>2016-03-22T09:43:01Z</time>
      </trkpt>
      <trkpt lat="46.37534" lon="6.73649">
        <ele>1780.8</ele>
        <time>2016-03-22T09:43:04Z</time>
      </trkpt>
      <trkpt lat="46.37528" lon="6.73658">
        <ele>1784</ele>
        <time>2016-03-22T09:43:07Z</time>
      </trkpt>
      <trkpt lat="46.37523" lon="6.73668">
        <ele>1788.1</ele>
        <time>2016-03-22T09:43:11Z</time>
      </trkpt>
      <trkpt lat="46.37517" lon="6.73677">
        <ele>1791.8</ele>
        <time>2016-03-22T09:43:15Z</time>
      </trkpt>
      <trkpt lat="46.37512" lon="6.73686">
        <ele>1796</ele>
        <time>2016-03-22T09:43:19Z</time>
      </trkpt>
      <trkpt lat="46.37507" lon="6.73696">
        <ele>1798.9</ele>
        <time>2016-03-22T09:43:24Z</time>
      </trkpt>
      <trkpt lat="46.37502" lon="6.73705">
        <ele>1800.4</ele>
        <time>2016-03-22T09:43:28Z</time>
      </trkpt>
      <trkpt lat="46.37496" lon="6.73715">
        <ele>1802.5</ele>
        <time>2016-03-22T09:43:32Z</time>
      </trkpt>
      <trkpt lat="46.3749" lon="6.73724">
        <ele>1804.9</ele>
        <time>2016-03-22T09:43:36Z</time>
      </trkpt>
      <trkpt lat="46.37483" lon="6.73734">
        <ele>1807</ele>
        <time>2016-03-22T09:43:40Z</time>
      </trkpt>
      <trkpt lat="46.37478" lon="6.73743">
        <ele>1808.8</ele>
        <time>2016-03-22T09:43:43Z</time>
      </trkpt>
      <trkpt lat="46.37473" lon="6.7375">
        <ele>1809.4</ele>
        <time>2016-03-22T09:43:47Z</time>
      </trkpt>
      <trkpt lat="46.37467" lon="6.7376">
        <ele>1810</ele>
        <time>2016-03-22T09:43:51Z</time>
      </trkpt>
      <trkpt lat="46.37461" lon="6.7377">
        <ele>1809.3</ele>
        <time>2016-03-22T09:43:55Z</time>
      </trkpt>
      <trkpt lat="46.37455" lon="6.7378">
        <ele>1809.3</ele>
        <time>2016-03-22T09:43:59Z</time>
      </trkpt>
      <trkpt lat="46.37449" lon="6.7379">
        <ele>1809.4</ele>
        <time>2016-03-22T09:44:03Z</time>
      </trkpt>
      <trkpt lat="46.37443" lon="6.738">
        <ele>1809.9</ele>
        <time>2016-03-22T09:44:08Z</time>
      </trkpt>
      <trkpt lat="46.37437" lon="6.73811">
        <ele>1810.5</ele>
        <time>2016-03-22T09:44:11Z</time>
      </trkpt>
      <trkpt lat="46.37432" lon="6.73819">
        <ele>1811.4</ele>
        <time>2016-03-22T09:44:14Z</time>
      </trkpt>
      <trkpt lat="46.37427" lon="6.73826">
        <ele>1812</ele>
        <time>2016-03-22T09:44:18Z</time>
      </trkpt>
      <trkpt lat="46.37421" lon="6.73837">
        <ele>1812.5</ele>
        <time>2016-03-22T09:44:22Z</time>
      </trkpt>
      <trkpt lat="46.37415" lon="6.73848">
        <ele>1812.9</ele>
        <time>2016-03-22T09:44:25Z</time>
      </trkpt>
      <trkpt lat="46.37409" lon="6.73858">
        <ele>1814</ele>
        <time>2016-03-22T09:44:29Z</time>
      </trkpt>
      <trkpt lat="46.37403" lon="6.73868">
        <ele>1815</ele>
        <time>2016-03-22T09:44:33Z</time>
      </trkpt>
      <trkpt lat="46.37397" lon="6.73877">
        <ele>1816.5</ele>
        <time>2016-03-22T09:44:37Z</time>
      </trkpt>
      <trkpt lat="46.37391" lon="6.73887">
        <ele>1818.9</ele>
        <time>2016-03-22T09:44:42Z</time>
      </trkpt>
      <trkpt lat="46.37385" lon="6.73896">
        <ele>1822</ele>
        <time>2016-03-22T09:44:45Z</time>
      </trkpt>
      <trkpt lat="46.37379" lon="6.73906">
        <ele>1824.5</ele>
        <time>2016-03-22T09:44:49Z</time>
      </trkpt>
      <trkpt lat="46.37373" lon="6.73916">
        <ele>1827.5</ele>
        <time>2016-03-22T09:44:53Z</time>
      </trkpt>
      <trkpt lat="46.37367" lon="6.73926">
        <ele>1831.1</ele>
        <time>2016-03-22T09:44:57Z</time>
      </trkpt>
      <trkpt lat="46.37362" lon="6.73934">
        <ele>1834.5</ele>
        <time>2016-03-22T09:45:01Z</time>
      </trkpt>
      <trkpt lat="46.37356" lon="6.73944">
        <ele>1838.1</ele>
        <time>2016-03-22T09:45:05Z</time>
      </trkpt>
      <trkpt lat="46.3735" lon="6.73953">
        <ele>1842.5</ele>
        <time>2016-03-22T09:45:09Z</time>
      </trkpt>
      <trkpt lat="46.37344" lon="6.73963">
        <ele>1846</ele>
        <time>2016-03-22T09:45:13Z</time>
      </trkpt>
      <trkpt lat="46.37338" lon="6.73972">
        <ele>1849.3</ele>
        <time>2016-03-22T09:45:17Z</time>
      </trkpt>
      <trkpt lat="46.37332" lon="6.73981">
        <ele>1852.6</ele>
        <time>2016-03-22T09:45:21Z</time>
      </trkpt>
      <trkpt lat="46.37326" lon="6.7399">
        <ele>1855</ele>
        <time>2016-03-22T09:45:25Z</time>
      </trkpt>
      <trkpt lat="46.37321" lon="6.74">
        <ele>1857.5</ele>
        <time>2016-03-22T09:45:29Z</time>
      </trkpt>
      <trkpt lat="46.37315" lon="6.7401">
        <ele>1860.6</ele>
        <time>2016-03-22T09:45:34Z</time>
      </trkpt>
      <trkpt lat="46.37309" lon="6.7402">
        <ele>1862.5</ele>
        <time>2016-03-22T09:45:37Z</time>
      </trkpt>
      <trkpt lat="46.37303" lon="6.74029">
        <ele>1865.6</ele>
        <time>2016-03-22T09:45:41Z</time>
      </trkpt>
      <trkpt lat="46.37298" lon="6.74039">
        <ele>1869.1</ele>
        <time>2016-03-22T09:45:45Z</time>
      </trkpt>
      <trkpt lat="46.37292" lon="6.74048">
        <ele>1872.5</ele>
        <time>2016-03-22T09:45:49Z</time>
      </trkpt>
      <trkpt lat="46.37286" lon="6.74058">
        <ele>1875.3</ele>
        <time>2016-03-22T09:45:54Z</time>
      </trkpt>
      <trkpt lat="46.37281" lon="6.74067">
        <ele>1878.9</ele>
        <time>2016-03-22T09:45:57Z</time>
      </trkpt>
      <trkpt lat="46.37275" lon="6.74076">
        <ele>1882.1</ele>
        <time>2016-03-22T09:46:01Z</time>
      </trkpt>
      <trkpt lat="46.3727" lon="6.74085">
        <ele>1885.5</ele>
        <time>2016-03-22T09:46:05Z</time>
      </trkpt>
      <trkpt lat="46.37264" lon="6.74094">
        <ele>1888.6</ele>
        <time>2016-03-22T09:46:09Z</time>
      </trkpt>
      <trkpt lat="46.37258" lon="6.74102">
        <ele>1891</ele>
        <time>2016-03-22T09:46:13Z</time>
      </trkpt>
      <trkpt lat="46.37253" lon="6.74112">
        <ele>1893.5</ele>
        <time>2016-03-22T09:46:17Z</time>
      </trkpt>
      <trkpt lat="46.37247" lon="6.74121">
        <ele>1896.6</ele>
        <time>2016-03-22T09:46:21Z</time>
      </trkpt>
      <trkpt lat="46.37241" lon="6.7413">
        <ele>1899.9</ele>
        <time>2016-03-22T09:46:25Z</time>
      </trkpt>
      <trkpt lat="46.37236" lon="6.7414">
        <ele>1903</ele>
        <time>2016-03-22T09:46:30Z</time>
      </trkpt>
      <trkpt lat="46.3723" lon="6.74149">
        <ele>1906.1</ele>
        <time>2016-03-22T09:46:33Z</time>
      </trkpt>
      <trkpt lat="46.37225" lon="6.74158">
        <ele>1909.3</ele>
        <time>2016-03-22T09:46:37Z</time>
      </trkpt>
      <trkpt lat="46.37219" lon="6.74168">
        <ele>1912.5</ele>
        <time>2016-03-22T09:46:42Z</time>
      </trkpt>
      <trkpt lat="46.37213" lon="6.74177">
        <ele>1914.6</ele>
        <time>2016-03-22T09:46:46Z</time>
      </trkpt>
      <trkpt lat="46.37206" lon="6.74188">
        <ele>1916.5</ele>
        <time>2016-03-22T09:46:49Z</time>
      </trkpt>
      <trkpt lat="46.372" lon="6.74197">
        <ele>1918.8</ele>
        <time>2016-03-22T09:46:54Z</time>
      </trkpt>
      <trkpt lat="46.37194" lon="6.74207">
        <ele>1920.1</ele>
        <time>2016-03-22T09:46:59Z</time>
      </trkpt>
      <trkpt lat="46.37189" lon="6.74215">
        <ele>1921.6</ele>
        <time>2016-03-22T09:47:00Z</time>
      </trkpt>
      <trkpt lat="46.37184" lon="6.74225">
        <ele>1921</ele>
        <time>2016-03-22T09:47:04Z</time>
      </trkpt>
      <trkpt lat="46.37178" lon="6.74235">
        <ele>1921</ele>
        <time>2016-03-22T09:47:08Z</time>
      </trkpt>
      <trkpt lat="46.37173" lon="6.74244">
        <ele>1919.4</ele>
        <time>2016-03-22T09:47:11Z</time>
      </trkpt>
      <trkpt lat="46.3717" lon="6.74258">
        <ele>1919.5</ele>
        <time>2016-03-22T09:47:14Z</time>
      </trkpt>
      <trkpt lat="46.37172" lon="6.7427">
        <ele>1919.4</ele>
        <time>2016-03-22T09:47:17Z</time>
      </trkpt>
      <trkpt lat="46.37181" lon="6.74277">
        <ele>1917.9</ele>
        <time>2016-03-22T09:47:20Z</time>
      </trkpt>
      <trkpt lat="46.37184" lon="6.74275">
        <ele>1918</ele>
        <time>2016-03-22T09:47:27Z</time>
      </trkpt>
      <trkpt lat="46.37184" lon="6.74275">
        <ele>1918</ele>
        <time>2016-03-22T09:47:29Z</time>
      </trkpt>
      <trkpt lat="46.37187" lon="6.74272">
        <ele>1919.5</ele>
        <time>2016-03-22T09:48:00Z</time>
      </trkpt>
      <trkpt lat="46.37195" lon="6.74266">
        <ele>1919.6</ele>
        <time>2016-03-22T09:48:06Z</time>
      </trkpt>
      <trkpt lat="46.37202" lon="6.74263">
        <ele>1919.1</ele>
        <time>2016-03-22T09:48:09Z</time>
      </trkpt>
      <trkpt lat="46.37211" lon="6.74255">
        <ele>1918.6</ele>
        <time>2016-03-22T09:48:12Z</time>
      </trkpt>
      <trkpt lat="46.37221" lon="6.74249">
        <ele>1917.8</ele>
        <time>2016-03-22T09:48:14Z</time>
      </trkpt>
      <trkpt lat="46.37228" lon="6.74255">
        <ele>1916.5</ele>
        <time>2016-03-22T09:48:17Z</time>
      </trkpt>
      <trkpt lat="46.37233" lon="6.74264">
        <ele>1915.4</ele>
        <time>2016-03-22T09:48:18Z</time>
      </trkpt>
      <trkpt lat="46.37237" lon="6.74274">
        <ele>1914.1</ele>
        <time>2016-03-22T09:48:20Z</time>
      </trkpt>
      <trkpt lat="46.37241" lon="6.74283">
        <ele>1912.8</ele>
        <time>2016-03-22T09:48:22Z</time>
      </trkpt>
      <trkpt lat="46.37248" lon="6.74288">
        <ele>1911.5</ele>
        <time>2016-03-22T09:48:23Z</time>
      </trkpt>
      <trkpt lat="46.37259" lon="6.74286">
        <ele>1909.3</ele>
        <time>2016-03-22T09:48:26Z</time>
      </trkpt>
      <trkpt lat="46.37267" lon="6.74277">
        <ele>1907.5</ele>
        <time>2016-03-22T09:48:27Z</time>
      </trkpt>
      <trkpt lat="46.37278" lon="6.74279">
        <ele>1904.9</ele>
        <time>2016-03-22T09:48:29Z</time>
      </trkpt>
      <trkpt lat="46.37286" lon="6.74287">
        <ele>1902.5</ele>
        <time>2016-03-22T09:48:31Z</time>
      </trkpt>
      <trkpt lat="46.37295" lon="6.74283">
        <ele>1897.5</ele>
        <time>2016-03-22T09:48:33Z</time>
      </trkpt>
      <trkpt lat="46.37305" lon="6.74274">
        <ele>1893.5</ele>
        <time>2016-03-22T09:48:35Z</time>
      </trkpt>
      <trkpt lat="46.37317" lon="6.74278">
        <ele>1887.5</ele>
        <time>2016-03-22T09:48:37Z</time>
      </trkpt>
      <trkpt lat="46.37325" lon="6.74286">
        <ele>1884.8</ele>
        <time>2016-03-22T09:48:39Z</time>
      </trkpt>
      <trkpt lat="46.37335" lon="6.74281">
        <ele>1879.8</ele>
        <time>2016-03-22T09:48:41Z</time>
      </trkpt>
      <trkpt lat="46.37346" lon="6.74278">
        <ele>1874.6</ele>
        <time>2016-03-22T09:48:43Z</time>
      </trkpt>
      <trkpt lat="46.37356" lon="6.74283">
        <ele>1873.6</ele>
        <time>2016-03-22T09:48:45Z</time>
      </trkpt>
      <trkpt lat="46.37368" lon="6.74277">
        <ele>1866</ele>
        <time>2016-03-22T09:48:48Z</time>
      </trkpt>
      <trkpt lat="46.3738" lon="6.74279">
        <ele>1864</ele>
        <time>2016-03-22T09:48:49Z</time>
      </trkpt>
      <trkpt lat="46.37394" lon="6.74285">
        <ele>1858</ele>
        <time>2016-03-22T09:48:51Z</time>
      </trkpt>
      <trkpt lat="46.374" lon="6.7428">
        <ele>1854.8</ele>
        <time>2016-03-22T09:48:52Z</time>
      </trkpt>
      <trkpt lat="46.37409" lon="6.74276">
        <ele>1851.1</ele>
        <time>2016-03-22T09:48:53Z</time>
      </trkpt>
      <trkpt lat="46.37418" lon="6.74276">
        <ele>1848.3</ele>
        <time>2016-03-22T09:48:54Z</time>
      </trkpt>
      <trkpt lat="46.37425" lon="6.74282">
        <ele>1846</ele>
        <time>2016-03-22T09:48:55Z</time>
      </trkpt>
      <trkpt lat="46.37431" lon="6.74288">
        <ele>1844.5</ele>
        <time>2016-03-22T09:48:56Z</time>
      </trkpt>
      <trkpt lat="46.37438" lon="6.74294">
        <ele>1843.4</ele>
        <time>2016-03-22T09:48:57Z</time>
      </trkpt>
      <trkpt lat="46.37447" lon="6.74295">
        <ele>1840</ele>
        <time>2016-03-22T09:48:58Z</time>
      </trkpt>
      <trkpt lat="46.37456" lon="6.74293">
        <ele>1837</ele>
        <time>2016-03-22T09:48:59Z</time>
      </trkpt>
      <trkpt lat="46.37465" lon="6.74293">
        <ele>1834.1</ele>
        <time>2016-03-22T09:49:00Z</time>
      </trkpt>
      <trkpt lat="46.37473" lon="6.74296">
        <ele>1831.6</ele>
        <time>2016-03-22T09:49:01Z</time>
      </trkpt>
      <trkpt lat="46.37483" lon="6.74308">
        <ele>1830</ele>
        <time>2016-03-22T09:49:03Z</time>
      </trkpt>
      <trkpt lat="46.37495" lon="6.74306">
        <ele>1823.4</ele>
        <time>2016-03-22T09:49:05Z</time>
      </trkpt>
      <trkpt lat="46.37502" lon="6.74304">
        <ele>1820.5</ele>
        <time>2016-03-22T09:49:06Z</time>
      </trkpt>
      <trkpt lat="46.37511" lon="6.74303">
        <ele>1818.4</ele>
        <time>2016-03-22T09:49:07Z</time>
      </trkpt>
      <trkpt lat="46.37519" lon="6.74306">
        <ele>1817.4</ele>
        <time>2016-03-22T09:49:09Z</time>
      </trkpt>
      <trkpt lat="46.37526" lon="6.74311">
        <ele>1817.3</ele>
        <time>2016-03-22T09:49:09Z</time>
      </trkpt>
      <trkpt lat="46.37534" lon="6.74316">
        <ele>1813.1</ele>
        <time>2016-03-22T09:49:10Z</time>
      </trkpt>
      <trkpt lat="46.37543" lon="6.74317">
        <ele>1809.3</ele>
        <time>2016-03-22T09:49:11Z</time>
      </trkpt>
      <trkpt lat="46.37551" lon="6.74314">
        <ele>1805.9</ele>
        <time>2016-03-22T09:49:12Z</time>
      </trkpt>
      <trkpt lat="46.37559" lon="6.74307">
        <ele>1802.4</ele>
        <time>2016-03-22T09:49:14Z</time>
      </trkpt>
      <trkpt lat="46.37569" lon="6.74303">
        <ele>1798</ele>
        <time>2016-03-22T09:49:14Z</time>
      </trkpt>
      <trkpt lat="46.37578" lon="6.74299">
        <ele>1794.9</ele>
        <time>2016-03-22T09:49:16Z</time>
      </trkpt>
      <trkpt lat="46.37587" lon="6.74302">
        <ele>1792.8</ele>
        <time>2016-03-22T09:49:16Z</time>
      </trkpt>
      <trkpt lat="46.37597" lon="6.74307">
        <ele>1792</ele>
        <time>2016-03-22T09:49:18Z</time>
      </trkpt>
      <trkpt lat="46.37612" lon="6.74309">
        <ele>1790</ele>
        <time>2016-03-22T09:49:18Z</time>
      </trkpt>
      <trkpt lat="46.37623" lon="6.74309">
        <ele>1785.6</ele>
        <time>2016-03-22T09:49:19Z</time>
      </trkpt>
      <trkpt lat="46.37635" lon="6.74309">
        <ele>1783.8</ele>
        <time>2016-03-22T09:49:20Z</time>
      </trkpt>
      <trkpt lat="46.37648" lon="6.74306">
        <ele>1781.4</ele>
        <time>2016-03-22T09:49:22Z</time>
      </trkpt>
      <trkpt lat="46.37659" lon="6.74302">
        <ele>1780</ele>
        <time>2016-03-22T09:49:22Z</time>
      </trkpt>
      <trkpt lat="46.37668" lon="6.743">
        <ele>1779.1</ele>
        <time>2016-03-22T09:49:23Z</time>
      </trkpt>
      <trkpt lat="46.37677" lon="6.743">
        <ele>1778.3</ele>
        <time>2016-03-22T09:49:24Z</time>
      </trkpt>
      <trkpt lat="46.37686" lon="6.743">
        <ele>1777.5</ele>
        <time>2016-03-22T09:49:26Z</time>
      </trkpt>
      <trkpt lat="46.37698" lon="6.74304">
        <ele>1776</ele>
        <time>2016-03-22T09:49:27Z</time>
      </trkpt>
      <trkpt lat="46.37706" lon="6.74309">
        <ele>1774.4</ele>
        <time>2016-03-22T09:49:29Z</time>
      </trkpt>
      <trkpt lat="46.3771" lon="6.74309">
        <ele>1770.1</ele>
        <time>2016-03-22T09:49:37Z</time>
      </trkpt>
      <trkpt lat="46.37709" lon="6.74309">
        <ele>1769</ele>
        <time>2016-03-22T09:49:40Z</time>
      </trkpt>
      <trkpt lat="46.37708" lon="6.74309">
        <ele>1767.5</ele>
        <time>2016-03-22T09:49:49Z</time>
      </trkpt>
      <trkpt lat="46.37708" lon="6.74309">
        <ele>1767.5</ele>
        <time>2016-03-22T09:49:50Z</time>
      </trkpt>
      <trkpt lat="46.37704" lon="6.74299">
        <ele>1768.3</ele>
        <time>2016-03-22T09:49:55Z</time>
      </trkpt>
      <trkpt lat="46.37703" lon="6.74288">
        <ele>1764.3</ele>
        <time>2016-03-22T09:49:58Z</time>
      </trkpt>
      <trkpt lat="46.37713" lon="6.74276">
        <ele>1759.6</ele>
        <time>2016-03-22T09:49:59Z</time>
      </trkpt>
      <trkpt lat="46.37723" lon="6.74268">
        <ele>1758.9</ele>
        <time>2016-03-22T09:50:01Z</time>
      </trkpt>
      <trkpt lat="46.37726" lon="6.74255">
        <ele>1757.8</ele>
        <time>2016-03-22T09:50:04Z</time>
      </trkpt>
      <trkpt lat="46.37724" lon="6.74234">
        <ele>1754.5</ele>
        <time>2016-03-22T09:50:05Z</time>
      </trkpt>
      <trkpt lat="46.37725" lon="6.74215">
        <ele>1752.6</ele>
        <time>2016-03-22T09:50:08Z</time>
      </trkpt>
      <trkpt lat="46.37721" lon="6.74198">
        <ele>1750.6</ele>
        <time>2016-03-22T09:50:09Z</time>
      </trkpt>
      <trkpt lat="46.37726" lon="6.74184">
        <ele>1746.5</ele>
        <time>2016-03-22T09:50:12Z</time>
      </trkpt>
      <trkpt lat="46.37733" lon="6.74173">
        <ele>1745</ele>
        <time>2016-03-22T09:50:13Z</time>
      </trkpt>
      <trkpt lat="46.37736" lon="6.74161">
        <ele>1743.4</ele>
        <time>2016-03-22T09:50:14Z</time>
      </trkpt>
      <trkpt lat="46.37742" lon="6.74154">
        <ele>1741.4</ele>
        <time>2016-03-22T09:50:15Z</time>
      </trkpt>
      <trkpt lat="46.37749" lon="6.7415">
        <ele>1740.3</ele>
        <time>2016-03-22T09:50:17Z</time>
      </trkpt>
      <trkpt lat="46.37755" lon="6.74141">
        <ele>1739.9</ele>
        <time>2016-03-22T09:50:17Z</time>
      </trkpt>
      <trkpt lat="46.37761" lon="6.74133">
        <ele>1739.6</ele>
        <time>2016-03-22T09:50:18Z</time>
      </trkpt>
      <trkpt lat="46.37762" lon="6.7412">
        <ele>1735.3</ele>
        <time>2016-03-22T09:50:19Z</time>
      </trkpt>
      <trkpt lat="46.37768" lon="6.74112">
        <ele>1731</ele>
        <time>2016-03-22T09:50:20Z</time>
      </trkpt>
      <trkpt lat="46.37774" lon="6.74106">
        <ele>1728.5</ele>
        <time>2016-03-22T09:50:21Z</time>
      </trkpt>
      <trkpt lat="46.37782" lon="6.74092">
        <ele>1725</ele>
        <time>2016-03-22T09:50:24Z</time>
      </trkpt>
      <trkpt lat="46.37785" lon="6.74082">
        <ele>1721.4</ele>
        <time>2016-03-22T09:50:24Z</time>
      </trkpt>
      <trkpt lat="46.37792" lon="6.74072">
        <ele>1717.4</ele>
        <time>2016-03-22T09:50:25Z</time>
      </trkpt>
      <trkpt lat="46.37797" lon="6.74064">
        <ele>1713.5</ele>
        <time>2016-03-22T09:50:26Z</time>
      </trkpt>
      <trkpt lat="46.37805" lon="6.74047">
        <ele>1710.1</ele>
        <time>2016-03-22T09:50:28Z</time>
      </trkpt>
      <trkpt lat="46.37808" lon="6.74034">
        <ele>1708.8</ele>
        <time>2016-03-22T09:50:30Z</time>
      </trkpt>
      <trkpt lat="46.3781" lon="6.74017">
        <ele>1707.8</ele>
        <time>2016-03-22T09:50:30Z</time>
      </trkpt>
      <trkpt lat="46.37811" lon="6.74002">
        <ele>1706.9</ele>
        <time>2016-03-22T09:50:31Z</time>
      </trkpt>
      <trkpt lat="46.37812" lon="6.73985">
        <ele>1705.5</ele>
        <time>2016-03-22T09:50:32Z</time>
      </trkpt>
      <trkpt lat="46.37812" lon="6.7397">
        <ele>1704.3</ele>
        <time>2016-03-22T09:50:33Z</time>
      </trkpt>
      <trkpt lat="46.37811" lon="6.73953">
        <ele>1703</ele>
        <time>2016-03-22T09:50:34Z</time>
      </trkpt>
      <trkpt lat="46.37809" lon="6.73939">
        <ele>1701.8</ele>
        <time>2016-03-22T09:50:36Z</time>
      </trkpt>
      <trkpt lat="46.37809" lon="6.73926">
        <ele>1701</ele>
        <time>2016-03-22T09:50:36Z</time>
      </trkpt>
      <trkpt lat="46.37808" lon="6.73915">
        <ele>1700.4</ele>
        <time>2016-03-22T09:50:37Z</time>
      </trkpt>
      <trkpt lat="46.37807" lon="6.73904">
        <ele>1699.8</ele>
        <time>2016-03-22T09:50:38Z</time>
      </trkpt>
      <trkpt lat="46.37806" lon="6.73891">
        <ele>1699.5</ele>
        <time>2016-03-22T09:50:40Z</time>
      </trkpt>
      <trkpt lat="46.37806" lon="6.73877">
        <ele>1698.6</ele>
        <time>2016-03-22T09:50:41Z</time>
      </trkpt>
      <trkpt lat="46.37805" lon="6.73863">
        <ele>1697.1</ele>
        <time>2016-03-22T09:50:41Z</time>
      </trkpt>
      <trkpt lat="46.37805" lon="6.73848">
        <ele>1694.5</ele>
        <time>2016-03-22T09:50:42Z</time>
      </trkpt>
      <trkpt lat="46.37805" lon="6.73833">
        <ele>1691.6</ele>
        <time>2016-03-22T09:50:43Z</time>
      </trkpt>
      <trkpt lat="46.37807" lon="6.73815">
        <ele>1689</ele>
        <time>2016-03-22T09:50:44Z</time>
      </trkpt>
      <trkpt lat="46.37809" lon="6.73797">
        <ele>1686.6</ele>
        <time>2016-03-22T09:50:46Z</time>
      </trkpt>
      <trkpt lat="46.37811" lon="6.73779">
        <ele>1684.5</ele>
        <time>2016-03-22T09:50:46Z</time>
      </trkpt>
      <trkpt lat="46.37814" lon="6.7376">
        <ele>1682</ele>
        <time>2016-03-22T09:50:48Z</time>
      </trkpt>
      <trkpt lat="46.37817" lon="6.73742">
        <ele>1679.9</ele>
        <time>2016-03-22T09:50:48Z</time>
      </trkpt>
      <trkpt lat="46.37822" lon="6.73729">
        <ele>1678.3</ele>
        <time>2016-03-22T09:50:49Z</time>
      </trkpt>
      <trkpt lat="46.37824" lon="6.73715">
        <ele>1677.5</ele>
        <time>2016-03-22T09:50:50Z</time>
      </trkpt>
      <trkpt lat="46.37826" lon="6.73699">
        <ele>1677</ele>
        <time>2016-03-22T09:50:52Z</time>
      </trkpt>
      <trkpt lat="46.37826" lon="6.73685">
        <ele>1675.6</ele>
        <time>2016-03-22T09:50:52Z</time>
      </trkpt>
      <trkpt lat="46.37827" lon="6.73669">
        <ele>1674.5</ele>
        <time>2016-03-22T09:50:53Z</time>
      </trkpt>
      <trkpt lat="46.37828" lon="6.73653">
        <ele>1672.3</ele>
        <time>2016-03-22T09:50:54Z</time>
      </trkpt>
      <trkpt lat="46.37831" lon="6.73638">
        <ele>1671.1</ele>
        <time>2016-03-22T09:50:55Z</time>
      </trkpt>
      <trkpt lat="46.37835" lon="6.73623">
        <ele>1670.1</ele>
        <time>2016-03-22T09:50:56Z</time>
      </trkpt>
      <trkpt lat="46.37839" lon="6.73612">
        <ele>1668.5</ele>
        <time>2016-03-22T09:50:57Z</time>
      </trkpt>
      <trkpt lat="46.37844" lon="6.73599">
        <ele>1667.5</ele>
        <time>2016-03-22T09:50:58Z</time>
      </trkpt>
      <trkpt lat="46.37847" lon="6.73586">
        <ele>1666.3</ele>
        <time>2016-03-22T09:50:59Z</time>
      </trkpt>
      <trkpt lat="46.3785" lon="6.73572">
        <ele>1664.6</ele>
        <time>2016-03-22T09:51:01Z</time>
      </trkpt>
      <trkpt lat="46.37852" lon="6.7356">
        <ele>1664</ele>
        <time>2016-03-22T09:51:01Z</time>
      </trkpt>
      <trkpt lat="46.37855" lon="6.73548">
        <ele>1662.9</ele>
        <time>2016-03-22T09:51:02Z</time>
      </trkpt>
      <trkpt lat="46.37859" lon="6.73538">
        <ele>1661.6</ele>
        <time>2016-03-22T09:51:03Z</time>
      </trkpt>
      <trkpt lat="46.37862" lon="6.73528">
        <ele>1660.6</ele>
        <time>2016-03-22T09:51:04Z</time>
      </trkpt>
      <trkpt lat="46.37864" lon="6.73515">
        <ele>1660.5</ele>
        <time>2016-03-22T09:51:05Z</time>
      </trkpt>
      <trkpt lat="46.37868" lon="6.73497">
        <ele>1659.5</ele>
        <time>2016-03-22T09:51:07Z</time>
      </trkpt>
      <trkpt lat="46.37872" lon="6.73478">
        <ele>1657.4</ele>
        <time>2016-03-22T09:51:09Z</time>
      </trkpt>
      <trkpt lat="46.37873" lon="6.73463">
        <ele>1656.8</ele>
        <time>2016-03-22T09:51:11Z</time>
      </trkpt>
      <trkpt lat="46.37874" lon="6.73443">
        <ele>1655</ele>
        <time>2016-03-22T09:51:13Z</time>
      </trkpt>
      <trkpt lat="46.37876" lon="6.73432">
        <ele>1654.8</ele>
        <time>2016-03-22T09:51:14Z</time>
      </trkpt>
      <trkpt lat="46.37878" lon="6.73421">
        <ele>1652.8</ele>
        <time>2016-03-22T09:51:15Z</time>
      </trkpt>
      <trkpt lat="46.37881" lon="6.7341">
        <ele>1652.3</ele>
        <time>2016-03-22T09:51:17Z</time>
      </trkpt>
      <trkpt lat="46.37883" lon="6.73393">
        <ele>1649.9</ele>
        <time>2016-03-22T09:51:18Z</time>
      </trkpt>
      <trkpt lat="46.37885" lon="6.73375">
        <ele>1648.3</ele>
        <time>2016-03-22T09:51:21Z</time>
      </trkpt>
      <trkpt lat="46.37892" lon="6.73361">
        <ele>1647.4</ele>
        <time>2016-03-22T09:51:22Z</time>
      </trkpt>
      <trkpt lat="46.37901" lon="6.73347">
        <ele>1646.6</ele>
        <time>2016-03-22T09:51:24Z</time>
      </trkpt>
      <trkpt lat="46.37908" lon="6.73335">
        <ele>1645.6</ele>
        <time>2016-03-22T09:51:26Z</time>
      </trkpt>
      <trkpt lat="46.37916" lon="6.73321">
        <ele>1645.1</ele>
        <time>2016-03-22T09:51:28Z</time>
      </trkpt>
      <trkpt lat="46.37922" lon="6.73306">
        <ele>1644</ele>
        <time>2016-03-22T09:51:30Z</time>
      </trkpt>
      <trkpt lat="46.37928" lon="6.73289">
        <ele>1643.6</ele>
        <time>2016-03-22T09:51:32Z</time>
      </trkpt>
      <trkpt lat="46.37933" lon="6.73271">
        <ele>1642.6</ele>
        <time>2016-03-22T09:51:34Z</time>
      </trkpt>
      <trkpt lat="46.37937" lon="6.73255">
        <ele>1641.6</ele>
        <time>2016-03-22T09:51:36Z</time>
      </trkpt>
      <trkpt lat="46.37939" lon="6.73245">
        <ele>1641.4</ele>
        <time>2016-03-22T09:51:37Z</time>
      </trkpt>
      <trkpt lat="46.37942" lon="6.73234">
        <ele>1641</ele>
        <time>2016-03-22T09:51:38Z</time>
      </trkpt>
      <trkpt lat="46.37944" lon="6.73223">
        <ele>1640.9</ele>
        <time>2016-03-22T09:51:39Z</time>
      </trkpt>
      <trkpt lat="46.37949" lon="6.73207">
        <ele>1640.8</ele>
        <time>2016-03-22T09:51:41Z</time>
      </trkpt>
      <trkpt lat="46.37951" lon="6.73193">
        <ele>1639.5</ele>
        <time>2016-03-22T09:51:43Z</time>
      </trkpt>
      <trkpt lat="46.37952" lon="6.7318">
        <ele>1639</ele>
        <time>2016-03-22T09:51:46Z</time>
      </trkpt>
      <trkpt lat="46.37953" lon="6.73168">
        <ele>1637</ele>
        <time>2016-03-22T09:51:49Z</time>
      </trkpt>
      <trkpt lat="46.37953" lon="6.73156">
        <ele>1636</ele>
        <time>2016-03-22T09:51:53Z</time>
      </trkpt>
      <trkpt lat="46.37952" lon="6.73144">
        <ele>1635.8</ele>
        <time>2016-03-22T09:51:56Z</time>
      </trkpt>
      <trkpt lat="46.37951" lon="6.73133">
        <ele>1634</ele>
        <time>2016-03-22T09:51:58Z</time>
      </trkpt>
      <trkpt lat="46.37949" lon="6.73119">
        <ele>1633</ele>
        <time>2016-03-22T09:52:00Z</time>
      </trkpt>
      <trkpt lat="46.37949" lon="6.73103">
        <ele>1631.5</ele>
        <time>2016-03-22T09:52:02Z</time>
      </trkpt>
      <trkpt lat="46.37948" lon="6.73085">
        <ele>1630</ele>
        <time>2016-03-22T09:52:04Z</time>
      </trkpt>
      <trkpt lat="46.37948" lon="6.73067">
        <ele>1627.6</ele>
        <time>2016-03-22T09:52:06Z</time>
      </trkpt>
      <trkpt lat="46.37943" lon="6.73055">
        <ele>1627.8</ele>
        <time>2016-03-22T09:52:08Z</time>
      </trkpt>
      <trkpt lat="46.37942" lon="6.73044">
        <ele>1630</ele>
        <time>2016-03-22T09:52:12Z</time>
      </trkpt>
      <trkpt lat="46.37944" lon="6.73041">
        <ele>1627.8</ele>
        <time>2016-03-22T09:52:18Z</time>
      </trkpt>
      <trkpt lat="46.37943" lon="6.73038">
        <ele>1630.8</ele>
        <time>2016-03-22T09:52:27Z</time>
      </trkpt>
      <trkpt lat="46.37943" lon="6.73038">
        <ele>1630.8</ele>
        <time>2016-03-22T09:52:29Z</time>
      </trkpt>
      <trkpt lat="46.37945" lon="6.73031">
        <ele>1629.9</ele>
        <time>2016-03-22T09:54:03Z</time>
      </trkpt>
      <trkpt lat="46.37945" lon="6.73032">
        <ele>1629</ele>
        <time>2016-03-22T09:54:10Z</time>
      </trkpt>
      <trkpt lat="46.37945" lon="6.73032">
        <ele>1628.5</ele>
        <time>2016-03-22T09:54:11Z</time>
      </trkpt>
      <trkpt lat="46.37946" lon="6.73034">
        <ele>1627.4</ele>
        <time>2016-03-22T09:54:21Z</time>
      </trkpt>
      <trkpt lat="46.37946" lon="6.73034">
        <ele>1627.4</ele>
        <time>2016-03-22T09:54:22Z</time>
      </trkpt>
      <trkpt lat="46.37941" lon="6.73025">
        <ele>1628.9</ele>
        <time>2016-03-22T09:54:30Z</time>
      </trkpt>
      <trkpt lat="46.37939" lon="6.73014">
        <ele>1627.5</ele>
        <time>2016-03-22T09:54:33Z</time>
      </trkpt>
      <trkpt lat="46.37938" lon="6.73004">
        <ele>1626.4</ele>
        <time>2016-03-22T09:54:36Z</time>
      </trkpt>
      <trkpt lat="46.37936" lon="6.72992">
        <ele>1627</ele>
        <time>2016-03-22T09:54:40Z</time>
      </trkpt>
      <trkpt lat="46.37933" lon="6.72979">
        <ele>1625.9</ele>
        <time>2016-03-22T09:54:44Z</time>
      </trkpt>
      <trkpt lat="46.37931" lon="6.72968">
        <ele>1626.3</ele>
        <time>2016-03-22T09:54:48Z</time>
      </trkpt>
      <trkpt lat="46.37925" lon="6.72947">
        <ele>1625.8</ele>
        <time>2016-03-22T09:54:49Z</time>
      </trkpt>
      <trkpt lat="46.3792" lon="6.72929">
        <ele>1624.3</ele>
        <time>2016-03-22T09:54:51Z</time>
      </trkpt>
      <trkpt lat="46.37918" lon="6.72919">
        <ele>1623.5</ele>
        <time>2016-03-22T09:54:52Z</time>
      </trkpt>
      <trkpt lat="46.37915" lon="6.72908">
        <ele>1622.8</ele>
        <time>2016-03-22T09:54:53Z</time>
      </trkpt>
      <trkpt lat="46.37912" lon="6.72896">
        <ele>1622</ele>
        <time>2016-03-22T09:54:54Z</time>
      </trkpt>
      <trkpt lat="46.3791" lon="6.72881">
        <ele>1622</ele>
        <time>2016-03-22T09:54:55Z</time>
      </trkpt>
      <trkpt lat="46.37904" lon="6.72865">
        <ele>1621.5</ele>
        <time>2016-03-22T09:54:56Z</time>
      </trkpt>
      <trkpt lat="46.37901" lon="6.7285">
        <ele>1621</ele>
        <time>2016-03-22T09:54:57Z</time>
      </trkpt>
      <trkpt lat="46.37897" lon="6.72836">
        <ele>1620.5</ele>
        <time>2016-03-22T09:54:58Z</time>
      </trkpt>
      <trkpt lat="46.37895" lon="6.72823">
        <ele>1620.5</ele>
        <time>2016-03-22T09:54:59Z</time>
      </trkpt>
      <trkpt lat="46.37896" lon="6.72812">
        <ele>1619.6</ele>
        <time>2016-03-22T09:55:00Z</time>
      </trkpt>
      <trkpt lat="46.37896" lon="6.72798">
        <ele>1618.4</ele>
        <time>2016-03-22T09:55:01Z</time>
      </trkpt>
      <trkpt lat="46.37896" lon="6.72778">
        <ele>1617.4</ele>
        <time>2016-03-22T09:55:04Z</time>
      </trkpt>
      <trkpt lat="46.37891" lon="6.72762">
        <ele>1616.5</ele>
        <time>2016-03-22T09:55:05Z</time>
      </trkpt>
      <trkpt lat="46.37888" lon="6.72745">
        <ele>1615.5</ele>
        <time>2016-03-22T09:55:07Z</time>
      </trkpt>
      <trkpt lat="46.37886" lon="6.72728">
        <ele>1615.1</ele>
        <time>2016-03-22T09:55:09Z</time>
      </trkpt>
      <trkpt lat="46.37883" lon="6.72715">
        <ele>1615.5</ele>
        <time>2016-03-22T09:55:09Z</time>
      </trkpt>
      <trkpt lat="46.37881" lon="6.727">
        <ele>1614.8</ele>
        <time>2016-03-22T09:55:10Z</time>
      </trkpt>
      <trkpt lat="46.3788" lon="6.72687">
        <ele>1613.3</ele>
        <time>2016-03-22T09:55:12Z</time>
      </trkpt>
      <trkpt lat="46.37879" lon="6.72672">
        <ele>1613</ele>
        <time>2016-03-22T09:55:12Z</time>
      </trkpt>
      <trkpt lat="46.37879" lon="6.72659">
        <ele>1612.3</ele>
        <time>2016-03-22T09:55:13Z</time>
      </trkpt>
      <trkpt lat="46.37879" lon="6.72643">
        <ele>1611.8</ele>
        <time>2016-03-22T09:55:14Z</time>
      </trkpt>
      <trkpt lat="46.37879" lon="6.7263">
        <ele>1610.9</ele>
        <time>2016-03-22T09:55:15Z</time>
      </trkpt>
      <trkpt lat="46.37879" lon="6.72617">
        <ele>1610.1</ele>
        <time>2016-03-22T09:55:16Z</time>
      </trkpt>
      <trkpt lat="46.37878" lon="6.72606">
        <ele>1609</ele>
        <time>2016-03-22T09:55:18Z</time>
      </trkpt>
      <trkpt lat="46.37875" lon="6.72596">
        <ele>1608.1</ele>
        <time>2016-03-22T09:55:18Z</time>
      </trkpt>
      <trkpt lat="46.37868" lon="6.72579">
        <ele>1605.8</ele>
        <time>2016-03-22T09:55:20Z</time>
      </trkpt>
      <trkpt lat="46.37863" lon="6.7257">
        <ele>1604.9</ele>
        <time>2016-03-22T09:55:21Z</time>
      </trkpt>
      <trkpt lat="46.37859" lon="6.72562">
        <ele>1604.5</ele>
        <time>2016-03-22T09:55:22Z</time>
      </trkpt>
      <trkpt lat="46.37852" lon="6.72544">
        <ele>1603.9</ele>
        <time>2016-03-22T09:55:24Z</time>
      </trkpt>
      <trkpt lat="46.37849" lon="6.72534">
        <ele>1603</ele>
        <time>2016-03-22T09:55:25Z</time>
      </trkpt>
      <trkpt lat="46.37846" lon="6.72514">
        <ele>1601.3</ele>
        <time>2016-03-22T09:55:27Z</time>
      </trkpt>
      <trkpt lat="46.37845" lon="6.72504">
        <ele>1600.3</ele>
        <time>2016-03-22T09:55:28Z</time>
      </trkpt>
      <trkpt lat="46.37843" lon="6.72494">
        <ele>1600</ele>
        <time>2016-03-22T09:55:29Z</time>
      </trkpt>
      <trkpt lat="46.37841" lon="6.72474">
        <ele>1599</ele>
        <time>2016-03-22T09:55:32Z</time>
      </trkpt>
      <trkpt lat="46.37838" lon="6.72456">
        <ele>1597.5</ele>
        <time>2016-03-22T09:55:33Z</time>
      </trkpt>
      <trkpt lat="46.37834" lon="6.72437">
        <ele>1596.4</ele>
        <time>2016-03-22T09:55:36Z</time>
      </trkpt>
      <trkpt lat="46.37829" lon="6.72417">
        <ele>1595.5</ele>
        <time>2016-03-22T09:55:37Z</time>
      </trkpt>
      <trkpt lat="46.37826" lon="6.72398">
        <ele>1594.6</ele>
        <time>2016-03-22T09:55:39Z</time>
      </trkpt>
      <trkpt lat="46.37824" lon="6.72386">
        <ele>1594.6</ele>
        <time>2016-03-22T09:55:40Z</time>
      </trkpt>
      <trkpt lat="46.37822" lon="6.72375">
        <ele>1594.4</ele>
        <time>2016-03-22T09:55:41Z</time>
      </trkpt>
      <trkpt lat="46.37821" lon="6.72365">
        <ele>1593.5</ele>
        <time>2016-03-22T09:55:42Z</time>
      </trkpt>
      <trkpt lat="46.3782" lon="6.72352">
        <ele>1593</ele>
        <time>2016-03-22T09:55:43Z</time>
      </trkpt>
      <trkpt lat="46.37818" lon="6.72339">
        <ele>1592.9</ele>
        <time>2016-03-22T09:55:44Z</time>
      </trkpt>
      <trkpt lat="46.37816" lon="6.72326">
        <ele>1593</ele>
        <time>2016-03-22T09:55:45Z</time>
      </trkpt>
      <trkpt lat="46.37814" lon="6.72314">
        <ele>1593.1</ele>
        <time>2016-03-22T09:55:46Z</time>
      </trkpt>
      <trkpt lat="46.37814" lon="6.72298">
        <ele>1592.3</ele>
        <time>2016-03-22T09:55:48Z</time>
      </trkpt>
      <trkpt lat="46.37817" lon="6.72281">
        <ele>1592</ele>
        <time>2016-03-22T09:55:50Z</time>
      </trkpt>
      <trkpt lat="46.37821" lon="6.72266">
        <ele>1591.8</ele>
        <time>2016-03-22T09:55:53Z</time>
      </trkpt>
      <trkpt lat="46.37821" lon="6.72251">
        <ele>1592.1</ele>
        <time>2016-03-22T09:55:55Z</time>
      </trkpt>
      <trkpt lat="46.37823" lon="6.72263">
        <ele>1583.3</ele>
        <time>2016-03-22T09:55:57Z</time>
      </trkpt>
      <trkpt lat="46.37823" lon="6.72266">
        <ele>1579.9</ele>
        <time>2016-03-22T09:56:04Z</time>
      </trkpt>
      <trkpt lat="46.37818" lon="6.72266">
        <ele>1582</ele>
        <time>2016-03-22T09:56:11Z</time>
      </trkpt>
      <trkpt lat="46.37817" lon="6.72266">
        <ele>1581.4</ele>
        <time>2016-03-22T09:56:16Z</time>
      </trkpt>
      <trkpt lat="46.37809" lon="6.72263">
        <ele>1582.5</ele>
        <time>2016-03-22T09:56:20Z</time>
      </trkpt>
      <trkpt lat="46.37802" lon="6.7226">
        <ele>1586.5</ele>
        <time>2016-03-22T09:56:22Z</time>
      </trkpt>
      <trkpt lat="46.37794" lon="6.72259">
        <ele>1588.3</ele>
        <time>2016-03-22T09:56:24Z</time>
      </trkpt>
      <trkpt lat="46.37785" lon="6.72258">
        <ele>1591</ele>
        <time>2016-03-22T09:56:27Z</time>
      </trkpt>
      <trkpt lat="46.37774" lon="6.72256">
        <ele>1595</ele>
        <time>2016-03-22T09:56:30Z</time>
      </trkpt>
      <trkpt lat="46.37764" lon="6.72253">
        <ele>1597.6</ele>
        <time>2016-03-22T09:56:33Z</time>
      </trkpt>
      <trkpt lat="46.37754" lon="6.7225">
        <ele>1601</ele>
        <time>2016-03-22T09:56:36Z</time>
      </trkpt>
      <trkpt lat="46.37745" lon="6.72247">
        <ele>1601.8</ele>
        <time>2016-03-22T09:56:39Z</time>
      </trkpt>
      <trkpt lat="46.37735" lon="6.72243">
        <ele>1603.6</ele>
        <time>2016-03-22T09:56:42Z</time>
      </trkpt>
      <trkpt lat="46.37727" lon="6.72241">
        <ele>1606</ele>
        <time>2016-03-22T09:56:44Z</time>
      </trkpt>
      <trkpt lat="46.37719" lon="6.72239">
        <ele>1607</ele>
        <time>2016-03-22T09:56:46Z</time>
      </trkpt>
      <trkpt lat="46.37711" lon="6.72237">
        <ele>1607.3</ele>
        <time>2016-03-22T09:56:49Z</time>
      </trkpt>
      <trkpt lat="46.37702" lon="6.72235">
        <ele>1608.5</ele>
        <time>2016-03-22T09:56:52Z</time>
      </trkpt>
      <trkpt lat="46.37693" lon="6.72232">
        <ele>1610.5</ele>
        <time>2016-03-22T09:56:55Z</time>
      </trkpt>
      <trkpt lat="46.37685" lon="6.72229">
        <ele>1611.6</ele>
        <time>2016-03-22T09:56:57Z</time>
      </trkpt>
      <trkpt lat="46.37677" lon="6.72226">
        <ele>1612.8</ele>
        <time>2016-03-22T09:56:59Z</time>
      </trkpt>
      <trkpt lat="46.3767" lon="6.72223">
        <ele>1614.5</ele>
        <time>2016-03-22T09:57:01Z</time>
      </trkpt>
      <trkpt lat="46.37662" lon="6.72221">
        <ele>1616</ele>
        <time>2016-03-22T09:57:03Z</time>
      </trkpt>
      <trkpt lat="46.37655" lon="6.7222">
        <ele>1617.5</ele>
        <time>2016-03-22T09:57:05Z</time>
      </trkpt>
      <trkpt lat="46.37647" lon="6.72219">
        <ele>1618.5</ele>
        <time>2016-03-22T09:57:08Z</time>
      </trkpt>
      <trkpt lat="46.37638" lon="6.72216">
        <ele>1623</ele>
        <time>2016-03-22T09:57:10Z</time>
      </trkpt>
      <trkpt lat="46.37629" lon="6.72213">
        <ele>1626</ele>
        <time>2016-03-22T09:57:13Z</time>
      </trkpt>
      <trkpt lat="46.37621" lon="6.72209">
        <ele>1630.4</ele>
        <time>2016-03-22T09:57:16Z</time>
      </trkpt>
      <trkpt lat="46.37612" lon="6.72205">
        <ele>1633.1</ele>
        <time>2016-03-22T09:57:19Z</time>
      </trkpt>
      <trkpt lat="46.37604" lon="6.72202">
        <ele>1637.1</ele>
        <time>2016-03-22T09:57:22Z</time>
      </trkpt>
      <trkpt lat="46.37595" lon="6.722">
        <ele>1641.3</ele>
        <time>2016-03-22T09:57:25Z</time>
      </trkpt>
      <trkpt lat="46.37586" lon="6.72197">
        <ele>1643.9</ele>
        <time>2016-03-22T09:57:28Z</time>
      </trkpt>
      <trkpt lat="46.37576" lon="6.72196">
        <ele>1647.5</ele>
        <time>2016-03-22T09:57:31Z</time>
      </trkpt>
      <trkpt lat="46.37566" lon="6.72193">
        <ele>1652</ele>
        <time>2016-03-22T09:57:34Z</time>
      </trkpt>
      <trkpt lat="46.37557" lon="6.72192">
        <ele>1653.6</ele>
        <time>2016-03-22T09:57:37Z</time>
      </trkpt>
      <trkpt lat="46.37547" lon="6.7219">
        <ele>1657.1</ele>
        <time>2016-03-22T09:57:41Z</time>
      </trkpt>
      <trkpt lat="46.37537" lon="6.72188">
        <ele>1659.4</ele>
        <time>2016-03-22T09:57:44Z</time>
      </trkpt>
      <trkpt lat="46.37528" lon="6.72186">
        <ele>1663.1</ele>
        <time>2016-03-22T09:57:46Z</time>
      </trkpt>
      <trkpt lat="46.37519" lon="6.72182">
        <ele>1666.4</ele>
        <time>2016-03-22T09:57:50Z</time>
      </trkpt>
      <trkpt lat="46.3751" lon="6.72178">
        <ele>1673.1</ele>
        <time>2016-03-22T09:57:52Z</time>
      </trkpt>
      <trkpt lat="46.37501" lon="6.72174">
        <ele>1679.5</ele>
        <time>2016-03-22T09:57:55Z</time>
      </trkpt>
      <trkpt lat="46.37492" lon="6.72171">
        <ele>1684.4</ele>
        <time>2016-03-22T09:57:58Z</time>
      </trkpt>
      <trkpt lat="46.37483" lon="6.72167">
        <ele>1688.9</ele>
        <time>2016-03-22T09:58:01Z</time>
      </trkpt>
      <trkpt lat="46.37474" lon="6.72164">
        <ele>1695.1</ele>
        <time>2016-03-22T09:58:04Z</time>
      </trkpt>
      <trkpt lat="46.37466" lon="6.72162">
        <ele>1700.6</ele>
        <time>2016-03-22T09:58:07Z</time>
      </trkpt>
      <trkpt lat="46.37458" lon="6.72159">
        <ele>1703.4</ele>
        <time>2016-03-22T09:58:10Z</time>
      </trkpt>
      <trkpt lat="46.3745" lon="6.72157">
        <ele>1707</ele>
        <time>2016-03-22T09:58:14Z</time>
      </trkpt>
      <trkpt lat="46.37442" lon="6.72155">
        <ele>1710</ele>
        <time>2016-03-22T09:58:16Z</time>
      </trkpt>
      <trkpt lat="46.37434" lon="6.72152">
        <ele>1712.4</ele>
        <time>2016-03-22T09:58:19Z</time>
      </trkpt>
      <trkpt lat="46.37425" lon="6.72149">
        <ele>1718.8</ele>
        <time>2016-03-22T09:58:22Z</time>
      </trkpt>
      <trkpt lat="46.37416" lon="6.72146">
        <ele>1722</ele>
        <time>2016-03-22T09:58:25Z</time>
      </trkpt>
      <trkpt lat="46.37407" lon="6.72143">
        <ele>1727.5</ele>
        <time>2016-03-22T09:58:28Z</time>
      </trkpt>
      <trkpt lat="46.37398" lon="6.72139">
        <ele>1732.4</ele>
        <time>2016-03-22T09:58:31Z</time>
      </trkpt>
      <trkpt lat="46.37389" lon="6.72136">
        <ele>1736.5</ele>
        <time>2016-03-22T09:58:34Z</time>
      </trkpt>
      <trkpt lat="46.37379" lon="6.72132">
        <ele>1743</ele>
        <time>2016-03-22T09:58:37Z</time>
      </trkpt>
      <trkpt lat="46.3737" lon="6.72127">
        <ele>1746</ele>
        <time>2016-03-22T09:58:40Z</time>
      </trkpt>
      <trkpt lat="46.37368" lon="6.72124">
        <ele>1746.5</ele>
        <time>2016-03-22T09:58:48Z</time>
      </trkpt>
      <trkpt lat="46.37368" lon="6.72123">
        <ele>1746</ele>
        <time>2016-03-22T09:58:49Z</time>
      </trkpt>
      <trkpt lat="46.37367" lon="6.7212">
        <ele>1747.8</ele>
        <time>2016-03-22T09:59:02Z</time>
      </trkpt>
      <trkpt lat="46.37367" lon="6.72119">
        <ele>1748.3</ele>
        <time>2016-03-22T09:59:03Z</time>
      </trkpt>
      <trkpt lat="46.37367" lon="6.72116">
        <ele>1747.6</ele>
        <time>2016-03-22T09:59:13Z</time>
      </trkpt>
      <trkpt lat="46.37367" lon="6.72116">
        <ele>1747.9</ele>
        <time>2016-03-22T09:59:13Z</time>
      </trkpt>
      <trkpt lat="46.37372" lon="6.72108">
        <ele>1745.5</ele>
        <time>2016-03-22T09:59:46Z</time>
      </trkpt>
      <trkpt lat="46.3738" lon="6.72104">
        <ele>1744.5</ele>
        <time>2016-03-22T09:59:49Z</time>
      </trkpt>
      <trkpt lat="46.37408" lon="6.72109">
        <ele>1737</ele>
        <time>2016-03-22T09:59:52Z</time>
      </trkpt>
      <trkpt lat="46.37422" lon="6.72115">
        <ele>1736.4</ele>
        <time>2016-03-22T09:59:54Z</time>
      </trkpt>
      <trkpt lat="46.37434" lon="6.72125">
        <ele>1734</ele>
        <time>2016-03-22T09:59:57Z</time>
      </trkpt>
      <trkpt lat="46.37441" lon="6.72124">
        <ele>1731.3</ele>
        <time>2016-03-22T09:59:57Z</time>
      </trkpt>
      <trkpt lat="46.3745" lon="6.72122">
        <ele>1729.6</ele>
        <time>2016-03-22T09:59:58Z</time>
      </trkpt>
      <trkpt lat="46.37459" lon="6.72123">
        <ele>1727.4</ele>
        <time>2016-03-22T09:59:59Z</time>
      </trkpt>
      <trkpt lat="46.37471" lon="6.72131">
        <ele>1721.8</ele>
        <time>2016-03-22T10:00:01Z</time>
      </trkpt>
      <trkpt lat="46.37485" lon="6.7213">
        <ele>1715.3</ele>
        <time>2016-03-22T10:00:03Z</time>
      </trkpt>
      <trkpt lat="46.37492" lon="6.72134">
        <ele>1709.9</ele>
        <time>2016-03-22T10:00:04Z</time>
      </trkpt>
      <trkpt lat="46.37504" lon="6.72143">
        <ele>1704</ele>
        <time>2016-03-22T10:00:06Z</time>
      </trkpt>
      <trkpt lat="46.37514" lon="6.72141">
        <ele>1701.8</ele>
        <time>2016-03-22T10:00:07Z</time>
      </trkpt>
      <trkpt lat="46.37524" lon="6.72139">
        <ele>1700.5</ele>
        <time>2016-03-22T10:00:08Z</time>
      </trkpt>
      <trkpt lat="46.37535" lon="6.72139">
        <ele>1700</ele>
        <time>2016-03-22T10:00:09Z</time>
      </trkpt>
      <trkpt lat="46.37543" lon="6.72146">
        <ele>1698.5</ele>
        <time>2016-03-22T10:00:10Z</time>
      </trkpt>
      <trkpt lat="46.37549" lon="6.72154">
        <ele>1695.5</ele>
        <time>2016-03-22T10:00:12Z</time>
      </trkpt>
      <trkpt lat="46.37556" lon="6.72158">
        <ele>1693.4</ele>
        <time>2016-03-22T10:00:12Z</time>
      </trkpt>
      <trkpt lat="46.37565" lon="6.72158">
        <ele>1691</ele>
        <time>2016-03-22T10:00:13Z</time>
      </trkpt>
      <trkpt lat="46.37574" lon="6.72157">
        <ele>1689.8</ele>
        <time>2016-03-22T10:00:14Z</time>
      </trkpt>
      <trkpt lat="46.37585" lon="6.72157">
        <ele>1684.6</ele>
        <time>2016-03-22T10:00:15Z</time>
      </trkpt>
      <trkpt lat="46.37591" lon="6.72162">
        <ele>1679.6</ele>
        <time>2016-03-22T10:00:16Z</time>
      </trkpt>
      <trkpt lat="46.37602" lon="6.72174">
        <ele>1676.1</ele>
        <time>2016-03-22T10:00:18Z</time>
      </trkpt>
      <trkpt lat="46.3761" lon="6.72176">
        <ele>1674.6</ele>
        <time>2016-03-22T10:00:19Z</time>
      </trkpt>
      <trkpt lat="46.37621" lon="6.72177">
        <ele>1673</ele>
        <time>2016-03-22T10:00:20Z</time>
      </trkpt>
      <trkpt lat="46.37636" lon="6.72173">
        <ele>1672.4</ele>
        <time>2016-03-22T10:00:21Z</time>
      </trkpt>
      <trkpt lat="46.37647" lon="6.72175">
        <ele>1671.5</ele>
        <time>2016-03-22T10:00:22Z</time>
      </trkpt>
      <trkpt lat="46.37657" lon="6.72177">
        <ele>1670.5</ele>
        <time>2016-03-22T10:00:23Z</time>
      </trkpt>
      <trkpt lat="46.37669" lon="6.7218">
        <ele>1669.9</ele>
        <time>2016-03-22T10:00:24Z</time>
      </trkpt>
      <trkpt lat="46.3768" lon="6.72186">
        <ele>1668.8</ele>
        <time>2016-03-22T10:00:25Z</time>
      </trkpt>
      <trkpt lat="46.37689" lon="6.72187">
        <ele>1666.8</ele>
        <time>2016-03-22T10:00:26Z</time>
      </trkpt>
      <trkpt lat="46.37703" lon="6.72185">
        <ele>1656.9</ele>
        <time>2016-03-22T10:00:28Z</time>
      </trkpt>
      <trkpt lat="46.37713" lon="6.72186">
        <ele>1652.5</ele>
        <time>2016-03-22T10:00:29Z</time>
      </trkpt>
      <trkpt lat="46.37721" lon="6.72188">
        <ele>1650.8</ele>
        <time>2016-03-22T10:00:30Z</time>
      </trkpt>
      <trkpt lat="46.37731" lon="6.72199">
        <ele>1647.8</ele>
        <time>2016-03-22T10:00:32Z</time>
      </trkpt>
      <trkpt lat="46.37739" lon="6.72204">
        <ele>1645.8</ele>
        <time>2016-03-22T10:00:33Z</time>
      </trkpt>
      <trkpt lat="46.37747" lon="6.72207">
        <ele>1644.1</ele>
        <time>2016-03-22T10:00:34Z</time>
      </trkpt>
      <trkpt lat="46.37755" lon="6.72207">
        <ele>1641.4</ele>
        <time>2016-03-22T10:00:35Z</time>
      </trkpt>
      <trkpt lat="46.37765" lon="6.72208">
        <ele>1639.8</ele>
        <time>2016-03-22T10:00:36Z</time>
      </trkpt>
      <trkpt lat="46.37772" lon="6.72206">
        <ele>1638.1</ele>
        <time>2016-03-22T10:00:37Z</time>
      </trkpt>
      <trkpt lat="46.37781" lon="6.72209">
        <ele>1635</ele>
        <time>2016-03-22T10:00:38Z</time>
      </trkpt>
      <trkpt lat="46.3779" lon="6.72213">
        <ele>1634</ele>
        <time>2016-03-22T10:00:39Z</time>
      </trkpt>
      <trkpt lat="46.37799" lon="6.72219">
        <ele>1631.6</ele>
        <time>2016-03-22T10:00:40Z</time>
      </trkpt>
      <trkpt lat="46.37805" lon="6.72233">
        <ele>1627.4</ele>
        <time>2016-03-22T10:00:42Z</time>
      </trkpt>
      <trkpt lat="46.37809" lon="6.72244">
        <ele>1623.4</ele>
        <time>2016-03-22T10:00:44Z</time>
      </trkpt>
      <trkpt lat="46.37813" lon="6.72256">
        <ele>1614.4</ele>
        <time>2016-03-22T10:00:48Z</time>
      </trkpt>
      <trkpt lat="46.37813" lon="6.72259">
        <ele>1611.5</ele>
        <time>2016-03-22T10:00:55Z</time>
      </trkpt>
      <trkpt lat="46.37812" lon="6.72259">
        <ele>1607.9</ele>
        <time>2016-03-22T10:01:06Z</time>
      </trkpt>
      <trkpt lat="46.37812" lon="6.7226">
        <ele>1607.3</ele>
        <time>2016-03-22T10:01:08Z</time>
      </trkpt>
      <trkpt lat="46.37816" lon="6.72265">
        <ele>1600.6</ele>
        <time>2016-03-22T10:01:15Z</time>
      </trkpt>
      <trkpt lat="46.37816" lon="6.72266">
        <ele>1599.5</ele>
        <time>2016-03-22T10:01:16Z</time>
      </trkpt>
      <trkpt lat="46.37818" lon="6.72269">
        <ele>1595.5</ele>
        <time>2016-03-22T10:01:24Z</time>
      </trkpt>
      <trkpt lat="46.37818" lon="6.72269">
        <ele>1594.6</ele>
        <time>2016-03-22T10:01:26Z</time>
      </trkpt>
      <trkpt lat="46.37816" lon="6.72268">
        <ele>1591.3</ele>
        <time>2016-03-22T10:01:41Z</time>
      </trkpt>
      <trkpt lat="46.37816" lon="6.72268">
        <ele>1591</ele>
        <time>2016-03-22T10:01:42Z</time>
      </trkpt>
      <trkpt lat="46.37806" lon="6.72266">
        <ele>1589.5</ele>
        <time>2016-03-22T10:01:52Z</time>
      </trkpt>
      <trkpt lat="46.37799" lon="6.72262">
        <ele>1588.3</ele>
        <time>2016-03-22T10:01:53Z</time>
      </trkpt>
      <trkpt lat="46.37789" lon="6.7226">
        <ele>1589.6</ele>
        <time>2016-03-22T10:01:57Z</time>
      </trkpt>
      <trkpt lat="46.3778" lon="6.72256">
        <ele>1593.5</ele>
        <time>2016-03-22T10:01:59Z</time>
      </trkpt>
      <trkpt lat="46.3777" lon="6.72253">
        <ele>1595.5</ele>
        <time>2016-03-22T10:02:02Z</time>
      </trkpt>
      <trkpt lat="46.37761" lon="6.7225">
        <ele>1598.3</ele>
        <time>2016-03-22T10:02:05Z</time>
      </trkpt>
      <trkpt lat="46.37751" lon="6.72247">
        <ele>1600.4</ele>
        <time>2016-03-22T10:02:08Z</time>
      </trkpt>
      <trkpt lat="46.37742" lon="6.72245">
        <ele>1603.6</ele>
        <time>2016-03-22T10:02:12Z</time>
      </trkpt>
      <trkpt lat="46.37733" lon="6.72241">
        <ele>1604.8</ele>
        <time>2016-03-22T10:02:14Z</time>
      </trkpt>
      <trkpt lat="46.37723" lon="6.72238">
        <ele>1605.4</ele>
        <time>2016-03-22T10:02:17Z</time>
      </trkpt>
      <trkpt lat="46.37714" lon="6.72235">
        <ele>1609</ele>
        <time>2016-03-22T10:02:20Z</time>
      </trkpt>
      <trkpt lat="46.37704" lon="6.72233">
        <ele>1611.9</ele>
        <time>2016-03-22T10:02:24Z</time>
      </trkpt>
      <trkpt lat="46.37695" lon="6.7223">
        <ele>1614</ele>
        <time>2016-03-22T10:02:26Z</time>
      </trkpt>
      <trkpt lat="46.37685" lon="6.72226">
        <ele>1615.4</ele>
        <time>2016-03-22T10:02:29Z</time>
      </trkpt>
      <trkpt lat="46.37675" lon="6.72224">
        <ele>1618.4</ele>
        <time>2016-03-22T10:02:32Z</time>
      </trkpt>
      <trkpt lat="46.37666" lon="6.72223">
        <ele>1620</ele>
        <time>2016-03-22T10:02:35Z</time>
      </trkpt>
      <trkpt lat="46.37657" lon="6.7222">
        <ele>1622.5</ele>
        <time>2016-03-22T10:02:38Z</time>
      </trkpt>
      <trkpt lat="46.37647" lon="6.72217">
        <ele>1627.8</ele>
        <time>2016-03-22T10:02:41Z</time>
      </trkpt>
      <trkpt lat="46.37638" lon="6.72213">
        <ele>1631.9</ele>
        <time>2016-03-22T10:02:44Z</time>
      </trkpt>
      <trkpt lat="46.37628" lon="6.72211">
        <ele>1636.6</ele>
        <time>2016-03-22T10:02:47Z</time>
      </trkpt>
      <trkpt lat="46.37619" lon="6.72207">
        <ele>1640.4</ele>
        <time>2016-03-22T10:02:50Z</time>
      </trkpt>
      <trkpt lat="46.37609" lon="6.72204">
        <ele>1643.1</ele>
        <time>2016-03-22T10:02:53Z</time>
      </trkpt>
      <trkpt lat="46.37599" lon="6.72201">
        <ele>1646</ele>
        <time>2016-03-22T10:02:56Z</time>
      </trkpt>
      <trkpt lat="46.3759" lon="6.72197">
        <ele>1648.8</ele>
        <time>2016-03-22T10:02:59Z</time>
      </trkpt>
      <trkpt lat="46.3758" lon="6.72195">
        <ele>1651.3</ele>
        <time>2016-03-22T10:03:02Z</time>
      </trkpt>
      <trkpt lat="46.3757" lon="6.72192">
        <ele>1653</ele>
        <time>2016-03-22T10:03:05Z</time>
      </trkpt>
      <trkpt lat="46.37561" lon="6.72188">
        <ele>1657.3</ele>
        <time>2016-03-22T10:03:09Z</time>
      </trkpt>
      <trkpt lat="46.37551" lon="6.72186">
        <ele>1662.8</ele>
        <time>2016-03-22T10:03:12Z</time>
      </trkpt>
      <trkpt lat="46.37543" lon="6.72183">
        <ele>1665.5</ele>
        <time>2016-03-22T10:03:14Z</time>
      </trkpt>
      <trkpt lat="46.37534" lon="6.7218">
        <ele>1668</ele>
        <time>2016-03-22T10:03:17Z</time>
      </trkpt>
      <trkpt lat="46.37524" lon="6.72177">
        <ele>1671.3</ele>
        <time>2016-03-22T10:03:20Z</time>
      </trkpt>
      <trkpt lat="46.37515" lon="6.72174">
        <ele>1675.3</ele>
        <time>2016-03-22T10:03:23Z</time>
      </trkpt>
      <trkpt lat="46.37506" lon="6.72172">
        <ele>1679.4</ele>
        <time>2016-03-22T10:03:26Z</time>
      </trkpt>
      <trkpt lat="46.37497" lon="6.72171">
        <ele>1682.4</ele>
        <time>2016-03-22T10:03:29Z</time>
      </trkpt>
      <trkpt lat="46.37489" lon="6.72169">
        <ele>1686.5</ele>
        <time>2016-03-22T10:03:33Z</time>
      </trkpt>
      <trkpt lat="46.37481" lon="6.72167">
        <ele>1688.9</ele>
        <time>2016-03-22T10:03:35Z</time>
      </trkpt>
      <trkpt lat="46.37472" lon="6.72163">
        <ele>1693.4</ele>
        <time>2016-03-22T10:03:39Z</time>
      </trkpt>
      <trkpt lat="46.37465" lon="6.7216">
        <ele>1697.6</ele>
        <time>2016-03-22T10:03:42Z</time>
      </trkpt>
      <trkpt lat="46.37457" lon="6.72157">
        <ele>1699.5</ele>
        <time>2016-03-22T10:03:45Z</time>
      </trkpt>
      <trkpt lat="46.37448" lon="6.72154">
        <ele>1701.6</ele>
        <time>2016-03-22T10:03:48Z</time>
      </trkpt>
      <trkpt lat="46.37439" lon="6.7215">
        <ele>1706</ele>
        <time>2016-03-22T10:03:51Z</time>
      </trkpt>
      <trkpt lat="46.37429" lon="6.72146">
        <ele>1712</ele>
        <time>2016-03-22T10:03:54Z</time>
      </trkpt>
      <trkpt lat="46.37422" lon="6.72144">
        <ele>1715.6</ele>
        <time>2016-03-22T10:03:56Z</time>
      </trkpt>
      <trkpt lat="46.37415" lon="6.72141">
        <ele>1718.9</ele>
        <time>2016-03-22T10:03:58Z</time>
      </trkpt>
      <trkpt lat="46.37405" lon="6.72137">
        <ele>1723.3</ele>
        <time>2016-03-22T10:04:01Z</time>
      </trkpt>
      <trkpt lat="46.37395" lon="6.72133">
        <ele>1728.8</ele>
        <time>2016-03-22T10:04:05Z</time>
      </trkpt>
      <trkpt lat="46.37385" lon="6.72129">
        <ele>1733.5</ele>
        <time>2016-03-22T10:04:08Z</time>
      </trkpt>
      <trkpt lat="46.37375" lon="6.72127">
        <ele>1739.8</ele>
        <time>2016-03-22T10:04:10Z</time>
      </trkpt>
      <trkpt lat="46.37368" lon="6.72124">
        <ele>1741.9</ele>
        <time>2016-03-22T10:04:13Z</time>
      </trkpt>
      <trkpt lat="46.37367" lon="6.7212">
        <ele>1743.8</ele>
        <time>2016-03-22T10:04:21Z</time>
      </trkpt>
      <trkpt lat="46.37367" lon="6.7212">
        <ele>1744.5</ele>
        <time>2016-03-22T10:04:22Z</time>
      </trkpt>
      <trkpt lat="46.37365" lon="6.72118">
        <ele>1748.4</ele>
        <time>2016-03-22T10:04:34Z</time>
      </trkpt>
      <trkpt lat="46.37365" lon="6.72118">
        <ele>1748.4</ele>
        <time>2016-03-22T10:04:35Z</time>
      </trkpt>
      <trkpt lat="46.37372" lon="6.72111">
        <ele>1746.1</ele>
        <time>2016-03-22T10:05:01Z</time>
      </trkpt>
      <trkpt lat="46.37381" lon="6.72104">
        <ele>1744</ele>
        <time>2016-03-22T10:05:04Z</time>
      </trkpt>
      <trkpt lat="46.37387" lon="6.72109">
        <ele>1742.8</ele>
        <time>2016-03-22T10:05:06Z</time>
      </trkpt>
      <trkpt lat="46.37404" lon="6.72115">
        <ele>1741.4</ele>
        <time>2016-03-22T10:05:09Z</time>
      </trkpt>
      <trkpt lat="46.37413" lon="6.72119">
        <ele>1739.6</ele>
        <time>2016-03-22T10:05:09Z</time>
      </trkpt>
      <trkpt lat="46.37422" lon="6.7212">
        <ele>1737.8</ele>
        <time>2016-03-22T10:05:10Z</time>
      </trkpt>
      <trkpt lat="46.37433" lon="6.72119">
        <ele>1735.8</ele>
        <time>2016-03-22T10:05:12Z</time>
      </trkpt>
      <trkpt lat="46.37442" lon="6.7212">
        <ele>1734.6</ele>
        <time>2016-03-22T10:05:13Z</time>
      </trkpt>
      <trkpt lat="46.37454" lon="6.72129">
        <ele>1732</ele>
        <time>2016-03-22T10:05:14Z</time>
      </trkpt>
      <trkpt lat="46.37471" lon="6.72128">
        <ele>1728</ele>
        <time>2016-03-22T10:05:16Z</time>
      </trkpt>
      <trkpt lat="46.37478" lon="6.72132">
        <ele>1727.3</ele>
        <time>2016-03-22T10:05:17Z</time>
      </trkpt>
      <trkpt lat="46.3749" lon="6.72138">
        <ele>1719.8</ele>
        <time>2016-03-22T10:05:19Z</time>
      </trkpt>
      <trkpt lat="46.37499" lon="6.72136">
        <ele>1715.4</ele>
        <time>2016-03-22T10:05:21Z</time>
      </trkpt>
      <trkpt lat="46.37513" lon="6.72145">
        <ele>1709.9</ele>
        <time>2016-03-22T10:05:22Z</time>
      </trkpt>
      <trkpt lat="46.37522" lon="6.72148">
        <ele>1707</ele>
        <time>2016-03-22T10:05:24Z</time>
      </trkpt>
      <trkpt lat="46.37533" lon="6.72151">
        <ele>1706</ele>
        <time>2016-03-22T10:05:24Z</time>
      </trkpt>
      <trkpt lat="46.37542" lon="6.72154">
        <ele>1704.8</ele>
        <time>2016-03-22T10:05:25Z</time>
      </trkpt>
      <trkpt lat="46.3755" lon="6.72159">
        <ele>1702.9</ele>
        <time>2016-03-22T10:05:26Z</time>
      </trkpt>
      <trkpt lat="46.37559" lon="6.7216">
        <ele>1701</ele>
        <time>2016-03-22T10:05:27Z</time>
      </trkpt>
      <trkpt lat="46.37571" lon="6.72159">
        <ele>1699.5</ele>
        <time>2016-03-22T10:05:28Z</time>
      </trkpt>
      <trkpt lat="46.37578" lon="6.72161">
        <ele>1697.3</ele>
        <time>2016-03-22T10:05:29Z</time>
      </trkpt>
      <trkpt lat="46.37585" lon="6.72167">
        <ele>1695.4</ele>
        <time>2016-03-22T10:05:30Z</time>
      </trkpt>
      <trkpt lat="46.37595" lon="6.7217">
        <ele>1693.9</ele>
        <time>2016-03-22T10:05:32Z</time>
      </trkpt>
      <trkpt lat="46.37607" lon="6.72169">
        <ele>1692.6</ele>
        <time>2016-03-22T10:05:32Z</time>
      </trkpt>
      <trkpt lat="46.37615" lon="6.72174">
        <ele>1690.4</ele>
        <time>2016-03-22T10:05:33Z</time>
      </trkpt>
      <trkpt lat="46.37626" lon="6.72176">
        <ele>1688.5</ele>
        <time>2016-03-22T10:05:34Z</time>
      </trkpt>
      <trkpt lat="46.37638" lon="6.72172">
        <ele>1687.1</ele>
        <time>2016-03-22T10:05:36Z</time>
      </trkpt>
      <trkpt lat="46.37649" lon="6.72171">
        <ele>1685.8</ele>
        <time>2016-03-22T10:05:36Z</time>
      </trkpt>
      <trkpt lat="46.37657" lon="6.72175">
        <ele>1681.5</ele>
        <time>2016-03-22T10:05:37Z</time>
      </trkpt>
      <trkpt lat="46.3767" lon="6.72186">
        <ele>1676.5</ele>
        <time>2016-03-22T10:05:39Z</time>
      </trkpt>
      <trkpt lat="46.37682" lon="6.72186">
        <ele>1673.4</ele>
        <time>2016-03-22T10:05:41Z</time>
      </trkpt>
      <trkpt lat="46.37694" lon="6.72183">
        <ele>1670</ele>
        <time>2016-03-22T10:05:41Z</time>
      </trkpt>
      <trkpt lat="46.37705" lon="6.72183">
        <ele>1667</ele>
        <time>2016-03-22T10:05:42Z</time>
      </trkpt>
      <trkpt lat="46.37711" lon="6.7219">
        <ele>1659.9</ele>
        <time>2016-03-22T10:05:43Z</time>
      </trkpt>
      <trkpt lat="46.37717" lon="6.72197">
        <ele>1657.1</ele>
        <time>2016-03-22T10:05:44Z</time>
      </trkpt>
      <trkpt lat="46.37724" lon="6.72202">
        <ele>1655</ele>
        <time>2016-03-22T10:05:45Z</time>
      </trkpt>
      <trkpt lat="46.37732" lon="6.72205">
        <ele>1653.5</ele>
        <time>2016-03-22T10:05:46Z</time>
      </trkpt>
      <trkpt lat="46.37742" lon="6.72201">
        <ele>1651.5</ele>
        <time>2016-03-22T10:05:47Z</time>
      </trkpt>
      <trkpt lat="46.37754" lon="6.72198">
        <ele>1640</ele>
        <time>2016-03-22T10:05:49Z</time>
      </trkpt>
      <trkpt lat="46.37765" lon="6.72199">
        <ele>1639</ele>
        <time>2016-03-22T10:05:50Z</time>
      </trkpt>
      <trkpt lat="46.37777" lon="6.72202">
        <ele>1637.3</ele>
        <time>2016-03-22T10:05:51Z</time>
      </trkpt>
      <trkpt lat="46.37789" lon="6.72205">
        <ele>1636.5</ele>
        <time>2016-03-22T10:05:52Z</time>
      </trkpt>
      <trkpt lat="46.37795" lon="6.72214">
        <ele>1636.1</ele>
        <time>2016-03-22T10:05:53Z</time>
      </trkpt>
      <trkpt lat="46.37801" lon="6.72221">
        <ele>1634.8</ele>
        <time>2016-03-22T10:05:54Z</time>
      </trkpt>
      <trkpt lat="46.37811" lon="6.72234">
        <ele>1632</ele>
        <time>2016-03-22T10:05:56Z</time>
      </trkpt>
      <trkpt lat="46.37818" lon="6.72247">
        <ele>1627.8</ele>
        <time>2016-03-22T10:05:58Z</time>
      </trkpt>
      <trkpt lat="46.3782" lon="6.72264">
        <ele>1621.3</ele>
        <time>2016-03-22T10:06:00Z</time>
      </trkpt>
      <trkpt lat="46.37816" lon="6.72266">
        <ele>1606.8</ele>
        <time>2016-03-22T10:06:08Z</time>
      </trkpt>
      <trkpt lat="46.37816" lon="6.72266">
        <ele>1603.5</ele>
        <time>2016-03-22T10:06:12Z</time>
      </trkpt>
      <trkpt lat="46.37814" lon="6.72267">
        <ele>1598.4</ele>
        <time>2016-03-22T10:06:33Z</time>
      </trkpt>
      <trkpt lat="46.37814" lon="6.72267">
        <ele>1597.9</ele>
        <time>2016-03-22T10:06:33Z</time>
      </trkpt>
      <trkpt lat="46.37803" lon="6.72265">
        <ele>1596.5</ele>
        <time>2016-03-22T10:06:41Z</time>
      </trkpt>
      <trkpt lat="46.37794" lon="6.72263">
        <ele>1597</ele>
        <time>2016-03-22T10:06:45Z</time>
      </trkpt>
      <trkpt lat="46.37785" lon="6.72261">
        <ele>1598.3</ele>
        <time>2016-03-22T10:06:49Z</time>
      </trkpt>
      <trkpt lat="46.37775" lon="6.72258">
        <ele>1600.4</ele>
        <time>2016-03-22T10:06:51Z</time>
      </trkpt>
      <trkpt lat="46.37768" lon="6.72255">
        <ele>1601.5</ele>
        <time>2016-03-22T10:06:53Z</time>
      </trkpt>
      <trkpt lat="46.37761" lon="6.72252">
        <ele>1602.1</ele>
        <time>2016-03-22T10:06:55Z</time>
      </trkpt>
      <trkpt lat="46.3775" lon="6.72249">
        <ele>1603.8</ele>
        <time>2016-03-22T10:06:58Z</time>
      </trkpt>
      <trkpt lat="46.3774" lon="6.72246">
        <ele>1605.4</ele>
        <time>2016-03-22T10:07:01Z</time>
      </trkpt>
      <trkpt lat="46.37733" lon="6.72242">
        <ele>1606.3</ele>
        <time>2016-03-22T10:07:03Z</time>
      </trkpt>
      <trkpt lat="46.37725" lon="6.7224">
        <ele>1607.6</ele>
        <time>2016-03-22T10:07:06Z</time>
      </trkpt>
      <trkpt lat="46.37716" lon="6.72236">
        <ele>1607.5</ele>
        <time>2016-03-22T10:07:08Z</time>
      </trkpt>
      <trkpt lat="46.37706" lon="6.72234">
        <ele>1610.8</ele>
        <time>2016-03-22T10:07:11Z</time>
      </trkpt>
      <trkpt lat="46.37696" lon="6.72231">
        <ele>1613</ele>
        <time>2016-03-22T10:07:14Z</time>
      </trkpt>
      <trkpt lat="46.37686" lon="6.72228">
        <ele>1616.5</ele>
        <time>2016-03-22T10:07:17Z</time>
      </trkpt>
      <trkpt lat="46.37676" lon="6.72226">
        <ele>1618.4</ele>
        <time>2016-03-22T10:07:20Z</time>
      </trkpt>
      <trkpt lat="46.37666" lon="6.72222">
        <ele>1620.6</ele>
        <time>2016-03-22T10:07:23Z</time>
      </trkpt>
      <trkpt lat="46.37657" lon="6.72219">
        <ele>1622</ele>
        <time>2016-03-22T10:07:26Z</time>
      </trkpt>
      <trkpt lat="46.37648" lon="6.72216">
        <ele>1624.5</ele>
        <time>2016-03-22T10:07:29Z</time>
      </trkpt>
      <trkpt lat="46.37639" lon="6.72212">
        <ele>1627.5</ele>
        <time>2016-03-22T10:07:32Z</time>
      </trkpt>
      <trkpt lat="46.37629" lon="6.72209">
        <ele>1632.4</ele>
        <time>2016-03-22T10:07:36Z</time>
      </trkpt>
      <trkpt lat="46.37619" lon="6.72206">
        <ele>1636.1</ele>
        <time>2016-03-22T10:07:38Z</time>
      </trkpt>
      <trkpt lat="46.3761" lon="6.72203">
        <ele>1640.3</ele>
        <time>2016-03-22T10:07:41Z</time>
      </trkpt>
      <trkpt lat="46.37601" lon="6.722">
        <ele>1643</ele>
        <time>2016-03-22T10:07:45Z</time>
      </trkpt>
      <trkpt lat="46.37592" lon="6.72196">
        <ele>1645.8</ele>
        <time>2016-03-22T10:07:47Z</time>
      </trkpt>
      <trkpt lat="46.37583" lon="6.72195">
        <ele>1649</ele>
        <time>2016-03-22T10:07:50Z</time>
      </trkpt>
      <trkpt lat="46.37574" lon="6.72192">
        <ele>1653.9</ele>
        <time>2016-03-22T10:07:53Z</time>
      </trkpt>
      <trkpt lat="46.37565" lon="6.72189">
        <ele>1655.9</ele>
        <time>2016-03-22T10:07:56Z</time>
      </trkpt>
      <trkpt lat="46.37555" lon="6.72187">
        <ele>1656.5</ele>
        <time>2016-03-22T10:08:00Z</time>
      </trkpt>
      <trkpt lat="46.37548" lon="6.72185">
        <ele>1659.9</ele>
        <time>2016-03-22T10:08:02Z</time>
      </trkpt>
      <trkpt lat="46.37541" lon="6.72184">
        <ele>1661.8</ele>
        <time>2016-03-22T10:08:05Z</time>
      </trkpt>
      <trkpt lat="46.37533" lon="6.72183">
        <ele>1664.5</ele>
        <time>2016-03-22T10:08:08Z</time>
      </trkpt>
      <trkpt lat="46.37525" lon="6.72183">
        <ele>1671.5</ele>
        <time>2016-03-22T10:08:11Z</time>
      </trkpt>
      <trkpt lat="46.37517" lon="6.72179">
        <ele>1676.4</ele>
        <time>2016-03-22T10:08:14Z</time>
      </trkpt>
      <trkpt lat="46.37506" lon="6.72176">
        <ele>1683.9</ele>
        <time>2016-03-22T10:08:17Z</time>
      </trkpt>
      <trkpt lat="46.37498" lon="6.72173">
        <ele>1687</ele>
        <time>2016-03-22T10:08:19Z</time>
      </trkpt>
      <trkpt lat="46.3749" lon="6.7217">
        <ele>1689</ele>
        <time>2016-03-22T10:08:21Z</time>
      </trkpt>
      <trkpt lat="46.37483" lon="6.72168">
        <ele>1691.1</ele>
        <time>2016-03-22T10:08:25Z</time>
      </trkpt>
      <trkpt lat="46.37475" lon="6.72165">
        <ele>1697.5</ele>
        <time>2016-03-22T10:08:27Z</time>
      </trkpt>
      <trkpt lat="46.37465" lon="6.7216">
        <ele>1700</ele>
        <time>2016-03-22T10:08:30Z</time>
      </trkpt>
      <trkpt lat="46.37456" lon="6.72155">
        <ele>1703.9</ele>
        <time>2016-03-22T10:08:33Z</time>
      </trkpt>
      <trkpt lat="46.37449" lon="6.72152">
        <ele>1707.6</ele>
        <time>2016-03-22T10:08:36Z</time>
      </trkpt>
      <trkpt lat="46.37439" lon="6.72148">
        <ele>1709.1</ele>
        <time>2016-03-22T10:08:38Z</time>
      </trkpt>
      <trkpt lat="46.37431" lon="6.72146">
        <ele>1711.6</ele>
        <time>2016-03-22T10:08:41Z</time>
      </trkpt>
      <trkpt lat="46.37422" lon="6.72143">
        <ele>1719.4</ele>
        <time>2016-03-22T10:08:44Z</time>
      </trkpt>
      <trkpt lat="46.37412" lon="6.72139">
        <ele>1727.3</ele>
        <time>2016-03-22T10:08:47Z</time>
      </trkpt>
      <trkpt lat="46.37404" lon="6.72136">
        <ele>1731</ele>
        <time>2016-03-22T10:08:49Z</time>
      </trkpt>
      <trkpt lat="46.37394" lon="6.72131">
        <ele>1733.3</ele>
        <time>2016-03-22T10:08:52Z</time>
      </trkpt>
      <trkpt lat="46.37385" lon="6.72128">
        <ele>1736</ele>
        <time>2016-03-22T10:08:55Z</time>
      </trkpt>
      <trkpt lat="46.37376" lon="6.72125">
        <ele>1742.1</ele>
        <time>2016-03-22T10:08:58Z</time>
      </trkpt>
      <trkpt lat="46.37367" lon="6.72124">
        <ele>1743.9</ele>
        <time>2016-03-22T10:09:01Z</time>
      </trkpt>
      <trkpt lat="46.37367" lon="6.72131">
        <ele>1744</ele>
        <time>2016-03-22T10:09:09Z</time>
      </trkpt>
      <trkpt lat="46.37367" lon="6.72131">
        <ele>1746.9</ele>
        <time>2016-03-22T10:09:14Z</time>
      </trkpt>
      <trkpt lat="46.37367" lon="6.72134">
        <ele>1748.5</ele>
        <time>2016-03-22T10:09:45Z</time>
      </trkpt>
      <trkpt lat="46.37367" lon="6.72134">
        <ele>1748.9</ele>
        <time>2016-03-22T10:09:45Z</time>
      </trkpt>
      <trkpt lat="46.37368" lon="6.72146">
        <ele>1748</ele>
        <time>2016-03-22T10:09:51Z</time>
      </trkpt>
      <trkpt lat="46.37367" lon="6.72145">
        <ele>1748</ele>
        <time>2016-03-22T10:09:58Z</time>
      </trkpt>
      <trkpt lat="46.37368" lon="6.72152">
        <ele>1748.3</ele>
        <time>2016-03-22T10:10:40Z</time>
      </trkpt>
      <trkpt lat="46.37373" lon="6.72165">
        <ele>1748</ele>
        <time>2016-03-22T10:10:45Z</time>
      </trkpt>
      <trkpt lat="46.37377" lon="6.72175">
        <ele>1743.9</ele>
        <time>2016-03-22T10:10:48Z</time>
      </trkpt>
      <trkpt lat="46.37381" lon="6.72188">
        <ele>1743.4</ele>
        <time>2016-03-22T10:10:49Z</time>
      </trkpt>
      <trkpt lat="46.37382" lon="6.72205">
        <ele>1743</ele>
        <time>2016-03-22T10:10:50Z</time>
      </trkpt>
      <trkpt lat="46.37388" lon="6.72222">
        <ele>1742</ele>
        <time>2016-03-22T10:10:52Z</time>
      </trkpt>
      <trkpt lat="46.37391" lon="6.72232">
        <ele>1741</ele>
        <time>2016-03-22T10:10:53Z</time>
      </trkpt>
      <trkpt lat="46.37394" lon="6.72242">
        <ele>1739.9</ele>
        <time>2016-03-22T10:10:54Z</time>
      </trkpt>
      <trkpt lat="46.37397" lon="6.72253">
        <ele>1739.4</ele>
        <time>2016-03-22T10:10:55Z</time>
      </trkpt>
      <trkpt lat="46.37401" lon="6.72273">
        <ele>1738</ele>
        <time>2016-03-22T10:10:57Z</time>
      </trkpt>
      <trkpt lat="46.37407" lon="6.72282">
        <ele>1737</ele>
        <time>2016-03-22T10:10:58Z</time>
      </trkpt>
      <trkpt lat="46.37412" lon="6.72291">
        <ele>1737</ele>
        <time>2016-03-22T10:11:00Z</time>
      </trkpt>
      <trkpt lat="46.37417" lon="6.72299">
        <ele>1736.5</ele>
        <time>2016-03-22T10:11:00Z</time>
      </trkpt>
      <trkpt lat="46.37424" lon="6.72309">
        <ele>1735.5</ele>
        <time>2016-03-22T10:11:01Z</time>
      </trkpt>
      <trkpt lat="46.37433" lon="6.72319">
        <ele>1734.5</ele>
        <time>2016-03-22T10:11:02Z</time>
      </trkpt>
      <trkpt lat="46.37438" lon="6.72335">
        <ele>1733.5</ele>
        <time>2016-03-22T10:11:05Z</time>
      </trkpt>
      <trkpt lat="46.37446" lon="6.72348">
        <ele>1732.4</ele>
        <time>2016-03-22T10:11:06Z</time>
      </trkpt>
      <trkpt lat="46.37454" lon="6.72357">
        <ele>1731.9</ele>
        <time>2016-03-22T10:11:09Z</time>
      </trkpt>
      <trkpt lat="46.37463" lon="6.72368">
        <ele>1731.3</ele>
        <time>2016-03-22T10:11:10Z</time>
      </trkpt>
      <trkpt lat="46.37472" lon="6.7238">
        <ele>1730.5</ele>
        <time>2016-03-22T10:11:13Z</time>
      </trkpt>
      <trkpt lat="46.37481" lon="6.72394">
        <ele>1730.6</ele>
        <time>2016-03-22T10:11:14Z</time>
      </trkpt>
      <trkpt lat="46.3749" lon="6.72406">
        <ele>1730.1</ele>
        <time>2016-03-22T10:11:16Z</time>
      </trkpt>
      <trkpt lat="46.37495" lon="6.72419">
        <ele>1728</ele>
        <time>2016-03-22T10:11:18Z</time>
      </trkpt>
      <trkpt lat="46.37499" lon="6.7243">
        <ele>1725</ele>
        <time>2016-03-22T10:11:21Z</time>
      </trkpt>
      <trkpt lat="46.37508" lon="6.72441">
        <ele>1723.5</ele>
        <time>2016-03-22T10:11:22Z</time>
      </trkpt>
      <trkpt lat="46.37515" lon="6.72453">
        <ele>1722.1</ele>
        <time>2016-03-22T10:11:24Z</time>
      </trkpt>
      <trkpt lat="46.37524" lon="6.72466">
        <ele>1721.5</ele>
        <time>2016-03-22T10:11:26Z</time>
      </trkpt>
      <trkpt lat="46.37529" lon="6.72474">
        <ele>1721.4</ele>
        <time>2016-03-22T10:11:27Z</time>
      </trkpt>
      <trkpt lat="46.37536" lon="6.72483">
        <ele>1721.4</ele>
        <time>2016-03-22T10:11:29Z</time>
      </trkpt>
      <trkpt lat="46.37542" lon="6.72491">
        <ele>1720.8</ele>
        <time>2016-03-22T10:11:29Z</time>
      </trkpt>
      <trkpt lat="46.37548" lon="6.72499">
        <ele>1720.6</ele>
        <time>2016-03-22T10:11:30Z</time>
      </trkpt>
      <trkpt lat="46.37554" lon="6.72508">
        <ele>1720.5</ele>
        <time>2016-03-22T10:11:32Z</time>
      </trkpt>
      <trkpt lat="46.37559" lon="6.72517">
        <ele>1720.6</ele>
        <time>2016-03-22T10:11:32Z</time>
      </trkpt>
      <trkpt lat="46.37566" lon="6.72527">
        <ele>1720.6</ele>
        <time>2016-03-22T10:11:33Z</time>
      </trkpt>
      <trkpt lat="46.37571" lon="6.72537">
        <ele>1720.5</ele>
        <time>2016-03-22T10:11:34Z</time>
      </trkpt>
      <trkpt lat="46.3758" lon="6.72556">
        <ele>1720.3</ele>
        <time>2016-03-22T10:11:37Z</time>
      </trkpt>
      <trkpt lat="46.37584" lon="6.72573">
        <ele>1718.3</ele>
        <time>2016-03-22T10:11:38Z</time>
      </trkpt>
      <trkpt lat="46.37584" lon="6.72593">
        <ele>1712</ele>
        <time>2016-03-22T10:11:40Z</time>
      </trkpt>
      <trkpt lat="46.37583" lon="6.72604">
        <ele>1708.5</ele>
        <time>2016-03-22T10:11:41Z</time>
      </trkpt>
      <trkpt lat="46.37584" lon="6.72619">
        <ele>1707.3</ele>
        <time>2016-03-22T10:11:44Z</time>
      </trkpt>
      <trkpt lat="46.37586" lon="6.72628">
        <ele>1703.6</ele>
        <time>2016-03-22T10:11:50Z</time>
      </trkpt>
      <trkpt lat="46.37585" lon="6.72628">
        <ele>1703.5</ele>
        <time>2016-03-22T10:11:53Z</time>
      </trkpt>
      <trkpt lat="46.37587" lon="6.7263">
        <ele>1703.6</ele>
        <time>2016-03-22T10:12:02Z</time>
      </trkpt>
      <trkpt lat="46.37587" lon="6.7263">
        <ele>1703.6</ele>
        <time>2016-03-22T10:12:03Z</time>
      </trkpt>
      <trkpt lat="46.37592" lon="6.72637">
        <ele>1700.8</ele>
        <time>2016-03-22T10:12:27Z</time>
      </trkpt>
      <trkpt lat="46.37597" lon="6.72646">
        <ele>1699.5</ele>
        <time>2016-03-22T10:12:29Z</time>
      </trkpt>
      <trkpt lat="46.37602" lon="6.72654">
        <ele>1698</ele>
        <time>2016-03-22T10:12:32Z</time>
      </trkpt>
      <trkpt lat="46.37607" lon="6.72663">
        <ele>1697.5</ele>
        <time>2016-03-22T10:12:33Z</time>
      </trkpt>
      <trkpt lat="46.37619" lon="6.72656">
        <ele>1690.5</ele>
        <time>2016-03-22T10:12:36Z</time>
      </trkpt>
      <trkpt lat="46.37631" lon="6.72645">
        <ele>1688.5</ele>
        <time>2016-03-22T10:12:37Z</time>
      </trkpt>
      <trkpt lat="46.37639" lon="6.72645">
        <ele>1687.4</ele>
        <time>2016-03-22T10:12:38Z</time>
      </trkpt>
      <trkpt lat="46.37647" lon="6.72647">
        <ele>1686.1</ele>
        <time>2016-03-22T10:12:40Z</time>
      </trkpt>
      <trkpt lat="46.37659" lon="6.72646">
        <ele>1684.8</ele>
        <time>2016-03-22T10:12:41Z</time>
      </trkpt>
      <trkpt lat="46.3767" lon="6.7264">
        <ele>1683.3</ele>
        <time>2016-03-22T10:12:41Z</time>
      </trkpt>
      <trkpt lat="46.3768" lon="6.72632">
        <ele>1682</ele>
        <time>2016-03-22T10:12:42Z</time>
      </trkpt>
      <trkpt lat="46.37689" lon="6.72626">
        <ele>1677</ele>
        <time>2016-03-22T10:12:43Z</time>
      </trkpt>
      <trkpt lat="46.37697" lon="6.72624">
        <ele>1673</ele>
        <time>2016-03-22T10:12:44Z</time>
      </trkpt>
      <trkpt lat="46.37707" lon="6.72625">
        <ele>1670</ele>
        <time>2016-03-22T10:12:46Z</time>
      </trkpt>
      <trkpt lat="46.37716" lon="6.72624">
        <ele>1667.5</ele>
        <time>2016-03-22T10:12:46Z</time>
      </trkpt>
      <trkpt lat="46.37724" lon="6.72618">
        <ele>1660.5</ele>
        <time>2016-03-22T10:12:48Z</time>
      </trkpt>
      <trkpt lat="46.3773" lon="6.72612">
        <ele>1656.5</ele>
        <time>2016-03-22T10:12:48Z</time>
      </trkpt>
      <trkpt lat="46.37737" lon="6.72605">
        <ele>1655</ele>
        <time>2016-03-22T10:12:49Z</time>
      </trkpt>
      <trkpt lat="46.3775" lon="6.726">
        <ele>1651.1</ele>
        <time>2016-03-22T10:12:52Z</time>
      </trkpt>
      <trkpt lat="46.37759" lon="6.72603">
        <ele>1650.1</ele>
        <time>2016-03-22T10:12:52Z</time>
      </trkpt>
      <trkpt lat="46.37766" lon="6.7261">
        <ele>1647.9</ele>
        <time>2016-03-22T10:12:53Z</time>
      </trkpt>
      <trkpt lat="46.37773" lon="6.72608">
        <ele>1645.6</ele>
        <time>2016-03-22T10:12:54Z</time>
      </trkpt>
      <trkpt lat="46.37785" lon="6.72598">
        <ele>1643</ele>
        <time>2016-03-22T10:12:57Z</time>
      </trkpt>
      <trkpt lat="46.37792" lon="6.72593">
        <ele>1640</ele>
        <time>2016-03-22T10:12:57Z</time>
      </trkpt>
      <trkpt lat="46.378" lon="6.72593">
        <ele>1636</ele>
        <time>2016-03-22T10:12:58Z</time>
      </trkpt>
      <trkpt lat="46.37809" lon="6.72594">
        <ele>1633.9</ele>
        <time>2016-03-22T10:12:59Z</time>
      </trkpt>
      <trkpt lat="46.37822" lon="6.72601">
        <ele>1631</ele>
        <time>2016-03-22T10:13:01Z</time>
      </trkpt>
      <trkpt lat="46.3783" lon="6.72599">
        <ele>1630.1</ele>
        <time>2016-03-22T10:13:02Z</time>
      </trkpt>
      <trkpt lat="46.37838" lon="6.72593">
        <ele>1629.8</ele>
        <time>2016-03-22T10:13:04Z</time>
      </trkpt>
      <trkpt lat="46.37851" lon="6.72596">
        <ele>1625.6</ele>
        <time>2016-03-22T10:13:05Z</time>
      </trkpt>
      <trkpt lat="46.37858" lon="6.72601">
        <ele>1623.5</ele>
        <time>2016-03-22T10:13:07Z</time>
      </trkpt>
      <trkpt lat="46.37854" lon="6.7261">
        <ele>1612.6</ele>
        <time>2016-03-22T10:13:14Z</time>
      </trkpt>
      <trkpt lat="46.37853" lon="6.72611">
        <ele>1611.5</ele>
        <time>2016-03-22T10:13:16Z</time>
      </trkpt>
      <trkpt lat="46.37854" lon="6.72616">
        <ele>1607</ele>
        <time>2016-03-22T10:13:24Z</time>
      </trkpt>
      <trkpt lat="46.37854" lon="6.72616">
        <ele>1607</ele>
        <time>2016-03-22T10:13:26Z</time>
      </trkpt>
      <trkpt lat="46.37853" lon="6.72617">
        <ele>1604.8</ele>
        <time>2016-03-22T10:13:35Z</time>
      </trkpt>
      <trkpt lat="46.37853" lon="6.72617">
        <ele>1604.3</ele>
        <time>2016-03-22T10:13:36Z</time>
      </trkpt>
      <trkpt lat="46.37846" lon="6.7262">
        <ele>1603.1</ele>
        <time>2016-03-22T10:13:42Z</time>
      </trkpt>
      <trkpt lat="46.37836" lon="6.72623">
        <ele>1604.8</ele>
        <time>2016-03-22T10:13:44Z</time>
      </trkpt>
      <trkpt lat="46.37827" lon="6.72626">
        <ele>1607.6</ele>
        <time>2016-03-22T10:13:47Z</time>
      </trkpt>
      <trkpt lat="46.37817" lon="6.72629">
        <ele>1608.8</ele>
        <time>2016-03-22T10:13:50Z</time>
      </trkpt>
      <trkpt lat="46.37808" lon="6.72633">
        <ele>1610.6</ele>
        <time>2016-03-22T10:13:53Z</time>
      </trkpt>
      <trkpt lat="46.37799" lon="6.72634">
        <ele>1613.5</ele>
        <time>2016-03-22T10:13:56Z</time>
      </trkpt>
      <trkpt lat="46.37789" lon="6.72635">
        <ele>1615</ele>
        <time>2016-03-22T10:13:59Z</time>
      </trkpt>
      <trkpt lat="46.37779" lon="6.72636">
        <ele>1617.1</ele>
        <time>2016-03-22T10:14:02Z</time>
      </trkpt>
      <trkpt lat="46.3777" lon="6.72639">
        <ele>1620.4</ele>
        <time>2016-03-22T10:14:05Z</time>
      </trkpt>
      <trkpt lat="46.37759" lon="6.72643">
        <ele>1624.5</ele>
        <time>2016-03-22T10:14:08Z</time>
      </trkpt>
      <trkpt lat="46.37749" lon="6.72645">
        <ele>1627.4</ele>
        <time>2016-03-22T10:14:11Z</time>
      </trkpt>
      <trkpt lat="46.37739" lon="6.72648">
        <ele>1630.4</ele>
        <time>2016-03-22T10:14:14Z</time>
      </trkpt>
      <trkpt lat="46.37729" lon="6.7265">
        <ele>1633.5</ele>
        <time>2016-03-22T10:14:17Z</time>
      </trkpt>
      <trkpt lat="46.37719" lon="6.72653">
        <ele>1636.5</ele>
        <time>2016-03-22T10:14:20Z</time>
      </trkpt>
      <trkpt lat="46.37709" lon="6.72655">
        <ele>1638.3</ele>
        <time>2016-03-22T10:14:24Z</time>
      </trkpt>
      <trkpt lat="46.377" lon="6.72657">
        <ele>1639.6</ele>
        <time>2016-03-22T10:14:26Z</time>
      </trkpt>
      <trkpt lat="46.37691" lon="6.72657">
        <ele>1639.5</ele>
        <time>2016-03-22T10:14:29Z</time>
      </trkpt>
      <trkpt lat="46.37682" lon="6.7266">
        <ele>1644</ele>
        <time>2016-03-22T10:14:32Z</time>
      </trkpt>
      <trkpt lat="46.37673" lon="6.72662">
        <ele>1650.5</ele>
        <time>2016-03-22T10:14:35Z</time>
      </trkpt>
      <trkpt lat="46.37663" lon="6.72665">
        <ele>1656.6</ele>
        <time>2016-03-22T10:14:38Z</time>
      </trkpt>
      <trkpt lat="46.37653" lon="6.72668">
        <ele>1659.9</ele>
        <time>2016-03-22T10:14:41Z</time>
      </trkpt>
      <trkpt lat="46.37645" lon="6.72666">
        <ele>1660.5</ele>
        <time>2016-03-22T10:14:44Z</time>
      </trkpt>
      <trkpt lat="46.37636" lon="6.72665">
        <ele>1662</ele>
        <time>2016-03-22T10:14:47Z</time>
      </trkpt>
      <trkpt lat="46.37628" lon="6.72664">
        <ele>1664</ele>
        <time>2016-03-22T10:14:50Z</time>
      </trkpt>
      <trkpt lat="46.37619" lon="6.72664">
        <ele>1666.3</ele>
        <time>2016-03-22T10:14:53Z</time>
      </trkpt>
      <trkpt lat="46.3761" lon="6.72666">
        <ele>1669.1</ele>
        <time>2016-03-22T10:14:56Z</time>
      </trkpt>
      <trkpt lat="46.37601" lon="6.72668">
        <ele>1674.5</ele>
        <time>2016-03-22T10:14:59Z</time>
      </trkpt>
      <trkpt lat="46.37592" lon="6.72668">
        <ele>1678.9</ele>
        <time>2016-03-22T10:15:02Z</time>
      </trkpt>
      <trkpt lat="46.37586" lon="6.72673">
        <ele>1689</ele>
        <time>2016-03-22T10:15:04Z</time>
      </trkpt>
      <trkpt lat="46.37579" lon="6.72678">
        <ele>1695.8</ele>
        <time>2016-03-22T10:15:06Z</time>
      </trkpt>
      <trkpt lat="46.37573" lon="6.72682">
        <ele>1700.5</ele>
        <time>2016-03-22T10:15:08Z</time>
      </trkpt>
      <trkpt lat="46.37563" lon="6.72687">
        <ele>1706</ele>
        <time>2016-03-22T10:15:12Z</time>
      </trkpt>
      <trkpt lat="46.37553" lon="6.72691">
        <ele>1713.6</ele>
        <time>2016-03-22T10:15:14Z</time>
      </trkpt>
      <trkpt lat="46.37544" lon="6.72694">
        <ele>1718.5</ele>
        <time>2016-03-22T10:15:18Z</time>
      </trkpt>
      <trkpt lat="46.37535" lon="6.72695">
        <ele>1720.6</ele>
        <time>2016-03-22T10:15:20Z</time>
      </trkpt>
      <trkpt lat="46.37526" lon="6.72698">
        <ele>1726.6</ele>
        <time>2016-03-22T10:15:24Z</time>
      </trkpt>
      <trkpt lat="46.37518" lon="6.727">
        <ele>1727.5</ele>
        <time>2016-03-22T10:15:26Z</time>
      </trkpt>
      <trkpt lat="46.37509" lon="6.72704">
        <ele>1737.3</ele>
        <time>2016-03-22T10:15:29Z</time>
      </trkpt>
      <trkpt lat="46.375" lon="6.72707">
        <ele>1742.5</ele>
        <time>2016-03-22T10:15:32Z</time>
      </trkpt>
      <trkpt lat="46.37492" lon="6.72709">
        <ele>1748</ele>
        <time>2016-03-22T10:15:35Z</time>
      </trkpt>
      <trkpt lat="46.37483" lon="6.72712">
        <ele>1748.6</ele>
        <time>2016-03-22T10:15:38Z</time>
      </trkpt>
      <trkpt lat="46.37484" lon="6.72713">
        <ele>1752.5</ele>
        <time>2016-03-22T10:15:45Z</time>
      </trkpt>
      <trkpt lat="46.37483" lon="6.72711">
        <ele>1753.6</ele>
        <time>2016-03-22T10:15:48Z</time>
      </trkpt>
      <trkpt lat="46.37483" lon="6.72708">
        <ele>1758</ele>
        <time>2016-03-22T10:15:57Z</time>
      </trkpt>
      <trkpt lat="46.37483" lon="6.72707">
        <ele>1758.5</ele>
        <time>2016-03-22T10:15:58Z</time>
      </trkpt>
      <trkpt lat="46.37483" lon="6.727">
        <ele>1759.5</ele>
        <time>2016-03-22T10:16:08Z</time>
      </trkpt>
      <trkpt lat="46.37483" lon="6.727">
        <ele>1759.6</ele>
        <time>2016-03-22T10:16:10Z</time>
      </trkpt>
      <trkpt lat="46.37481" lon="6.72695">
        <ele>1762</ele>
        <time>2016-03-22T10:16:18Z</time>
      </trkpt>
      <trkpt lat="46.37481" lon="6.72694">
        <ele>1761.5</ele>
        <time>2016-03-22T10:16:18Z</time>
      </trkpt>
      <trkpt lat="46.37479" lon="6.7269">
        <ele>1760.3</ele>
        <time>2016-03-22T10:16:26Z</time>
      </trkpt>
      <trkpt lat="46.37479" lon="6.7269">
        <ele>1761.3</ele>
        <time>2016-03-22T10:16:28Z</time>
      </trkpt>
      <trkpt lat="46.37486" lon="6.72685">
        <ele>1760</ele>
        <time>2016-03-22T10:17:00Z</time>
      </trkpt>
      <trkpt lat="46.37505" lon="6.72685">
        <ele>1759.1</ele>
        <time>2016-03-22T10:17:03Z</time>
      </trkpt>
      <trkpt lat="46.37517" lon="6.72678">
        <ele>1758</ele>
        <time>2016-03-22T10:17:06Z</time>
      </trkpt>
      <trkpt lat="46.37525" lon="6.72676">
        <ele>1755.4</ele>
        <time>2016-03-22T10:17:06Z</time>
      </trkpt>
      <trkpt lat="46.37533" lon="6.72675">
        <ele>1754.6</ele>
        <time>2016-03-22T10:17:08Z</time>
      </trkpt>
      <trkpt lat="46.37542" lon="6.72673">
        <ele>1754.4</ele>
        <time>2016-03-22T10:17:08Z</time>
      </trkpt>
      <trkpt lat="46.37552" lon="6.72669">
        <ele>1753.6</ele>
        <time>2016-03-22T10:17:09Z</time>
      </trkpt>
      <trkpt lat="46.37561" lon="6.72663">
        <ele>1752.1</ele>
        <time>2016-03-22T10:17:10Z</time>
      </trkpt>
      <trkpt lat="46.37571" lon="6.72659">
        <ele>1752.1</ele>
        <time>2016-03-22T10:17:12Z</time>
      </trkpt>
      <trkpt lat="46.37581" lon="6.72659">
        <ele>1751.5</ele>
        <time>2016-03-22T10:17:13Z</time>
      </trkpt>
      <trkpt lat="46.37595" lon="6.72654">
        <ele>1744.1</ele>
        <time>2016-03-22T10:17:14Z</time>
      </trkpt>
      <trkpt lat="46.37605" lon="6.72648">
        <ele>1741.1</ele>
        <time>2016-03-22T10:17:15Z</time>
      </trkpt>
      <trkpt lat="46.37616" lon="6.72643">
        <ele>1740</ele>
        <time>2016-03-22T10:17:17Z</time>
      </trkpt>
      <trkpt lat="46.37626" lon="6.72645">
        <ele>1739</ele>
        <time>2016-03-22T10:17:17Z</time>
      </trkpt>
      <trkpt lat="46.37637" lon="6.72646">
        <ele>1738</ele>
        <time>2016-03-22T10:17:18Z</time>
      </trkpt>
      <trkpt lat="46.37647" lon="6.72643">
        <ele>1737.6</ele>
        <time>2016-03-22T10:17:20Z</time>
      </trkpt>
      <trkpt lat="46.37657" lon="6.72638">
        <ele>1734.4</ele>
        <time>2016-03-22T10:17:21Z</time>
      </trkpt>
      <trkpt lat="46.37668" lon="6.72635">
        <ele>1732.4</ele>
        <time>2016-03-22T10:17:21Z</time>
      </trkpt>
      <trkpt lat="46.3768" lon="6.72636">
        <ele>1731</ele>
        <time>2016-03-22T10:17:22Z</time>
      </trkpt>
      <trkpt lat="46.37691" lon="6.72635">
        <ele>1729.5</ele>
        <time>2016-03-22T10:17:23Z</time>
      </trkpt>
      <trkpt lat="46.37704" lon="6.72631">
        <ele>1728.3</ele>
        <time>2016-03-22T10:17:24Z</time>
      </trkpt>
      <trkpt lat="46.37714" lon="6.72622">
        <ele>1723.3</ele>
        <time>2016-03-22T10:17:25Z</time>
      </trkpt>
      <trkpt lat="46.37724" lon="6.72616">
        <ele>1718</ele>
        <time>2016-03-22T10:17:26Z</time>
      </trkpt>
      <trkpt lat="46.37734" lon="6.72614">
        <ele>1714.1</ele>
        <time>2016-03-22T10:17:27Z</time>
      </trkpt>
      <trkpt lat="46.37745" lon="6.72611">
        <ele>1712.5</ele>
        <time>2016-03-22T10:17:28Z</time>
      </trkpt>
      <trkpt lat="46.37755" lon="6.72606">
        <ele>1709</ele>
        <time>2016-03-22T10:17:30Z</time>
      </trkpt>
      <trkpt lat="46.37764" lon="6.72599">
        <ele>1706.6</ele>
        <time>2016-03-22T10:17:30Z</time>
      </trkpt>
      <trkpt lat="46.37771" lon="6.72593">
        <ele>1705.3</ele>
        <time>2016-03-22T10:17:31Z</time>
      </trkpt>
      <trkpt lat="46.37784" lon="6.72592">
        <ele>1700.4</ele>
        <time>2016-03-22T10:17:33Z</time>
      </trkpt>
      <trkpt lat="46.37792" lon="6.72592">
        <ele>1698.9</ele>
        <time>2016-03-22T10:17:34Z</time>
      </trkpt>
      <trkpt lat="46.37801" lon="6.72584">
        <ele>1693.5</ele>
        <time>2016-03-22T10:17:36Z</time>
      </trkpt>
      <trkpt lat="46.37794" lon="6.72583">
        <ele>1678.5</ele>
        <time>2016-03-22T10:17:37Z</time>
      </trkpt>
      <trkpt lat="46.37808" lon="6.72575">
        <ele>1672.1</ele>
        <time>2016-03-22T10:17:39Z</time>
      </trkpt>
      <trkpt lat="46.37816" lon="6.72576">
        <ele>1670.3</ele>
        <time>2016-03-22T10:17:41Z</time>
      </trkpt>
      <trkpt lat="46.37828" lon="6.72584">
        <ele>1666.1</ele>
        <time>2016-03-22T10:17:42Z</time>
      </trkpt>
      <trkpt lat="46.37837" lon="6.7258">
        <ele>1663.1</ele>
        <time>2016-03-22T10:17:43Z</time>
      </trkpt>
      <trkpt lat="46.37847" lon="6.72577">
        <ele>1662</ele>
        <time>2016-03-22T10:17:44Z</time>
      </trkpt>
      <trkpt lat="46.37856" lon="6.72571">
        <ele>1661.4</ele>
        <time>2016-03-22T10:17:45Z</time>
      </trkpt>
      <trkpt lat="46.37868" lon="6.72568">
        <ele>1660.5</ele>
        <time>2016-03-22T10:17:46Z</time>
      </trkpt>
      <trkpt lat="46.37882" lon="6.72571">
        <ele>1659.9</ele>
        <time>2016-03-22T10:17:47Z</time>
      </trkpt>
      <trkpt lat="46.3789" lon="6.72575">
        <ele>1658.9</ele>
        <time>2016-03-22T10:17:48Z</time>
      </trkpt>
      <trkpt lat="46.37879" lon="6.72584">
        <ele>1646.1</ele>
        <time>2016-03-22T10:17:49Z</time>
      </trkpt>
      <trkpt lat="46.37877" lon="6.72597">
        <ele>1633.8</ele>
        <time>2016-03-22T10:17:51Z</time>
      </trkpt>
      <trkpt lat="46.37872" lon="6.72602">
        <ele>1623.6</ele>
        <time>2016-03-22T10:17:58Z</time>
      </trkpt>
      <trkpt lat="46.37868" lon="6.726">
        <ele>1619.3</ele>
        <time>2016-03-22T10:18:05Z</time>
      </trkpt>
      <trkpt lat="46.37865" lon="6.72601">
        <ele>1615.6</ele>
        <time>2016-03-22T10:18:12Z</time>
      </trkpt>
      <trkpt lat="46.37863" lon="6.72603">
        <ele>1610.8</ele>
        <time>2016-03-22T10:18:21Z</time>
      </trkpt>
      <trkpt lat="46.37863" lon="6.72603">
        <ele>1610</ele>
        <time>2016-03-22T10:18:22Z</time>
      </trkpt>
      <trkpt lat="46.37862" lon="6.72606">
        <ele>1605.9</ele>
        <time>2016-03-22T10:18:37Z</time>
      </trkpt>
      <trkpt lat="46.37862" lon="6.72606">
        <ele>1605.4</ele>
        <time>2016-03-22T10:18:38Z</time>
      </trkpt>
      <trkpt lat="46.37861" lon="6.72609">
        <ele>1603.4</ele>
        <time>2016-03-22T10:18:49Z</time>
      </trkpt>
      <trkpt lat="46.37861" lon="6.72609">
        <ele>1603.5</ele>
        <time>2016-03-22T10:18:49Z</time>
      </trkpt>
      <trkpt lat="46.37861" lon="6.72611">
        <ele>1599</ele>
        <time>2016-03-22T10:19:01Z</time>
      </trkpt>
      <trkpt lat="46.37861" lon="6.72612">
        <ele>1598.6</ele>
        <time>2016-03-22T10:19:02Z</time>
      </trkpt>
      <trkpt lat="46.3786" lon="6.72617">
        <ele>1597.3</ele>
        <time>2016-03-22T10:19:10Z</time>
      </trkpt>
      <trkpt lat="46.3786" lon="6.72617">
        <ele>1597.4</ele>
        <time>2016-03-22T10:19:12Z</time>
      </trkpt>
      <trkpt lat="46.37857" lon="6.7262">
        <ele>1597.3</ele>
        <time>2016-03-22T10:19:19Z</time>
      </trkpt>
      <trkpt lat="46.37857" lon="6.7262">
        <ele>1597.1</ele>
        <time>2016-03-22T10:19:20Z</time>
      </trkpt>
      <trkpt lat="46.37855" lon="6.72619">
        <ele>1598.9</ele>
        <time>2016-03-22T10:19:29Z</time>
      </trkpt>
      <trkpt lat="46.37855" lon="6.72619">
        <ele>1598.9</ele>
        <time>2016-03-22T10:19:30Z</time>
      </trkpt>
      <trkpt lat="46.37853" lon="6.72619">
        <ele>1598.9</ele>
        <time>2016-03-22T10:19:51Z</time>
      </trkpt>
      <trkpt lat="46.37853" lon="6.72619">
        <ele>1599</ele>
        <time>2016-03-22T10:19:52Z</time>
      </trkpt>
      <trkpt lat="46.37845" lon="6.72621">
        <ele>1600.4</ele>
        <time>2016-03-22T10:19:57Z</time>
      </trkpt>
      <trkpt lat="46.37836" lon="6.72624">
        <ele>1602.5</ele>
        <time>2016-03-22T10:20:01Z</time>
      </trkpt>
      <trkpt lat="46.37826" lon="6.72627">
        <ele>1605</ele>
        <time>2016-03-22T10:20:03Z</time>
      </trkpt>
      <trkpt lat="46.37817" lon="6.7263">
        <ele>1608.6</ele>
        <time>2016-03-22T10:20:06Z</time>
      </trkpt>
      <trkpt lat="46.37807" lon="6.72633">
        <ele>1612.5</ele>
        <time>2016-03-22T10:20:09Z</time>
      </trkpt>
      <trkpt lat="46.37798" lon="6.72636">
        <ele>1616.5</ele>
        <time>2016-03-22T10:20:12Z</time>
      </trkpt>
      <trkpt lat="46.37788" lon="6.72637">
        <ele>1618.9</ele>
        <time>2016-03-22T10:20:16Z</time>
      </trkpt>
      <trkpt lat="46.37778" lon="6.7264">
        <ele>1620.9</ele>
        <time>2016-03-22T10:20:18Z</time>
      </trkpt>
      <trkpt lat="46.37768" lon="6.72643">
        <ele>1623.5</ele>
        <time>2016-03-22T10:20:21Z</time>
      </trkpt>
      <trkpt lat="46.37758" lon="6.72647">
        <ele>1627.4</ele>
        <time>2016-03-22T10:20:24Z</time>
      </trkpt>
      <trkpt lat="46.37748" lon="6.72649">
        <ele>1631.9</ele>
        <time>2016-03-22T10:20:27Z</time>
      </trkpt>
      <trkpt lat="46.37738" lon="6.72652">
        <ele>1635.9</ele>
        <time>2016-03-22T10:20:30Z</time>
      </trkpt>
      <trkpt lat="46.37728" lon="6.72654">
        <ele>1639.5</ele>
        <time>2016-03-22T10:20:33Z</time>
      </trkpt>
      <trkpt lat="46.37718" lon="6.72656">
        <ele>1641.9</ele>
        <time>2016-03-22T10:20:36Z</time>
      </trkpt>
      <trkpt lat="46.37708" lon="6.72658">
        <ele>1645.8</ele>
        <time>2016-03-22T10:20:39Z</time>
      </trkpt>
      <trkpt lat="46.37698" lon="6.7266">
        <ele>1650</ele>
        <time>2016-03-22T10:20:42Z</time>
      </trkpt>
      <trkpt lat="46.37688" lon="6.72663">
        <ele>1654.5</ele>
        <time>2016-03-22T10:20:45Z</time>
      </trkpt>
      <trkpt lat="46.37679" lon="6.72665">
        <ele>1658.4</ele>
        <time>2016-03-22T10:20:49Z</time>
      </trkpt>
      <trkpt lat="46.37669" lon="6.72667">
        <ele>1662.9</ele>
        <time>2016-03-22T10:20:51Z</time>
      </trkpt>
      <trkpt lat="46.3766" lon="6.72669">
        <ele>1666.5</ele>
        <time>2016-03-22T10:20:54Z</time>
      </trkpt>
      <trkpt lat="46.3765" lon="6.72671">
        <ele>1669.9</ele>
        <time>2016-03-22T10:20:57Z</time>
      </trkpt>
      <trkpt lat="46.37641" lon="6.72673">
        <ele>1673.5</ele>
        <time>2016-03-22T10:21:00Z</time>
      </trkpt>
      <trkpt lat="46.37631" lon="6.72675">
        <ele>1677</ele>
        <time>2016-03-22T10:21:03Z</time>
      </trkpt>
      <trkpt lat="46.37622" lon="6.72678">
        <ele>1681.5</ele>
        <time>2016-03-22T10:21:06Z</time>
      </trkpt>
      <trkpt lat="46.37613" lon="6.7268">
        <ele>1684.8</ele>
        <time>2016-03-22T10:21:09Z</time>
      </trkpt>
      <trkpt lat="46.37604" lon="6.72682">
        <ele>1688.9</ele>
        <time>2016-03-22T10:21:12Z</time>
      </trkpt>
      <trkpt lat="46.37595" lon="6.72685">
        <ele>1693.3</ele>
        <time>2016-03-22T10:21:16Z</time>
      </trkpt>
      <trkpt lat="46.37586" lon="6.72685">
        <ele>1696.4</ele>
        <time>2016-03-22T10:21:18Z</time>
      </trkpt>
      <trkpt lat="46.37577" lon="6.72684">
        <ele>1700</ele>
        <time>2016-03-22T10:21:21Z</time>
      </trkpt>
      <trkpt lat="46.37569" lon="6.72687">
        <ele>1705.6</ele>
        <time>2016-03-22T10:21:24Z</time>
      </trkpt>
      <trkpt lat="46.3756" lon="6.72692">
        <ele>1712</ele>
        <time>2016-03-22T10:21:27Z</time>
      </trkpt>
      <trkpt lat="46.37551" lon="6.72695">
        <ele>1717.3</ele>
        <time>2016-03-22T10:21:30Z</time>
      </trkpt>
      <trkpt lat="46.37542" lon="6.72698">
        <ele>1725.5</ele>
        <time>2016-03-22T10:21:33Z</time>
      </trkpt>
      <trkpt lat="46.37533" lon="6.72701">
        <ele>1731.1</ele>
        <time>2016-03-22T10:21:36Z</time>
      </trkpt>
      <trkpt lat="46.37525" lon="6.72703">
        <ele>1735.3</ele>
        <time>2016-03-22T10:21:39Z</time>
      </trkpt>
      <trkpt lat="46.37516" lon="6.72706">
        <ele>1741.4</ele>
        <time>2016-03-22T10:21:42Z</time>
      </trkpt>
      <trkpt lat="46.37509" lon="6.72711">
        <ele>1744.5</ele>
        <time>2016-03-22T10:21:45Z</time>
      </trkpt>
      <trkpt lat="46.37501" lon="6.72715">
        <ele>1748.1</ele>
        <time>2016-03-22T10:21:48Z</time>
      </trkpt>
      <trkpt lat="46.37493" lon="6.72718">
        <ele>1750.5</ele>
        <time>2016-03-22T10:21:51Z</time>
      </trkpt>
      <trkpt lat="46.37485" lon="6.72721">
        <ele>1753.3</ele>
        <time>2016-03-22T10:21:55Z</time>
      </trkpt>
      <trkpt lat="46.37485" lon="6.72732">
        <ele>1755.8</ele>
        <time>2016-03-22T10:21:59Z</time>
      </trkpt>
      <trkpt lat="46.37488" lon="6.7273">
        <ele>1759.5</ele>
        <time>2016-03-22T10:22:06Z</time>
      </trkpt>
      <trkpt lat="46.37487" lon="6.7273">
        <ele>1760</ele>
        <time>2016-03-22T10:22:13Z</time>
      </trkpt>
      <trkpt lat="46.37494" lon="6.72739">
        <ele>1757.5</ele>
        <time>2016-03-22T10:22:59Z</time>
      </trkpt>
      <trkpt lat="46.37498" lon="6.72753">
        <ele>1757</ele>
        <time>2016-03-22T10:23:01Z</time>
      </trkpt>
      <trkpt lat="46.37501" lon="6.72766">
        <ele>1757</ele>
        <time>2016-03-22T10:23:02Z</time>
      </trkpt>
      <trkpt lat="46.37507" lon="6.72777">
        <ele>1757</ele>
        <time>2016-03-22T10:23:03Z</time>
      </trkpt>
      <trkpt lat="46.37511" lon="6.72788">
        <ele>1756.8</ele>
        <time>2016-03-22T10:23:04Z</time>
      </trkpt>
      <trkpt lat="46.37515" lon="6.72799">
        <ele>1756.5</ele>
        <time>2016-03-22T10:23:06Z</time>
      </trkpt>
      <trkpt lat="46.3752" lon="6.7281">
        <ele>1756.5</ele>
        <time>2016-03-22T10:23:06Z</time>
      </trkpt>
      <trkpt lat="46.37524" lon="6.72822">
        <ele>1756.3</ele>
        <time>2016-03-22T10:23:07Z</time>
      </trkpt>
      <trkpt lat="46.37528" lon="6.72835">
        <ele>1756.4</ele>
        <time>2016-03-22T10:23:08Z</time>
      </trkpt>
      <trkpt lat="46.37528" lon="6.72849">
        <ele>1754</ele>
        <time>2016-03-22T10:23:09Z</time>
      </trkpt>
      <trkpt lat="46.3753" lon="6.72861">
        <ele>1753.9</ele>
        <time>2016-03-22T10:23:10Z</time>
      </trkpt>
      <trkpt lat="46.37524" lon="6.72873">
        <ele>1749.5</ele>
        <time>2016-03-22T10:23:12Z</time>
      </trkpt>
      <trkpt lat="46.37523" lon="6.72885">
        <ele>1747.8</ele>
        <time>2016-03-22T10:23:13Z</time>
      </trkpt>
      <trkpt lat="46.37526" lon="6.72895">
        <ele>1747.5</ele>
        <time>2016-03-22T10:23:13Z</time>
      </trkpt>
      <trkpt lat="46.37528" lon="6.72905">
        <ele>1746.8</ele>
        <time>2016-03-22T10:23:14Z</time>
      </trkpt>
      <trkpt lat="46.3753" lon="6.72917">
        <ele>1746.1</ele>
        <time>2016-03-22T10:23:15Z</time>
      </trkpt>
      <trkpt lat="46.37528" lon="6.72934">
        <ele>1745.5</ele>
        <time>2016-03-22T10:23:18Z</time>
      </trkpt>
      <trkpt lat="46.3753" lon="6.72946">
        <ele>1745.4</ele>
        <time>2016-03-22T10:23:18Z</time>
      </trkpt>
      <trkpt lat="46.37532" lon="6.72965">
        <ele>1743.3</ele>
        <time>2016-03-22T10:23:20Z</time>
      </trkpt>
      <trkpt lat="46.37534" lon="6.72977">
        <ele>1738</ele>
        <time>2016-03-22T10:23:22Z</time>
      </trkpt>
      <trkpt lat="46.37536" lon="6.72994">
        <ele>1737.1</ele>
        <time>2016-03-22T10:23:25Z</time>
      </trkpt>
      <trkpt lat="46.37539" lon="6.73011">
        <ele>1736</ele>
        <time>2016-03-22T10:23:26Z</time>
      </trkpt>
      <trkpt lat="46.37546" lon="6.73022">
        <ele>1732.6</ele>
        <time>2016-03-22T10:23:28Z</time>
      </trkpt>
      <trkpt lat="46.37551" lon="6.7304">
        <ele>1727.9</ele>
        <time>2016-03-22T10:23:29Z</time>
      </trkpt>
      <trkpt lat="46.37557" lon="6.73048">
        <ele>1725.6</ele>
        <time>2016-03-22T10:23:30Z</time>
      </trkpt>
      <trkpt lat="46.3756" lon="6.73058">
        <ele>1723.4</ele>
        <time>2016-03-22T10:23:32Z</time>
      </trkpt>
      <trkpt lat="46.37563" lon="6.73068">
        <ele>1721.5</ele>
        <time>2016-03-22T10:23:32Z</time>
      </trkpt>
      <trkpt lat="46.37568" lon="6.73077">
        <ele>1720</ele>
        <time>2016-03-22T10:23:33Z</time>
      </trkpt>
      <trkpt lat="46.37572" lon="6.73086">
        <ele>1717.6</ele>
        <time>2016-03-22T10:23:34Z</time>
      </trkpt>
      <trkpt lat="46.37574" lon="6.73096">
        <ele>1716.8</ele>
        <time>2016-03-22T10:23:35Z</time>
      </trkpt>
      <trkpt lat="46.37578" lon="6.73108">
        <ele>1716.3</ele>
        <time>2016-03-22T10:23:38Z</time>
      </trkpt>
      <trkpt lat="46.37583" lon="6.73116">
        <ele>1713.5</ele>
        <time>2016-03-22T10:23:42Z</time>
      </trkpt>
      <trkpt lat="46.37593" lon="6.73118">
        <ele>1706.6</ele>
        <time>2016-03-22T10:23:46Z</time>
      </trkpt>
      <trkpt lat="46.37605" lon="6.73111">
        <ele>1699.8</ele>
        <time>2016-03-22T10:23:47Z</time>
      </trkpt>
      <trkpt lat="46.3762" lon="6.73114">
        <ele>1694.5</ele>
        <time>2016-03-22T10:23:50Z</time>
      </trkpt>
      <trkpt lat="46.37629" lon="6.73114">
        <ele>1690</ele>
        <time>2016-03-22T10:23:50Z</time>
      </trkpt>
      <trkpt lat="46.37638" lon="6.73111">
        <ele>1686.5</ele>
        <time>2016-03-22T10:23:52Z</time>
      </trkpt>
      <trkpt lat="46.37648" lon="6.73108">
        <ele>1683.3</ele>
        <time>2016-03-22T10:23:52Z</time>
      </trkpt>
      <trkpt lat="46.37657" lon="6.7311">
        <ele>1680.6</ele>
        <time>2016-03-22T10:23:53Z</time>
      </trkpt>
      <trkpt lat="46.37667" lon="6.7311">
        <ele>1677.3</ele>
        <time>2016-03-22T10:23:54Z</time>
      </trkpt>
      <trkpt lat="46.37678" lon="6.73107">
        <ele>1673.1</ele>
        <time>2016-03-22T10:23:56Z</time>
      </trkpt>
      <trkpt lat="46.37688" lon="6.73102">
        <ele>1670</ele>
        <time>2016-03-22T10:23:57Z</time>
      </trkpt>
      <trkpt lat="46.377" lon="6.73101">
        <ele>1667.5</ele>
        <time>2016-03-22T10:23:57Z</time>
      </trkpt>
      <trkpt lat="46.37713" lon="6.73102">
        <ele>1666.9</ele>
        <time>2016-03-22T10:23:58Z</time>
      </trkpt>
      <trkpt lat="46.37724" lon="6.73105">
        <ele>1664.3</ele>
        <time>2016-03-22T10:24:00Z</time>
      </trkpt>
      <trkpt lat="46.37734" lon="6.73105">
        <ele>1661.4</ele>
        <time>2016-03-22T10:24:01Z</time>
      </trkpt>
      <trkpt lat="46.37744" lon="6.73103">
        <ele>1659.4</ele>
        <time>2016-03-22T10:24:01Z</time>
      </trkpt>
      <trkpt lat="46.37755" lon="6.731">
        <ele>1658.3</ele>
        <time>2016-03-22T10:24:02Z</time>
      </trkpt>
      <trkpt lat="46.37764" lon="6.731">
        <ele>1657.1</ele>
        <time>2016-03-22T10:24:03Z</time>
      </trkpt>
      <trkpt lat="46.37773" lon="6.73101">
        <ele>1656</ele>
        <time>2016-03-22T10:24:04Z</time>
      </trkpt>
      <trkpt lat="46.37781" lon="6.73102">
        <ele>1654.4</ele>
        <time>2016-03-22T10:24:05Z</time>
      </trkpt>
      <trkpt lat="46.3779" lon="6.731">
        <ele>1653.4</ele>
        <time>2016-03-22T10:24:06Z</time>
      </trkpt>
      <trkpt lat="46.37798" lon="6.73098">
        <ele>1651.9</ele>
        <time>2016-03-22T10:24:08Z</time>
      </trkpt>
      <trkpt lat="46.37807" lon="6.73095">
        <ele>1650.1</ele>
        <time>2016-03-22T10:24:08Z</time>
      </trkpt>
      <trkpt lat="46.37816" lon="6.73091">
        <ele>1648.4</ele>
        <time>2016-03-22T10:24:09Z</time>
      </trkpt>
      <trkpt lat="46.37824" lon="6.73085">
        <ele>1646.9</ele>
        <time>2016-03-22T10:24:10Z</time>
      </trkpt>
      <trkpt lat="46.3783" lon="6.73076">
        <ele>1644.8</ele>
        <time>2016-03-22T10:24:11Z</time>
      </trkpt>
      <trkpt lat="46.37836" lon="6.73067">
        <ele>1643.5</ele>
        <time>2016-03-22T10:24:12Z</time>
      </trkpt>
      <trkpt lat="46.37843" lon="6.7306">
        <ele>1641.8</ele>
        <time>2016-03-22T10:24:13Z</time>
      </trkpt>
      <trkpt lat="46.37851" lon="6.73058">
        <ele>1640.4</ele>
        <time>2016-03-22T10:24:14Z</time>
      </trkpt>
      <trkpt lat="46.37858" lon="6.73053">
        <ele>1638.8</ele>
        <time>2016-03-22T10:24:15Z</time>
      </trkpt>
      <trkpt lat="46.37864" lon="6.73047">
        <ele>1637.5</ele>
        <time>2016-03-22T10:24:17Z</time>
      </trkpt>
      <trkpt lat="46.3787" lon="6.73031">
        <ele>1635.6</ele>
        <time>2016-03-22T10:24:18Z</time>
      </trkpt>
      <trkpt lat="46.37877" lon="6.73016">
        <ele>1633.6</ele>
        <time>2016-03-22T10:24:20Z</time>
      </trkpt>
      <trkpt lat="46.3789" lon="6.73012">
        <ele>1632.4</ele>
        <time>2016-03-22T10:24:22Z</time>
      </trkpt>
      <trkpt lat="46.37903" lon="6.73003">
        <ele>1631.9</ele>
        <time>2016-03-22T10:24:24Z</time>
      </trkpt>
      <trkpt lat="46.3791" lon="6.73005">
        <ele>1631.5</ele>
        <time>2016-03-22T10:24:26Z</time>
      </trkpt>
      <trkpt lat="46.37915" lon="6.73014">
        <ele>1629.4</ele>
        <time>2016-03-22T10:24:27Z</time>
      </trkpt>
      <trkpt lat="46.37912" lon="6.73024">
        <ele>1622.8</ele>
        <time>2016-03-22T10:24:34Z</time>
      </trkpt>
      <trkpt lat="46.3791" lon="6.73027">
        <ele>1623.6</ele>
        <time>2016-03-22T10:24:40Z</time>
      </trkpt>
      <trkpt lat="46.37906" lon="6.73032">
        <ele>1621.8</ele>
        <time>2016-03-22T10:24:50Z</time>
      </trkpt>
      <trkpt lat="46.379" lon="6.73041">
        <ele>1623.5</ele>
        <time>2016-03-22T10:24:54Z</time>
      </trkpt>
      <trkpt lat="46.37894" lon="6.73049">
        <ele>1627.9</ele>
        <time>2016-03-22T10:24:58Z</time>
      </trkpt>
      <trkpt lat="46.37889" lon="6.73059">
        <ele>1631.5</ele>
        <time>2016-03-22T10:25:02Z</time>
      </trkpt>
      <trkpt lat="46.37883" lon="6.73068">
        <ele>1635.5</ele>
        <time>2016-03-22T10:25:06Z</time>
      </trkpt>
      <trkpt lat="46.37877" lon="6.73077">
        <ele>1640</ele>
        <time>2016-03-22T10:25:10Z</time>
      </trkpt>
      <trkpt lat="46.37872" lon="6.73086">
        <ele>1644</ele>
        <time>2016-03-22T10:25:14Z</time>
      </trkpt>
      <trkpt lat="46.37867" lon="6.73096">
        <ele>1648.5</ele>
        <time>2016-03-22T10:25:18Z</time>
      </trkpt>
      <trkpt lat="46.37861" lon="6.73105">
        <ele>1650</ele>
        <time>2016-03-22T10:25:22Z</time>
      </trkpt>
      <trkpt lat="46.37855" lon="6.73116">
        <ele>1651.3</ele>
        <time>2016-03-22T10:25:26Z</time>
      </trkpt>
      <trkpt lat="46.37849" lon="6.73126">
        <ele>1652.5</ele>
        <time>2016-03-22T10:25:30Z</time>
      </trkpt>
      <trkpt lat="46.37843" lon="6.73136">
        <ele>1653.6</ele>
        <time>2016-03-22T10:25:34Z</time>
      </trkpt>
      <trkpt lat="46.37837" lon="6.73147">
        <ele>1655.1</ele>
        <time>2016-03-22T10:25:38Z</time>
      </trkpt>
      <trkpt lat="46.37831" lon="6.73157">
        <ele>1656.6</ele>
        <time>2016-03-22T10:25:42Z</time>
      </trkpt>
      <trkpt lat="46.37825" lon="6.73168">
        <ele>1658.5</ele>
        <time>2016-03-22T10:25:46Z</time>
      </trkpt>
      <trkpt lat="46.37818" lon="6.73178">
        <ele>1660.4</ele>
        <time>2016-03-22T10:25:50Z</time>
      </trkpt>
      <trkpt lat="46.37812" lon="6.73189">
        <ele>1662.6</ele>
        <time>2016-03-22T10:25:54Z</time>
      </trkpt>
      <trkpt lat="46.37806" lon="6.73198">
        <ele>1662.5</ele>
        <time>2016-03-22T10:25:58Z</time>
      </trkpt>
      <trkpt lat="46.37801" lon="6.73208">
        <ele>1663.3</ele>
        <time>2016-03-22T10:26:02Z</time>
      </trkpt>
      <trkpt lat="46.37794" lon="6.73218">
        <ele>1664.5</ele>
        <time>2016-03-22T10:26:06Z</time>
      </trkpt>
      <trkpt lat="46.37788" lon="6.73229">
        <ele>1665.1</ele>
        <time>2016-03-22T10:26:10Z</time>
      </trkpt>
      <trkpt lat="46.37782" lon="6.73239">
        <ele>1666.3</ele>
        <time>2016-03-22T10:26:14Z</time>
      </trkpt>
      <trkpt lat="46.37776" lon="6.7325">
        <ele>1667.4</ele>
        <time>2016-03-22T10:26:18Z</time>
      </trkpt>
      <trkpt lat="46.3777" lon="6.7326">
        <ele>1669</ele>
        <time>2016-03-22T10:26:22Z</time>
      </trkpt>
      <trkpt lat="46.37764" lon="6.7327">
        <ele>1670.5</ele>
        <time>2016-03-22T10:26:26Z</time>
      </trkpt>
      <trkpt lat="46.37758" lon="6.7328">
        <ele>1672.3</ele>
        <time>2016-03-22T10:26:30Z</time>
      </trkpt>
      <trkpt lat="46.37752" lon="6.7329">
        <ele>1673.5</ele>
        <time>2016-03-22T10:26:34Z</time>
      </trkpt>
      <trkpt lat="46.37746" lon="6.733">
        <ele>1674.1</ele>
        <time>2016-03-22T10:26:38Z</time>
      </trkpt>
      <trkpt lat="46.3774" lon="6.7331">
        <ele>1676.5</ele>
        <time>2016-03-22T10:26:42Z</time>
      </trkpt>
      <trkpt lat="46.37734" lon="6.73318">
        <ele>1675.9</ele>
        <time>2016-03-22T10:26:46Z</time>
      </trkpt>
      <trkpt lat="46.37729" lon="6.73327">
        <ele>1676.8</ele>
        <time>2016-03-22T10:26:50Z</time>
      </trkpt>
      <trkpt lat="46.37723" lon="6.73338">
        <ele>1677.4</ele>
        <time>2016-03-22T10:26:54Z</time>
      </trkpt>
      <trkpt lat="46.37717" lon="6.73348">
        <ele>1678.5</ele>
        <time>2016-03-22T10:26:58Z</time>
      </trkpt>
      <trkpt lat="46.37711" lon="6.73358">
        <ele>1679.5</ele>
        <time>2016-03-22T10:27:02Z</time>
      </trkpt>
      <trkpt lat="46.37706" lon="6.73368">
        <ele>1681.3</ele>
        <time>2016-03-22T10:27:06Z</time>
      </trkpt>
      <trkpt lat="46.377" lon="6.73378">
        <ele>1682.9</ele>
        <time>2016-03-22T10:27:10Z</time>
      </trkpt>
      <trkpt lat="46.37694" lon="6.73388">
        <ele>1684.9</ele>
        <time>2016-03-22T10:27:14Z</time>
      </trkpt>
      <trkpt lat="46.37688" lon="6.73397">
        <ele>1685.3</ele>
        <time>2016-03-22T10:27:18Z</time>
      </trkpt>
      <trkpt lat="46.37682" lon="6.73406">
        <ele>1686.8</ele>
        <time>2016-03-22T10:27:22Z</time>
      </trkpt>
      <trkpt lat="46.37678" lon="6.73417">
        <ele>1688.1</ele>
        <time>2016-03-22T10:27:26Z</time>
      </trkpt>
      <trkpt lat="46.37673" lon="6.73428">
        <ele>1689.6</ele>
        <time>2016-03-22T10:27:30Z</time>
      </trkpt>
      <trkpt lat="46.37669" lon="6.73436">
        <ele>1689.6</ele>
        <time>2016-03-22T10:27:33Z</time>
      </trkpt>
      <trkpt lat="46.37664" lon="6.73448">
        <ele>1692.4</ele>
        <time>2016-03-22T10:27:37Z</time>
      </trkpt>
      <trkpt lat="46.37659" lon="6.73459">
        <ele>1695</ele>
        <time>2016-03-22T10:27:41Z</time>
      </trkpt>
      <trkpt lat="46.37653" lon="6.73469">
        <ele>1700</ele>
        <time>2016-03-22T10:27:45Z</time>
      </trkpt>
      <trkpt lat="46.37647" lon="6.73478">
        <ele>1703.1</ele>
        <time>2016-03-22T10:27:49Z</time>
      </trkpt>
      <trkpt lat="46.3764" lon="6.73486">
        <ele>1709</ele>
        <time>2016-03-22T10:27:53Z</time>
      </trkpt>
      <trkpt lat="46.37633" lon="6.73494">
        <ele>1714.5</ele>
        <time>2016-03-22T10:27:57Z</time>
      </trkpt>
      <trkpt lat="46.37627" lon="6.73502">
        <ele>1717.8</ele>
        <time>2016-03-22T10:28:02Z</time>
      </trkpt>
      <trkpt lat="46.37621" lon="6.73511">
        <ele>1721.8</ele>
        <time>2016-03-22T10:28:06Z</time>
      </trkpt>
      <trkpt lat="46.37615" lon="6.7352">
        <ele>1726</ele>
        <time>2016-03-22T10:28:09Z</time>
      </trkpt>
      <trkpt lat="46.3761" lon="6.73529">
        <ele>1729.9</ele>
        <time>2016-03-22T10:28:13Z</time>
      </trkpt>
      <trkpt lat="46.37604" lon="6.73538">
        <ele>1733.1</ele>
        <time>2016-03-22T10:28:18Z</time>
      </trkpt>
      <trkpt lat="46.37599" lon="6.73547">
        <ele>1737.6</ele>
        <time>2016-03-22T10:28:22Z</time>
      </trkpt>
      <trkpt lat="46.37593" lon="6.73556">
        <ele>1741.9</ele>
        <time>2016-03-22T10:28:26Z</time>
      </trkpt>
      <trkpt lat="46.37588" lon="6.73565">
        <ele>1745.5</ele>
        <time>2016-03-22T10:28:30Z</time>
      </trkpt>
      <trkpt lat="46.37583" lon="6.73574">
        <ele>1749.5</ele>
        <time>2016-03-22T10:28:33Z</time>
      </trkpt>
      <trkpt lat="46.37577" lon="6.73582">
        <ele>1753.5</ele>
        <time>2016-03-22T10:28:37Z</time>
      </trkpt>
      <trkpt lat="46.37571" lon="6.73589">
        <ele>1755</ele>
        <time>2016-03-22T10:28:41Z</time>
      </trkpt>
      <trkpt lat="46.37572" lon="6.73588">
        <ele>1755.1</ele>
        <time>2016-03-22T10:28:49Z</time>
      </trkpt>
      <trkpt lat="46.37573" lon="6.73588">
        <ele>1755.6</ele>
        <time>2016-03-22T10:28:51Z</time>
      </trkpt>
      <trkpt lat="46.37573" lon="6.73591">
        <ele>1756.5</ele>
        <time>2016-03-22T10:29:06Z</time>
      </trkpt>
      <trkpt lat="46.37573" lon="6.73591">
        <ele>1756.5</ele>
        <time>2016-03-22T10:29:06Z</time>
      </trkpt>
      <trkpt lat="46.37569" lon="6.73599">
        <ele>1761.4</ele>
        <time>2016-03-22T10:41:55Z</time>
      </trkpt>
      <trkpt lat="46.37563" lon="6.73608">
        <ele>1764.6</ele>
        <time>2016-03-22T10:42:00Z</time>
      </trkpt>
      <trkpt lat="46.37558" lon="6.73618">
        <ele>1768.5</ele>
        <time>2016-03-22T10:42:04Z</time>
      </trkpt>
      <trkpt lat="46.37552" lon="6.73627">
        <ele>1771.5</ele>
        <time>2016-03-22T10:42:09Z</time>
      </trkpt>
      <trkpt lat="46.37546" lon="6.73637">
        <ele>1774.9</ele>
        <time>2016-03-22T10:42:13Z</time>
      </trkpt>
      <trkpt lat="46.37541" lon="6.73646">
        <ele>1779.1</ele>
        <time>2016-03-22T10:42:17Z</time>
      </trkpt>
      <trkpt lat="46.37535" lon="6.73655">
        <ele>1782.5</ele>
        <time>2016-03-22T10:42:20Z</time>
      </trkpt>
      <trkpt lat="46.37529" lon="6.73665">
        <ele>1786.1</ele>
        <time>2016-03-22T10:42:24Z</time>
      </trkpt>
      <trkpt lat="46.37523" lon="6.73674">
        <ele>1788.9</ele>
        <time>2016-03-22T10:42:28Z</time>
      </trkpt>
      <trkpt lat="46.37518" lon="6.73683">
        <ele>1793.4</ele>
        <time>2016-03-22T10:42:33Z</time>
      </trkpt>
      <trkpt lat="46.37512" lon="6.73692">
        <ele>1797.4</ele>
        <time>2016-03-22T10:42:36Z</time>
      </trkpt>
      <trkpt lat="46.37507" lon="6.73701">
        <ele>1798.9</ele>
        <time>2016-03-22T10:42:40Z</time>
      </trkpt>
      <trkpt lat="46.37501" lon="6.7371">
        <ele>1800.6</ele>
        <time>2016-03-22T10:42:44Z</time>
      </trkpt>
      <trkpt lat="46.37495" lon="6.73719">
        <ele>1802.6</ele>
        <time>2016-03-22T10:42:49Z</time>
      </trkpt>
      <trkpt lat="46.37489" lon="6.73729">
        <ele>1804</ele>
        <time>2016-03-22T10:42:52Z</time>
      </trkpt>
      <trkpt lat="46.37483" lon="6.73739">
        <ele>1807</ele>
        <time>2016-03-22T10:42:57Z</time>
      </trkpt>
      <trkpt lat="46.37477" lon="6.73748">
        <ele>1809</ele>
        <time>2016-03-22T10:43:00Z</time>
      </trkpt>
      <trkpt lat="46.37472" lon="6.73759">
        <ele>1809.5</ele>
        <time>2016-03-22T10:43:04Z</time>
      </trkpt>
      <trkpt lat="46.37466" lon="6.73769">
        <ele>1810.5</ele>
        <time>2016-03-22T10:43:08Z</time>
      </trkpt>
      <trkpt lat="46.3746" lon="6.7378">
        <ele>1812.1</ele>
        <time>2016-03-22T10:43:13Z</time>
      </trkpt>
      <trkpt lat="46.37453" lon="6.7379">
        <ele>1812.4</ele>
        <time>2016-03-22T10:43:17Z</time>
      </trkpt>
      <trkpt lat="46.37448" lon="6.73801">
        <ele>1813.3</ele>
        <time>2016-03-22T10:43:20Z</time>
      </trkpt>
      <trkpt lat="46.37442" lon="6.73811">
        <ele>1814.8</ele>
        <time>2016-03-22T10:43:24Z</time>
      </trkpt>
      <trkpt lat="46.37436" lon="6.73822">
        <ele>1815.5</ele>
        <time>2016-03-22T10:43:29Z</time>
      </trkpt>
      <trkpt lat="46.37429" lon="6.73832">
        <ele>1817</ele>
        <time>2016-03-22T10:43:33Z</time>
      </trkpt>
      <trkpt lat="46.37423" lon="6.73842">
        <ele>1818.5</ele>
        <time>2016-03-22T10:43:36Z</time>
      </trkpt>
      <trkpt lat="46.37418" lon="6.73852">
        <ele>1819.4</ele>
        <time>2016-03-22T10:43:40Z</time>
      </trkpt>
      <trkpt lat="46.37412" lon="6.73863">
        <ele>1820.8</ele>
        <time>2016-03-22T10:43:44Z</time>
      </trkpt>
      <trkpt lat="46.37406" lon="6.73873">
        <ele>1821.5</ele>
        <time>2016-03-22T10:43:49Z</time>
      </trkpt>
      <trkpt lat="46.374" lon="6.73883">
        <ele>1823.6</ele>
        <time>2016-03-22T10:43:52Z</time>
      </trkpt>
      <trkpt lat="46.37394" lon="6.73892">
        <ele>1825.8</ele>
        <time>2016-03-22T10:43:56Z</time>
      </trkpt>
      <trkpt lat="46.37388" lon="6.73902">
        <ele>1829</ele>
        <time>2016-03-22T10:44:01Z</time>
      </trkpt>
      <trkpt lat="46.37383" lon="6.73911">
        <ele>1832</ele>
        <time>2016-03-22T10:44:04Z</time>
      </trkpt>
      <trkpt lat="46.37377" lon="6.73921">
        <ele>1835.3</ele>
        <time>2016-03-22T10:44:09Z</time>
      </trkpt>
      <trkpt lat="46.37371" lon="6.7393">
        <ele>1838.1</ele>
        <time>2016-03-22T10:44:12Z</time>
      </trkpt>
      <trkpt lat="46.37365" lon="6.7394">
        <ele>1841.6</ele>
        <time>2016-03-22T10:44:16Z</time>
      </trkpt>
      <trkpt lat="46.37359" lon="6.73949">
        <ele>1844.4</ele>
        <time>2016-03-22T10:44:20Z</time>
      </trkpt>
      <trkpt lat="46.37353" lon="6.73958">
        <ele>1847.5</ele>
        <time>2016-03-22T10:44:24Z</time>
      </trkpt>
      <trkpt lat="46.37348" lon="6.73968">
        <ele>1850.1</ele>
        <time>2016-03-22T10:44:28Z</time>
      </trkpt>
      <trkpt lat="46.37342" lon="6.73977">
        <ele>1853.5</ele>
        <time>2016-03-22T10:44:33Z</time>
      </trkpt>
      <trkpt lat="46.37337" lon="6.73986">
        <ele>1856.1</ele>
        <time>2016-03-22T10:44:37Z</time>
      </trkpt>
      <trkpt lat="46.37331" lon="6.73996">
        <ele>1859.5</ele>
        <time>2016-03-22T10:44:40Z</time>
      </trkpt>
      <trkpt lat="46.37326" lon="6.74005">
        <ele>1861.9</ele>
        <time>2016-03-22T10:44:44Z</time>
      </trkpt>
      <trkpt lat="46.3732" lon="6.74014">
        <ele>1864.8</ele>
        <time>2016-03-22T10:44:48Z</time>
      </trkpt>
      <trkpt lat="46.37315" lon="6.74023">
        <ele>1867.1</ele>
        <time>2016-03-22T10:44:52Z</time>
      </trkpt>
      <trkpt lat="46.37309" lon="6.74032">
        <ele>1869.8</ele>
        <time>2016-03-22T10:44:56Z</time>
      </trkpt>
      <trkpt lat="46.37303" lon="6.74042">
        <ele>1872.3</ele>
        <time>2016-03-22T10:45:01Z</time>
      </trkpt>
      <trkpt lat="46.37298" lon="6.74051">
        <ele>1876.5</ele>
        <time>2016-03-22T10:45:05Z</time>
      </trkpt>
      <trkpt lat="46.37292" lon="6.74062">
        <ele>1881.1</ele>
        <time>2016-03-22T10:45:08Z</time>
      </trkpt>
      <trkpt lat="46.37286" lon="6.74071">
        <ele>1884.1</ele>
        <time>2016-03-22T10:45:13Z</time>
      </trkpt>
      <trkpt lat="46.3728" lon="6.74081">
        <ele>1887.5</ele>
        <time>2016-03-22T10:45:17Z</time>
      </trkpt>
      <trkpt lat="46.37275" lon="6.7409">
        <ele>1890.9</ele>
        <time>2016-03-22T10:45:21Z</time>
      </trkpt>
      <trkpt lat="46.37269" lon="6.74099">
        <ele>1894.4</ele>
        <time>2016-03-22T10:45:25Z</time>
      </trkpt>
      <trkpt lat="46.37263" lon="6.74107">
        <ele>1896.6</ele>
        <time>2016-03-22T10:45:28Z</time>
      </trkpt>
      <trkpt lat="46.37258" lon="6.74117">
        <ele>1899.3</ele>
        <time>2016-03-22T10:45:32Z</time>
      </trkpt>
      <trkpt lat="46.37252" lon="6.74126">
        <ele>1901.9</ele>
        <time>2016-03-22T10:45:36Z</time>
      </trkpt>
      <trkpt lat="46.37246" lon="6.74136">
        <ele>1905.5</ele>
        <time>2016-03-22T10:45:40Z</time>
      </trkpt>
      <trkpt lat="46.3724" lon="6.74145">
        <ele>1909</ele>
        <time>2016-03-22T10:45:44Z</time>
      </trkpt>
      <trkpt lat="46.37234" lon="6.74155">
        <ele>1912.5</ele>
        <time>2016-03-22T10:45:48Z</time>
      </trkpt>
      <trkpt lat="46.37229" lon="6.74164">
        <ele>1915.4</ele>
        <time>2016-03-22T10:45:52Z</time>
      </trkpt>
      <trkpt lat="46.37223" lon="6.74174">
        <ele>1918</ele>
        <time>2016-03-22T10:45:56Z</time>
      </trkpt>
      <trkpt lat="46.37217" lon="6.74184">
        <ele>1919.5</ele>
        <time>2016-03-22T10:46:00Z</time>
      </trkpt>
      <trkpt lat="46.37211" lon="6.74193">
        <ele>1921.1</ele>
        <time>2016-03-22T10:46:04Z</time>
      </trkpt>
      <trkpt lat="46.37205" lon="6.74203">
        <ele>1922.9</ele>
        <time>2016-03-22T10:46:08Z</time>
      </trkpt>
      <trkpt lat="46.37199" lon="6.74212">
        <ele>1923.8</ele>
        <time>2016-03-22T10:46:12Z</time>
      </trkpt>
      <trkpt lat="46.37193" lon="6.7422">
        <ele>1925</ele>
        <time>2016-03-22T10:46:16Z</time>
      </trkpt>
      <trkpt lat="46.37188" lon="6.74231">
        <ele>1925.5</ele>
        <time>2016-03-22T10:46:20Z</time>
      </trkpt>
      <trkpt lat="46.37184" lon="6.74239">
        <ele>1925.1</ele>
        <time>2016-03-22T10:46:23Z</time>
      </trkpt>
      <trkpt lat="46.3718" lon="6.74248">
        <ele>1924.3</ele>
        <time>2016-03-22T10:46:26Z</time>
      </trkpt>
      <trkpt lat="46.37178" lon="6.74258">
        <ele>1923.1</ele>
        <time>2016-03-22T10:46:27Z</time>
      </trkpt>
      <trkpt lat="46.37177" lon="6.74269">
        <ele>1924</ele>
        <time>2016-03-22T10:46:30Z</time>
      </trkpt>
      <trkpt lat="46.37181" lon="6.7427">
        <ele>1924</ele>
        <time>2016-03-22T10:46:38Z</time>
      </trkpt>
      <trkpt lat="46.3718" lon="6.7427">
        <ele>1924.1</ele>
        <time>2016-03-22T10:46:41Z</time>
      </trkpt>
      <trkpt lat="46.37186" lon="6.74266">
        <ele>1923.6</ele>
        <time>2016-03-22T10:47:14Z</time>
      </trkpt>
      <trkpt lat="46.37194" lon="6.74262">
        <ele>1922.9</ele>
        <time>2016-03-22T10:47:19Z</time>
      </trkpt>
      <trkpt lat="46.37201" lon="6.74259">
        <ele>1922.3</ele>
        <time>2016-03-22T10:47:22Z</time>
      </trkpt>
      <trkpt lat="46.37212" lon="6.74253">
        <ele>1920</ele>
        <time>2016-03-22T10:47:26Z</time>
      </trkpt>
      <trkpt lat="46.37223" lon="6.74248">
        <ele>1918.5</ele>
        <time>2016-03-22T10:47:27Z</time>
      </trkpt>
      <trkpt lat="46.37233" lon="6.74254">
        <ele>1917.5</ele>
        <time>2016-03-22T10:47:30Z</time>
      </trkpt>
      <trkpt lat="46.37239" lon="6.74264">
        <ele>1916</ele>
        <time>2016-03-22T10:47:33Z</time>
      </trkpt>
      <trkpt lat="46.37244" lon="6.74271">
        <ele>1914.3</ele>
        <time>2016-03-22T10:47:35Z</time>
      </trkpt>
      <trkpt lat="46.37251" lon="6.74281">
        <ele>1912.5</ele>
        <time>2016-03-22T10:47:37Z</time>
      </trkpt>
      <trkpt lat="46.37262" lon="6.74281">
        <ele>1910.3</ele>
        <time>2016-03-22T10:47:39Z</time>
      </trkpt>
      <trkpt lat="46.37272" lon="6.74273">
        <ele>1908</ele>
        <time>2016-03-22T10:47:41Z</time>
      </trkpt>
      <trkpt lat="46.37284" lon="6.74276">
        <ele>1913.9</ele>
        <time>2016-03-22T10:47:43Z</time>
      </trkpt>
      <trkpt lat="46.37294" lon="6.74282">
        <ele>1904.8</ele>
        <time>2016-03-22T10:47:45Z</time>
      </trkpt>
      <trkpt lat="46.37303" lon="6.74278">
        <ele>1898.3</ele>
        <time>2016-03-22T10:47:47Z</time>
      </trkpt>
      <trkpt lat="46.37316" lon="6.74283">
        <ele>1892</ele>
        <time>2016-03-22T10:47:49Z</time>
      </trkpt>
      <trkpt lat="46.37326" lon="6.74276">
        <ele>1886</ele>
        <time>2016-03-22T10:47:52Z</time>
      </trkpt>
      <trkpt lat="46.37341" lon="6.74278">
        <ele>1880.1</ele>
        <time>2016-03-22T10:47:54Z</time>
      </trkpt>
      <trkpt lat="46.37349" lon="6.74282">
        <ele>1878.9</ele>
        <time>2016-03-22T10:47:55Z</time>
      </trkpt>
      <trkpt lat="46.37357" lon="6.74285">
        <ele>1877.3</ele>
        <time>2016-03-22T10:47:55Z</time>
      </trkpt>
      <trkpt lat="46.37367" lon="6.74282">
        <ele>1873</ele>
        <time>2016-03-22T10:47:56Z</time>
      </trkpt>
      <trkpt lat="46.37378" lon="6.74273">
        <ele>1866.9</ele>
        <time>2016-03-22T10:47:58Z</time>
      </trkpt>
      <trkpt lat="46.37386" lon="6.74273">
        <ele>1864.4</ele>
        <time>2016-03-22T10:47:59Z</time>
      </trkpt>
      <trkpt lat="46.37395" lon="6.74278">
        <ele>1863</ele>
        <time>2016-03-22T10:48:00Z</time>
      </trkpt>
      <trkpt lat="46.37402" lon="6.74281">
        <ele>1857.1</ele>
        <time>2016-03-22T10:48:02Z</time>
      </trkpt>
      <trkpt lat="46.3741" lon="6.7428">
        <ele>1852.6</ele>
        <time>2016-03-22T10:48:02Z</time>
      </trkpt>
      <trkpt lat="46.3742" lon="6.74281">
        <ele>1848</ele>
        <time>2016-03-22T10:48:03Z</time>
      </trkpt>
      <trkpt lat="46.37428" lon="6.74287">
        <ele>1845.5</ele>
        <time>2016-03-22T10:48:05Z</time>
      </trkpt>
      <trkpt lat="46.37437" lon="6.74291">
        <ele>1843.4</ele>
        <time>2016-03-22T10:48:05Z</time>
      </trkpt>
      <trkpt lat="46.37446" lon="6.74295">
        <ele>1842</ele>
        <time>2016-03-22T10:48:06Z</time>
      </trkpt>
      <trkpt lat="46.37455" lon="6.74291">
        <ele>1839</ele>
        <time>2016-03-22T10:48:08Z</time>
      </trkpt>
      <trkpt lat="46.37464" lon="6.7429">
        <ele>1837</ele>
        <time>2016-03-22T10:48:09Z</time>
      </trkpt>
      <trkpt lat="46.37476" lon="6.74299">
        <ele>1836.5</ele>
        <time>2016-03-22T10:48:09Z</time>
      </trkpt>
      <trkpt lat="46.37485" lon="6.74303">
        <ele>1836</ele>
        <time>2016-03-22T10:48:10Z</time>
      </trkpt>
      <trkpt lat="46.37493" lon="6.74311">
        <ele>1831.9</ele>
        <time>2016-03-22T10:48:12Z</time>
      </trkpt>
      <trkpt lat="46.375" lon="6.74308">
        <ele>1827.9</ele>
        <time>2016-03-22T10:48:13Z</time>
      </trkpt>
      <trkpt lat="46.3751" lon="6.74307">
        <ele>1824.5</ele>
        <time>2016-03-22T10:48:14Z</time>
      </trkpt>
      <trkpt lat="46.3752" lon="6.74311">
        <ele>1821</ele>
        <time>2016-03-22T10:48:16Z</time>
      </trkpt>
      <trkpt lat="46.37528" lon="6.74315">
        <ele>1819.4</ele>
        <time>2016-03-22T10:48:16Z</time>
      </trkpt>
      <trkpt lat="46.37538" lon="6.74315">
        <ele>1816</ele>
        <time>2016-03-22T10:48:17Z</time>
      </trkpt>
      <trkpt lat="46.37548" lon="6.74315">
        <ele>1813.6</ele>
        <time>2016-03-22T10:48:19Z</time>
      </trkpt>
      <trkpt lat="46.37558" lon="6.74313">
        <ele>1809.5</ele>
        <time>2016-03-22T10:48:19Z</time>
      </trkpt>
      <trkpt lat="46.37569" lon="6.74316">
        <ele>1807.6</ele>
        <time>2016-03-22T10:48:21Z</time>
      </trkpt>
      <trkpt lat="46.3758" lon="6.74319">
        <ele>1806.5</ele>
        <time>2016-03-22T10:48:21Z</time>
      </trkpt>
      <trkpt lat="46.3759" lon="6.7432">
        <ele>1805</ele>
        <time>2016-03-22T10:48:22Z</time>
      </trkpt>
      <trkpt lat="46.37604" lon="6.74314">
        <ele>1803.9</ele>
        <time>2016-03-22T10:48:24Z</time>
      </trkpt>
      <trkpt lat="46.37617" lon="6.74311">
        <ele>1802.3</ele>
        <time>2016-03-22T10:48:25Z</time>
      </trkpt>
      <trkpt lat="46.37631" lon="6.74305">
        <ele>1799.9</ele>
        <time>2016-03-22T10:48:26Z</time>
      </trkpt>
      <trkpt lat="46.37646" lon="6.743">
        <ele>1797.5</ele>
        <time>2016-03-22T10:48:26Z</time>
      </trkpt>
      <trkpt lat="46.37659" lon="6.74297">
        <ele>1795</ele>
        <time>2016-03-22T10:48:28Z</time>
      </trkpt>
      <trkpt lat="46.37667" lon="6.74297">
        <ele>1791.3</ele>
        <time>2016-03-22T10:48:28Z</time>
      </trkpt>
      <trkpt lat="46.37678" lon="6.74297">
        <ele>1789.1</ele>
        <time>2016-03-22T10:48:30Z</time>
      </trkpt>
      <trkpt lat="46.37687" lon="6.74297">
        <ele>1788.5</ele>
        <time>2016-03-22T10:48:30Z</time>
      </trkpt>
      <trkpt lat="46.37702" lon="6.74304">
        <ele>1783.5</ele>
        <time>2016-03-22T10:48:32Z</time>
      </trkpt>
      <trkpt lat="46.3771" lon="6.7431">
        <ele>1781.8</ele>
        <time>2016-03-22T10:48:34Z</time>
      </trkpt>
      <trkpt lat="46.37709" lon="6.74309">
        <ele>1775.8</ele>
        <time>2016-03-22T10:48:42Z</time>
      </trkpt>
      <trkpt lat="46.37709" lon="6.74309">
        <ele>1775.4</ele>
        <time>2016-03-22T10:48:48Z</time>
      </trkpt>
      <trkpt lat="46.37705" lon="6.743">
        <ele>1773</ele>
        <time>2016-03-22T10:48:51Z</time>
      </trkpt>
      <trkpt lat="46.37703" lon="6.74287">
        <ele>1772.5</ele>
        <time>2016-03-22T10:48:53Z</time>
      </trkpt>
      <trkpt lat="46.37711" lon="6.74275">
        <ele>1767.9</ele>
        <time>2016-03-22T10:48:55Z</time>
      </trkpt>
      <trkpt lat="46.37721" lon="6.74266">
        <ele>1763.6</ele>
        <time>2016-03-22T10:48:58Z</time>
      </trkpt>
      <trkpt lat="46.3773" lon="6.74255">
        <ele>1762.4</ele>
        <time>2016-03-22T10:48:59Z</time>
      </trkpt>
      <trkpt lat="46.37733" lon="6.74241">
        <ele>1761</ele>
        <time>2016-03-22T10:49:02Z</time>
      </trkpt>
      <trkpt lat="46.37735" lon="6.74231">
        <ele>1759.9</ele>
        <time>2016-03-22T10:49:02Z</time>
      </trkpt>
      <trkpt lat="46.37735" lon="6.74214">
        <ele>1758.6</ele>
        <time>2016-03-22T10:49:04Z</time>
      </trkpt>
      <trkpt lat="46.37735" lon="6.74201">
        <ele>1758.3</ele>
        <time>2016-03-22T10:49:05Z</time>
      </trkpt>
      <trkpt lat="46.37731" lon="6.74189">
        <ele>1757.4</ele>
        <time>2016-03-22T10:49:05Z</time>
      </trkpt>
      <trkpt lat="46.37729" lon="6.74174">
        <ele>1756.8</ele>
        <time>2016-03-22T10:49:06Z</time>
      </trkpt>
      <trkpt lat="46.37737" lon="6.74169">
        <ele>1748.9</ele>
        <time>2016-03-22T10:49:08Z</time>
      </trkpt>
      <trkpt lat="46.37745" lon="6.74153">
        <ele>1745.5</ele>
        <time>2016-03-22T10:49:10Z</time>
      </trkpt>
      <trkpt lat="46.37751" lon="6.74144">
        <ele>1744.9</ele>
        <time>2016-03-22T10:49:12Z</time>
      </trkpt>
      <trkpt lat="46.37759" lon="6.74127">
        <ele>1736.1</ele>
        <time>2016-03-22T10:49:13Z</time>
      </trkpt>
      <trkpt lat="46.37764" lon="6.74118">
        <ele>1731</ele>
        <time>2016-03-22T10:49:15Z</time>
      </trkpt>
      <trkpt lat="46.3777" lon="6.74111">
        <ele>1726.1</ele>
        <time>2016-03-22T10:49:16Z</time>
      </trkpt>
      <trkpt lat="46.37776" lon="6.741">
        <ele>1722.4</ele>
        <time>2016-03-22T10:49:16Z</time>
      </trkpt>
      <trkpt lat="46.3778" lon="6.74089">
        <ele>1717.3</ele>
        <time>2016-03-22T10:49:17Z</time>
      </trkpt>
      <trkpt lat="46.37788" lon="6.7408">
        <ele>1713.4</ele>
        <time>2016-03-22T10:49:19Z</time>
      </trkpt>
      <trkpt lat="46.37794" lon="6.74069">
        <ele>1709.8</ele>
        <time>2016-03-22T10:49:20Z</time>
      </trkpt>
      <trkpt lat="46.37798" lon="6.74056">
        <ele>1707</ele>
        <time>2016-03-22T10:49:21Z</time>
      </trkpt>
      <trkpt lat="46.37805" lon="6.74039">
        <ele>1704.6</ele>
        <time>2016-03-22T10:49:21Z</time>
      </trkpt>
      <trkpt lat="46.37811" lon="6.7402">
        <ele>1703.6</ele>
        <time>2016-03-22T10:49:22Z</time>
      </trkpt>
      <trkpt lat="46.37815" lon="6.74001">
        <ele>1701.9</ele>
        <time>2016-03-22T10:49:23Z</time>
      </trkpt>
      <trkpt lat="46.37818" lon="6.73981">
        <ele>1700.4</ele>
        <time>2016-03-22T10:49:24Z</time>
      </trkpt>
      <trkpt lat="46.37815" lon="6.73969">
        <ele>1698.4</ele>
        <time>2016-03-22T10:49:25Z</time>
      </trkpt>
      <trkpt lat="46.37815" lon="6.73954">
        <ele>1698</ele>
        <time>2016-03-22T10:49:26Z</time>
      </trkpt>
      <trkpt lat="46.37813" lon="6.73938">
        <ele>1697.1</ele>
        <time>2016-03-22T10:49:27Z</time>
      </trkpt>
      <trkpt lat="46.37812" lon="6.73924">
        <ele>1696.9</ele>
        <time>2016-03-22T10:49:28Z</time>
      </trkpt>
      <trkpt lat="46.37813" lon="6.73912">
        <ele>1695</ele>
        <time>2016-03-22T10:49:30Z</time>
      </trkpt>
      <trkpt lat="46.3781" lon="6.739">
        <ele>1693</ele>
        <time>2016-03-22T10:49:30Z</time>
      </trkpt>
      <trkpt lat="46.37809" lon="6.73887">
        <ele>1691.3</ele>
        <time>2016-03-22T10:49:31Z</time>
      </trkpt>
      <trkpt lat="46.37809" lon="6.73872">
        <ele>1689.8</ele>
        <time>2016-03-22T10:49:33Z</time>
      </trkpt>
      <trkpt lat="46.37808" lon="6.73857">
        <ele>1687</ele>
        <time>2016-03-22T10:49:34Z</time>
      </trkpt>
      <trkpt lat="46.37808" lon="6.7384">
        <ele>1684.5</ele>
        <time>2016-03-22T10:49:34Z</time>
      </trkpt>
      <trkpt lat="46.37808" lon="6.7382">
        <ele>1683</ele>
        <time>2016-03-22T10:49:36Z</time>
      </trkpt>
      <trkpt lat="46.3781" lon="6.738">
        <ele>1681.9</ele>
        <time>2016-03-22T10:49:36Z</time>
      </trkpt>
      <trkpt lat="46.37812" lon="6.73781">
        <ele>1681.5</ele>
        <time>2016-03-22T10:49:37Z</time>
      </trkpt>
      <trkpt lat="46.37815" lon="6.73761">
        <ele>1680.5</ele>
        <time>2016-03-22T10:49:39Z</time>
      </trkpt>
      <trkpt lat="46.37818" lon="6.73744">
        <ele>1678</ele>
        <time>2016-03-22T10:49:40Z</time>
      </trkpt>
      <trkpt lat="46.3782" lon="6.73725">
        <ele>1677.5</ele>
        <time>2016-03-22T10:49:40Z</time>
      </trkpt>
      <trkpt lat="46.37822" lon="6.73705">
        <ele>1676.9</ele>
        <time>2016-03-22T10:49:41Z</time>
      </trkpt>
      <trkpt lat="46.37824" lon="6.73686">
        <ele>1676.5</ele>
        <time>2016-03-22T10:49:43Z</time>
      </trkpt>
      <trkpt lat="46.37826" lon="6.73665">
        <ele>1675.5</ele>
        <time>2016-03-22T10:49:44Z</time>
      </trkpt>
      <trkpt lat="46.37828" lon="6.73645">
        <ele>1674.4</ele>
        <time>2016-03-22T10:49:44Z</time>
      </trkpt>
      <trkpt lat="46.3783" lon="6.73626">
        <ele>1673.5</ele>
        <time>2016-03-22T10:49:45Z</time>
      </trkpt>
      <trkpt lat="46.37832" lon="6.73606">
        <ele>1673</ele>
        <time>2016-03-22T10:49:47Z</time>
      </trkpt>
      <trkpt lat="46.37836" lon="6.73587">
        <ele>1672.8</ele>
        <time>2016-03-22T10:49:47Z</time>
      </trkpt>
      <trkpt lat="46.37839" lon="6.73568">
        <ele>1672.4</ele>
        <time>2016-03-22T10:49:48Z</time>
      </trkpt>
      <trkpt lat="46.37844" lon="6.73549">
        <ele>1672.1</ele>
        <time>2016-03-22T10:49:49Z</time>
      </trkpt>
      <trkpt lat="46.37848" lon="6.73532">
        <ele>1672.3</ele>
        <time>2016-03-22T10:49:50Z</time>
      </trkpt>
      <trkpt lat="46.37852" lon="6.73514">
        <ele>1672.3</ele>
        <time>2016-03-22T10:49:52Z</time>
      </trkpt>
      <trkpt lat="46.37855" lon="6.73496">
        <ele>1672</ele>
        <time>2016-03-22T10:49:52Z</time>
      </trkpt>
      <trkpt lat="46.37859" lon="6.7348">
        <ele>1671</ele>
        <time>2016-03-22T10:49:54Z</time>
      </trkpt>
      <trkpt lat="46.37862" lon="6.73464">
        <ele>1670.1</ele>
        <time>2016-03-22T10:49:54Z</time>
      </trkpt>
      <trkpt lat="46.37865" lon="6.7345">
        <ele>1668.5</ele>
        <time>2016-03-22T10:49:56Z</time>
      </trkpt>
      <trkpt lat="46.37868" lon="6.73435">
        <ele>1667.8</ele>
        <time>2016-03-22T10:49:57Z</time>
      </trkpt>
      <trkpt lat="46.3787" lon="6.73418">
        <ele>1667.3</ele>
        <time>2016-03-22T10:49:57Z</time>
      </trkpt>
      <trkpt lat="46.37872" lon="6.73402">
        <ele>1667.1</ele>
        <time>2016-03-22T10:49:59Z</time>
      </trkpt>
      <trkpt lat="46.37875" lon="6.7339">
        <ele>1665.5</ele>
        <time>2016-03-22T10:49:59Z</time>
      </trkpt>
      <trkpt lat="46.37877" lon="6.73375">
        <ele>1664.9</ele>
        <time>2016-03-22T10:50:00Z</time>
      </trkpt>
      <trkpt lat="46.3788" lon="6.73362">
        <ele>1664</ele>
        <time>2016-03-22T10:50:02Z</time>
      </trkpt>
      <trkpt lat="46.37882" lon="6.73348">
        <ele>1663.4</ele>
        <time>2016-03-22T10:50:03Z</time>
      </trkpt>
      <trkpt lat="46.37887" lon="6.73337">
        <ele>1661.9</ele>
        <time>2016-03-22T10:50:04Z</time>
      </trkpt>
      <trkpt lat="46.37897" lon="6.73353">
        <ele>1650.5</ele>
        <time>2016-03-22T10:50:04Z</time>
      </trkpt>
      <trkpt lat="46.37908" lon="6.73339">
        <ele>1647.1</ele>
        <time>2016-03-22T10:50:06Z</time>
      </trkpt>
      <trkpt lat="46.37914" lon="6.73333">
        <ele>1645.5</ele>
        <time>2016-03-22T10:50:08Z</time>
      </trkpt>
      <trkpt lat="46.37917" lon="6.73323">
        <ele>1644.8</ele>
        <time>2016-03-22T10:50:09Z</time>
      </trkpt>
      <trkpt lat="46.37921" lon="6.73314">
        <ele>1644.3</ele>
        <time>2016-03-22T10:50:09Z</time>
      </trkpt>
      <trkpt lat="46.37924" lon="6.73304">
        <ele>1644.1</ele>
        <time>2016-03-22T10:50:10Z</time>
      </trkpt>
      <trkpt lat="46.37927" lon="6.73292">
        <ele>1643.5</ele>
        <time>2016-03-22T10:50:12Z</time>
      </trkpt>
      <trkpt lat="46.3793" lon="6.73281">
        <ele>1643</ele>
        <time>2016-03-22T10:50:13Z</time>
      </trkpt>
      <trkpt lat="46.37932" lon="6.7327">
        <ele>1642.9</ele>
        <time>2016-03-22T10:50:13Z</time>
      </trkpt>
      <trkpt lat="46.37935" lon="6.73259">
        <ele>1642.5</ele>
        <time>2016-03-22T10:50:14Z</time>
      </trkpt>
      <trkpt lat="46.3794" lon="6.73242">
        <ele>1639.6</ele>
        <time>2016-03-22T10:50:17Z</time>
      </trkpt>
      <trkpt lat="46.37943" lon="6.73233">
        <ele>1639.8</ele>
        <time>2016-03-22T10:50:17Z</time>
      </trkpt>
      <trkpt lat="46.37947" lon="6.73215">
        <ele>1639.8</ele>
        <time>2016-03-22T10:50:20Z</time>
      </trkpt>
      <trkpt lat="46.37951" lon="6.73201">
        <ele>1639.5</ele>
        <time>2016-03-22T10:50:21Z</time>
      </trkpt>
      <trkpt lat="46.37953" lon="6.73187">
        <ele>1639</ele>
        <time>2016-03-22T10:50:25Z</time>
      </trkpt>
      <trkpt lat="46.37953" lon="6.73173">
        <ele>1638.6</ele>
        <time>2016-03-22T10:50:27Z</time>
      </trkpt>
      <trkpt lat="46.37953" lon="6.73162">
        <ele>1639</ele>
        <time>2016-03-22T10:50:30Z</time>
      </trkpt>
      <trkpt lat="46.37951" lon="6.73149">
        <ele>1639.6</ele>
        <time>2016-03-22T10:50:32Z</time>
      </trkpt>
      <trkpt lat="46.37952" lon="6.73137">
        <ele>1639</ele>
        <time>2016-03-22T10:50:36Z</time>
      </trkpt>
      <trkpt lat="46.37953" lon="6.73125">
        <ele>1638.4</ele>
        <time>2016-03-22T10:50:41Z</time>
      </trkpt>
      <trkpt lat="46.37956" lon="6.7313">
        <ele>1637</ele>
        <time>2016-03-22T10:50:49Z</time>
      </trkpt>
      <trkpt lat="46.37957" lon="6.7313">
        <ele>1637</ele>
        <time>2016-03-22T10:50:52Z</time>
      </trkpt>
      <trkpt lat="46.37959" lon="6.73131">
        <ele>1635.8</ele>
        <time>2016-03-22T10:51:13Z</time>
      </trkpt>
      <trkpt lat="46.37959" lon="6.73122">
        <ele>1636.3</ele>
        <time>2016-03-22T10:51:20Z</time>
      </trkpt>
      <trkpt lat="46.3796" lon="6.7312">
        <ele>1636.5</ele>
        <time>2016-03-22T10:52:03Z</time>
      </trkpt>
      <trkpt lat="46.3796" lon="6.7312">
        <ele>1636.5</ele>
        <time>2016-03-22T10:52:04Z</time>
      </trkpt>
      <trkpt lat="46.37958" lon="6.73107">
        <ele>1635</ele>
        <time>2016-03-22T10:53:43Z</time>
      </trkpt>
      <trkpt lat="46.37957" lon="6.73096">
        <ele>1635</ele>
        <time>2016-03-22T10:53:47Z</time>
      </trkpt>
      <trkpt lat="46.37955" lon="6.73085">
        <ele>1634.1</ele>
        <time>2016-03-22T10:53:50Z</time>
      </trkpt>
      <trkpt lat="46.37953" lon="6.73074">
        <ele>1633.4</ele>
        <time>2016-03-22T10:53:52Z</time>
      </trkpt>
      <trkpt lat="46.37951" lon="6.73062">
        <ele>1625.5</ele>
        <time>2016-03-22T10:53:56Z</time>
      </trkpt>
      <trkpt lat="46.37948" lon="6.73049">
        <ele>1624.1</ele>
        <time>2016-03-22T10:53:59Z</time>
      </trkpt>
      <trkpt lat="46.37946" lon="6.73037">
        <ele>1622</ele>
        <time>2016-03-22T10:54:01Z</time>
      </trkpt>
      <trkpt lat="46.37945" lon="6.73025">
        <ele>1621.1</ele>
        <time>2016-03-22T10:54:03Z</time>
      </trkpt>
      <trkpt lat="46.37942" lon="6.73013">
        <ele>1623.1</ele>
        <time>2016-03-22T10:54:05Z</time>
      </trkpt>
      <trkpt lat="46.37939" lon="6.73003">
        <ele>1625.5</ele>
        <time>2016-03-22T10:54:13Z</time>
      </trkpt>
      <trkpt lat="46.37931" lon="6.72998">
        <ele>1624.8</ele>
        <time>2016-03-22T10:54:33Z</time>
      </trkpt>
      <trkpt lat="46.3793" lon="6.72999">
        <ele>1625.6</ele>
        <time>2016-03-22T10:54:37Z</time>
      </trkpt>
      <trkpt lat="46.37924" lon="6.73001">
        <ele>1624.8</ele>
        <time>2016-03-22T10:54:46Z</time>
      </trkpt>
      <trkpt lat="46.37919" lon="6.73008">
        <ele>1626.6</ele>
        <time>2016-03-22T10:54:52Z</time>
      </trkpt>
      <trkpt lat="46.37913" lon="6.73014">
        <ele>1629.9</ele>
        <time>2016-03-22T10:54:59Z</time>
      </trkpt>
      <trkpt lat="46.37911" lon="6.73025">
        <ele>1633</ele>
        <time>2016-03-22T10:55:04Z</time>
      </trkpt>
      <trkpt lat="46.37911" lon="6.73027">
        <ele>1630.6</ele>
        <time>2016-03-22T10:55:10Z</time>
      </trkpt>
      <trkpt lat="46.37908" lon="6.7303">
        <ele>1629.1</ele>
        <time>2016-03-22T10:55:18Z</time>
      </trkpt>
      <trkpt lat="46.37901" lon="6.73039">
        <ele>1632</ele>
        <time>2016-03-22T10:55:23Z</time>
      </trkpt>
      <trkpt lat="46.37895" lon="6.73049">
        <ele>1635</ele>
        <time>2016-03-22T10:55:28Z</time>
      </trkpt>
      <trkpt lat="46.37889" lon="6.73059">
        <ele>1637.5</ele>
        <time>2016-03-22T10:55:32Z</time>
      </trkpt>
      <trkpt lat="46.37883" lon="6.7307">
        <ele>1642.3</ele>
        <time>2016-03-22T10:55:36Z</time>
      </trkpt>
      <trkpt lat="46.37877" lon="6.7308">
        <ele>1645.8</ele>
        <time>2016-03-22T10:55:40Z</time>
      </trkpt>
      <trkpt lat="46.3787" lon="6.73089">
        <ele>1648.9</ele>
        <time>2016-03-22T10:55:44Z</time>
      </trkpt>
      <trkpt lat="46.37864" lon="6.73098">
        <ele>1650.6</ele>
        <time>2016-03-22T10:55:47Z</time>
      </trkpt>
      <trkpt lat="46.37858" lon="6.73108">
        <ele>1651.6</ele>
        <time>2016-03-22T10:55:51Z</time>
      </trkpt>
      <trkpt lat="46.37853" lon="6.73116">
        <ele>1652.8</ele>
        <time>2016-03-22T10:55:55Z</time>
      </trkpt>
      <trkpt lat="46.37848" lon="6.73124">
        <ele>1653.5</ele>
        <time>2016-03-22T10:55:58Z</time>
      </trkpt>
      <trkpt lat="46.37844" lon="6.73132">
        <ele>1654.8</ele>
        <time>2016-03-22T10:56:00Z</time>
      </trkpt>
      <trkpt lat="46.37839" lon="6.7314">
        <ele>1655.5</ele>
        <time>2016-03-22T10:56:04Z</time>
      </trkpt>
      <trkpt lat="46.37835" lon="6.73149">
        <ele>1657.4</ele>
        <time>2016-03-22T10:56:07Z</time>
      </trkpt>
      <trkpt lat="46.3783" lon="6.73157">
        <ele>1658.8</ele>
        <time>2016-03-22T10:56:09Z</time>
      </trkpt>
      <trkpt lat="46.37824" lon="6.73169">
        <ele>1661.5</ele>
        <time>2016-03-22T10:56:14Z</time>
      </trkpt>
      <trkpt lat="46.37818" lon="6.7318">
        <ele>1663.5</ele>
        <time>2016-03-22T10:56:17Z</time>
      </trkpt>
      <trkpt lat="46.37814" lon="6.73188">
        <ele>1664.9</ele>
        <time>2016-03-22T10:56:21Z</time>
      </trkpt>
      <trkpt lat="46.37809" lon="6.73197">
        <ele>1666.8</ele>
        <time>2016-03-22T10:56:23Z</time>
      </trkpt>
      <trkpt lat="46.37804" lon="6.73207">
        <ele>1666.5</ele>
        <time>2016-03-22T10:56:27Z</time>
      </trkpt>
      <trkpt lat="46.37798" lon="6.73218">
        <ele>1667.5</ele>
        <time>2016-03-22T10:56:32Z</time>
      </trkpt>
      <trkpt lat="46.37793" lon="6.73226">
        <ele>1668.6</ele>
        <time>2016-03-22T10:56:35Z</time>
      </trkpt>
      <trkpt lat="46.37787" lon="6.73236">
        <ele>1669.4</ele>
        <time>2016-03-22T10:56:39Z</time>
      </trkpt>
      <trkpt lat="46.37781" lon="6.73246">
        <ele>1671</ele>
        <time>2016-03-22T10:56:42Z</time>
      </trkpt>
      <trkpt lat="46.37777" lon="6.73255">
        <ele>1672</ele>
        <time>2016-03-22T10:56:46Z</time>
      </trkpt>
      <trkpt lat="46.37772" lon="6.73263">
        <ele>1673</ele>
        <time>2016-03-22T10:56:49Z</time>
      </trkpt>
      <trkpt lat="46.37766" lon="6.73273">
        <ele>1674.5</ele>
        <time>2016-03-22T10:56:53Z</time>
      </trkpt>
      <trkpt lat="46.3776" lon="6.73283">
        <ele>1676</ele>
        <time>2016-03-22T10:56:57Z</time>
      </trkpt>
      <trkpt lat="46.37754" lon="6.73294">
        <ele>1677.6</ele>
        <time>2016-03-22T10:57:00Z</time>
      </trkpt>
      <trkpt lat="46.37748" lon="6.73304">
        <ele>1678.8</ele>
        <time>2016-03-22T10:57:04Z</time>
      </trkpt>
      <trkpt lat="46.37742" lon="6.73314">
        <ele>1680.6</ele>
        <time>2016-03-22T10:57:09Z</time>
      </trkpt>
      <trkpt lat="46.37736" lon="6.73324">
        <ele>1682</ele>
        <time>2016-03-22T10:57:13Z</time>
      </trkpt>
      <trkpt lat="46.3773" lon="6.73334">
        <ele>1683</ele>
        <time>2016-03-22T10:57:17Z</time>
      </trkpt>
      <trkpt lat="46.37724" lon="6.73344">
        <ele>1683.9</ele>
        <time>2016-03-22T10:57:21Z</time>
      </trkpt>
      <trkpt lat="46.37718" lon="6.73355">
        <ele>1685</ele>
        <time>2016-03-22T10:57:25Z</time>
      </trkpt>
      <trkpt lat="46.37712" lon="6.73365">
        <ele>1686</ele>
        <time>2016-03-22T10:57:29Z</time>
      </trkpt>
      <trkpt lat="46.37706" lon="6.73375">
        <ele>1687.3</ele>
        <time>2016-03-22T10:57:32Z</time>
      </trkpt>
      <trkpt lat="46.37701" lon="6.73384">
        <ele>1687.9</ele>
        <time>2016-03-22T10:57:37Z</time>
      </trkpt>
      <trkpt lat="46.37695" lon="6.73393">
        <ele>1689.1</ele>
        <time>2016-03-22T10:57:40Z</time>
      </trkpt>
      <trkpt lat="46.37689" lon="6.73402">
        <ele>1690.5</ele>
        <time>2016-03-22T10:57:45Z</time>
      </trkpt>
      <trkpt lat="46.37683" lon="6.73411">
        <ele>1692.4</ele>
        <time>2016-03-22T10:57:49Z</time>
      </trkpt>
      <trkpt lat="46.37677" lon="6.73421">
        <ele>1695.6</ele>
        <time>2016-03-22T10:57:53Z</time>
      </trkpt>
      <trkpt lat="46.37671" lon="6.73429">
        <ele>1698.9</ele>
        <time>2016-03-22T10:57:57Z</time>
      </trkpt>
      <trkpt lat="46.37666" lon="6.73439">
        <ele>1702.4</ele>
        <time>2016-03-22T10:58:01Z</time>
      </trkpt>
      <trkpt lat="46.3766" lon="6.73448">
        <ele>1705.6</ele>
        <time>2016-03-22T10:58:04Z</time>
      </trkpt>
      <trkpt lat="46.37654" lon="6.73457">
        <ele>1709.3</ele>
        <time>2016-03-22T10:58:08Z</time>
      </trkpt>
      <trkpt lat="46.37649" lon="6.73466">
        <ele>1712.9</ele>
        <time>2016-03-22T10:58:13Z</time>
      </trkpt>
      <trkpt lat="46.37643" lon="6.73475">
        <ele>1716.4</ele>
        <time>2016-03-22T10:58:17Z</time>
      </trkpt>
      <trkpt lat="46.37638" lon="6.73484">
        <ele>1720.4</ele>
        <time>2016-03-22T10:58:21Z</time>
      </trkpt>
      <trkpt lat="46.37632" lon="6.73493">
        <ele>1723.5</ele>
        <time>2016-03-22T10:58:25Z</time>
      </trkpt>
      <trkpt lat="46.37627" lon="6.73502">
        <ele>1726.8</ele>
        <time>2016-03-22T10:58:29Z</time>
      </trkpt>
      <trkpt lat="46.37621" lon="6.73511">
        <ele>1730</ele>
        <time>2016-03-22T10:58:33Z</time>
      </trkpt>
      <trkpt lat="46.37615" lon="6.7352">
        <ele>1733.5</ele>
        <time>2016-03-22T10:58:36Z</time>
      </trkpt>
      <trkpt lat="46.3761" lon="6.7353">
        <ele>1737.4</ele>
        <time>2016-03-22T10:58:40Z</time>
      </trkpt>
      <trkpt lat="46.37604" lon="6.73539">
        <ele>1741</ele>
        <time>2016-03-22T10:58:45Z</time>
      </trkpt>
      <trkpt lat="46.37598" lon="6.73548">
        <ele>1744.9</ele>
        <time>2016-03-22T10:58:48Z</time>
      </trkpt>
      <trkpt lat="46.37593" lon="6.73557">
        <ele>1749</ele>
        <time>2016-03-22T10:58:52Z</time>
      </trkpt>
      <trkpt lat="46.37587" lon="6.73566">
        <ele>1753.1</ele>
        <time>2016-03-22T10:58:57Z</time>
      </trkpt>
      <trkpt lat="46.37582" lon="6.73575">
        <ele>1757.1</ele>
        <time>2016-03-22T10:59:01Z</time>
      </trkpt>
      <trkpt lat="46.37576" lon="6.73584">
        <ele>1761</ele>
        <time>2016-03-22T10:59:05Z</time>
      </trkpt>
      <trkpt lat="46.37571" lon="6.73593">
        <ele>1764.1</ele>
        <time>2016-03-22T10:59:08Z</time>
      </trkpt>
      <trkpt lat="46.37565" lon="6.73603">
        <ele>1767.1</ele>
        <time>2016-03-22T10:59:13Z</time>
      </trkpt>
      <trkpt lat="46.37559" lon="6.73612">
        <ele>1770.3</ele>
        <time>2016-03-22T10:59:17Z</time>
      </trkpt>
      <trkpt lat="46.37554" lon="6.73622">
        <ele>1773.6</ele>
        <time>2016-03-22T10:59:20Z</time>
      </trkpt>
      <trkpt lat="46.37548" lon="6.73631">
        <ele>1777</ele>
        <time>2016-03-22T10:59:25Z</time>
      </trkpt>
      <trkpt lat="46.37542" lon="6.73641">
        <ele>1780.6</ele>
        <time>2016-03-22T10:59:29Z</time>
      </trkpt>
      <trkpt lat="46.37537" lon="6.7365">
        <ele>1783.6</ele>
        <time>2016-03-22T10:59:33Z</time>
      </trkpt>
      <trkpt lat="46.37531" lon="6.7366">
        <ele>1787.3</ele>
        <time>2016-03-22T10:59:37Z</time>
      </trkpt>
      <trkpt lat="46.37526" lon="6.7367">
        <ele>1791</ele>
        <time>2016-03-22T10:59:40Z</time>
      </trkpt>
      <trkpt lat="46.3752" lon="6.73679">
        <ele>1794.8</ele>
        <time>2016-03-22T10:59:44Z</time>
      </trkpt>
      <trkpt lat="46.37514" lon="6.73689">
        <ele>1798.5</ele>
        <time>2016-03-22T10:59:48Z</time>
      </trkpt>
      <trkpt lat="46.37509" lon="6.73698">
        <ele>1802</ele>
        <time>2016-03-22T10:59:52Z</time>
      </trkpt>
      <trkpt lat="46.37503" lon="6.73707">
        <ele>1803.9</ele>
        <time>2016-03-22T10:59:56Z</time>
      </trkpt>
      <trkpt lat="46.37497" lon="6.73717">
        <ele>1805.6</ele>
        <time>2016-03-22T11:00:01Z</time>
      </trkpt>
      <trkpt lat="46.37491" lon="6.73727">
        <ele>1808</ele>
        <time>2016-03-22T11:00:05Z</time>
      </trkpt>
      <trkpt lat="46.37486" lon="6.73737">
        <ele>1810.6</ele>
        <time>2016-03-22T11:00:09Z</time>
      </trkpt>
      <trkpt lat="46.3748" lon="6.73747">
        <ele>1812.8</ele>
        <time>2016-03-22T11:00:12Z</time>
      </trkpt>
      <trkpt lat="46.37474" lon="6.73756">
        <ele>1813.8</ele>
        <time>2016-03-22T11:00:16Z</time>
      </trkpt>
      <trkpt lat="46.37468" lon="6.73765">
        <ele>1814.3</ele>
        <time>2016-03-22T11:00:21Z</time>
      </trkpt>
      <trkpt lat="46.37462" lon="6.73775">
        <ele>1814.3</ele>
        <time>2016-03-22T11:00:25Z</time>
      </trkpt>
      <trkpt lat="46.37456" lon="6.73785">
        <ele>1814.4</ele>
        <time>2016-03-22T11:00:29Z</time>
      </trkpt>
      <trkpt lat="46.37451" lon="6.73795">
        <ele>1814.5</ele>
        <time>2016-03-22T11:00:33Z</time>
      </trkpt>
      <trkpt lat="46.37445" lon="6.73805">
        <ele>1815.3</ele>
        <time>2016-03-22T11:00:37Z</time>
      </trkpt>
      <trkpt lat="46.37438" lon="6.73815">
        <ele>1815.4</ele>
        <time>2016-03-22T11:00:41Z</time>
      </trkpt>
      <trkpt lat="46.37433" lon="6.73825">
        <ele>1816.1</ele>
        <time>2016-03-22T11:00:44Z</time>
      </trkpt>
      <trkpt lat="46.37427" lon="6.73835">
        <ele>1816.5</ele>
        <time>2016-03-22T11:00:49Z</time>
      </trkpt>
      <trkpt lat="46.37421" lon="6.73844">
        <ele>1817</ele>
        <time>2016-03-22T11:00:53Z</time>
      </trkpt>
      <trkpt lat="46.37415" lon="6.73854">
        <ele>1818</ele>
        <time>2016-03-22T11:00:57Z</time>
      </trkpt>
      <trkpt lat="46.37409" lon="6.73865">
        <ele>1819.4</ele>
        <time>2016-03-22T11:01:01Z</time>
      </trkpt>
      <trkpt lat="46.37403" lon="6.73874">
        <ele>1821</ele>
        <time>2016-03-22T11:01:04Z</time>
      </trkpt>
      <trkpt lat="46.37397" lon="6.73885">
        <ele>1823.4</ele>
        <time>2016-03-22T11:01:08Z</time>
      </trkpt>
      <trkpt lat="46.37391" lon="6.73894">
        <ele>1827</ele>
        <time>2016-03-22T11:01:12Z</time>
      </trkpt>
      <trkpt lat="46.37385" lon="6.73904">
        <ele>1830.8</ele>
        <time>2016-03-22T11:01:16Z</time>
      </trkpt>
      <trkpt lat="46.3738" lon="6.73913">
        <ele>1833.9</ele>
        <time>2016-03-22T11:01:20Z</time>
      </trkpt>
      <trkpt lat="46.37374" lon="6.73923">
        <ele>1836.6</ele>
        <time>2016-03-22T11:01:24Z</time>
      </trkpt>
      <trkpt lat="46.37368" lon="6.73932">
        <ele>1839.9</ele>
        <time>2016-03-22T11:01:28Z</time>
      </trkpt>
      <trkpt lat="46.37362" lon="6.73941">
        <ele>1843</ele>
        <time>2016-03-22T11:01:32Z</time>
      </trkpt>
      <trkpt lat="46.37357" lon="6.7395">
        <ele>1846.5</ele>
        <time>2016-03-22T11:01:36Z</time>
      </trkpt>
      <trkpt lat="46.37352" lon="6.7396">
        <ele>1849.9</ele>
        <time>2016-03-22T11:01:41Z</time>
      </trkpt>
      <trkpt lat="46.37346" lon="6.73969">
        <ele>1853.3</ele>
        <time>2016-03-22T11:01:44Z</time>
      </trkpt>
      <trkpt lat="46.3734" lon="6.73979">
        <ele>1856.6</ele>
        <time>2016-03-22T11:01:48Z</time>
      </trkpt>
      <trkpt lat="46.37335" lon="6.73988">
        <ele>1859.5</ele>
        <time>2016-03-22T11:01:53Z</time>
      </trkpt>
      <trkpt lat="46.37329" lon="6.73997">
        <ele>1862.1</ele>
        <time>2016-03-22T11:01:57Z</time>
      </trkpt>
      <trkpt lat="46.37323" lon="6.74006">
        <ele>1865.5</ele>
        <time>2016-03-22T11:02:01Z</time>
      </trkpt>
      <trkpt lat="46.37317" lon="6.74016">
        <ele>1868.6</ele>
        <time>2016-03-22T11:02:05Z</time>
      </trkpt>
      <trkpt lat="46.37311" lon="6.74026">
        <ele>1871.8</ele>
        <time>2016-03-22T11:02:09Z</time>
      </trkpt>
      <trkpt lat="46.37306" lon="6.74035">
        <ele>1874.9</ele>
        <time>2016-03-22T11:02:13Z</time>
      </trkpt>
      <trkpt lat="46.373" lon="6.74045">
        <ele>1877.6</ele>
        <time>2016-03-22T11:02:16Z</time>
      </trkpt>
      <trkpt lat="46.37294" lon="6.74054">
        <ele>1880.6</ele>
        <time>2016-03-22T11:02:20Z</time>
      </trkpt>
      <trkpt lat="46.37289" lon="6.74064">
        <ele>1884</ele>
        <time>2016-03-22T11:02:25Z</time>
      </trkpt>
      <trkpt lat="46.37283" lon="6.74073">
        <ele>1887.8</ele>
        <time>2016-03-22T11:02:29Z</time>
      </trkpt>
      <trkpt lat="46.37277" lon="6.74082">
        <ele>1891</ele>
        <time>2016-03-22T11:02:33Z</time>
      </trkpt>
      <trkpt lat="46.37272" lon="6.74092">
        <ele>1894</ele>
        <time>2016-03-22T11:02:37Z</time>
      </trkpt>
      <trkpt lat="46.37266" lon="6.74101">
        <ele>1896.6</ele>
        <time>2016-03-22T11:02:41Z</time>
      </trkpt>
      <trkpt lat="46.37261" lon="6.7411">
        <ele>1900.1</ele>
        <time>2016-03-22T11:02:45Z</time>
      </trkpt>
      <trkpt lat="46.37255" lon="6.7412">
        <ele>1903</ele>
        <time>2016-03-22T11:02:48Z</time>
      </trkpt>
      <trkpt lat="46.37249" lon="6.7413">
        <ele>1906</ele>
        <time>2016-03-22T11:02:52Z</time>
      </trkpt>
      <trkpt lat="46.37243" lon="6.74139">
        <ele>1909</ele>
        <time>2016-03-22T11:02:56Z</time>
      </trkpt>
      <trkpt lat="46.37238" lon="6.74149">
        <ele>1913</ele>
        <time>2016-03-22T11:03:00Z</time>
      </trkpt>
      <trkpt lat="46.37232" lon="6.74159">
        <ele>1916.5</ele>
        <time>2016-03-22T11:03:05Z</time>
      </trkpt>
      <trkpt lat="46.37226" lon="6.74168">
        <ele>1919.6</ele>
        <time>2016-03-22T11:03:09Z</time>
      </trkpt>
      <trkpt lat="46.37221" lon="6.74178">
        <ele>1921.8</ele>
        <time>2016-03-22T11:03:13Z</time>
      </trkpt>
      <trkpt lat="46.37215" lon="6.74187">
        <ele>1923.1</ele>
        <time>2016-03-22T11:03:17Z</time>
      </trkpt>
      <trkpt lat="46.37209" lon="6.74197">
        <ele>1925.5</ele>
        <time>2016-03-22T11:03:21Z</time>
      </trkpt>
      <trkpt lat="46.37203" lon="6.74207">
        <ele>1927.3</ele>
        <time>2016-03-22T11:03:24Z</time>
      </trkpt>
      <trkpt lat="46.37197" lon="6.74216">
        <ele>1929.6</ele>
        <time>2016-03-22T11:03:28Z</time>
      </trkpt>
      <trkpt lat="46.37192" lon="6.74225">
        <ele>1929.8</ele>
        <time>2016-03-22T11:03:32Z</time>
      </trkpt>
      <trkpt lat="46.37186" lon="6.74235">
        <ele>1929</ele>
        <time>2016-03-22T11:03:37Z</time>
      </trkpt>
      <trkpt lat="46.3718" lon="6.74247">
        <ele>1927.8</ele>
        <time>2016-03-22T11:03:41Z</time>
      </trkpt>
      <trkpt lat="46.37179" lon="6.74257">
        <ele>1927.8</ele>
        <time>2016-03-22T11:03:43Z</time>
      </trkpt>
      <trkpt lat="46.37184" lon="6.7427">
        <ele>1928.6</ele>
        <time>2016-03-22T11:03:46Z</time>
      </trkpt>
      <trkpt lat="46.37188" lon="6.74279">
        <ele>1928.3</ele>
        <time>2016-03-22T11:03:49Z</time>
      </trkpt>
      <trkpt lat="46.37186" lon="6.74277">
        <ele>1928</ele>
        <time>2016-03-22T11:03:55Z</time>
      </trkpt>
      <trkpt lat="46.37186" lon="6.74277">
        <ele>1928</ele>
        <time>2016-03-22T11:03:57Z</time>
      </trkpt>
      <trkpt lat="46.37185" lon="6.74274">
        <ele>1926.4</ele>
        <time>2016-03-22T11:04:32Z</time>
      </trkpt>
      <trkpt lat="46.37185" lon="6.74274">
        <ele>1926.3</ele>
        <time>2016-03-22T11:04:33Z</time>
      </trkpt>
      <trkpt lat="46.37185" lon="6.74271">
        <ele>1925</ele>
        <time>2016-03-22T11:04:43Z</time>
      </trkpt>
      <trkpt lat="46.37185" lon="6.74271">
        <ele>1924.4</ele>
        <time>2016-03-22T11:04:44Z</time>
      </trkpt>
      <trkpt lat="46.37184" lon="6.74269">
        <ele>1923.5</ele>
        <time>2016-03-22T11:04:52Z</time>
      </trkpt>
      <trkpt lat="46.37184" lon="6.74269">
        <ele>1923.4</ele>
        <time>2016-03-22T11:04:54Z</time>
      </trkpt>
      <trkpt lat="46.37189" lon="6.74263">
        <ele>1922.6</ele>
        <time>2016-03-22T11:05:12Z</time>
      </trkpt>
      <trkpt lat="46.37196" lon="6.74258">
        <ele>1921.3</ele>
        <time>2016-03-22T11:05:16Z</time>
      </trkpt>
      <trkpt lat="46.37203" lon="6.7425">
        <ele>1920.8</ele>
        <time>2016-03-22T11:05:18Z</time>
      </trkpt>
      <trkpt lat="46.37209" lon="6.74238">
        <ele>1919.6</ele>
        <time>2016-03-22T11:05:22Z</time>
      </trkpt>
      <trkpt lat="46.37212" lon="6.74228">
        <ele>1919</ele>
        <time>2016-03-22T11:05:23Z</time>
      </trkpt>
      <trkpt lat="46.37216" lon="6.74217">
        <ele>1917.6</ele>
        <time>2016-03-22T11:05:26Z</time>
      </trkpt>
      <trkpt lat="46.37222" lon="6.7421">
        <ele>1916.8</ele>
        <time>2016-03-22T11:05:26Z</time>
      </trkpt>
      <trkpt lat="46.37234" lon="6.74209">
        <ele>1914.1</ele>
        <time>2016-03-22T11:05:29Z</time>
      </trkpt>
      <trkpt lat="46.37243" lon="6.74198">
        <ele>1911</ele>
        <time>2016-03-22T11:05:31Z</time>
      </trkpt>
      <trkpt lat="46.37248" lon="6.74181">
        <ele>1907.8</ele>
        <time>2016-03-22T11:05:32Z</time>
      </trkpt>
      <trkpt lat="46.37259" lon="6.74177">
        <ele>1904</ele>
        <time>2016-03-22T11:05:35Z</time>
      </trkpt>
      <trkpt lat="46.37268" lon="6.74165">
        <ele>1901.1</ele>
        <time>2016-03-22T11:05:36Z</time>
      </trkpt>
      <trkpt lat="46.37279" lon="6.74152">
        <ele>1896.3</ele>
        <time>2016-03-22T11:05:39Z</time>
      </trkpt>
      <trkpt lat="46.37291" lon="6.74147">
        <ele>1891.6</ele>
        <time>2016-03-22T11:05:40Z</time>
      </trkpt>
      <trkpt lat="46.37298" lon="6.74139">
        <ele>1888.9</ele>
        <time>2016-03-22T11:05:41Z</time>
      </trkpt>
      <trkpt lat="46.37304" lon="6.74131">
        <ele>1886.4</ele>
        <time>2016-03-22T11:05:43Z</time>
      </trkpt>
      <trkpt lat="46.37307" lon="6.74119">
        <ele>1883.6</ele>
        <time>2016-03-22T11:05:44Z</time>
      </trkpt>
      <trkpt lat="46.37313" lon="6.74109">
        <ele>1880.6</ele>
        <time>2016-03-22T11:05:44Z</time>
      </trkpt>
      <trkpt lat="46.37322" lon="6.74107">
        <ele>1878.9</ele>
        <time>2016-03-22T11:05:46Z</time>
      </trkpt>
      <trkpt lat="46.3733" lon="6.74102">
        <ele>1877.3</ele>
        <time>2016-03-22T11:05:46Z</time>
      </trkpt>
      <trkpt lat="46.37334" lon="6.74093">
        <ele>1875</ele>
        <time>2016-03-22T11:05:48Z</time>
      </trkpt>
      <trkpt lat="46.37338" lon="6.74083">
        <ele>1873.1</ele>
        <time>2016-03-22T11:05:49Z</time>
      </trkpt>
      <trkpt lat="46.37345" lon="6.74074">
        <ele>1870.5</ele>
        <time>2016-03-22T11:05:50Z</time>
      </trkpt>
      <trkpt lat="46.37352" lon="6.7407">
        <ele>1867.5</ele>
        <time>2016-03-22T11:05:50Z</time>
      </trkpt>
      <trkpt lat="46.3736" lon="6.74065">
        <ele>1865.1</ele>
        <time>2016-03-22T11:05:51Z</time>
      </trkpt>
      <trkpt lat="46.37366" lon="6.74058">
        <ele>1862.4</ele>
        <time>2016-03-22T11:05:53Z</time>
      </trkpt>
      <trkpt lat="46.37371" lon="6.74048">
        <ele>1861.6</ele>
        <time>2016-03-22T11:05:54Z</time>
      </trkpt>
      <trkpt lat="46.37375" lon="6.74039">
        <ele>1860.6</ele>
        <time>2016-03-22T11:05:54Z</time>
      </trkpt>
      <trkpt lat="46.37383" lon="6.74032">
        <ele>1855.5</ele>
        <time>2016-03-22T11:05:55Z</time>
      </trkpt>
      <trkpt lat="46.3739" lon="6.74025">
        <ele>1852.6</ele>
        <time>2016-03-22T11:05:57Z</time>
      </trkpt>
      <trkpt lat="46.37399" lon="6.74021">
        <ele>1849.3</ele>
        <time>2016-03-22T11:05:58Z</time>
      </trkpt>
      <trkpt lat="46.37404" lon="6.74012">
        <ele>1847.3</ele>
        <time>2016-03-22T11:05:59Z</time>
      </trkpt>
      <trkpt lat="46.37407" lon="6.73999">
        <ele>1845</ele>
        <time>2016-03-22T11:05:59Z</time>
      </trkpt>
      <trkpt lat="46.37413" lon="6.73989">
        <ele>1842.4</ele>
        <time>2016-03-22T11:06:01Z</time>
      </trkpt>
      <trkpt lat="46.37418" lon="6.73978">
        <ele>1840</ele>
        <time>2016-03-22T11:06:02Z</time>
      </trkpt>
      <trkpt lat="46.37425" lon="6.73972">
        <ele>1839</ele>
        <time>2016-03-22T11:06:03Z</time>
      </trkpt>
      <trkpt lat="46.37427" lon="6.73962">
        <ele>1836.3</ele>
        <time>2016-03-22T11:06:03Z</time>
      </trkpt>
      <trkpt lat="46.37427" lon="6.73951">
        <ele>1833.9</ele>
        <time>2016-03-22T11:06:04Z</time>
      </trkpt>
      <trkpt lat="46.37428" lon="6.73937">
        <ele>1832.9</ele>
        <time>2016-03-22T11:06:06Z</time>
      </trkpt>
      <trkpt lat="46.37431" lon="6.73926">
        <ele>1830.5</ele>
        <time>2016-03-22T11:06:07Z</time>
      </trkpt>
      <trkpt lat="46.37437" lon="6.73915">
        <ele>1828.5</ele>
        <time>2016-03-22T11:06:07Z</time>
      </trkpt>
      <trkpt lat="46.37441" lon="6.73904">
        <ele>1825.8</ele>
        <time>2016-03-22T11:06:09Z</time>
      </trkpt>
      <trkpt lat="46.37445" lon="6.73891">
        <ele>1823.6</ele>
        <time>2016-03-22T11:06:10Z</time>
      </trkpt>
      <trkpt lat="46.37452" lon="6.73879">
        <ele>1822</ele>
        <time>2016-03-22T11:06:11Z</time>
      </trkpt>
      <trkpt lat="46.3746" lon="6.73871">
        <ele>1820.3</ele>
        <time>2016-03-22T11:06:11Z</time>
      </trkpt>
      <trkpt lat="46.37467" lon="6.7386">
        <ele>1819</ele>
        <time>2016-03-22T11:06:13Z</time>
      </trkpt>
      <trkpt lat="46.37472" lon="6.73847">
        <ele>1818.4</ele>
        <time>2016-03-22T11:06:13Z</time>
      </trkpt>
      <trkpt lat="46.37477" lon="6.73835">
        <ele>1816.5</ele>
        <time>2016-03-22T11:06:15Z</time>
      </trkpt>
      <trkpt lat="46.37479" lon="6.73822">
        <ele>1815.3</ele>
        <time>2016-03-22T11:06:15Z</time>
      </trkpt>
      <trkpt lat="46.37479" lon="6.73809">
        <ele>1814.1</ele>
        <time>2016-03-22T11:06:16Z</time>
      </trkpt>
      <trkpt lat="46.3748" lon="6.73798">
        <ele>1813.1</ele>
        <time>2016-03-22T11:06:17Z</time>
      </trkpt>
      <trkpt lat="46.37482" lon="6.73786">
        <ele>1812.4</ele>
        <time>2016-03-22T11:06:19Z</time>
      </trkpt>
      <trkpt lat="46.3749" lon="6.73784">
        <ele>1810.5</ele>
        <time>2016-03-22T11:06:20Z</time>
      </trkpt>
      <trkpt lat="46.37493" lon="6.73763">
        <ele>1807.3</ele>
        <time>2016-03-22T11:06:21Z</time>
      </trkpt>
      <trkpt lat="46.37493" lon="6.73751">
        <ele>1805.5</ele>
        <time>2016-03-22T11:06:22Z</time>
      </trkpt>
      <trkpt lat="46.37492" lon="6.73741">
        <ele>1804.4</ele>
        <time>2016-03-22T11:06:24Z</time>
      </trkpt>
      <trkpt lat="46.37491" lon="6.7373">
        <ele>1802.8</ele>
        <time>2016-03-22T11:06:25Z</time>
      </trkpt>
      <trkpt lat="46.37488" lon="6.73712">
        <ele>1801</ele>
        <time>2016-03-22T11:06:26Z</time>
      </trkpt>
      <trkpt lat="46.37482" lon="6.73702">
        <ele>1799.5</ele>
        <time>2016-03-22T11:06:29Z</time>
      </trkpt>
      <trkpt lat="46.37483" lon="6.73685">
        <ele>1794.6</ele>
        <time>2016-03-22T11:06:30Z</time>
      </trkpt>
      <trkpt lat="46.37493" lon="6.73672">
        <ele>1788</ele>
        <time>2016-03-22T11:06:33Z</time>
      </trkpt>
      <trkpt lat="46.37507" lon="6.73663">
        <ele>1784</ele>
        <time>2016-03-22T11:06:35Z</time>
      </trkpt>
      <trkpt lat="46.37511" lon="6.73645">
        <ele>1779.4</ele>
        <time>2016-03-22T11:06:37Z</time>
      </trkpt>
      <trkpt lat="46.37513" lon="6.73635">
        <ele>1777.5</ele>
        <time>2016-03-22T11:06:38Z</time>
      </trkpt>
      <trkpt lat="46.37517" lon="6.73623">
        <ele>1772.5</ele>
        <time>2016-03-22T11:06:39Z</time>
      </trkpt>
      <trkpt lat="46.37523" lon="6.73614">
        <ele>1768.4</ele>
        <time>2016-03-22T11:06:39Z</time>
      </trkpt>
      <trkpt lat="46.37529" lon="6.73606">
        <ele>1766.1</ele>
        <time>2016-03-22T11:06:41Z</time>
      </trkpt>
      <trkpt lat="46.37533" lon="6.73597">
        <ele>1762.6</ele>
        <time>2016-03-22T11:06:41Z</time>
      </trkpt>
      <trkpt lat="46.37535" lon="6.73586">
        <ele>1760.5</ele>
        <time>2016-03-22T11:06:43Z</time>
      </trkpt>
      <trkpt lat="46.37537" lon="6.73574">
        <ele>1759</ele>
        <time>2016-03-22T11:06:43Z</time>
      </trkpt>
      <trkpt lat="46.37541" lon="6.73564">
        <ele>1756.5</ele>
        <time>2016-03-22T11:06:44Z</time>
      </trkpt>
      <trkpt lat="46.37545" lon="6.73556">
        <ele>1755.1</ele>
        <time>2016-03-22T11:06:45Z</time>
      </trkpt>
      <trkpt lat="46.3755" lon="6.73546">
        <ele>1754</ele>
        <time>2016-03-22T11:06:47Z</time>
      </trkpt>
      <trkpt lat="46.37554" lon="6.73537">
        <ele>1753.1</ele>
        <time>2016-03-22T11:06:47Z</time>
      </trkpt>
      <trkpt lat="46.37553" lon="6.73526">
        <ele>1752.9</ele>
        <time>2016-03-22T11:06:49Z</time>
      </trkpt>
      <trkpt lat="46.37554" lon="6.73503">
        <ele>1749.9</ele>
        <time>2016-03-22T11:06:50Z</time>
      </trkpt>
      <trkpt lat="46.37556" lon="6.73493">
        <ele>1748.5</ele>
        <time>2016-03-22T11:06:52Z</time>
      </trkpt>
      <trkpt lat="46.37559" lon="6.73481">
        <ele>1747.6</ele>
        <time>2016-03-22T11:06:53Z</time>
      </trkpt>
      <trkpt lat="46.37559" lon="6.73469">
        <ele>1744.5</ele>
        <time>2016-03-22T11:06:54Z</time>
      </trkpt>
      <trkpt lat="46.37558" lon="6.73455">
        <ele>1743</ele>
        <time>2016-03-22T11:06:54Z</time>
      </trkpt>
      <trkpt lat="46.37558" lon="6.73442">
        <ele>1742.1</ele>
        <time>2016-03-22T11:06:56Z</time>
      </trkpt>
      <trkpt lat="46.37558" lon="6.73429">
        <ele>1741.4</ele>
        <time>2016-03-22T11:06:57Z</time>
      </trkpt>
      <trkpt lat="46.37556" lon="6.73415">
        <ele>1741</ele>
        <time>2016-03-22T11:06:58Z</time>
      </trkpt>
      <trkpt lat="46.37554" lon="6.73405">
        <ele>1741</ele>
        <time>2016-03-22T11:06:58Z</time>
      </trkpt>
      <trkpt lat="46.37551" lon="6.73394">
        <ele>1741</ele>
        <time>2016-03-22T11:06:59Z</time>
      </trkpt>
      <trkpt lat="46.37548" lon="6.73384">
        <ele>1741.5</ele>
        <time>2016-03-22T11:07:01Z</time>
      </trkpt>
      <trkpt lat="46.37541" lon="6.73366">
        <ele>1740.5</ele>
        <time>2016-03-22T11:07:03Z</time>
      </trkpt>
      <trkpt lat="46.37537" lon="6.73357">
        <ele>1740.5</ele>
        <time>2016-03-22T11:07:03Z</time>
      </trkpt>
      <trkpt lat="46.37533" lon="6.73347">
        <ele>1740.5</ele>
        <time>2016-03-22T11:07:05Z</time>
      </trkpt>
      <trkpt lat="46.37529" lon="6.73336">
        <ele>1739.9</ele>
        <time>2016-03-22T11:07:06Z</time>
      </trkpt>
      <trkpt lat="46.37526" lon="6.73324">
        <ele>1739.6</ele>
        <time>2016-03-22T11:07:06Z</time>
      </trkpt>
      <trkpt lat="46.37522" lon="6.7331">
        <ele>1739.4</ele>
        <time>2016-03-22T11:07:07Z</time>
      </trkpt>
      <trkpt lat="46.37519" lon="6.73296">
        <ele>1739</ele>
        <time>2016-03-22T11:07:09Z</time>
      </trkpt>
      <trkpt lat="46.37517" lon="6.73282">
        <ele>1738</ele>
        <time>2016-03-22T11:07:10Z</time>
      </trkpt>
      <trkpt lat="46.37515" lon="6.7327">
        <ele>1737.6</ele>
        <time>2016-03-22T11:07:10Z</time>
      </trkpt>
      <trkpt lat="46.37514" lon="6.73248">
        <ele>1735.5</ele>
        <time>2016-03-22T11:07:13Z</time>
      </trkpt>
      <trkpt lat="46.37521" lon="6.73251">
        <ele>1730.5</ele>
        <time>2016-03-22T11:07:14Z</time>
      </trkpt>
      <trkpt lat="46.37521" lon="6.73251">
        <ele>1727.9</ele>
        <time>2016-03-22T11:07:22Z</time>
      </trkpt>
      <trkpt lat="46.37521" lon="6.73255">
        <ele>1727.1</ele>
        <time>2016-03-22T11:07:29Z</time>
      </trkpt>
      <trkpt lat="46.37525" lon="6.7326">
        <ele>1725</ele>
        <time>2016-03-22T11:07:35Z</time>
      </trkpt>
      <trkpt lat="46.37535" lon="6.73251">
        <ele>1720.8</ele>
        <time>2016-03-22T11:07:40Z</time>
      </trkpt>
      <trkpt lat="46.37544" lon="6.73244">
        <ele>1719.1</ele>
        <time>2016-03-22T11:07:40Z</time>
      </trkpt>
      <trkpt lat="46.37552" lon="6.73229">
        <ele>1717</ele>
        <time>2016-03-22T11:07:43Z</time>
      </trkpt>
      <trkpt lat="46.37557" lon="6.73216">
        <ele>1717.6</ele>
        <time>2016-03-22T11:07:45Z</time>
      </trkpt>
      <trkpt lat="46.37559" lon="6.73205">
        <ele>1717.8</ele>
        <time>2016-03-22T11:07:48Z</time>
      </trkpt>
      <trkpt lat="46.37562" lon="6.73193">
        <ele>1716.1</ele>
        <time>2016-03-22T11:07:52Z</time>
      </trkpt>
      <trkpt lat="46.37565" lon="6.73181">
        <ele>1715.1</ele>
        <time>2016-03-22T11:07:57Z</time>
      </trkpt>
      <trkpt lat="46.37567" lon="6.73168">
        <ele>1713.5</ele>
        <time>2016-03-22T11:08:00Z</time>
      </trkpt>
      <trkpt lat="46.37568" lon="6.73157">
        <ele>1713.4</ele>
        <time>2016-03-22T11:08:02Z</time>
      </trkpt>
      <trkpt lat="46.3757" lon="6.73146">
        <ele>1712.3</ele>
        <time>2016-03-22T11:08:03Z</time>
      </trkpt>
      <trkpt lat="46.37571" lon="6.73135">
        <ele>1711.9</ele>
        <time>2016-03-22T11:08:06Z</time>
      </trkpt>
      <trkpt lat="46.37573" lon="6.73124">
        <ele>1710.9</ele>
        <time>2016-03-22T11:08:08Z</time>
      </trkpt>
      <trkpt lat="46.37575" lon="6.73114">
        <ele>1710.6</ele>
        <time>2016-03-22T11:08:10Z</time>
      </trkpt>
      <trkpt lat="46.37576" lon="6.73103">
        <ele>1709</ele>
        <time>2016-03-22T11:08:14Z</time>
      </trkpt>
      <trkpt lat="46.37576" lon="6.73105">
        <ele>1709.3</ele>
        <time>2016-03-22T11:08:19Z</time>
      </trkpt>
      <trkpt lat="46.37579" lon="6.7309">
        <ele>1706.9</ele>
        <time>2016-03-22T11:08:25Z</time>
      </trkpt>
      <trkpt lat="46.37581" lon="6.7308">
        <ele>1706.4</ele>
        <time>2016-03-22T11:08:26Z</time>
      </trkpt>
      <trkpt lat="46.37582" lon="6.73069">
        <ele>1705.9</ele>
        <time>2016-03-22T11:08:29Z</time>
      </trkpt>
      <trkpt lat="46.37583" lon="6.73059">
        <ele>1705.4</ele>
        <time>2016-03-22T11:08:30Z</time>
      </trkpt>
      <trkpt lat="46.37586" lon="6.73046">
        <ele>1704.6</ele>
        <time>2016-03-22T11:08:33Z</time>
      </trkpt>
      <trkpt lat="46.37589" lon="6.73035">
        <ele>1704</ele>
        <time>2016-03-22T11:08:37Z</time>
      </trkpt>
      <trkpt lat="46.37592" lon="6.73023">
        <ele>1704</ele>
        <time>2016-03-22T11:08:39Z</time>
      </trkpt>
      <trkpt lat="46.376" lon="6.73019">
        <ele>1699.9</ele>
        <time>2016-03-22T11:08:43Z</time>
      </trkpt>
      <trkpt lat="46.37616" lon="6.7303">
        <ele>1695.4</ele>
        <time>2016-03-22T11:08:44Z</time>
      </trkpt>
      <trkpt lat="46.37624" lon="6.73029">
        <ele>1694</ele>
        <time>2016-03-22T11:08:46Z</time>
      </trkpt>
      <trkpt lat="46.37631" lon="6.73031">
        <ele>1690.6</ele>
        <time>2016-03-22T11:08:47Z</time>
      </trkpt>
      <trkpt lat="46.37638" lon="6.73035">
        <ele>1688.8</ele>
        <time>2016-03-22T11:08:47Z</time>
      </trkpt>
      <trkpt lat="46.37646" lon="6.73036">
        <ele>1686.5</ele>
        <time>2016-03-22T11:08:49Z</time>
      </trkpt>
      <trkpt lat="46.37653" lon="6.73033">
        <ele>1684.5</ele>
        <time>2016-03-22T11:08:49Z</time>
      </trkpt>
      <trkpt lat="46.37662" lon="6.73033">
        <ele>1682.3</ele>
        <time>2016-03-22T11:08:51Z</time>
      </trkpt>
      <trkpt lat="46.3767" lon="6.73037">
        <ele>1680.5</ele>
        <time>2016-03-22T11:08:52Z</time>
      </trkpt>
      <trkpt lat="46.37683" lon="6.73031">
        <ele>1674.5</ele>
        <time>2016-03-22T11:08:53Z</time>
      </trkpt>
      <trkpt lat="46.37691" lon="6.7303">
        <ele>1671.6</ele>
        <time>2016-03-22T11:08:55Z</time>
      </trkpt>
      <trkpt lat="46.37699" lon="6.73031">
        <ele>1669.6</ele>
        <time>2016-03-22T11:08:56Z</time>
      </trkpt>
      <trkpt lat="46.37706" lon="6.7303">
        <ele>1666.5</ele>
        <time>2016-03-22T11:08:57Z</time>
      </trkpt>
      <trkpt lat="46.37716" lon="6.73019">
        <ele>1663.6</ele>
        <time>2016-03-22T11:08:59Z</time>
      </trkpt>
      <trkpt lat="46.37727" lon="6.7301">
        <ele>1661.1</ele>
        <time>2016-03-22T11:09:01Z</time>
      </trkpt>
      <trkpt lat="46.37739" lon="6.73011">
        <ele>1659.5</ele>
        <time>2016-03-22T11:09:02Z</time>
      </trkpt>
      <trkpt lat="46.37748" lon="6.73004">
        <ele>1658.1</ele>
        <time>2016-03-22T11:09:05Z</time>
      </trkpt>
      <trkpt lat="46.37749" lon="6.72997">
        <ele>1657</ele>
        <time>2016-03-22T11:09:11Z</time>
      </trkpt>
      <trkpt lat="46.37749" lon="6.72997">
        <ele>1656.6</ele>
        <time>2016-03-22T11:09:15Z</time>
      </trkpt>
      <trkpt lat="46.37754" lon="6.72988">
        <ele>1656.4</ele>
        <time>2016-03-22T11:09:20Z</time>
      </trkpt>
      <trkpt lat="46.37759" lon="6.72979">
        <ele>1654.6</ele>
        <time>2016-03-22T11:09:23Z</time>
      </trkpt>
      <trkpt lat="46.37764" lon="6.72969">
        <ele>1653.4</ele>
        <time>2016-03-22T11:09:24Z</time>
      </trkpt>
      <trkpt lat="46.37765" lon="6.72952">
        <ele>1651.8</ele>
        <time>2016-03-22T11:09:26Z</time>
      </trkpt>
      <trkpt lat="46.37763" lon="6.72937">
        <ele>1650.9</ele>
        <time>2016-03-22T11:09:28Z</time>
      </trkpt>
      <trkpt lat="46.37762" lon="6.72922">
        <ele>1650.3</ele>
        <time>2016-03-22T11:09:30Z</time>
      </trkpt>
      <trkpt lat="46.37763" lon="6.72905">
        <ele>1648.6</ele>
        <time>2016-03-22T11:09:33Z</time>
      </trkpt>
      <trkpt lat="46.3777" lon="6.72889">
        <ele>1645.5</ele>
        <time>2016-03-22T11:09:34Z</time>
      </trkpt>
      <trkpt lat="46.37775" lon="6.7288">
        <ele>1644</ele>
        <time>2016-03-22T11:09:35Z</time>
      </trkpt>
      <trkpt lat="46.3778" lon="6.7287">
        <ele>1642.8</ele>
        <time>2016-03-22T11:09:36Z</time>
      </trkpt>
      <trkpt lat="46.3778" lon="6.7286">
        <ele>1641.5</ele>
        <time>2016-03-22T11:09:38Z</time>
      </trkpt>
      <trkpt lat="46.37776" lon="6.72842">
        <ele>1640.9</ele>
        <time>2016-03-22T11:09:39Z</time>
      </trkpt>
      <trkpt lat="46.37773" lon="6.72823">
        <ele>1639</ele>
        <time>2016-03-22T11:09:42Z</time>
      </trkpt>
      <trkpt lat="46.37775" lon="6.728">
        <ele>1637.8</ele>
        <time>2016-03-22T11:09:43Z</time>
      </trkpt>
      <trkpt lat="46.37773" lon="6.72785">
        <ele>1635.5</ele>
        <time>2016-03-22T11:09:46Z</time>
      </trkpt>
      <trkpt lat="46.37769" lon="6.7277">
        <ele>1634.8</ele>
        <time>2016-03-22T11:09:47Z</time>
      </trkpt>
      <trkpt lat="46.3777" lon="6.72759">
        <ele>1632.9</ele>
        <time>2016-03-22T11:09:48Z</time>
      </trkpt>
      <trkpt lat="46.37771" lon="6.72748">
        <ele>1631.6</ele>
        <time>2016-03-22T11:09:50Z</time>
      </trkpt>
      <trkpt lat="46.37772" lon="6.72724">
        <ele>1630.4</ele>
        <time>2016-03-22T11:09:51Z</time>
      </trkpt>
      <trkpt lat="46.3778" lon="6.72709">
        <ele>1626.9</ele>
        <time>2016-03-22T11:09:54Z</time>
      </trkpt>
      <trkpt lat="46.37787" lon="6.72692">
        <ele>1624.5</ele>
        <time>2016-03-22T11:09:55Z</time>
      </trkpt>
      <trkpt lat="46.37792" lon="6.72676">
        <ele>1622.6</ele>
        <time>2016-03-22T11:09:58Z</time>
      </trkpt>
      <trkpt lat="46.378" lon="6.72662">
        <ele>1620.5</ele>
        <time>2016-03-22T11:09:59Z</time>
      </trkpt>
      <trkpt lat="46.37812" lon="6.7266">
        <ele>1618.5</ele>
        <time>2016-03-22T11:10:02Z</time>
      </trkpt>
      <trkpt lat="46.37823" lon="6.72646">
        <ele>1617</ele>
        <time>2016-03-22T11:10:04Z</time>
      </trkpt>
      <trkpt lat="46.37838" lon="6.72645">
        <ele>1613.6</ele>
        <time>2016-03-22T11:10:05Z</time>
      </trkpt>
      <trkpt lat="46.37846" lon="6.72647">
        <ele>1613</ele>
        <time>2016-03-22T11:10:06Z</time>
      </trkpt>
      <trkpt lat="46.37861" lon="6.72644">
        <ele>1612.1</ele>
        <time>2016-03-22T11:10:09Z</time>
      </trkpt>
      <trkpt lat="46.37862" lon="6.72633">
        <ele>1608.4</ele>
        <time>2016-03-22T11:10:10Z</time>
      </trkpt>
      <trkpt lat="46.37867" lon="6.72618">
        <ele>1606.5</ele>
        <time>2016-03-22T11:10:13Z</time>
      </trkpt>
      <trkpt lat="46.37869" lon="6.726">
        <ele>1605.3</ele>
        <time>2016-03-22T11:10:14Z</time>
      </trkpt>
      <trkpt lat="46.37869" lon="6.72588">
        <ele>1604.6</ele>
        <time>2016-03-22T11:10:15Z</time>
      </trkpt>
      <trkpt lat="46.37868" lon="6.72577">
        <ele>1603.8</ele>
        <time>2016-03-22T11:10:17Z</time>
      </trkpt>
      <trkpt lat="46.37866" lon="6.72564">
        <ele>1602.8</ele>
        <time>2016-03-22T11:10:18Z</time>
      </trkpt>
      <trkpt lat="46.37863" lon="6.72543">
        <ele>1601.6</ele>
        <time>2016-03-22T11:10:20Z</time>
      </trkpt>
      <trkpt lat="46.37859" lon="6.72521">
        <ele>1600.5</ele>
        <time>2016-03-22T11:10:22Z</time>
      </trkpt>
      <trkpt lat="46.37857" lon="6.72509">
        <ele>1600.4</ele>
        <time>2016-03-22T11:10:23Z</time>
      </trkpt>
      <trkpt lat="46.37856" lon="6.72498">
        <ele>1599.9</ele>
        <time>2016-03-22T11:10:24Z</time>
      </trkpt>
      <trkpt lat="46.37853" lon="6.72482">
        <ele>1598.5</ele>
        <time>2016-03-22T11:10:25Z</time>
      </trkpt>
      <trkpt lat="46.37846" lon="6.72475">
        <ele>1598.1</ele>
        <time>2016-03-22T11:10:28Z</time>
      </trkpt>
      <trkpt lat="46.37846" lon="6.72473">
        <ele>1593.6</ele>
        <time>2016-03-22T11:10:35Z</time>
      </trkpt>
      <trkpt lat="46.37846" lon="6.72473">
        <ele>1593.6</ele>
        <time>2016-03-22T11:10:38Z</time>
      </trkpt>
      <trkpt lat="46.37849" lon="6.72473">
        <ele>1593.5</ele>
        <time>2016-03-22T11:10:46Z</time>
      </trkpt>
      <trkpt lat="46.37852" lon="6.72468">
        <ele>1591.9</ele>
        <time>2016-03-22T11:10:54Z</time>
      </trkpt>
      <trkpt lat="46.37852" lon="6.72467">
        <ele>1592</ele>
        <time>2016-03-22T11:10:57Z</time>
      </trkpt>
      <trkpt lat="46.37854" lon="6.72464">
        <ele>1592.8</ele>
        <time>2016-03-22T11:11:15Z</time>
      </trkpt>
      <trkpt lat="46.37854" lon="6.72463">
        <ele>1592</ele>
        <time>2016-03-22T11:11:17Z</time>
      </trkpt>
      <trkpt lat="46.37862" lon="6.7246">
        <ele>1600</ele>
        <time>2016-03-22T11:11:26Z</time>
      </trkpt>
      <trkpt lat="46.3787" lon="6.72457">
        <ele>1604.5</ele>
        <time>2016-03-22T11:11:31Z</time>
      </trkpt>
      <trkpt lat="46.37877" lon="6.72454">
        <ele>1608.8</ele>
        <time>2016-03-22T11:11:36Z</time>
      </trkpt>
      <trkpt lat="46.37885" lon="6.7245">
        <ele>1610.5</ele>
        <time>2016-03-22T11:11:41Z</time>
      </trkpt>
      <trkpt lat="46.37893" lon="6.72447">
        <ele>1614.3</ele>
        <time>2016-03-22T11:11:46Z</time>
      </trkpt>
      <trkpt lat="46.37901" lon="6.72443">
        <ele>1617.9</ele>
        <time>2016-03-22T11:11:50Z</time>
      </trkpt>
      <trkpt lat="46.37908" lon="6.7244">
        <ele>1620.9</ele>
        <time>2016-03-22T11:11:56Z</time>
      </trkpt>
      <trkpt lat="46.37915" lon="6.72437">
        <ele>1622.9</ele>
        <time>2016-03-22T11:12:01Z</time>
      </trkpt>
      <trkpt lat="46.37923" lon="6.72433">
        <ele>1626.3</ele>
        <time>2016-03-22T11:12:07Z</time>
      </trkpt>
      <trkpt lat="46.37931" lon="6.72429">
        <ele>1629.9</ele>
        <time>2016-03-22T11:12:13Z</time>
      </trkpt>
      <trkpt lat="46.37938" lon="6.72425">
        <ele>1632.8</ele>
        <time>2016-03-22T11:12:18Z</time>
      </trkpt>
      <trkpt lat="46.37946" lon="6.72421">
        <ele>1634.8</ele>
        <time>2016-03-22T11:12:24Z</time>
      </trkpt>
      <trkpt lat="46.37953" lon="6.72418">
        <ele>1637.8</ele>
        <time>2016-03-22T11:12:31Z</time>
      </trkpt>
      <trkpt lat="46.37959" lon="6.72414">
        <ele>1642.4</ele>
        <time>2016-03-22T11:12:36Z</time>
      </trkpt>
      <trkpt lat="46.37966" lon="6.72409">
        <ele>1642.8</ele>
        <time>2016-03-22T11:12:41Z</time>
      </trkpt>
      <trkpt lat="46.37973" lon="6.72403">
        <ele>1643.8</ele>
        <time>2016-03-22T11:12:48Z</time>
      </trkpt>
      <trkpt lat="46.37976" lon="6.72397">
        <ele>1645.5</ele>
        <time>2016-03-22T11:12:55Z</time>
      </trkpt>
      <trkpt lat="46.37976" lon="6.72397">
        <ele>1645.8</ele>
        <time>2016-03-22T11:12:55Z</time>
      </trkpt>
      <trkpt lat="46.37977" lon="6.72388">
        <ele>1644.9</ele>
        <time>2016-03-22T11:13:04Z</time>
      </trkpt>
      <trkpt lat="46.37977" lon="6.72387">
        <ele>1645</ele>
        <time>2016-03-22T11:13:04Z</time>
      </trkpt>
      <trkpt lat="46.37978" lon="6.72384">
        <ele>1645.5</ele>
        <time>2016-03-22T11:13:13Z</time>
      </trkpt>
      <trkpt lat="46.37978" lon="6.72384">
        <ele>1645.8</ele>
        <time>2016-03-22T11:13:13Z</time>
      </trkpt>
      <trkpt lat="46.3798" lon="6.72379">
        <ele>1647.8</ele>
        <time>2016-03-22T11:13:22Z</time>
      </trkpt>
      <trkpt lat="46.3798" lon="6.72379">
        <ele>1647.8</ele>
        <time>2016-03-22T11:13:22Z</time>
      </trkpt>
      <trkpt lat="46.3798" lon="6.72373">
        <ele>1647.8</ele>
        <time>2016-03-22T11:13:31Z</time>
      </trkpt>
      <trkpt lat="46.3798" lon="6.72372">
        <ele>1647.8</ele>
        <time>2016-03-22T11:13:32Z</time>
      </trkpt>
      <trkpt lat="46.37976" lon="6.7237">
        <ele>1648.4</ele>
        <time>2016-03-22T11:13:44Z</time>
      </trkpt>
      <trkpt lat="46.37976" lon="6.7237">
        <ele>1648.3</ele>
        <time>2016-03-22T11:13:46Z</time>
      </trkpt>
      <trkpt lat="46.37975" lon="6.72371">
        <ele>1648.1</ele>
        <time>2016-03-22T11:13:59Z</time>
      </trkpt>
      <trkpt lat="46.37974" lon="6.72371">
        <ele>1648</ele>
        <time>2016-03-22T11:14:00Z</time>
      </trkpt>
      <trkpt lat="46.37971" lon="6.72367">
        <ele>1642.9</ele>
        <time>2016-03-22T11:14:52Z</time>
      </trkpt>
      <trkpt lat="46.3797" lon="6.72366">
        <ele>1642.4</ele>
        <time>2016-03-22T11:14:53Z</time>
      </trkpt>
      <trkpt lat="46.37968" lon="6.72359">
        <ele>1634.5</ele>
        <time>2016-03-22T11:15:01Z</time>
      </trkpt>
      <trkpt lat="46.37968" lon="6.72358">
        <ele>1634</ele>
        <time>2016-03-22T11:15:02Z</time>
      </trkpt>
      <trkpt lat="46.37967" lon="6.72355">
        <ele>1639</ele>
        <time>2016-03-22T11:15:10Z</time>
      </trkpt>
      <trkpt lat="46.37967" lon="6.72355">
        <ele>1639.3</ele>
        <time>2016-03-22T11:15:11Z</time>
      </trkpt>
      <trkpt lat="46.37965" lon="6.72354">
        <ele>1641.1</ele>
        <time>2016-03-22T11:15:49Z</time>
      </trkpt>
      <trkpt lat="46.37965" lon="6.72354">
        <ele>1641.3</ele>
        <time>2016-03-22T11:15:51Z</time>
      </trkpt>
      <trkpt lat="46.37966" lon="6.72354">
        <ele>1643</ele>
        <time>2016-03-22T11:16:03Z</time>
      </trkpt>
      <trkpt lat="46.37966" lon="6.72354">
        <ele>1643</ele>
        <time>2016-03-22T11:16:04Z</time>
      </trkpt>
    </trkseg>
  </trk>
</gpx>